<?xml version="1.0" encoding="UTF-8" standalone="no" ?>
<gpx xmlns="http://www.topografix.com/GPX/1/1" xmlns:xsi="http://www.w3.org/2001/XMLSchema-instance" xsi:schemaLocation="http://www.topografix.com/GPX/1/1 http://www.topografix.com/GPX/1/1/gpx.xsd" version="1.1" creator="VisuGPX - https://www.visugpx.com">
  <metadata>
    <name>Montfaucon visu GPX</name>
    <desc><![CDATA[26 mars à pied en 3h]]></desc>
  </metadata>
  <trk>
    <name><![CDATA[26_03_2016_11_27_20]]></name>
    <trkseg>
      <trkpt lat="47.23385" lon="6.03717">
        <ele>234</ele>
        <time>2016-3-26T11:30:1.000Z</time>
      </trkpt>
      <trkpt lat="47.23383" lon="6.03718">
        <ele>234</ele>
        <time>2016-3-26T11:30:1.000Z</time>
      </trkpt>
      <trkpt lat="47.23381" lon="6.03719">
        <ele>235</ele>
        <time>2016-3-26T11:30:1.000Z</time>
      </trkpt>
      <trkpt lat="47.23379" lon="6.0372">
        <ele>233</ele>
        <time>2016-3-26T11:30:1.000Z</time>
      </trkpt>
      <trkpt lat="47.23376" lon="6.03721">
        <ele>234</ele>
        <time>2016-3-26T11:30:1.000Z</time>
      </trkpt>
      <trkpt lat="47.23374" lon="6.03722">
        <ele>233</ele>
        <time>2016-3-26T11:30:1.000Z</time>
      </trkpt>
      <trkpt lat="47.23372" lon="6.03723">
        <ele>234</ele>
        <time>2016-3-26T11:30:1.000Z</time>
      </trkpt>
      <trkpt lat="47.23369" lon="6.03725">
        <ele>234</ele>
        <time>2016-3-26T11:30:1.000Z</time>
      </trkpt>
      <trkpt lat="47.23367" lon="6.03726">
        <ele>234</ele>
        <time>2016-3-26T11:30:1.000Z</time>
      </trkpt>
      <trkpt lat="47.23365" lon="6.03728">
        <ele>237</ele>
        <time>2016-3-26T11:30:1.000Z</time>
      </trkpt>
      <trkpt lat="47.23363" lon="6.03731">
        <ele>237</ele>
        <time>2016-3-26T11:30:1.000Z</time>
      </trkpt>
      <trkpt lat="47.23361" lon="6.03733">
        <ele>234</ele>
        <time>2016-3-26T11:30:1.000Z</time>
      </trkpt>
      <trkpt lat="47.23359" lon="6.03735">
        <ele>235</ele>
        <time>2016-3-26T11:30:1.000Z</time>
      </trkpt>
      <trkpt lat="47.23356" lon="6.03737">
        <ele>236</ele>
        <time>2016-3-26T11:30:1.000Z</time>
      </trkpt>
      <trkpt lat="47.23355" lon="6.03741">
        <ele>237</ele>
        <time>2016-3-26T11:30:1.000Z</time>
      </trkpt>
      <trkpt lat="47.23353" lon="6.03743">
        <ele>236</ele>
        <time>2016-3-26T11:30:1.000Z</time>
      </trkpt>
      <trkpt lat="47.23351" lon="6.03743">
        <ele>235</ele>
        <time>2016-3-26T11:30:1.000Z</time>
      </trkpt>
      <trkpt lat="47.23349" lon="6.03743">
        <ele>235</ele>
        <time>2016-3-26T11:30:1.000Z</time>
      </trkpt>
      <trkpt lat="47.23348" lon="6.03743">
        <ele>234</ele>
        <time>2016-3-26T11:30:1.000Z</time>
      </trkpt>
      <trkpt lat="47.23345" lon="6.03743">
        <ele>233</ele>
        <time>2016-3-26T11:30:1.000Z</time>
      </trkpt>
      <trkpt lat="47.23344" lon="6.03744">
        <ele>232</ele>
        <time>2016-3-26T11:30:1.000Z</time>
      </trkpt>
      <trkpt lat="47.23342" lon="6.03743">
        <ele>232</ele>
        <time>2016-3-26T11:30:1.000Z</time>
      </trkpt>
      <trkpt lat="47.23341" lon="6.03743">
        <ele>232</ele>
        <time>2016-3-26T11:30:1.000Z</time>
      </trkpt>
      <trkpt lat="47.23338" lon="6.03743">
        <ele>234</ele>
        <time>2016-3-26T11:30:1.000Z</time>
      </trkpt>
      <trkpt lat="47.23336" lon="6.03743">
        <ele>234</ele>
        <time>2016-3-26T11:30:1.000Z</time>
      </trkpt>
      <trkpt lat="47.23335" lon="6.03744">
        <ele>234</ele>
        <time>2016-3-26T11:30:1.000Z</time>
      </trkpt>
      <trkpt lat="47.23333" lon="6.03744">
        <ele>234</ele>
        <time>2016-3-26T11:30:1.000Z</time>
      </trkpt>
      <trkpt lat="47.23332" lon="6.03745">
        <ele>234</ele>
        <time>2016-3-26T11:30:1.000Z</time>
      </trkpt>
      <trkpt lat="47.2333" lon="6.03746">
        <ele>234</ele>
        <time>2016-3-26T11:30:1.000Z</time>
      </trkpt>
      <trkpt lat="47.23329" lon="6.03747">
        <ele>233</ele>
        <time>2016-3-26T11:30:1.000Z</time>
      </trkpt>
      <trkpt lat="47.23328" lon="6.03748">
        <ele>233</ele>
        <time>2016-3-26T11:30:1.000Z</time>
      </trkpt>
      <trkpt lat="47.23327" lon="6.03749">
        <ele>233</ele>
        <time>2016-3-26T11:30:1.000Z</time>
      </trkpt>
      <trkpt lat="47.23325" lon="6.0375">
        <ele>233</ele>
        <time>2016-3-26T11:30:1.000Z</time>
      </trkpt>
      <trkpt lat="47.23323" lon="6.03753">
        <ele>232</ele>
        <time>2016-3-26T11:30:1.000Z</time>
      </trkpt>
      <trkpt lat="47.23321" lon="6.03755">
        <ele>230</ele>
        <time>2016-3-26T11:30:1.000Z</time>
      </trkpt>
      <trkpt lat="47.23318" lon="6.03755">
        <ele>229</ele>
        <time>2016-3-26T11:30:1.000Z</time>
      </trkpt>
      <trkpt lat="47.23317" lon="6.03754">
        <ele>229</ele>
        <time>2016-3-26T11:30:1.000Z</time>
      </trkpt>
      <trkpt lat="47.23315" lon="6.03753">
        <ele>229</ele>
        <time>2016-3-26T11:30:1.000Z</time>
      </trkpt>
      <trkpt lat="47.23313" lon="6.03752">
        <ele>229</ele>
        <time>2016-3-26T11:30:1.000Z</time>
      </trkpt>
      <trkpt lat="47.23311" lon="6.0375">
        <ele>229</ele>
        <time>2016-3-26T11:30:1.000Z</time>
      </trkpt>
      <trkpt lat="47.23309" lon="6.03748">
        <ele>231</ele>
        <time>2016-3-26T11:30:1.000Z</time>
      </trkpt>
      <trkpt lat="47.23307" lon="6.03747">
        <ele>234</ele>
        <time>2016-3-26T11:30:1.000Z</time>
      </trkpt>
      <trkpt lat="47.23305" lon="6.03747">
        <ele>236</ele>
        <time>2016-3-26T11:30:1.000Z</time>
      </trkpt>
      <trkpt lat="47.23303" lon="6.03746">
        <ele>236</ele>
        <time>2016-3-26T11:30:1.000Z</time>
      </trkpt>
      <trkpt lat="47.23301" lon="6.03745">
        <ele>235</ele>
        <time>2016-3-26T11:30:1.000Z</time>
      </trkpt>
      <trkpt lat="47.23299" lon="6.03743">
        <ele>234</ele>
        <time>2016-3-26T11:30:1.000Z</time>
      </trkpt>
      <trkpt lat="47.23297" lon="6.03741">
        <ele>235</ele>
        <time>2016-3-26T11:30:1.000Z</time>
      </trkpt>
      <trkpt lat="47.23295" lon="6.03739">
        <ele>235</ele>
        <time>2016-3-26T11:30:1.000Z</time>
      </trkpt>
      <trkpt lat="47.23293" lon="6.03738">
        <ele>234</ele>
        <time>2016-3-26T11:30:1.000Z</time>
      </trkpt>
      <trkpt lat="47.23292" lon="6.03737">
        <ele>234</ele>
        <time>2016-3-26T11:30:1.000Z</time>
      </trkpt>
      <trkpt lat="47.2329" lon="6.03738">
        <ele>235</ele>
        <time>2016-3-26T11:30:1.000Z</time>
      </trkpt>
      <trkpt lat="47.23288" lon="6.03738">
        <ele>235</ele>
        <time>2016-3-26T11:30:1.000Z</time>
      </trkpt>
      <trkpt lat="47.23287" lon="6.03737">
        <ele>235</ele>
        <time>2016-3-26T11:30:1.000Z</time>
      </trkpt>
      <trkpt lat="47.23285" lon="6.03736">
        <ele>236</ele>
        <time>2016-3-26T11:30:1.000Z</time>
      </trkpt>
      <trkpt lat="47.23283" lon="6.03734">
        <ele>235</ele>
        <time>2016-3-26T11:30:1.000Z</time>
      </trkpt>
      <trkpt lat="47.23281" lon="6.03733">
        <ele>235</ele>
        <time>2016-3-26T11:30:1.000Z</time>
      </trkpt>
      <trkpt lat="47.23279" lon="6.03732">
        <ele>235</ele>
        <time>2016-3-26T11:30:1.000Z</time>
      </trkpt>
      <trkpt lat="47.23277" lon="6.0373">
        <ele>235</ele>
        <time>2016-3-26T11:30:1.000Z</time>
      </trkpt>
      <trkpt lat="47.23275" lon="6.0373">
        <ele>236</ele>
        <time>2016-3-26T11:30:1.000Z</time>
      </trkpt>
      <trkpt lat="47.23273" lon="6.03729">
        <ele>235</ele>
        <time>2016-3-26T11:30:1.000Z</time>
      </trkpt>
      <trkpt lat="47.23271" lon="6.03729">
        <ele>235</ele>
        <time>2016-3-26T11:30:1.000Z</time>
      </trkpt>
      <trkpt lat="47.2327" lon="6.0373">
        <ele>235</ele>
        <time>2016-3-26T11:30:1.000Z</time>
      </trkpt>
      <trkpt lat="47.23268" lon="6.03731">
        <ele>234</ele>
        <time>2016-3-26T11:30:1.000Z</time>
      </trkpt>
      <trkpt lat="47.23266" lon="6.03732">
        <ele>235</ele>
        <time>2016-3-26T11:30:1.000Z</time>
      </trkpt>
      <trkpt lat="47.23265" lon="6.03733">
        <ele>236</ele>
        <time>2016-3-26T11:30:1.000Z</time>
      </trkpt>
      <trkpt lat="47.23263" lon="6.03734">
        <ele>236</ele>
        <time>2016-3-26T11:30:1.000Z</time>
      </trkpt>
      <trkpt lat="47.23261" lon="6.03735">
        <ele>236</ele>
        <time>2016-3-26T11:30:1.000Z</time>
      </trkpt>
      <trkpt lat="47.23258" lon="6.03736">
        <ele>237</ele>
        <time>2016-3-26T11:30:1.000Z</time>
      </trkpt>
      <trkpt lat="47.23256" lon="6.03738">
        <ele>237</ele>
        <time>2016-3-26T11:30:1.000Z</time>
      </trkpt>
      <trkpt lat="47.23254" lon="6.03739">
        <ele>238</ele>
        <time>2016-3-26T11:30:1.000Z</time>
      </trkpt>
      <trkpt lat="47.23251" lon="6.03741">
        <ele>237</ele>
        <time>2016-3-26T11:30:1.000Z</time>
      </trkpt>
      <trkpt lat="47.2325" lon="6.03741">
        <ele>237</ele>
        <time>2016-3-26T11:30:1.000Z</time>
      </trkpt>
      <trkpt lat="47.23247" lon="6.03741">
        <ele>237</ele>
        <time>2016-3-26T11:30:1.000Z</time>
      </trkpt>
      <trkpt lat="47.23244" lon="6.03743">
        <ele>237</ele>
        <time>2016-3-26T11:30:1.000Z</time>
      </trkpt>
      <trkpt lat="47.23242" lon="6.03744">
        <ele>237</ele>
        <time>2016-3-26T11:30:1.000Z</time>
      </trkpt>
      <trkpt lat="47.23215" lon="6.03768">
        <ele>234</ele>
        <time>2016-3-26T11:30:1.000Z</time>
      </trkpt>
      <trkpt lat="47.23212" lon="6.03768">
        <ele>233</ele>
        <time>2016-3-26T11:30:1.000Z</time>
      </trkpt>
      <trkpt lat="47.23208" lon="6.03768">
        <ele>234</ele>
        <time>2016-3-26T11:30:1.000Z</time>
      </trkpt>
      <trkpt lat="47.23205" lon="6.03768">
        <ele>234</ele>
        <time>2016-3-26T11:30:1.000Z</time>
      </trkpt>
      <trkpt lat="47.23202" lon="6.03767">
        <ele>234</ele>
        <time>2016-3-26T11:30:1.000Z</time>
      </trkpt>
      <trkpt lat="47.23199" lon="6.03767">
        <ele>235</ele>
        <time>2016-3-26T11:30:1.000Z</time>
      </trkpt>
      <trkpt lat="47.23196" lon="6.03767">
        <ele>234</ele>
        <time>2016-3-26T11:30:1.000Z</time>
      </trkpt>
      <trkpt lat="47.23194" lon="6.03767">
        <ele>233</ele>
        <time>2016-3-26T11:30:1.000Z</time>
      </trkpt>
      <trkpt lat="47.23192" lon="6.03767">
        <ele>233</ele>
        <time>2016-3-26T11:30:1.000Z</time>
      </trkpt>
      <trkpt lat="47.2319" lon="6.03768">
        <ele>234</ele>
        <time>2016-3-26T11:30:1.000Z</time>
      </trkpt>
      <trkpt lat="47.23187" lon="6.03768">
        <ele>234</ele>
        <time>2016-3-26T11:30:1.000Z</time>
      </trkpt>
      <trkpt lat="47.23185" lon="6.03768">
        <ele>233</ele>
        <time>2016-3-26T11:30:1.000Z</time>
      </trkpt>
      <trkpt lat="47.23184" lon="6.03769">
        <ele>233</ele>
        <time>2016-3-26T11:30:1.000Z</time>
      </trkpt>
      <trkpt lat="47.23182" lon="6.03769">
        <ele>233</ele>
        <time>2016-3-26T11:30:1.000Z</time>
      </trkpt>
      <trkpt lat="47.23179" lon="6.0377">
        <ele>234</ele>
        <time>2016-3-26T11:30:1.000Z</time>
      </trkpt>
      <trkpt lat="47.23178" lon="6.0377">
        <ele>234</ele>
        <time>2016-3-26T11:30:1.000Z</time>
      </trkpt>
      <trkpt lat="47.23176" lon="6.0377">
        <ele>233</ele>
        <time>2016-3-26T11:30:1.000Z</time>
      </trkpt>
      <trkpt lat="47.23174" lon="6.03771">
        <ele>233</ele>
        <time>2016-3-26T11:30:1.000Z</time>
      </trkpt>
      <trkpt lat="47.23173" lon="6.03772">
        <ele>232</ele>
        <time>2016-3-26T11:30:1.000Z</time>
      </trkpt>
      <trkpt lat="47.23172" lon="6.03774">
        <ele>232</ele>
        <time>2016-3-26T11:30:1.000Z</time>
      </trkpt>
      <trkpt lat="47.23171" lon="6.03775">
        <ele>233</ele>
        <time>2016-3-26T11:30:1.000Z</time>
      </trkpt>
      <trkpt lat="47.23168" lon="6.03777">
        <ele>233</ele>
        <time>2016-3-26T11:30:1.000Z</time>
      </trkpt>
      <trkpt lat="47.23167" lon="6.03778">
        <ele>233</ele>
        <time>2016-3-26T11:30:1.000Z</time>
      </trkpt>
      <trkpt lat="47.23165" lon="6.03778">
        <ele>232</ele>
        <time>2016-3-26T11:30:1.000Z</time>
      </trkpt>
      <trkpt lat="47.23163" lon="6.03779">
        <ele>232</ele>
        <time>2016-3-26T11:30:1.000Z</time>
      </trkpt>
      <trkpt lat="47.23161" lon="6.03779">
        <ele>233</ele>
        <time>2016-3-26T11:30:1.000Z</time>
      </trkpt>
      <trkpt lat="47.23159" lon="6.03779">
        <ele>233</ele>
        <time>2016-3-26T11:32:37.000Z</time>
      </trkpt>
      <trkpt lat="47.23157" lon="6.03779">
        <ele>233</ele>
        <time>2016-3-26T11:32:37.000Z</time>
      </trkpt>
      <trkpt lat="47.23155" lon="6.03779">
        <ele>233</ele>
        <time>2016-3-26T11:32:37.000Z</time>
      </trkpt>
      <trkpt lat="47.23154" lon="6.0378">
        <ele>233</ele>
        <time>2016-3-26T11:32:37.000Z</time>
      </trkpt>
      <trkpt lat="47.23152" lon="6.0378">
        <ele>233</ele>
        <time>2016-3-26T11:32:37.000Z</time>
      </trkpt>
      <trkpt lat="47.23151" lon="6.03781">
        <ele>234</ele>
        <time>2016-3-26T11:32:37.000Z</time>
      </trkpt>
      <trkpt lat="47.23149" lon="6.03782">
        <ele>233</ele>
        <time>2016-3-26T11:32:37.000Z</time>
      </trkpt>
      <trkpt lat="47.23146" lon="6.03783">
        <ele>234</ele>
        <time>2016-3-26T11:32:37.000Z</time>
      </trkpt>
      <trkpt lat="47.23143" lon="6.03784">
        <ele>233</ele>
        <time>2016-3-26T11:32:37.000Z</time>
      </trkpt>
      <trkpt lat="47.23142" lon="6.03785">
        <ele>233</ele>
        <time>2016-3-26T11:32:37.000Z</time>
      </trkpt>
      <trkpt lat="47.23139" lon="6.03786">
        <ele>232</ele>
        <time>2016-3-26T11:32:37.000Z</time>
      </trkpt>
      <trkpt lat="47.23137" lon="6.03788">
        <ele>232</ele>
        <time>2016-3-26T11:32:37.000Z</time>
      </trkpt>
      <trkpt lat="47.23134" lon="6.0379">
        <ele>233</ele>
        <time>2016-3-26T11:32:37.000Z</time>
      </trkpt>
      <trkpt lat="47.23132" lon="6.03792">
        <ele>235</ele>
        <time>2016-3-26T11:32:37.000Z</time>
      </trkpt>
      <trkpt lat="47.23129" lon="6.03793">
        <ele>234</ele>
        <time>2016-3-26T11:32:37.000Z</time>
      </trkpt>
      <trkpt lat="47.23127" lon="6.03795">
        <ele>234</ele>
        <time>2016-3-26T11:32:37.000Z</time>
      </trkpt>
      <trkpt lat="47.23124" lon="6.03796">
        <ele>234</ele>
        <time>2016-3-26T11:32:37.000Z</time>
      </trkpt>
      <trkpt lat="47.23122" lon="6.03798">
        <ele>235</ele>
        <time>2016-3-26T11:32:37.000Z</time>
      </trkpt>
      <trkpt lat="47.23119" lon="6.03799">
        <ele>235</ele>
        <time>2016-3-26T11:32:37.000Z</time>
      </trkpt>
      <trkpt lat="47.23116" lon="6.038">
        <ele>234</ele>
        <time>2016-3-26T11:32:37.000Z</time>
      </trkpt>
      <trkpt lat="47.23113" lon="6.03802">
        <ele>234</ele>
        <time>2016-3-26T11:32:37.000Z</time>
      </trkpt>
      <trkpt lat="47.23112" lon="6.03802">
        <ele>234</ele>
        <time>2016-3-26T11:32:37.000Z</time>
      </trkpt>
      <trkpt lat="47.2311" lon="6.03802">
        <ele>234</ele>
        <time>2016-3-26T11:32:37.000Z</time>
      </trkpt>
      <trkpt lat="47.23109" lon="6.03802">
        <ele>234</ele>
        <time>2016-3-26T11:32:37.000Z</time>
      </trkpt>
      <trkpt lat="47.23107" lon="6.03803">
        <ele>234</ele>
        <time>2016-3-26T11:32:37.000Z</time>
      </trkpt>
      <trkpt lat="47.23105" lon="6.03805">
        <ele>234</ele>
        <time>2016-3-26T11:32:37.000Z</time>
      </trkpt>
      <trkpt lat="47.23102" lon="6.03806">
        <ele>233</ele>
        <time>2016-3-26T11:32:37.000Z</time>
      </trkpt>
      <trkpt lat="47.23099" lon="6.03807">
        <ele>234</ele>
        <time>2016-3-26T11:32:37.000Z</time>
      </trkpt>
      <trkpt lat="47.23098" lon="6.03808">
        <ele>233</ele>
        <time>2016-3-26T11:32:37.000Z</time>
      </trkpt>
      <trkpt lat="47.23096" lon="6.0381">
        <ele>234</ele>
        <time>2016-3-26T11:32:37.000Z</time>
      </trkpt>
      <trkpt lat="47.23094" lon="6.03811">
        <ele>233</ele>
        <time>2016-3-26T11:32:37.000Z</time>
      </trkpt>
      <trkpt lat="47.23093" lon="6.03811">
        <ele>233</ele>
        <time>2016-3-26T11:32:37.000Z</time>
      </trkpt>
      <trkpt lat="47.23091" lon="6.03812">
        <ele>233</ele>
        <time>2016-3-26T11:32:37.000Z</time>
      </trkpt>
      <trkpt lat="47.23089" lon="6.03813">
        <ele>233</ele>
        <time>2016-3-26T11:32:37.000Z</time>
      </trkpt>
      <trkpt lat="47.23086" lon="6.03814">
        <ele>233</ele>
        <time>2016-3-26T11:32:37.000Z</time>
      </trkpt>
      <trkpt lat="47.23084" lon="6.03814">
        <ele>233</ele>
        <time>2016-3-26T11:32:37.000Z</time>
      </trkpt>
      <trkpt lat="47.23082" lon="6.03816">
        <ele>233</ele>
        <time>2016-3-26T11:32:37.000Z</time>
      </trkpt>
      <trkpt lat="47.2308" lon="6.03816">
        <ele>234</ele>
        <time>2016-3-26T11:32:37.000Z</time>
      </trkpt>
      <trkpt lat="47.23079" lon="6.03817">
        <ele>234</ele>
        <time>2016-3-26T11:32:37.000Z</time>
      </trkpt>
      <trkpt lat="47.23077" lon="6.03817">
        <ele>234</ele>
        <time>2016-3-26T11:32:37.000Z</time>
      </trkpt>
      <trkpt lat="47.23076" lon="6.03818">
        <ele>234</ele>
        <time>2016-3-26T11:32:37.000Z</time>
      </trkpt>
      <trkpt lat="47.23075" lon="6.03819">
        <ele>235</ele>
        <time>2016-3-26T11:32:37.000Z</time>
      </trkpt>
      <trkpt lat="47.23072" lon="6.03821">
        <ele>235</ele>
        <time>2016-3-26T11:32:37.000Z</time>
      </trkpt>
      <trkpt lat="47.23069" lon="6.03822">
        <ele>236</ele>
        <time>2016-3-26T11:32:37.000Z</time>
      </trkpt>
      <trkpt lat="47.23067" lon="6.03824">
        <ele>236</ele>
        <time>2016-3-26T11:32:37.000Z</time>
      </trkpt>
      <trkpt lat="47.23065" lon="6.03825">
        <ele>236</ele>
        <time>2016-3-26T11:32:37.000Z</time>
      </trkpt>
      <trkpt lat="47.23063" lon="6.03827">
        <ele>235</ele>
        <time>2016-3-26T11:32:37.000Z</time>
      </trkpt>
      <trkpt lat="47.2306" lon="6.03829">
        <ele>235</ele>
        <time>2016-3-26T11:32:37.000Z</time>
      </trkpt>
      <trkpt lat="47.23058" lon="6.03831">
        <ele>235</ele>
        <time>2016-3-26T11:32:37.000Z</time>
      </trkpt>
      <trkpt lat="47.23056" lon="6.03834">
        <ele>236</ele>
        <time>2016-3-26T11:32:37.000Z</time>
      </trkpt>
      <trkpt lat="47.23054" lon="6.03837">
        <ele>236</ele>
        <time>2016-3-26T11:32:37.000Z</time>
      </trkpt>
      <trkpt lat="47.23052" lon="6.0384">
        <ele>236</ele>
        <time>2016-3-26T11:32:37.000Z</time>
      </trkpt>
      <trkpt lat="47.2305" lon="6.03841">
        <ele>237</ele>
        <time>2016-3-26T11:32:37.000Z</time>
      </trkpt>
      <trkpt lat="47.23047" lon="6.03843">
        <ele>235</ele>
        <time>2016-3-26T11:32:37.000Z</time>
      </trkpt>
      <trkpt lat="47.23044" lon="6.03844">
        <ele>235</ele>
        <time>2016-3-26T11:32:37.000Z</time>
      </trkpt>
      <trkpt lat="47.23042" lon="6.03845">
        <ele>236</ele>
        <time>2016-3-26T11:32:37.000Z</time>
      </trkpt>
      <trkpt lat="47.2304" lon="6.03846">
        <ele>236</ele>
        <time>2016-3-26T11:32:37.000Z</time>
      </trkpt>
      <trkpt lat="47.23038" lon="6.03847">
        <ele>237</ele>
        <time>2016-3-26T11:32:37.000Z</time>
      </trkpt>
      <trkpt lat="47.23035" lon="6.03849">
        <ele>237</ele>
        <time>2016-3-26T11:32:37.000Z</time>
      </trkpt>
      <trkpt lat="47.23034" lon="6.03849">
        <ele>238</ele>
        <time>2016-3-26T11:32:37.000Z</time>
      </trkpt>
      <trkpt lat="47.23031" lon="6.03851">
        <ele>239</ele>
        <time>2016-3-26T11:32:37.000Z</time>
      </trkpt>
      <trkpt lat="47.23029" lon="6.03853">
        <ele>239</ele>
        <time>2016-3-26T11:32:37.000Z</time>
      </trkpt>
      <trkpt lat="47.23026" lon="6.03855">
        <ele>240</ele>
        <time>2016-3-26T11:32:37.000Z</time>
      </trkpt>
      <trkpt lat="47.23025" lon="6.03855">
        <ele>240</ele>
        <time>2016-3-26T11:32:37.000Z</time>
      </trkpt>
      <trkpt lat="47.23023" lon="6.03855">
        <ele>239</ele>
        <time>2016-3-26T11:32:37.000Z</time>
      </trkpt>
      <trkpt lat="47.23021" lon="6.03857">
        <ele>240</ele>
        <time>2016-3-26T11:32:37.000Z</time>
      </trkpt>
      <trkpt lat="47.23019" lon="6.03859">
        <ele>241</ele>
        <time>2016-3-26T11:32:37.000Z</time>
      </trkpt>
      <trkpt lat="47.23016" lon="6.03857">
        <ele>242</ele>
        <time>2016-3-26T11:32:37.000Z</time>
      </trkpt>
      <trkpt lat="47.23014" lon="6.03855">
        <ele>243</ele>
        <time>2016-3-26T11:32:37.000Z</time>
      </trkpt>
      <trkpt lat="47.23012" lon="6.03855">
        <ele>241</ele>
        <time>2016-3-26T11:32:37.000Z</time>
      </trkpt>
      <trkpt lat="47.23009" lon="6.03857">
        <ele>241</ele>
        <time>2016-3-26T11:32:37.000Z</time>
      </trkpt>
      <trkpt lat="47.23007" lon="6.0386">
        <ele>239</ele>
        <time>2016-3-26T11:32:37.000Z</time>
      </trkpt>
      <trkpt lat="47.23005" lon="6.03862">
        <ele>239</ele>
        <time>2016-3-26T11:32:37.000Z</time>
      </trkpt>
      <trkpt lat="47.23004" lon="6.03864">
        <ele>238</ele>
        <time>2016-3-26T11:32:37.000Z</time>
      </trkpt>
      <trkpt lat="47.23003" lon="6.03866">
        <ele>239</ele>
        <time>2016-3-26T11:32:37.000Z</time>
      </trkpt>
      <trkpt lat="47.23002" lon="6.03868">
        <ele>240</ele>
        <time>2016-3-26T11:32:37.000Z</time>
      </trkpt>
      <trkpt lat="47.23001" lon="6.03869">
        <ele>239</ele>
        <time>2016-3-26T11:32:37.000Z</time>
      </trkpt>
      <trkpt lat="47.23" lon="6.03869">
        <ele>239</ele>
        <time>2016-3-26T11:32:37.000Z</time>
      </trkpt>
      <trkpt lat="47.22998" lon="6.0387">
        <ele>239</ele>
        <time>2016-3-26T11:32:37.000Z</time>
      </trkpt>
      <trkpt lat="47.22997" lon="6.03871">
        <ele>240</ele>
        <time>2016-3-26T11:32:37.000Z</time>
      </trkpt>
      <trkpt lat="47.22996" lon="6.03873">
        <ele>239</ele>
        <time>2016-3-26T11:32:37.000Z</time>
      </trkpt>
      <trkpt lat="47.22994" lon="6.03876">
        <ele>238</ele>
        <time>2016-3-26T11:32:37.000Z</time>
      </trkpt>
      <trkpt lat="47.22991" lon="6.03877">
        <ele>238</ele>
        <time>2016-3-26T11:32:37.000Z</time>
      </trkpt>
      <trkpt lat="47.22989" lon="6.03879">
        <ele>238</ele>
        <time>2016-3-26T11:32:37.000Z</time>
      </trkpt>
      <trkpt lat="47.22987" lon="6.0388">
        <ele>237</ele>
        <time>2016-3-26T11:32:37.000Z</time>
      </trkpt>
      <trkpt lat="47.22983" lon="6.03881">
        <ele>237</ele>
        <time>2016-3-26T11:32:37.000Z</time>
      </trkpt>
      <trkpt lat="47.22979" lon="6.03884">
        <ele>237</ele>
        <time>2016-3-26T11:32:37.000Z</time>
      </trkpt>
      <trkpt lat="47.22975" lon="6.03885">
        <ele>236</ele>
        <time>2016-3-26T11:32:37.000Z</time>
      </trkpt>
      <trkpt lat="47.22973" lon="6.03887">
        <ele>237</ele>
        <time>2016-3-26T11:32:37.000Z</time>
      </trkpt>
      <trkpt lat="47.22971" lon="6.03888">
        <ele>237</ele>
        <time>2016-3-26T11:32:37.000Z</time>
      </trkpt>
      <trkpt lat="47.22969" lon="6.0389">
        <ele>236</ele>
        <time>2016-3-26T11:32:37.000Z</time>
      </trkpt>
      <trkpt lat="47.22967" lon="6.03891">
        <ele>236</ele>
        <time>2016-3-26T11:32:37.000Z</time>
      </trkpt>
      <trkpt lat="47.22966" lon="6.03891">
        <ele>236</ele>
        <time>2016-3-26T11:32:37.000Z</time>
      </trkpt>
      <trkpt lat="47.22964" lon="6.03891">
        <ele>236</ele>
        <time>2016-3-26T11:32:37.000Z</time>
      </trkpt>
      <trkpt lat="47.22961" lon="6.03891">
        <ele>236</ele>
        <time>2016-3-26T11:32:37.000Z</time>
      </trkpt>
      <trkpt lat="47.22959" lon="6.03892">
        <ele>236</ele>
        <time>2016-3-26T11:32:37.000Z</time>
      </trkpt>
      <trkpt lat="47.22958" lon="6.03892">
        <ele>236</ele>
        <time>2016-3-26T11:32:37.000Z</time>
      </trkpt>
      <trkpt lat="47.22956" lon="6.03891">
        <ele>236</ele>
        <time>2016-3-26T11:32:37.000Z</time>
      </trkpt>
      <trkpt lat="47.22954" lon="6.03891">
        <ele>236</ele>
        <time>2016-3-26T11:32:37.000Z</time>
      </trkpt>
      <trkpt lat="47.22952" lon="6.03891">
        <ele>236</ele>
        <time>2016-3-26T11:32:37.000Z</time>
      </trkpt>
      <trkpt lat="47.2295" lon="6.03892">
        <ele>236</ele>
        <time>2016-3-26T11:32:37.000Z</time>
      </trkpt>
      <trkpt lat="47.22948" lon="6.03893">
        <ele>235</ele>
        <time>2016-3-26T11:34:52.000Z</time>
      </trkpt>
      <trkpt lat="47.22945" lon="6.03894">
        <ele>235</ele>
        <time>2016-3-26T11:34:52.000Z</time>
      </trkpt>
      <trkpt lat="47.22943" lon="6.03897">
        <ele>234</ele>
        <time>2016-3-26T11:34:52.000Z</time>
      </trkpt>
      <trkpt lat="47.22941" lon="6.039">
        <ele>234</ele>
        <time>2016-3-26T11:34:52.000Z</time>
      </trkpt>
      <trkpt lat="47.2294" lon="6.03902">
        <ele>234</ele>
        <time>2016-3-26T11:34:52.000Z</time>
      </trkpt>
      <trkpt lat="47.22939" lon="6.03904">
        <ele>233</ele>
        <time>2016-3-26T11:34:52.000Z</time>
      </trkpt>
      <trkpt lat="47.22938" lon="6.03905">
        <ele>232</ele>
        <time>2016-3-26T11:34:52.000Z</time>
      </trkpt>
      <trkpt lat="47.22936" lon="6.03905">
        <ele>232</ele>
        <time>2016-3-26T11:34:52.000Z</time>
      </trkpt>
      <trkpt lat="47.22935" lon="6.03906">
        <ele>232</ele>
        <time>2016-3-26T11:34:52.000Z</time>
      </trkpt>
      <trkpt lat="47.22933" lon="6.03906">
        <ele>232</ele>
        <time>2016-3-26T11:34:52.000Z</time>
      </trkpt>
      <trkpt lat="47.22932" lon="6.03907">
        <ele>232</ele>
        <time>2016-3-26T11:34:52.000Z</time>
      </trkpt>
      <trkpt lat="47.2293" lon="6.03909">
        <ele>232</ele>
        <time>2016-3-26T11:34:52.000Z</time>
      </trkpt>
      <trkpt lat="47.22927" lon="6.03911">
        <ele>231</ele>
        <time>2016-3-26T11:34:52.000Z</time>
      </trkpt>
      <trkpt lat="47.22924" lon="6.03911">
        <ele>232</ele>
        <time>2016-3-26T11:34:52.000Z</time>
      </trkpt>
      <trkpt lat="47.22923" lon="6.03911">
        <ele>233</ele>
        <time>2016-3-26T11:34:52.000Z</time>
      </trkpt>
      <trkpt lat="47.22921" lon="6.03912">
        <ele>231</ele>
        <time>2016-3-26T11:34:52.000Z</time>
      </trkpt>
      <trkpt lat="47.2292" lon="6.03913">
        <ele>231</ele>
        <time>2016-3-26T11:34:52.000Z</time>
      </trkpt>
      <trkpt lat="47.22919" lon="6.03914">
        <ele>230</ele>
        <time>2016-3-26T11:34:52.000Z</time>
      </trkpt>
      <trkpt lat="47.22917" lon="6.03915">
        <ele>229</ele>
        <time>2016-3-26T11:34:52.000Z</time>
      </trkpt>
      <trkpt lat="47.22916" lon="6.03916">
        <ele>229</ele>
        <time>2016-3-26T11:34:52.000Z</time>
      </trkpt>
      <trkpt lat="47.22914" lon="6.03918">
        <ele>228</ele>
        <time>2016-3-26T11:34:52.000Z</time>
      </trkpt>
      <trkpt lat="47.22913" lon="6.03919">
        <ele>228</ele>
        <time>2016-3-26T11:34:52.000Z</time>
      </trkpt>
      <trkpt lat="47.22912" lon="6.0392">
        <ele>228</ele>
        <time>2016-3-26T11:34:52.000Z</time>
      </trkpt>
      <trkpt lat="47.22911" lon="6.03921">
        <ele>227</ele>
        <time>2016-3-26T11:34:52.000Z</time>
      </trkpt>
      <trkpt lat="47.22909" lon="6.03922">
        <ele>226</ele>
        <time>2016-3-26T11:34:52.000Z</time>
      </trkpt>
      <trkpt lat="47.22907" lon="6.03923">
        <ele>226</ele>
        <time>2016-3-26T11:34:52.000Z</time>
      </trkpt>
      <trkpt lat="47.22906" lon="6.03923">
        <ele>225</ele>
        <time>2016-3-26T11:34:52.000Z</time>
      </trkpt>
      <trkpt lat="47.22904" lon="6.03924">
        <ele>225</ele>
        <time>2016-3-26T11:34:52.000Z</time>
      </trkpt>
      <trkpt lat="47.22903" lon="6.03925">
        <ele>225</ele>
        <time>2016-3-26T11:34:52.000Z</time>
      </trkpt>
      <trkpt lat="47.229" lon="6.03926">
        <ele>222</ele>
        <time>2016-3-26T11:34:52.000Z</time>
      </trkpt>
      <trkpt lat="47.22899" lon="6.03927">
        <ele>222</ele>
        <time>2016-3-26T11:34:52.000Z</time>
      </trkpt>
      <trkpt lat="47.22897" lon="6.03927">
        <ele>223</ele>
        <time>2016-3-26T11:34:52.000Z</time>
      </trkpt>
      <trkpt lat="47.22896" lon="6.03927">
        <ele>222</ele>
        <time>2016-3-26T11:34:52.000Z</time>
      </trkpt>
      <trkpt lat="47.22894" lon="6.03927">
        <ele>222</ele>
        <time>2016-3-26T11:34:52.000Z</time>
      </trkpt>
      <trkpt lat="47.22893" lon="6.03928">
        <ele>221</ele>
        <time>2016-3-26T11:34:52.000Z</time>
      </trkpt>
      <trkpt lat="47.22891" lon="6.03929">
        <ele>221</ele>
        <time>2016-3-26T11:34:52.000Z</time>
      </trkpt>
      <trkpt lat="47.2289" lon="6.0393">
        <ele>221</ele>
        <time>2016-3-26T11:34:52.000Z</time>
      </trkpt>
      <trkpt lat="47.22888" lon="6.03931">
        <ele>222</ele>
        <time>2016-3-26T11:34:52.000Z</time>
      </trkpt>
      <trkpt lat="47.22887" lon="6.03932">
        <ele>221</ele>
        <time>2016-3-26T11:34:52.000Z</time>
      </trkpt>
      <trkpt lat="47.22885" lon="6.03933">
        <ele>222</ele>
        <time>2016-3-26T11:34:52.000Z</time>
      </trkpt>
      <trkpt lat="47.22884" lon="6.03934">
        <ele>222</ele>
        <time>2016-3-26T11:34:52.000Z</time>
      </trkpt>
      <trkpt lat="47.22882" lon="6.03936">
        <ele>222</ele>
        <time>2016-3-26T11:34:52.000Z</time>
      </trkpt>
      <trkpt lat="47.22881" lon="6.03937">
        <ele>222</ele>
        <time>2016-3-26T11:34:52.000Z</time>
      </trkpt>
      <trkpt lat="47.22879" lon="6.03939">
        <ele>221</ele>
        <time>2016-3-26T11:34:52.000Z</time>
      </trkpt>
      <trkpt lat="47.22877" lon="6.0394">
        <ele>222</ele>
        <time>2016-3-26T11:34:52.000Z</time>
      </trkpt>
      <trkpt lat="47.22875" lon="6.03942">
        <ele>224</ele>
        <time>2016-3-26T11:34:52.000Z</time>
      </trkpt>
      <trkpt lat="47.22873" lon="6.03944">
        <ele>227</ele>
        <time>2016-3-26T11:34:52.000Z</time>
      </trkpt>
      <trkpt lat="47.22871" lon="6.03944">
        <ele>226</ele>
        <time>2016-3-26T11:34:52.000Z</time>
      </trkpt>
      <trkpt lat="47.22868" lon="6.03944">
        <ele>226</ele>
        <time>2016-3-26T11:34:52.000Z</time>
      </trkpt>
      <trkpt lat="47.22866" lon="6.03945">
        <ele>226</ele>
        <time>2016-3-26T11:34:52.000Z</time>
      </trkpt>
      <trkpt lat="47.22863" lon="6.03946">
        <ele>226</ele>
        <time>2016-3-26T11:34:52.000Z</time>
      </trkpt>
      <trkpt lat="47.2286" lon="6.03946">
        <ele>226</ele>
        <time>2016-3-26T11:34:52.000Z</time>
      </trkpt>
      <trkpt lat="47.22859" lon="6.03946">
        <ele>225</ele>
        <time>2016-3-26T11:34:52.000Z</time>
      </trkpt>
      <trkpt lat="47.22857" lon="6.03948">
        <ele>225</ele>
        <time>2016-3-26T11:34:52.000Z</time>
      </trkpt>
      <trkpt lat="47.22855" lon="6.03949">
        <ele>225</ele>
        <time>2016-3-26T11:34:52.000Z</time>
      </trkpt>
      <trkpt lat="47.22854" lon="6.0395">
        <ele>226</ele>
        <time>2016-3-26T11:34:52.000Z</time>
      </trkpt>
      <trkpt lat="47.22852" lon="6.03951">
        <ele>226</ele>
        <time>2016-3-26T11:34:52.000Z</time>
      </trkpt>
      <trkpt lat="47.2285" lon="6.03952">
        <ele>226</ele>
        <time>2016-3-26T11:34:52.000Z</time>
      </trkpt>
      <trkpt lat="47.22848" lon="6.03953">
        <ele>226</ele>
        <time>2016-3-26T11:34:52.000Z</time>
      </trkpt>
      <trkpt lat="47.22847" lon="6.03953">
        <ele>225</ele>
        <time>2016-3-26T11:34:52.000Z</time>
      </trkpt>
      <trkpt lat="47.22844" lon="6.03952">
        <ele>224</ele>
        <time>2016-3-26T11:34:52.000Z</time>
      </trkpt>
      <trkpt lat="47.22843" lon="6.03952">
        <ele>224</ele>
        <time>2016-3-26T11:34:52.000Z</time>
      </trkpt>
      <trkpt lat="47.22842" lon="6.03953">
        <ele>224</ele>
        <time>2016-3-26T11:34:52.000Z</time>
      </trkpt>
      <trkpt lat="47.22839" lon="6.03956">
        <ele>222</ele>
        <time>2016-3-26T11:34:52.000Z</time>
      </trkpt>
      <trkpt lat="47.22839" lon="6.0396">
        <ele>220</ele>
        <time>2016-3-26T11:34:52.000Z</time>
      </trkpt>
      <trkpt lat="47.22838" lon="6.03964">
        <ele>220</ele>
        <time>2016-3-26T11:34:52.000Z</time>
      </trkpt>
      <trkpt lat="47.22838" lon="6.03968">
        <ele>219</ele>
        <time>2016-3-26T11:34:52.000Z</time>
      </trkpt>
      <trkpt lat="47.22838" lon="6.03972">
        <ele>219</ele>
        <time>2016-3-26T11:34:52.000Z</time>
      </trkpt>
      <trkpt lat="47.22838" lon="6.03976">
        <ele>217</ele>
        <time>2016-3-26T11:34:52.000Z</time>
      </trkpt>
      <trkpt lat="47.22837" lon="6.03979">
        <ele>216</ele>
        <time>2016-3-26T11:34:52.000Z</time>
      </trkpt>
      <trkpt lat="47.22836" lon="6.03982">
        <ele>216</ele>
        <time>2016-3-26T11:34:52.000Z</time>
      </trkpt>
      <trkpt lat="47.22834" lon="6.03984">
        <ele>214</ele>
        <time>2016-3-26T11:34:52.000Z</time>
      </trkpt>
      <trkpt lat="47.22833" lon="6.03986">
        <ele>214</ele>
        <time>2016-3-26T11:34:52.000Z</time>
      </trkpt>
      <trkpt lat="47.22832" lon="6.03989">
        <ele>215</ele>
        <time>2016-3-26T11:34:52.000Z</time>
      </trkpt>
      <trkpt lat="47.22831" lon="6.03991">
        <ele>214</ele>
        <time>2016-3-26T11:34:52.000Z</time>
      </trkpt>
      <trkpt lat="47.2283" lon="6.03993">
        <ele>214</ele>
        <time>2016-3-26T11:34:52.000Z</time>
      </trkpt>
      <trkpt lat="47.22829" lon="6.03996">
        <ele>213</ele>
        <time>2016-3-26T11:34:52.000Z</time>
      </trkpt>
      <trkpt lat="47.22829" lon="6.03998">
        <ele>213</ele>
        <time>2016-3-26T11:34:52.000Z</time>
      </trkpt>
      <trkpt lat="47.22828" lon="6.04002">
        <ele>213</ele>
        <time>2016-3-26T11:34:52.000Z</time>
      </trkpt>
      <trkpt lat="47.22827" lon="6.04004">
        <ele>213</ele>
        <time>2016-3-26T11:34:52.000Z</time>
      </trkpt>
      <trkpt lat="47.22825" lon="6.04006">
        <ele>213</ele>
        <time>2016-3-26T11:34:52.000Z</time>
      </trkpt>
      <trkpt lat="47.22823" lon="6.04007">
        <ele>213</ele>
        <time>2016-3-26T11:34:52.000Z</time>
      </trkpt>
      <trkpt lat="47.22821" lon="6.04006">
        <ele>213</ele>
        <time>2016-3-26T11:34:52.000Z</time>
      </trkpt>
      <trkpt lat="47.2282" lon="6.04006">
        <ele>211</ele>
        <time>2016-3-26T11:34:52.000Z</time>
      </trkpt>
      <trkpt lat="47.22818" lon="6.04006">
        <ele>210</ele>
        <time>2016-3-26T11:34:52.000Z</time>
      </trkpt>
      <trkpt lat="47.22817" lon="6.04007">
        <ele>215</ele>
        <time>2016-3-26T11:34:52.000Z</time>
      </trkpt>
      <trkpt lat="47.22815" lon="6.04011">
        <ele>216</ele>
        <time>2016-3-26T11:34:52.000Z</time>
      </trkpt>
      <trkpt lat="47.22814" lon="6.04012">
        <ele>215</ele>
        <time>2016-3-26T11:34:52.000Z</time>
      </trkpt>
      <trkpt lat="47.22813" lon="6.04013">
        <ele>217</ele>
        <time>2016-3-26T11:34:52.000Z</time>
      </trkpt>
      <trkpt lat="47.22811" lon="6.04014">
        <ele>216</ele>
        <time>2016-3-26T11:34:52.000Z</time>
      </trkpt>
      <trkpt lat="47.2281" lon="6.04016">
        <ele>219</ele>
        <time>2016-3-26T11:34:52.000Z</time>
      </trkpt>
      <trkpt lat="47.22809" lon="6.04017">
        <ele>219</ele>
        <time>2016-3-26T11:34:52.000Z</time>
      </trkpt>
      <trkpt lat="47.22808" lon="6.04019">
        <ele>218</ele>
        <time>2016-3-26T11:34:52.000Z</time>
      </trkpt>
      <trkpt lat="47.22807" lon="6.04021">
        <ele>219</ele>
        <time>2016-3-26T11:34:52.000Z</time>
      </trkpt>
      <trkpt lat="47.22806" lon="6.04023">
        <ele>219</ele>
        <time>2016-3-26T11:34:52.000Z</time>
      </trkpt>
      <trkpt lat="47.22805" lon="6.04025">
        <ele>218</ele>
        <time>2016-3-26T11:34:52.000Z</time>
      </trkpt>
      <trkpt lat="47.22804" lon="6.04026">
        <ele>217</ele>
        <time>2016-3-26T11:34:52.000Z</time>
      </trkpt>
      <trkpt lat="47.22802" lon="6.04028">
        <ele>216</ele>
        <time>2016-3-26T11:34:52.000Z</time>
      </trkpt>
      <trkpt lat="47.228" lon="6.04031">
        <ele>216</ele>
        <time>2016-3-26T11:34:52.000Z</time>
      </trkpt>
      <trkpt lat="47.22799" lon="6.04032">
        <ele>217</ele>
        <time>2016-3-26T11:34:52.000Z</time>
      </trkpt>
      <trkpt lat="47.22797" lon="6.04034">
        <ele>216</ele>
        <time>2016-3-26T11:34:52.000Z</time>
      </trkpt>
      <trkpt lat="47.22796" lon="6.04035">
        <ele>217</ele>
        <time>2016-3-26T11:37:2.000Z</time>
      </trkpt>
      <trkpt lat="47.22795" lon="6.04038">
        <ele>218</ele>
        <time>2016-3-26T11:37:2.000Z</time>
      </trkpt>
      <trkpt lat="47.22793" lon="6.04041">
        <ele>219</ele>
        <time>2016-3-26T11:37:2.000Z</time>
      </trkpt>
      <trkpt lat="47.2279" lon="6.04043">
        <ele>218</ele>
        <time>2016-3-26T11:37:2.000Z</time>
      </trkpt>
      <trkpt lat="47.22789" lon="6.04044">
        <ele>218</ele>
        <time>2016-3-26T11:37:2.000Z</time>
      </trkpt>
      <trkpt lat="47.22787" lon="6.04047">
        <ele>219</ele>
        <time>2016-3-26T11:37:2.000Z</time>
      </trkpt>
      <trkpt lat="47.22786" lon="6.04051">
        <ele>218</ele>
        <time>2016-3-26T11:37:2.000Z</time>
      </trkpt>
      <trkpt lat="47.22785" lon="6.04054">
        <ele>219</ele>
        <time>2016-3-26T11:37:2.000Z</time>
      </trkpt>
      <trkpt lat="47.22784" lon="6.04056">
        <ele>219</ele>
        <time>2016-3-26T11:37:2.000Z</time>
      </trkpt>
      <trkpt lat="47.22783" lon="6.04057">
        <ele>218</ele>
        <time>2016-3-26T11:37:2.000Z</time>
      </trkpt>
      <trkpt lat="47.22782" lon="6.04059">
        <ele>218</ele>
        <time>2016-3-26T11:37:2.000Z</time>
      </trkpt>
      <trkpt lat="47.2278" lon="6.0406">
        <ele>216</ele>
        <time>2016-3-26T11:37:2.000Z</time>
      </trkpt>
      <trkpt lat="47.22779" lon="6.04061">
        <ele>216</ele>
        <time>2016-3-26T11:37:2.000Z</time>
      </trkpt>
      <trkpt lat="47.22777" lon="6.04062">
        <ele>215</ele>
        <time>2016-3-26T11:37:2.000Z</time>
      </trkpt>
      <trkpt lat="47.22776" lon="6.04064">
        <ele>215</ele>
        <time>2016-3-26T11:37:2.000Z</time>
      </trkpt>
      <trkpt lat="47.22775" lon="6.04065">
        <ele>215</ele>
        <time>2016-3-26T11:37:2.000Z</time>
      </trkpt>
      <trkpt lat="47.22774" lon="6.04066">
        <ele>215</ele>
        <time>2016-3-26T11:37:2.000Z</time>
      </trkpt>
      <trkpt lat="47.22772" lon="6.04068">
        <ele>214</ele>
        <time>2016-3-26T11:37:2.000Z</time>
      </trkpt>
      <trkpt lat="47.22771" lon="6.04069">
        <ele>214</ele>
        <time>2016-3-26T11:37:2.000Z</time>
      </trkpt>
      <trkpt lat="47.22769" lon="6.04071">
        <ele>213</ele>
        <time>2016-3-26T11:37:2.000Z</time>
      </trkpt>
      <trkpt lat="47.22768" lon="6.04073">
        <ele>213</ele>
        <time>2016-3-26T11:37:2.000Z</time>
      </trkpt>
      <trkpt lat="47.22766" lon="6.04075">
        <ele>214</ele>
        <time>2016-3-26T11:37:2.000Z</time>
      </trkpt>
      <trkpt lat="47.22765" lon="6.04076">
        <ele>214</ele>
        <time>2016-3-26T11:37:2.000Z</time>
      </trkpt>
      <trkpt lat="47.22763" lon="6.04078">
        <ele>213</ele>
        <time>2016-3-26T11:37:2.000Z</time>
      </trkpt>
      <trkpt lat="47.22762" lon="6.04079">
        <ele>212</ele>
        <time>2016-3-26T11:37:2.000Z</time>
      </trkpt>
      <trkpt lat="47.22761" lon="6.04081">
        <ele>211</ele>
        <time>2016-3-26T11:37:2.000Z</time>
      </trkpt>
      <trkpt lat="47.22759" lon="6.04082">
        <ele>211</ele>
        <time>2016-3-26T11:37:2.000Z</time>
      </trkpt>
      <trkpt lat="47.22758" lon="6.04084">
        <ele>209</ele>
        <time>2016-3-26T11:37:2.000Z</time>
      </trkpt>
      <trkpt lat="47.22757" lon="6.04086">
        <ele>208</ele>
        <time>2016-3-26T11:37:2.000Z</time>
      </trkpt>
      <trkpt lat="47.22756" lon="6.04088">
        <ele>209</ele>
        <time>2016-3-26T11:37:2.000Z</time>
      </trkpt>
      <trkpt lat="47.22755" lon="6.04091">
        <ele>208</ele>
        <time>2016-3-26T11:37:2.000Z</time>
      </trkpt>
      <trkpt lat="47.22754" lon="6.04093">
        <ele>209</ele>
        <time>2016-3-26T11:37:2.000Z</time>
      </trkpt>
      <trkpt lat="47.22753" lon="6.04095">
        <ele>209</ele>
        <time>2016-3-26T11:37:2.000Z</time>
      </trkpt>
      <trkpt lat="47.22752" lon="6.04096">
        <ele>211</ele>
        <time>2016-3-26T11:37:2.000Z</time>
      </trkpt>
      <trkpt lat="47.22751" lon="6.04098">
        <ele>211</ele>
        <time>2016-3-26T11:37:2.000Z</time>
      </trkpt>
      <trkpt lat="47.2275" lon="6.041">
        <ele>211</ele>
        <time>2016-3-26T11:37:2.000Z</time>
      </trkpt>
      <trkpt lat="47.22749" lon="6.04103">
        <ele>211</ele>
        <time>2016-3-26T11:37:2.000Z</time>
      </trkpt>
      <trkpt lat="47.22748" lon="6.04105">
        <ele>212</ele>
        <time>2016-3-26T11:37:2.000Z</time>
      </trkpt>
      <trkpt lat="47.22746" lon="6.04107">
        <ele>212</ele>
        <time>2016-3-26T11:37:2.000Z</time>
      </trkpt>
      <trkpt lat="47.22745" lon="6.04108">
        <ele>212</ele>
        <time>2016-3-26T11:37:2.000Z</time>
      </trkpt>
      <trkpt lat="47.22744" lon="6.0411">
        <ele>212</ele>
        <time>2016-3-26T11:37:2.000Z</time>
      </trkpt>
      <trkpt lat="47.22742" lon="6.04111">
        <ele>215</ele>
        <time>2016-3-26T11:37:2.000Z</time>
      </trkpt>
      <trkpt lat="47.22741" lon="6.04113">
        <ele>216</ele>
        <time>2016-3-26T11:37:2.000Z</time>
      </trkpt>
      <trkpt lat="47.22739" lon="6.04116">
        <ele>215</ele>
        <time>2016-3-26T11:37:2.000Z</time>
      </trkpt>
      <trkpt lat="47.22738" lon="6.04119">
        <ele>215</ele>
        <time>2016-3-26T11:37:2.000Z</time>
      </trkpt>
      <trkpt lat="47.22737" lon="6.04121">
        <ele>216</ele>
        <time>2016-3-26T11:37:2.000Z</time>
      </trkpt>
      <trkpt lat="47.22736" lon="6.04123">
        <ele>214</ele>
        <time>2016-3-26T11:37:2.000Z</time>
      </trkpt>
      <trkpt lat="47.22736" lon="6.04125">
        <ele>210</ele>
        <time>2016-3-26T11:37:2.000Z</time>
      </trkpt>
      <trkpt lat="47.22736" lon="6.04128">
        <ele>213</ele>
        <time>2016-3-26T11:37:2.000Z</time>
      </trkpt>
      <trkpt lat="47.22735" lon="6.04132">
        <ele>212</ele>
        <time>2016-3-26T11:37:2.000Z</time>
      </trkpt>
      <trkpt lat="47.22735" lon="6.04134">
        <ele>211</ele>
        <time>2016-3-26T11:37:2.000Z</time>
      </trkpt>
      <trkpt lat="47.22734" lon="6.04135">
        <ele>213</ele>
        <time>2016-3-26T11:37:2.000Z</time>
      </trkpt>
      <trkpt lat="47.22733" lon="6.04137">
        <ele>212</ele>
        <time>2016-3-26T11:37:2.000Z</time>
      </trkpt>
      <trkpt lat="47.22732" lon="6.0414">
        <ele>213</ele>
        <time>2016-3-26T11:37:2.000Z</time>
      </trkpt>
      <trkpt lat="47.22731" lon="6.04142">
        <ele>213</ele>
        <time>2016-3-26T11:37:2.000Z</time>
      </trkpt>
      <trkpt lat="47.22731" lon="6.04144">
        <ele>215</ele>
        <time>2016-3-26T11:37:2.000Z</time>
      </trkpt>
      <trkpt lat="47.2273" lon="6.04146">
        <ele>215</ele>
        <time>2016-3-26T11:37:2.000Z</time>
      </trkpt>
      <trkpt lat="47.2273" lon="6.04149">
        <ele>216</ele>
        <time>2016-3-26T11:37:2.000Z</time>
      </trkpt>
      <trkpt lat="47.22731" lon="6.04153">
        <ele>218</ele>
        <time>2016-3-26T11:37:2.000Z</time>
      </trkpt>
      <trkpt lat="47.22729" lon="6.04155">
        <ele>216</ele>
        <time>2016-3-26T11:37:2.000Z</time>
      </trkpt>
      <trkpt lat="47.22728" lon="6.04159">
        <ele>218</ele>
        <time>2016-3-26T11:37:2.000Z</time>
      </trkpt>
      <trkpt lat="47.22726" lon="6.04162">
        <ele>218</ele>
        <time>2016-3-26T11:37:2.000Z</time>
      </trkpt>
      <trkpt lat="47.22725" lon="6.04163">
        <ele>218</ele>
        <time>2016-3-26T11:37:2.000Z</time>
      </trkpt>
      <trkpt lat="47.22724" lon="6.04165">
        <ele>219</ele>
        <time>2016-3-26T11:37:2.000Z</time>
      </trkpt>
      <trkpt lat="47.22724" lon="6.04167">
        <ele>221</ele>
        <time>2016-3-26T11:37:2.000Z</time>
      </trkpt>
      <trkpt lat="47.22723" lon="6.04171">
        <ele>221</ele>
        <time>2016-3-26T11:37:2.000Z</time>
      </trkpt>
      <trkpt lat="47.22721" lon="6.04174">
        <ele>220</ele>
        <time>2016-3-26T11:37:2.000Z</time>
      </trkpt>
      <trkpt lat="47.2272" lon="6.04175">
        <ele>220</ele>
        <time>2016-3-26T11:37:2.000Z</time>
      </trkpt>
      <trkpt lat="47.22719" lon="6.04177">
        <ele>219</ele>
        <time>2016-3-26T11:37:2.000Z</time>
      </trkpt>
      <trkpt lat="47.22718" lon="6.04179">
        <ele>220</ele>
        <time>2016-3-26T11:37:2.000Z</time>
      </trkpt>
      <trkpt lat="47.22717" lon="6.04181">
        <ele>220</ele>
        <time>2016-3-26T11:37:2.000Z</time>
      </trkpt>
      <trkpt lat="47.22717" lon="6.04183">
        <ele>220</ele>
        <time>2016-3-26T11:37:2.000Z</time>
      </trkpt>
      <trkpt lat="47.22716" lon="6.04185">
        <ele>220</ele>
        <time>2016-3-26T11:37:2.000Z</time>
      </trkpt>
      <trkpt lat="47.22715" lon="6.04187">
        <ele>221</ele>
        <time>2016-3-26T11:37:2.000Z</time>
      </trkpt>
      <trkpt lat="47.22714" lon="6.0419">
        <ele>218</ele>
        <time>2016-3-26T11:37:2.000Z</time>
      </trkpt>
      <trkpt lat="47.22712" lon="6.04194">
        <ele>218</ele>
        <time>2016-3-26T11:37:2.000Z</time>
      </trkpt>
      <trkpt lat="47.22711" lon="6.04195">
        <ele>218</ele>
        <time>2016-3-26T11:37:2.000Z</time>
      </trkpt>
      <trkpt lat="47.2271" lon="6.04197">
        <ele>219</ele>
        <time>2016-3-26T11:37:2.000Z</time>
      </trkpt>
      <trkpt lat="47.2271" lon="6.04201">
        <ele>221</ele>
        <time>2016-3-26T11:37:2.000Z</time>
      </trkpt>
      <trkpt lat="47.2271" lon="6.04205">
        <ele>223</ele>
        <time>2016-3-26T11:37:2.000Z</time>
      </trkpt>
      <trkpt lat="47.2271" lon="6.04209">
        <ele>225</ele>
        <time>2016-3-26T11:37:2.000Z</time>
      </trkpt>
      <trkpt lat="47.22711" lon="6.04213">
        <ele>226</ele>
        <time>2016-3-26T11:37:2.000Z</time>
      </trkpt>
      <trkpt lat="47.2271" lon="6.04217">
        <ele>226</ele>
        <time>2016-3-26T11:37:2.000Z</time>
      </trkpt>
      <trkpt lat="47.22709" lon="6.04221">
        <ele>228</ele>
        <time>2016-3-26T11:37:2.000Z</time>
      </trkpt>
      <trkpt lat="47.22707" lon="6.04225">
        <ele>230</ele>
        <time>2016-3-26T11:37:2.000Z</time>
      </trkpt>
      <trkpt lat="47.22706" lon="6.04226">
        <ele>231</ele>
        <time>2016-3-26T11:37:2.000Z</time>
      </trkpt>
      <trkpt lat="47.22706" lon="6.04228">
        <ele>233</ele>
        <time>2016-3-26T11:37:2.000Z</time>
      </trkpt>
      <trkpt lat="47.22706" lon="6.04232">
        <ele>235</ele>
        <time>2016-3-26T11:37:2.000Z</time>
      </trkpt>
      <trkpt lat="47.22705" lon="6.04236">
        <ele>238</ele>
        <time>2016-3-26T11:37:2.000Z</time>
      </trkpt>
      <trkpt lat="47.22703" lon="6.04238">
        <ele>240</ele>
        <time>2016-3-26T11:37:2.000Z</time>
      </trkpt>
      <trkpt lat="47.22701" lon="6.04241">
        <ele>241</ele>
        <time>2016-3-26T11:37:2.000Z</time>
      </trkpt>
      <trkpt lat="47.227" lon="6.04246">
        <ele>241</ele>
        <time>2016-3-26T11:37:2.000Z</time>
      </trkpt>
      <trkpt lat="47.227" lon="6.04248">
        <ele>242</ele>
        <time>2016-3-26T11:37:2.000Z</time>
      </trkpt>
      <trkpt lat="47.227" lon="6.04251">
        <ele>241</ele>
        <time>2016-3-26T11:37:2.000Z</time>
      </trkpt>
      <trkpt lat="47.227" lon="6.04253">
        <ele>241</ele>
        <time>2016-3-26T11:37:2.000Z</time>
      </trkpt>
      <trkpt lat="47.227" lon="6.04256">
        <ele>241</ele>
        <time>2016-3-26T11:37:2.000Z</time>
      </trkpt>
      <trkpt lat="47.22699" lon="6.04259">
        <ele>241</ele>
        <time>2016-3-26T11:37:2.000Z</time>
      </trkpt>
      <trkpt lat="47.22698" lon="6.04262">
        <ele>241</ele>
        <time>2016-3-26T11:37:2.000Z</time>
      </trkpt>
      <trkpt lat="47.22697" lon="6.04264">
        <ele>240</ele>
        <time>2016-3-26T11:37:2.000Z</time>
      </trkpt>
      <trkpt lat="47.22697" lon="6.04267">
        <ele>240</ele>
        <time>2016-3-26T11:37:2.000Z</time>
      </trkpt>
      <trkpt lat="47.22696" lon="6.0427">
        <ele>240</ele>
        <time>2016-3-26T11:37:2.000Z</time>
      </trkpt>
      <trkpt lat="47.22695" lon="6.04272">
        <ele>241</ele>
        <time>2016-3-26T11:39:13.000Z</time>
      </trkpt>
      <trkpt lat="47.22694" lon="6.04274">
        <ele>240</ele>
        <time>2016-3-26T11:39:13.000Z</time>
      </trkpt>
      <trkpt lat="47.22694" lon="6.04277">
        <ele>239</ele>
        <time>2016-3-26T11:39:13.000Z</time>
      </trkpt>
      <trkpt lat="47.22693" lon="6.04279">
        <ele>241</ele>
        <time>2016-3-26T11:39:13.000Z</time>
      </trkpt>
      <trkpt lat="47.22693" lon="6.04281">
        <ele>245</ele>
        <time>2016-3-26T11:39:13.000Z</time>
      </trkpt>
      <trkpt lat="47.22692" lon="6.04285">
        <ele>248</ele>
        <time>2016-3-26T11:39:13.000Z</time>
      </trkpt>
      <trkpt lat="47.22692" lon="6.04289">
        <ele>247</ele>
        <time>2016-3-26T11:39:13.000Z</time>
      </trkpt>
      <trkpt lat="47.22691" lon="6.04292">
        <ele>247</ele>
        <time>2016-3-26T11:39:13.000Z</time>
      </trkpt>
      <trkpt lat="47.2269" lon="6.04295">
        <ele>247</ele>
        <time>2016-3-26T11:39:13.000Z</time>
      </trkpt>
      <trkpt lat="47.22689" lon="6.04299">
        <ele>248</ele>
        <time>2016-3-26T11:39:13.000Z</time>
      </trkpt>
      <trkpt lat="47.22688" lon="6.04303">
        <ele>249</ele>
        <time>2016-3-26T11:39:13.000Z</time>
      </trkpt>
      <trkpt lat="47.22687" lon="6.04307">
        <ele>247</ele>
        <time>2016-3-26T11:39:13.000Z</time>
      </trkpt>
      <trkpt lat="47.22684" lon="6.04309">
        <ele>247</ele>
        <time>2016-3-26T11:39:13.000Z</time>
      </trkpt>
      <trkpt lat="47.22682" lon="6.04312">
        <ele>246</ele>
        <time>2016-3-26T11:39:13.000Z</time>
      </trkpt>
      <trkpt lat="47.22681" lon="6.04313">
        <ele>247</ele>
        <time>2016-3-26T11:39:13.000Z</time>
      </trkpt>
      <trkpt lat="47.2268" lon="6.04315">
        <ele>245</ele>
        <time>2016-3-26T11:39:13.000Z</time>
      </trkpt>
      <trkpt lat="47.22679" lon="6.04318">
        <ele>245</ele>
        <time>2016-3-26T11:39:13.000Z</time>
      </trkpt>
      <trkpt lat="47.22679" lon="6.0432">
        <ele>245</ele>
        <time>2016-3-26T11:39:13.000Z</time>
      </trkpt>
      <trkpt lat="47.22678" lon="6.04322">
        <ele>245</ele>
        <time>2016-3-26T11:39:13.000Z</time>
      </trkpt>
      <trkpt lat="47.22677" lon="6.04324">
        <ele>245</ele>
        <time>2016-3-26T11:39:13.000Z</time>
      </trkpt>
      <trkpt lat="47.22676" lon="6.04326">
        <ele>243</ele>
        <time>2016-3-26T11:39:13.000Z</time>
      </trkpt>
      <trkpt lat="47.22675" lon="6.04329">
        <ele>242</ele>
        <time>2016-3-26T11:39:13.000Z</time>
      </trkpt>
      <trkpt lat="47.22674" lon="6.04331">
        <ele>241</ele>
        <time>2016-3-26T11:39:13.000Z</time>
      </trkpt>
      <trkpt lat="47.22675" lon="6.04334">
        <ele>240</ele>
        <time>2016-3-26T11:39:13.000Z</time>
      </trkpt>
      <trkpt lat="47.22675" lon="6.04336">
        <ele>240</ele>
        <time>2016-3-26T11:39:13.000Z</time>
      </trkpt>
      <trkpt lat="47.22675" lon="6.04339">
        <ele>237</ele>
        <time>2016-3-26T11:39:13.000Z</time>
      </trkpt>
      <trkpt lat="47.22675" lon="6.04341">
        <ele>233</ele>
        <time>2016-3-26T11:39:13.000Z</time>
      </trkpt>
      <trkpt lat="47.22675" lon="6.04344">
        <ele>232</ele>
        <time>2016-3-26T11:39:13.000Z</time>
      </trkpt>
      <trkpt lat="47.22675" lon="6.04346">
        <ele>231</ele>
        <time>2016-3-26T11:39:13.000Z</time>
      </trkpt>
      <trkpt lat="47.22674" lon="6.04349">
        <ele>230</ele>
        <time>2016-3-26T11:39:13.000Z</time>
      </trkpt>
      <trkpt lat="47.22674" lon="6.04351">
        <ele>229</ele>
        <time>2016-3-26T11:39:13.000Z</time>
      </trkpt>
      <trkpt lat="47.22674" lon="6.04354">
        <ele>229</ele>
        <time>2016-3-26T11:39:13.000Z</time>
      </trkpt>
      <trkpt lat="47.22675" lon="6.04356">
        <ele>228</ele>
        <time>2016-3-26T11:39:13.000Z</time>
      </trkpt>
      <trkpt lat="47.22674" lon="6.04359">
        <ele>229</ele>
        <time>2016-3-26T11:39:13.000Z</time>
      </trkpt>
      <trkpt lat="47.22674" lon="6.04361">
        <ele>229</ele>
        <time>2016-3-26T11:39:13.000Z</time>
      </trkpt>
      <trkpt lat="47.22674" lon="6.04363">
        <ele>229</ele>
        <time>2016-3-26T11:39:13.000Z</time>
      </trkpt>
      <trkpt lat="47.22673" lon="6.04366">
        <ele>227</ele>
        <time>2016-3-26T11:39:13.000Z</time>
      </trkpt>
      <trkpt lat="47.22673" lon="6.04368">
        <ele>227</ele>
        <time>2016-3-26T11:39:13.000Z</time>
      </trkpt>
      <trkpt lat="47.22673" lon="6.0437">
        <ele>227</ele>
        <time>2016-3-26T11:39:13.000Z</time>
      </trkpt>
      <trkpt lat="47.22673" lon="6.04374">
        <ele>227</ele>
        <time>2016-3-26T11:39:13.000Z</time>
      </trkpt>
      <trkpt lat="47.22673" lon="6.04376">
        <ele>228</ele>
        <time>2016-3-26T11:39:13.000Z</time>
      </trkpt>
      <trkpt lat="47.22673" lon="6.04378">
        <ele>228</ele>
        <time>2016-3-26T11:39:13.000Z</time>
      </trkpt>
      <trkpt lat="47.22672" lon="6.0438">
        <ele>228</ele>
        <time>2016-3-26T11:39:13.000Z</time>
      </trkpt>
      <trkpt lat="47.22672" lon="6.04382">
        <ele>228</ele>
        <time>2016-3-26T11:39:13.000Z</time>
      </trkpt>
      <trkpt lat="47.22671" lon="6.04385">
        <ele>228</ele>
        <time>2016-3-26T11:39:13.000Z</time>
      </trkpt>
      <trkpt lat="47.2267" lon="6.04387">
        <ele>228</ele>
        <time>2016-3-26T11:39:13.000Z</time>
      </trkpt>
      <trkpt lat="47.2267" lon="6.04389">
        <ele>226</ele>
        <time>2016-3-26T11:39:13.000Z</time>
      </trkpt>
      <trkpt lat="47.22669" lon="6.04392">
        <ele>225</ele>
        <time>2016-3-26T11:39:13.000Z</time>
      </trkpt>
      <trkpt lat="47.22668" lon="6.04393">
        <ele>223</ele>
        <time>2016-3-26T11:39:13.000Z</time>
      </trkpt>
      <trkpt lat="47.22668" lon="6.04396">
        <ele>224</ele>
        <time>2016-3-26T11:39:13.000Z</time>
      </trkpt>
      <trkpt lat="47.22667" lon="6.04398">
        <ele>225</ele>
        <time>2016-3-26T11:39:13.000Z</time>
      </trkpt>
      <trkpt lat="47.22667" lon="6.044">
        <ele>225</ele>
        <time>2016-3-26T11:39:13.000Z</time>
      </trkpt>
      <trkpt lat="47.22666" lon="6.04403">
        <ele>224</ele>
        <time>2016-3-26T11:39:13.000Z</time>
      </trkpt>
      <trkpt lat="47.22666" lon="6.04405">
        <ele>224</ele>
        <time>2016-3-26T11:39:13.000Z</time>
      </trkpt>
      <trkpt lat="47.22666" lon="6.04407">
        <ele>225</ele>
        <time>2016-3-26T11:39:13.000Z</time>
      </trkpt>
      <trkpt lat="47.22665" lon="6.0441">
        <ele>223</ele>
        <time>2016-3-26T11:39:13.000Z</time>
      </trkpt>
      <trkpt lat="47.22665" lon="6.04412">
        <ele>224</ele>
        <time>2016-3-26T11:39:13.000Z</time>
      </trkpt>
      <trkpt lat="47.22665" lon="6.04414">
        <ele>224</ele>
        <time>2016-3-26T11:39:13.000Z</time>
      </trkpt>
      <trkpt lat="47.22664" lon="6.04417">
        <ele>224</ele>
        <time>2016-3-26T11:39:13.000Z</time>
      </trkpt>
      <trkpt lat="47.22662" lon="6.04421">
        <ele>223</ele>
        <time>2016-3-26T11:39:13.000Z</time>
      </trkpt>
      <trkpt lat="47.22662" lon="6.04423">
        <ele>224</ele>
        <time>2016-3-26T11:39:13.000Z</time>
      </trkpt>
      <trkpt lat="47.22661" lon="6.04427">
        <ele>224</ele>
        <time>2016-3-26T11:39:13.000Z</time>
      </trkpt>
      <trkpt lat="47.2266" lon="6.0443">
        <ele>223</ele>
        <time>2016-3-26T11:39:13.000Z</time>
      </trkpt>
      <trkpt lat="47.2266" lon="6.04434">
        <ele>223</ele>
        <time>2016-3-26T11:39:13.000Z</time>
      </trkpt>
      <trkpt lat="47.22659" lon="6.04438">
        <ele>224</ele>
        <time>2016-3-26T11:39:13.000Z</time>
      </trkpt>
      <trkpt lat="47.22659" lon="6.0444">
        <ele>224</ele>
        <time>2016-3-26T11:39:13.000Z</time>
      </trkpt>
      <trkpt lat="47.22659" lon="6.04442">
        <ele>224</ele>
        <time>2016-3-26T11:39:13.000Z</time>
      </trkpt>
      <trkpt lat="47.22659" lon="6.04445">
        <ele>225</ele>
        <time>2016-3-26T11:39:13.000Z</time>
      </trkpt>
      <trkpt lat="47.22659" lon="6.04447">
        <ele>226</ele>
        <time>2016-3-26T11:39:13.000Z</time>
      </trkpt>
      <trkpt lat="47.22659" lon="6.0445">
        <ele>226</ele>
        <time>2016-3-26T11:39:13.000Z</time>
      </trkpt>
      <trkpt lat="47.22658" lon="6.04452">
        <ele>225</ele>
        <time>2016-3-26T11:39:13.000Z</time>
      </trkpt>
      <trkpt lat="47.22658" lon="6.04454">
        <ele>224</ele>
        <time>2016-3-26T11:39:13.000Z</time>
      </trkpt>
      <trkpt lat="47.22658" lon="6.04458">
        <ele>224</ele>
        <time>2016-3-26T11:39:13.000Z</time>
      </trkpt>
      <trkpt lat="47.22658" lon="6.04461">
        <ele>225</ele>
        <time>2016-3-26T11:39:13.000Z</time>
      </trkpt>
      <trkpt lat="47.22659" lon="6.04466">
        <ele>226</ele>
        <time>2016-3-26T11:39:13.000Z</time>
      </trkpt>
      <trkpt lat="47.22659" lon="6.04468">
        <ele>226</ele>
        <time>2016-3-26T11:39:13.000Z</time>
      </trkpt>
      <trkpt lat="47.2266" lon="6.0447">
        <ele>226</ele>
        <time>2016-3-26T11:39:13.000Z</time>
      </trkpt>
      <trkpt lat="47.2266" lon="6.04472">
        <ele>227</ele>
        <time>2016-3-26T11:39:13.000Z</time>
      </trkpt>
      <trkpt lat="47.22661" lon="6.04475">
        <ele>228</ele>
        <time>2016-3-26T11:39:13.000Z</time>
      </trkpt>
      <trkpt lat="47.22661" lon="6.04477">
        <ele>228</ele>
        <time>2016-3-26T11:39:13.000Z</time>
      </trkpt>
      <trkpt lat="47.22661" lon="6.04479">
        <ele>228</ele>
        <time>2016-3-26T11:39:13.000Z</time>
      </trkpt>
      <trkpt lat="47.22662" lon="6.04482">
        <ele>228</ele>
        <time>2016-3-26T11:39:13.000Z</time>
      </trkpt>
      <trkpt lat="47.22662" lon="6.04484">
        <ele>227</ele>
        <time>2016-3-26T11:39:13.000Z</time>
      </trkpt>
      <trkpt lat="47.22662" lon="6.04487">
        <ele>227</ele>
        <time>2016-3-26T11:39:13.000Z</time>
      </trkpt>
      <trkpt lat="47.22663" lon="6.04489">
        <ele>225</ele>
        <time>2016-3-26T11:39:13.000Z</time>
      </trkpt>
      <trkpt lat="47.22664" lon="6.04491">
        <ele>224</ele>
        <time>2016-3-26T11:39:13.000Z</time>
      </trkpt>
      <trkpt lat="47.22664" lon="6.04494">
        <ele>225</ele>
        <time>2016-3-26T11:39:13.000Z</time>
      </trkpt>
      <trkpt lat="47.22664" lon="6.04498">
        <ele>225</ele>
        <time>2016-3-26T11:39:13.000Z</time>
      </trkpt>
      <trkpt lat="47.22664" lon="6.04502">
        <ele>226</ele>
        <time>2016-3-26T11:39:13.000Z</time>
      </trkpt>
      <trkpt lat="47.22665" lon="6.04506">
        <ele>225</ele>
        <time>2016-3-26T11:39:13.000Z</time>
      </trkpt>
      <trkpt lat="47.22665" lon="6.04508">
        <ele>227</ele>
        <time>2016-3-26T11:39:13.000Z</time>
      </trkpt>
      <trkpt lat="47.22665" lon="6.0451">
        <ele>227</ele>
        <time>2016-3-26T11:39:13.000Z</time>
      </trkpt>
      <trkpt lat="47.22664" lon="6.04512">
        <ele>228</ele>
        <time>2016-3-26T11:39:13.000Z</time>
      </trkpt>
      <trkpt lat="47.22663" lon="6.04515">
        <ele>228</ele>
        <time>2016-3-26T11:39:13.000Z</time>
      </trkpt>
      <trkpt lat="47.22662" lon="6.04517">
        <ele>228</ele>
        <time>2016-3-26T11:39:13.000Z</time>
      </trkpt>
      <trkpt lat="47.22662" lon="6.04519">
        <ele>227</ele>
        <time>2016-3-26T11:39:13.000Z</time>
      </trkpt>
      <trkpt lat="47.22661" lon="6.04522">
        <ele>226</ele>
        <time>2016-3-26T11:39:13.000Z</time>
      </trkpt>
      <trkpt lat="47.22661" lon="6.04524">
        <ele>227</ele>
        <time>2016-3-26T11:39:13.000Z</time>
      </trkpt>
      <trkpt lat="47.22661" lon="6.04526">
        <ele>228</ele>
        <time>2016-3-26T11:39:13.000Z</time>
      </trkpt>
      <trkpt lat="47.22661" lon="6.04529">
        <ele>228</ele>
        <time>2016-3-26T11:39:13.000Z</time>
      </trkpt>
      <trkpt lat="47.22661" lon="6.04531">
        <ele>227</ele>
        <time>2016-3-26T11:39:13.000Z</time>
      </trkpt>
      <trkpt lat="47.22661" lon="6.04533">
        <ele>227</ele>
        <time>2016-3-26T11:41:23.000Z</time>
      </trkpt>
      <trkpt lat="47.22661" lon="6.04536">
        <ele>227</ele>
        <time>2016-3-26T11:41:23.000Z</time>
      </trkpt>
      <trkpt lat="47.22662" lon="6.04538">
        <ele>227</ele>
        <time>2016-3-26T11:41:23.000Z</time>
      </trkpt>
      <trkpt lat="47.22662" lon="6.0454">
        <ele>226</ele>
        <time>2016-3-26T11:41:23.000Z</time>
      </trkpt>
      <trkpt lat="47.22662" lon="6.04543">
        <ele>227</ele>
        <time>2016-3-26T11:41:23.000Z</time>
      </trkpt>
      <trkpt lat="47.22662" lon="6.04545">
        <ele>226</ele>
        <time>2016-3-26T11:41:23.000Z</time>
      </trkpt>
      <trkpt lat="47.22662" lon="6.04548">
        <ele>226</ele>
        <time>2016-3-26T11:41:23.000Z</time>
      </trkpt>
      <trkpt lat="47.22664" lon="6.04551">
        <ele>226</ele>
        <time>2016-3-26T11:41:23.000Z</time>
      </trkpt>
      <trkpt lat="47.22664" lon="6.04553">
        <ele>225</ele>
        <time>2016-3-26T11:41:23.000Z</time>
      </trkpt>
      <trkpt lat="47.22665" lon="6.04555">
        <ele>226</ele>
        <time>2016-3-26T11:41:23.000Z</time>
      </trkpt>
      <trkpt lat="47.22665" lon="6.04557">
        <ele>226</ele>
        <time>2016-3-26T11:41:23.000Z</time>
      </trkpt>
      <trkpt lat="47.22666" lon="6.04559">
        <ele>225</ele>
        <time>2016-3-26T11:41:23.000Z</time>
      </trkpt>
      <trkpt lat="47.22667" lon="6.04561">
        <ele>226</ele>
        <time>2016-3-26T11:41:23.000Z</time>
      </trkpt>
      <trkpt lat="47.22668" lon="6.04563">
        <ele>226</ele>
        <time>2016-3-26T11:41:23.000Z</time>
      </trkpt>
      <trkpt lat="47.22669" lon="6.04564">
        <ele>226</ele>
        <time>2016-3-26T11:41:23.000Z</time>
      </trkpt>
      <trkpt lat="47.22671" lon="6.04567">
        <ele>225</ele>
        <time>2016-3-26T11:41:23.000Z</time>
      </trkpt>
      <trkpt lat="47.22672" lon="6.04569">
        <ele>225</ele>
        <time>2016-3-26T11:41:23.000Z</time>
      </trkpt>
      <trkpt lat="47.22672" lon="6.04572">
        <ele>227</ele>
        <time>2016-3-26T11:41:23.000Z</time>
      </trkpt>
      <trkpt lat="47.22672" lon="6.04575">
        <ele>228</ele>
        <time>2016-3-26T11:41:23.000Z</time>
      </trkpt>
      <trkpt lat="47.22672" lon="6.04578">
        <ele>230</ele>
        <time>2016-3-26T11:41:23.000Z</time>
      </trkpt>
      <trkpt lat="47.22671" lon="6.04581">
        <ele>233</ele>
        <time>2016-3-26T11:41:23.000Z</time>
      </trkpt>
      <trkpt lat="47.22671" lon="6.04585">
        <ele>233</ele>
        <time>2016-3-26T11:41:23.000Z</time>
      </trkpt>
      <trkpt lat="47.2267" lon="6.04589">
        <ele>233</ele>
        <time>2016-3-26T11:41:23.000Z</time>
      </trkpt>
      <trkpt lat="47.2267" lon="6.04593">
        <ele>233</ele>
        <time>2016-3-26T11:41:23.000Z</time>
      </trkpt>
      <trkpt lat="47.2267" lon="6.04595">
        <ele>233</ele>
        <time>2016-3-26T11:41:23.000Z</time>
      </trkpt>
      <trkpt lat="47.22671" lon="6.04597">
        <ele>233</ele>
        <time>2016-3-26T11:41:23.000Z</time>
      </trkpt>
      <trkpt lat="47.22672" lon="6.04601">
        <ele>233</ele>
        <time>2016-3-26T11:41:23.000Z</time>
      </trkpt>
      <trkpt lat="47.22672" lon="6.04605">
        <ele>234</ele>
        <time>2016-3-26T11:41:23.000Z</time>
      </trkpt>
      <trkpt lat="47.22673" lon="6.04608">
        <ele>236</ele>
        <time>2016-3-26T11:41:23.000Z</time>
      </trkpt>
      <trkpt lat="47.22673" lon="6.04612">
        <ele>235</ele>
        <time>2016-3-26T11:41:23.000Z</time>
      </trkpt>
      <trkpt lat="47.22673" lon="6.04616">
        <ele>235</ele>
        <time>2016-3-26T11:41:23.000Z</time>
      </trkpt>
      <trkpt lat="47.22674" lon="6.04618">
        <ele>236</ele>
        <time>2016-3-26T11:41:23.000Z</time>
      </trkpt>
      <trkpt lat="47.22674" lon="6.0462">
        <ele>237</ele>
        <time>2016-3-26T11:41:23.000Z</time>
      </trkpt>
      <trkpt lat="47.22675" lon="6.04623">
        <ele>238</ele>
        <time>2016-3-26T11:41:23.000Z</time>
      </trkpt>
      <trkpt lat="47.22675" lon="6.04625">
        <ele>238</ele>
        <time>2016-3-26T11:41:23.000Z</time>
      </trkpt>
      <trkpt lat="47.22675" lon="6.04628">
        <ele>237</ele>
        <time>2016-3-26T11:41:23.000Z</time>
      </trkpt>
      <trkpt lat="47.22675" lon="6.04631">
        <ele>240</ele>
        <time>2016-3-26T11:41:23.000Z</time>
      </trkpt>
      <trkpt lat="47.22675" lon="6.04633">
        <ele>240</ele>
        <time>2016-3-26T11:41:23.000Z</time>
      </trkpt>
      <trkpt lat="47.22675" lon="6.04636">
        <ele>241</ele>
        <time>2016-3-26T11:41:23.000Z</time>
      </trkpt>
      <trkpt lat="47.22675" lon="6.04638">
        <ele>242</ele>
        <time>2016-3-26T11:41:23.000Z</time>
      </trkpt>
      <trkpt lat="47.22675" lon="6.04641">
        <ele>243</ele>
        <time>2016-3-26T11:41:23.000Z</time>
      </trkpt>
      <trkpt lat="47.22675" lon="6.04643">
        <ele>243</ele>
        <time>2016-3-26T11:41:23.000Z</time>
      </trkpt>
      <trkpt lat="47.22675" lon="6.04647">
        <ele>245</ele>
        <time>2016-3-26T11:41:23.000Z</time>
      </trkpt>
      <trkpt lat="47.22676" lon="6.04651">
        <ele>245</ele>
        <time>2016-3-26T11:41:23.000Z</time>
      </trkpt>
      <trkpt lat="47.22676" lon="6.04654">
        <ele>244</ele>
        <time>2016-3-26T11:41:23.000Z</time>
      </trkpt>
      <trkpt lat="47.22675" lon="6.04658">
        <ele>242</ele>
        <time>2016-3-26T11:41:23.000Z</time>
      </trkpt>
      <trkpt lat="47.22676" lon="6.04662">
        <ele>237</ele>
        <time>2016-3-26T11:41:23.000Z</time>
      </trkpt>
      <trkpt lat="47.22676" lon="6.04665">
        <ele>233</ele>
        <time>2016-3-26T11:41:23.000Z</time>
      </trkpt>
      <trkpt lat="47.22676" lon="6.04669">
        <ele>232</ele>
        <time>2016-3-26T11:41:23.000Z</time>
      </trkpt>
      <trkpt lat="47.22676" lon="6.04672">
        <ele>231</ele>
        <time>2016-3-26T11:41:23.000Z</time>
      </trkpt>
      <trkpt lat="47.22676" lon="6.04675">
        <ele>230</ele>
        <time>2016-3-26T11:41:23.000Z</time>
      </trkpt>
      <trkpt lat="47.22675" lon="6.04678">
        <ele>231</ele>
        <time>2016-3-26T11:41:23.000Z</time>
      </trkpt>
      <trkpt lat="47.22676" lon="6.0468">
        <ele>231</ele>
        <time>2016-3-26T11:41:23.000Z</time>
      </trkpt>
      <trkpt lat="47.22676" lon="6.04683">
        <ele>229</ele>
        <time>2016-3-26T11:41:23.000Z</time>
      </trkpt>
      <trkpt lat="47.22676" lon="6.04685">
        <ele>228</ele>
        <time>2016-3-26T11:41:23.000Z</time>
      </trkpt>
      <trkpt lat="47.22677" lon="6.04687">
        <ele>228</ele>
        <time>2016-3-26T11:41:23.000Z</time>
      </trkpt>
      <trkpt lat="47.22677" lon="6.0469">
        <ele>229</ele>
        <time>2016-3-26T11:41:23.000Z</time>
      </trkpt>
      <trkpt lat="47.22677" lon="6.04693">
        <ele>227</ele>
        <time>2016-3-26T11:41:23.000Z</time>
      </trkpt>
      <trkpt lat="47.22676" lon="6.04696">
        <ele>226</ele>
        <time>2016-3-26T11:41:23.000Z</time>
      </trkpt>
      <trkpt lat="47.22676" lon="6.04699">
        <ele>225</ele>
        <time>2016-3-26T11:41:23.000Z</time>
      </trkpt>
      <trkpt lat="47.22676" lon="6.04702">
        <ele>225</ele>
        <time>2016-3-26T11:41:23.000Z</time>
      </trkpt>
      <trkpt lat="47.22676" lon="6.04705">
        <ele>224</ele>
        <time>2016-3-26T11:41:23.000Z</time>
      </trkpt>
      <trkpt lat="47.22676" lon="6.04708">
        <ele>224</ele>
        <time>2016-3-26T11:41:23.000Z</time>
      </trkpt>
      <trkpt lat="47.22677" lon="6.04711">
        <ele>224</ele>
        <time>2016-3-26T11:41:23.000Z</time>
      </trkpt>
      <trkpt lat="47.22677" lon="6.04713">
        <ele>224</ele>
        <time>2016-3-26T11:41:23.000Z</time>
      </trkpt>
      <trkpt lat="47.22678" lon="6.04716">
        <ele>223</ele>
        <time>2016-3-26T11:41:23.000Z</time>
      </trkpt>
      <trkpt lat="47.22678" lon="6.04718">
        <ele>225</ele>
        <time>2016-3-26T11:41:23.000Z</time>
      </trkpt>
      <trkpt lat="47.22678" lon="6.04721">
        <ele>226</ele>
        <time>2016-3-26T11:41:23.000Z</time>
      </trkpt>
      <trkpt lat="47.22678" lon="6.04724">
        <ele>227</ele>
        <time>2016-3-26T11:41:23.000Z</time>
      </trkpt>
      <trkpt lat="47.22679" lon="6.04726">
        <ele>228</ele>
        <time>2016-3-26T11:41:23.000Z</time>
      </trkpt>
      <trkpt lat="47.2268" lon="6.04728">
        <ele>228</ele>
        <time>2016-3-26T11:41:23.000Z</time>
      </trkpt>
      <trkpt lat="47.22681" lon="6.0473">
        <ele>229</ele>
        <time>2016-3-26T11:41:23.000Z</time>
      </trkpt>
      <trkpt lat="47.22682" lon="6.04733">
        <ele>229</ele>
        <time>2016-3-26T11:41:23.000Z</time>
      </trkpt>
      <trkpt lat="47.22682" lon="6.04735">
        <ele>229</ele>
        <time>2016-3-26T11:41:23.000Z</time>
      </trkpt>
      <trkpt lat="47.22683" lon="6.04737">
        <ele>231</ele>
        <time>2016-3-26T11:41:23.000Z</time>
      </trkpt>
      <trkpt lat="47.22684" lon="6.04739">
        <ele>232</ele>
        <time>2016-3-26T11:41:23.000Z</time>
      </trkpt>
      <trkpt lat="47.22684" lon="6.04742">
        <ele>232</ele>
        <time>2016-3-26T11:41:23.000Z</time>
      </trkpt>
      <trkpt lat="47.22685" lon="6.04744">
        <ele>231</ele>
        <time>2016-3-26T11:41:23.000Z</time>
      </trkpt>
      <trkpt lat="47.22685" lon="6.04746">
        <ele>231</ele>
        <time>2016-3-26T11:41:23.000Z</time>
      </trkpt>
      <trkpt lat="47.22685" lon="6.04748">
        <ele>231</ele>
        <time>2016-3-26T11:41:23.000Z</time>
      </trkpt>
      <trkpt lat="47.22686" lon="6.04752">
        <ele>230</ele>
        <time>2016-3-26T11:41:23.000Z</time>
      </trkpt>
      <trkpt lat="47.22685" lon="6.04756">
        <ele>230</ele>
        <time>2016-3-26T11:41:23.000Z</time>
      </trkpt>
      <trkpt lat="47.22683" lon="6.04759">
        <ele>230</ele>
        <time>2016-3-26T11:41:23.000Z</time>
      </trkpt>
      <trkpt lat="47.22681" lon="6.04762">
        <ele>232</ele>
        <time>2016-3-26T11:41:23.000Z</time>
      </trkpt>
      <trkpt lat="47.22681" lon="6.04765">
        <ele>232</ele>
        <time>2016-3-26T11:41:23.000Z</time>
      </trkpt>
      <trkpt lat="47.22681" lon="6.04767">
        <ele>233</ele>
        <time>2016-3-26T11:41:23.000Z</time>
      </trkpt>
      <trkpt lat="47.22681" lon="6.04769">
        <ele>233</ele>
        <time>2016-3-26T11:41:23.000Z</time>
      </trkpt>
      <trkpt lat="47.22681" lon="6.04771">
        <ele>232</ele>
        <time>2016-3-26T11:41:23.000Z</time>
      </trkpt>
      <trkpt lat="47.22681" lon="6.04774">
        <ele>232</ele>
        <time>2016-3-26T11:41:23.000Z</time>
      </trkpt>
      <trkpt lat="47.22681" lon="6.04776">
        <ele>232</ele>
        <time>2016-3-26T11:41:23.000Z</time>
      </trkpt>
      <trkpt lat="47.22681" lon="6.04778">
        <ele>232</ele>
        <time>2016-3-26T11:41:23.000Z</time>
      </trkpt>
      <trkpt lat="47.22682" lon="6.0478">
        <ele>230</ele>
        <time>2016-3-26T11:41:23.000Z</time>
      </trkpt>
      <trkpt lat="47.22682" lon="6.04783">
        <ele>229</ele>
        <time>2016-3-26T11:41:23.000Z</time>
      </trkpt>
      <trkpt lat="47.22683" lon="6.04784">
        <ele>229</ele>
        <time>2016-3-26T11:41:23.000Z</time>
      </trkpt>
      <trkpt lat="47.22683" lon="6.04787">
        <ele>229</ele>
        <time>2016-3-26T11:41:23.000Z</time>
      </trkpt>
      <trkpt lat="47.22684" lon="6.04789">
        <ele>229</ele>
        <time>2016-3-26T11:41:23.000Z</time>
      </trkpt>
      <trkpt lat="47.22685" lon="6.04791">
        <ele>230</ele>
        <time>2016-3-26T11:41:23.000Z</time>
      </trkpt>
      <trkpt lat="47.22685" lon="6.04794">
        <ele>230</ele>
        <time>2016-3-26T11:41:23.000Z</time>
      </trkpt>
      <trkpt lat="47.22686" lon="6.04796">
        <ele>230</ele>
        <time>2016-3-26T11:41:23.000Z</time>
      </trkpt>
      <trkpt lat="47.22686" lon="6.04798">
        <ele>232</ele>
        <time>2016-3-26T11:41:23.000Z</time>
      </trkpt>
      <trkpt lat="47.22687" lon="6.048">
        <ele>232</ele>
        <time>2016-3-26T11:41:23.000Z</time>
      </trkpt>
      <trkpt lat="47.22688" lon="6.04803">
        <ele>232</ele>
        <time>2016-3-26T11:43:42.000Z</time>
      </trkpt>
      <trkpt lat="47.22688" lon="6.04805">
        <ele>232</ele>
        <time>2016-3-26T11:43:42.000Z</time>
      </trkpt>
      <trkpt lat="47.22688" lon="6.04807">
        <ele>234</ele>
        <time>2016-3-26T11:43:42.000Z</time>
      </trkpt>
      <trkpt lat="47.22689" lon="6.04809">
        <ele>234</ele>
        <time>2016-3-26T11:43:42.000Z</time>
      </trkpt>
      <trkpt lat="47.22689" lon="6.04812">
        <ele>235</ele>
        <time>2016-3-26T11:43:42.000Z</time>
      </trkpt>
      <trkpt lat="47.22689" lon="6.04814">
        <ele>236</ele>
        <time>2016-3-26T11:43:42.000Z</time>
      </trkpt>
      <trkpt lat="47.22689" lon="6.04817">
        <ele>236</ele>
        <time>2016-3-26T11:43:42.000Z</time>
      </trkpt>
      <trkpt lat="47.2269" lon="6.04819">
        <ele>236</ele>
        <time>2016-3-26T11:43:42.000Z</time>
      </trkpt>
      <trkpt lat="47.2269" lon="6.04821">
        <ele>237</ele>
        <time>2016-3-26T11:43:42.000Z</time>
      </trkpt>
      <trkpt lat="47.2269" lon="6.04824">
        <ele>237</ele>
        <time>2016-3-26T11:43:42.000Z</time>
      </trkpt>
      <trkpt lat="47.2269" lon="6.04826">
        <ele>237</ele>
        <time>2016-3-26T11:43:42.000Z</time>
      </trkpt>
      <trkpt lat="47.2269" lon="6.04828">
        <ele>236</ele>
        <time>2016-3-26T11:43:42.000Z</time>
      </trkpt>
      <trkpt lat="47.22691" lon="6.0483">
        <ele>236</ele>
        <time>2016-3-26T11:43:42.000Z</time>
      </trkpt>
      <trkpt lat="47.22692" lon="6.04834">
        <ele>237</ele>
        <time>2016-3-26T11:43:42.000Z</time>
      </trkpt>
      <trkpt lat="47.22692" lon="6.04838">
        <ele>236</ele>
        <time>2016-3-26T11:43:42.000Z</time>
      </trkpt>
      <trkpt lat="47.22692" lon="6.04841">
        <ele>236</ele>
        <time>2016-3-26T11:43:42.000Z</time>
      </trkpt>
      <trkpt lat="47.22693" lon="6.04845">
        <ele>236</ele>
        <time>2016-3-26T11:43:42.000Z</time>
      </trkpt>
      <trkpt lat="47.22693" lon="6.04848">
        <ele>237</ele>
        <time>2016-3-26T11:43:42.000Z</time>
      </trkpt>
      <trkpt lat="47.22694" lon="6.04852">
        <ele>235</ele>
        <time>2016-3-26T11:43:42.000Z</time>
      </trkpt>
      <trkpt lat="47.22694" lon="6.04854">
        <ele>236</ele>
        <time>2016-3-26T11:43:42.000Z</time>
      </trkpt>
      <trkpt lat="47.22695" lon="6.04856">
        <ele>236</ele>
        <time>2016-3-26T11:43:42.000Z</time>
      </trkpt>
      <trkpt lat="47.22695" lon="6.04859">
        <ele>236</ele>
        <time>2016-3-26T11:43:42.000Z</time>
      </trkpt>
      <trkpt lat="47.22696" lon="6.04861">
        <ele>235</ele>
        <time>2016-3-26T11:43:42.000Z</time>
      </trkpt>
      <trkpt lat="47.22697" lon="6.04864">
        <ele>235</ele>
        <time>2016-3-26T11:43:42.000Z</time>
      </trkpt>
      <trkpt lat="47.22698" lon="6.04866">
        <ele>236</ele>
        <time>2016-3-26T11:43:42.000Z</time>
      </trkpt>
      <trkpt lat="47.22698" lon="6.04868">
        <ele>236</ele>
        <time>2016-3-26T11:43:42.000Z</time>
      </trkpt>
      <trkpt lat="47.22699" lon="6.0487">
        <ele>237</ele>
        <time>2016-3-26T11:43:42.000Z</time>
      </trkpt>
      <trkpt lat="47.227" lon="6.04872">
        <ele>237</ele>
        <time>2016-3-26T11:43:42.000Z</time>
      </trkpt>
      <trkpt lat="47.22701" lon="6.04876">
        <ele>238</ele>
        <time>2016-3-26T11:43:42.000Z</time>
      </trkpt>
      <trkpt lat="47.22702" lon="6.04878">
        <ele>238</ele>
        <time>2016-3-26T11:43:42.000Z</time>
      </trkpt>
      <trkpt lat="47.22702" lon="6.0488">
        <ele>237</ele>
        <time>2016-3-26T11:43:42.000Z</time>
      </trkpt>
      <trkpt lat="47.22703" lon="6.04882">
        <ele>237</ele>
        <time>2016-3-26T11:43:42.000Z</time>
      </trkpt>
      <trkpt lat="47.22703" lon="6.04885">
        <ele>236</ele>
        <time>2016-3-26T11:43:42.000Z</time>
      </trkpt>
      <trkpt lat="47.22703" lon="6.04887">
        <ele>237</ele>
        <time>2016-3-26T11:43:42.000Z</time>
      </trkpt>
      <trkpt lat="47.22703" lon="6.0489">
        <ele>237</ele>
        <time>2016-3-26T11:43:42.000Z</time>
      </trkpt>
      <trkpt lat="47.22703" lon="6.04892">
        <ele>237</ele>
        <time>2016-3-26T11:43:42.000Z</time>
      </trkpt>
      <trkpt lat="47.22703" lon="6.04895">
        <ele>237</ele>
        <time>2016-3-26T11:43:42.000Z</time>
      </trkpt>
      <trkpt lat="47.22703" lon="6.04898">
        <ele>236</ele>
        <time>2016-3-26T11:43:42.000Z</time>
      </trkpt>
      <trkpt lat="47.22704" lon="6.049">
        <ele>235</ele>
        <time>2016-3-26T11:43:42.000Z</time>
      </trkpt>
      <trkpt lat="47.22704" lon="6.04902">
        <ele>234</ele>
        <time>2016-3-26T11:43:42.000Z</time>
      </trkpt>
      <trkpt lat="47.22704" lon="6.04905">
        <ele>233</ele>
        <time>2016-3-26T11:43:42.000Z</time>
      </trkpt>
      <trkpt lat="47.22704" lon="6.04907">
        <ele>234</ele>
        <time>2016-3-26T11:43:42.000Z</time>
      </trkpt>
      <trkpt lat="47.22705" lon="6.0491">
        <ele>234</ele>
        <time>2016-3-26T11:43:42.000Z</time>
      </trkpt>
      <trkpt lat="47.22705" lon="6.04912">
        <ele>234</ele>
        <time>2016-3-26T11:43:42.000Z</time>
      </trkpt>
      <trkpt lat="47.22706" lon="6.04914">
        <ele>235</ele>
        <time>2016-3-26T11:43:42.000Z</time>
      </trkpt>
      <trkpt lat="47.22706" lon="6.04917">
        <ele>236</ele>
        <time>2016-3-26T11:43:42.000Z</time>
      </trkpt>
      <trkpt lat="47.22707" lon="6.04919">
        <ele>236</ele>
        <time>2016-3-26T11:43:42.000Z</time>
      </trkpt>
      <trkpt lat="47.22707" lon="6.04921">
        <ele>236</ele>
        <time>2016-3-26T11:43:42.000Z</time>
      </trkpt>
      <trkpt lat="47.22708" lon="6.04923">
        <ele>236</ele>
        <time>2016-3-26T11:43:42.000Z</time>
      </trkpt>
      <trkpt lat="47.22708" lon="6.04927">
        <ele>236</ele>
        <time>2016-3-26T11:43:42.000Z</time>
      </trkpt>
      <trkpt lat="47.22709" lon="6.04931">
        <ele>239</ele>
        <time>2016-3-26T11:43:42.000Z</time>
      </trkpt>
      <trkpt lat="47.2271" lon="6.04934">
        <ele>238</ele>
        <time>2016-3-26T11:43:42.000Z</time>
      </trkpt>
      <trkpt lat="47.22711" lon="6.04935">
        <ele>237</ele>
        <time>2016-3-26T11:43:42.000Z</time>
      </trkpt>
      <trkpt lat="47.22713" lon="6.04937">
        <ele>236</ele>
        <time>2016-3-26T11:43:42.000Z</time>
      </trkpt>
      <trkpt lat="47.22715" lon="6.04938">
        <ele>234</ele>
        <time>2016-3-26T11:43:42.000Z</time>
      </trkpt>
      <trkpt lat="47.22717" lon="6.04941">
        <ele>232</ele>
        <time>2016-3-26T11:43:42.000Z</time>
      </trkpt>
      <trkpt lat="47.22718" lon="6.04944">
        <ele>230</ele>
        <time>2016-3-26T11:43:42.000Z</time>
      </trkpt>
      <trkpt lat="47.22719" lon="6.04948">
        <ele>230</ele>
        <time>2016-3-26T11:43:42.000Z</time>
      </trkpt>
      <trkpt lat="47.2272" lon="6.0495">
        <ele>230</ele>
        <time>2016-3-26T11:43:42.000Z</time>
      </trkpt>
      <trkpt lat="47.22721" lon="6.04951">
        <ele>231</ele>
        <time>2016-3-26T11:43:42.000Z</time>
      </trkpt>
      <trkpt lat="47.22722" lon="6.04953">
        <ele>232</ele>
        <time>2016-3-26T11:43:42.000Z</time>
      </trkpt>
      <trkpt lat="47.22723" lon="6.04955">
        <ele>232</ele>
        <time>2016-3-26T11:43:42.000Z</time>
      </trkpt>
      <trkpt lat="47.22724" lon="6.04957">
        <ele>232</ele>
        <time>2016-3-26T11:43:42.000Z</time>
      </trkpt>
      <trkpt lat="47.22726" lon="6.04959">
        <ele>233</ele>
        <time>2016-3-26T11:43:42.000Z</time>
      </trkpt>
      <trkpt lat="47.22726" lon="6.04961">
        <ele>233</ele>
        <time>2016-3-26T11:43:42.000Z</time>
      </trkpt>
      <trkpt lat="47.22726" lon="6.04964">
        <ele>234</ele>
        <time>2016-3-26T11:43:42.000Z</time>
      </trkpt>
      <trkpt lat="47.22726" lon="6.04966">
        <ele>235</ele>
        <time>2016-3-26T11:43:42.000Z</time>
      </trkpt>
      <trkpt lat="47.22726" lon="6.04969">
        <ele>236</ele>
        <time>2016-3-26T11:43:42.000Z</time>
      </trkpt>
      <trkpt lat="47.22726" lon="6.04971">
        <ele>235</ele>
        <time>2016-3-26T11:43:42.000Z</time>
      </trkpt>
      <trkpt lat="47.22726" lon="6.04973">
        <ele>236</ele>
        <time>2016-3-26T11:43:42.000Z</time>
      </trkpt>
      <trkpt lat="47.22726" lon="6.04975">
        <ele>237</ele>
        <time>2016-3-26T11:43:42.000Z</time>
      </trkpt>
      <trkpt lat="47.22726" lon="6.04977">
        <ele>237</ele>
        <time>2016-3-26T11:43:42.000Z</time>
      </trkpt>
      <trkpt lat="47.22725" lon="6.0498">
        <ele>238</ele>
        <time>2016-3-26T11:43:42.000Z</time>
      </trkpt>
      <trkpt lat="47.22726" lon="6.04982">
        <ele>238</ele>
        <time>2016-3-26T11:43:42.000Z</time>
      </trkpt>
      <trkpt lat="47.22726" lon="6.04984">
        <ele>237</ele>
        <time>2016-3-26T11:43:42.000Z</time>
      </trkpt>
      <trkpt lat="47.22727" lon="6.04986">
        <ele>236</ele>
        <time>2016-3-26T11:43:42.000Z</time>
      </trkpt>
      <trkpt lat="47.22727" lon="6.04988">
        <ele>235</ele>
        <time>2016-3-26T11:43:42.000Z</time>
      </trkpt>
      <trkpt lat="47.22728" lon="6.0499">
        <ele>235</ele>
        <time>2016-3-26T11:43:42.000Z</time>
      </trkpt>
      <trkpt lat="47.22728" lon="6.04994">
        <ele>234</ele>
        <time>2016-3-26T11:43:42.000Z</time>
      </trkpt>
      <trkpt lat="47.22728" lon="6.04998">
        <ele>232</ele>
        <time>2016-3-26T11:43:42.000Z</time>
      </trkpt>
      <trkpt lat="47.22729" lon="6.05">
        <ele>231</ele>
        <time>2016-3-26T11:43:42.000Z</time>
      </trkpt>
      <trkpt lat="47.22731" lon="6.05003">
        <ele>230</ele>
        <time>2016-3-26T11:43:42.000Z</time>
      </trkpt>
      <trkpt lat="47.22732" lon="6.05006">
        <ele>230</ele>
        <time>2016-3-26T11:43:42.000Z</time>
      </trkpt>
      <trkpt lat="47.22733" lon="6.05009">
        <ele>231</ele>
        <time>2016-3-26T11:43:42.000Z</time>
      </trkpt>
      <trkpt lat="47.22734" lon="6.05011">
        <ele>231</ele>
        <time>2016-3-26T11:43:42.000Z</time>
      </trkpt>
      <trkpt lat="47.22735" lon="6.05015">
        <ele>234</ele>
        <time>2016-3-26T11:43:42.000Z</time>
      </trkpt>
      <trkpt lat="47.22735" lon="6.05019">
        <ele>235</ele>
        <time>2016-3-26T11:43:42.000Z</time>
      </trkpt>
      <trkpt lat="47.22735" lon="6.05023">
        <ele>238</ele>
        <time>2016-3-26T11:43:42.000Z</time>
      </trkpt>
      <trkpt lat="47.22736" lon="6.05026">
        <ele>239</ele>
        <time>2016-3-26T11:43:42.000Z</time>
      </trkpt>
      <trkpt lat="47.22735" lon="6.0503">
        <ele>239</ele>
        <time>2016-3-26T11:43:42.000Z</time>
      </trkpt>
      <trkpt lat="47.22736" lon="6.05033">
        <ele>237</ele>
        <time>2016-3-26T11:43:42.000Z</time>
      </trkpt>
      <trkpt lat="47.22736" lon="6.05036">
        <ele>237</ele>
        <time>2016-3-26T11:43:42.000Z</time>
      </trkpt>
      <trkpt lat="47.22736" lon="6.05039">
        <ele>239</ele>
        <time>2016-3-26T11:43:42.000Z</time>
      </trkpt>
      <trkpt lat="47.22738" lon="6.05042">
        <ele>240</ele>
        <time>2016-3-26T11:43:42.000Z</time>
      </trkpt>
      <trkpt lat="47.22739" lon="6.05046">
        <ele>240</ele>
        <time>2016-3-26T11:43:42.000Z</time>
      </trkpt>
      <trkpt lat="47.22739" lon="6.05048">
        <ele>240</ele>
        <time>2016-3-26T11:43:42.000Z</time>
      </trkpt>
      <trkpt lat="47.2274" lon="6.05052">
        <ele>242</ele>
        <time>2016-3-26T11:43:42.000Z</time>
      </trkpt>
      <trkpt lat="47.2274" lon="6.05055">
        <ele>242</ele>
        <time>2016-3-26T11:43:42.000Z</time>
      </trkpt>
      <trkpt lat="47.22741" lon="6.05058">
        <ele>241</ele>
        <time>2016-3-26T11:43:42.000Z</time>
      </trkpt>
      <trkpt lat="47.22741" lon="6.05061">
        <ele>243</ele>
        <time>2016-3-26T11:43:42.000Z</time>
      </trkpt>
      <trkpt lat="47.22742" lon="6.05064">
        <ele>244</ele>
        <time>2016-3-26T11:43:42.000Z</time>
      </trkpt>
      <trkpt lat="47.22743" lon="6.05068">
        <ele>243</ele>
        <time>2016-3-26T11:45:54.000Z</time>
      </trkpt>
      <trkpt lat="47.22744" lon="6.05072">
        <ele>241</ele>
        <time>2016-3-26T11:45:54.000Z</time>
      </trkpt>
      <trkpt lat="47.22745" lon="6.05076">
        <ele>241</ele>
        <time>2016-3-26T11:45:54.000Z</time>
      </trkpt>
      <trkpt lat="47.22745" lon="6.0508">
        <ele>240</ele>
        <time>2016-3-26T11:45:54.000Z</time>
      </trkpt>
      <trkpt lat="47.22746" lon="6.05084">
        <ele>240</ele>
        <time>2016-3-26T11:45:54.000Z</time>
      </trkpt>
      <trkpt lat="47.22747" lon="6.05086">
        <ele>240</ele>
        <time>2016-3-26T11:45:54.000Z</time>
      </trkpt>
      <trkpt lat="47.22748" lon="6.05089">
        <ele>240</ele>
        <time>2016-3-26T11:45:54.000Z</time>
      </trkpt>
      <trkpt lat="47.22748" lon="6.05091">
        <ele>241</ele>
        <time>2016-3-26T11:45:54.000Z</time>
      </trkpt>
      <trkpt lat="47.22749" lon="6.05093">
        <ele>241</ele>
        <time>2016-3-26T11:45:54.000Z</time>
      </trkpt>
      <trkpt lat="47.2275" lon="6.05095">
        <ele>241</ele>
        <time>2016-3-26T11:45:54.000Z</time>
      </trkpt>
      <trkpt lat="47.22751" lon="6.05097">
        <ele>241</ele>
        <time>2016-3-26T11:45:54.000Z</time>
      </trkpt>
      <trkpt lat="47.22751" lon="6.051">
        <ele>242</ele>
        <time>2016-3-26T11:45:54.000Z</time>
      </trkpt>
      <trkpt lat="47.22752" lon="6.05102">
        <ele>241</ele>
        <time>2016-3-26T11:45:54.000Z</time>
      </trkpt>
      <trkpt lat="47.22752" lon="6.05104">
        <ele>243</ele>
        <time>2016-3-26T11:45:54.000Z</time>
      </trkpt>
      <trkpt lat="47.22753" lon="6.05106">
        <ele>243</ele>
        <time>2016-3-26T11:45:54.000Z</time>
      </trkpt>
      <trkpt lat="47.22753" lon="6.05109">
        <ele>243</ele>
        <time>2016-3-26T11:45:54.000Z</time>
      </trkpt>
      <trkpt lat="47.22754" lon="6.05113">
        <ele>243</ele>
        <time>2016-3-26T11:45:54.000Z</time>
      </trkpt>
      <trkpt lat="47.22755" lon="6.05116">
        <ele>243</ele>
        <time>2016-3-26T11:45:54.000Z</time>
      </trkpt>
      <trkpt lat="47.22754" lon="6.0512">
        <ele>243</ele>
        <time>2016-3-26T11:45:54.000Z</time>
      </trkpt>
      <trkpt lat="47.22754" lon="6.05125">
        <ele>244</ele>
        <time>2016-3-26T11:45:54.000Z</time>
      </trkpt>
      <trkpt lat="47.22754" lon="6.0513">
        <ele>242</ele>
        <time>2016-3-26T11:45:54.000Z</time>
      </trkpt>
      <trkpt lat="47.22754" lon="6.05134">
        <ele>241</ele>
        <time>2016-3-26T11:45:54.000Z</time>
      </trkpt>
      <trkpt lat="47.22754" lon="6.05137">
        <ele>238</ele>
        <time>2016-3-26T11:45:54.000Z</time>
      </trkpt>
      <trkpt lat="47.22755" lon="6.05141">
        <ele>236</ele>
        <time>2016-3-26T11:45:54.000Z</time>
      </trkpt>
      <trkpt lat="47.22755" lon="6.05143">
        <ele>234</ele>
        <time>2016-3-26T11:45:54.000Z</time>
      </trkpt>
      <trkpt lat="47.22757" lon="6.05147">
        <ele>232</ele>
        <time>2016-3-26T11:45:54.000Z</time>
      </trkpt>
      <trkpt lat="47.22757" lon="6.05149">
        <ele>232</ele>
        <time>2016-3-26T11:45:54.000Z</time>
      </trkpt>
      <trkpt lat="47.22758" lon="6.05151">
        <ele>233</ele>
        <time>2016-3-26T11:45:54.000Z</time>
      </trkpt>
      <trkpt lat="47.22759" lon="6.05154">
        <ele>233</ele>
        <time>2016-3-26T11:45:54.000Z</time>
      </trkpt>
      <trkpt lat="47.2276" lon="6.05157">
        <ele>233</ele>
        <time>2016-3-26T11:45:54.000Z</time>
      </trkpt>
      <trkpt lat="47.22761" lon="6.05159">
        <ele>233</ele>
        <time>2016-3-26T11:45:54.000Z</time>
      </trkpt>
      <trkpt lat="47.22762" lon="6.05161">
        <ele>232</ele>
        <time>2016-3-26T11:45:54.000Z</time>
      </trkpt>
      <trkpt lat="47.22763" lon="6.05163">
        <ele>231</ele>
        <time>2016-3-26T11:45:54.000Z</time>
      </trkpt>
      <trkpt lat="47.22763" lon="6.05165">
        <ele>231</ele>
        <time>2016-3-26T11:45:54.000Z</time>
      </trkpt>
      <trkpt lat="47.22764" lon="6.05166">
        <ele>230</ele>
        <time>2016-3-26T11:45:54.000Z</time>
      </trkpt>
      <trkpt lat="47.22766" lon="6.0517">
        <ele>231</ele>
        <time>2016-3-26T11:45:54.000Z</time>
      </trkpt>
      <trkpt lat="47.22767" lon="6.05174">
        <ele>230</ele>
        <time>2016-3-26T11:45:54.000Z</time>
      </trkpt>
      <trkpt lat="47.22768" lon="6.05178">
        <ele>229</ele>
        <time>2016-3-26T11:45:54.000Z</time>
      </trkpt>
      <trkpt lat="47.22768" lon="6.0518">
        <ele>229</ele>
        <time>2016-3-26T11:45:54.000Z</time>
      </trkpt>
      <trkpt lat="47.22769" lon="6.05182">
        <ele>230</ele>
        <time>2016-3-26T11:45:54.000Z</time>
      </trkpt>
      <trkpt lat="47.22769" lon="6.05184">
        <ele>232</ele>
        <time>2016-3-26T11:45:54.000Z</time>
      </trkpt>
      <trkpt lat="47.22771" lon="6.05187">
        <ele>233</ele>
        <time>2016-3-26T11:45:54.000Z</time>
      </trkpt>
      <trkpt lat="47.22772" lon="6.05189">
        <ele>234</ele>
        <time>2016-3-26T11:45:54.000Z</time>
      </trkpt>
      <trkpt lat="47.22773" lon="6.05193">
        <ele>234</ele>
        <time>2016-3-26T11:45:54.000Z</time>
      </trkpt>
      <trkpt lat="47.22773" lon="6.05196">
        <ele>235</ele>
        <time>2016-3-26T11:45:54.000Z</time>
      </trkpt>
      <trkpt lat="47.22774" lon="6.05198">
        <ele>236</ele>
        <time>2016-3-26T11:45:54.000Z</time>
      </trkpt>
      <trkpt lat="47.22774" lon="6.052">
        <ele>235</ele>
        <time>2016-3-26T11:45:54.000Z</time>
      </trkpt>
      <trkpt lat="47.22775" lon="6.05202">
        <ele>236</ele>
        <time>2016-3-26T11:45:54.000Z</time>
      </trkpt>
      <trkpt lat="47.22775" lon="6.05204">
        <ele>236</ele>
        <time>2016-3-26T11:45:54.000Z</time>
      </trkpt>
      <trkpt lat="47.22776" lon="6.05207">
        <ele>237</ele>
        <time>2016-3-26T11:45:54.000Z</time>
      </trkpt>
      <trkpt lat="47.22777" lon="6.05209">
        <ele>237</ele>
        <time>2016-3-26T11:45:54.000Z</time>
      </trkpt>
      <trkpt lat="47.22778" lon="6.05211">
        <ele>236</ele>
        <time>2016-3-26T11:45:54.000Z</time>
      </trkpt>
      <trkpt lat="47.22779" lon="6.05213">
        <ele>238</ele>
        <time>2016-3-26T11:45:54.000Z</time>
      </trkpt>
      <trkpt lat="47.22779" lon="6.05215">
        <ele>237</ele>
        <time>2016-3-26T11:45:54.000Z</time>
      </trkpt>
      <trkpt lat="47.2278" lon="6.05213">
        <ele>231</ele>
        <time>2016-3-26T11:45:54.000Z</time>
      </trkpt>
      <trkpt lat="47.22781" lon="6.05216">
        <ele>235</ele>
        <time>2016-3-26T11:45:54.000Z</time>
      </trkpt>
      <trkpt lat="47.22783" lon="6.05218">
        <ele>238</ele>
        <time>2016-3-26T11:45:54.000Z</time>
      </trkpt>
      <trkpt lat="47.22784" lon="6.05221">
        <ele>239</ele>
        <time>2016-3-26T11:45:54.000Z</time>
      </trkpt>
      <trkpt lat="47.22785" lon="6.05223">
        <ele>240</ele>
        <time>2016-3-26T11:45:54.000Z</time>
      </trkpt>
      <trkpt lat="47.22786" lon="6.05227">
        <ele>240</ele>
        <time>2016-3-26T11:45:54.000Z</time>
      </trkpt>
      <trkpt lat="47.22786" lon="6.05231">
        <ele>241</ele>
        <time>2016-3-26T11:45:54.000Z</time>
      </trkpt>
      <trkpt lat="47.22787" lon="6.05234">
        <ele>241</ele>
        <time>2016-3-26T11:45:54.000Z</time>
      </trkpt>
      <trkpt lat="47.22788" lon="6.05237">
        <ele>242</ele>
        <time>2016-3-26T11:45:54.000Z</time>
      </trkpt>
      <trkpt lat="47.22789" lon="6.0524">
        <ele>244</ele>
        <time>2016-3-26T11:45:54.000Z</time>
      </trkpt>
      <trkpt lat="47.2279" lon="6.05243">
        <ele>244</ele>
        <time>2016-3-26T11:45:54.000Z</time>
      </trkpt>
      <trkpt lat="47.22792" lon="6.05244">
        <ele>244</ele>
        <time>2016-3-26T11:45:54.000Z</time>
      </trkpt>
      <trkpt lat="47.22792" lon="6.05247">
        <ele>244</ele>
        <time>2016-3-26T11:45:54.000Z</time>
      </trkpt>
      <trkpt lat="47.22793" lon="6.05249">
        <ele>244</ele>
        <time>2016-3-26T11:45:54.000Z</time>
      </trkpt>
      <trkpt lat="47.22793" lon="6.05251">
        <ele>244</ele>
        <time>2016-3-26T11:45:54.000Z</time>
      </trkpt>
      <trkpt lat="47.22794" lon="6.05253">
        <ele>244</ele>
        <time>2016-3-26T11:45:54.000Z</time>
      </trkpt>
      <trkpt lat="47.22794" lon="6.05256">
        <ele>243</ele>
        <time>2016-3-26T11:45:54.000Z</time>
      </trkpt>
      <trkpt lat="47.22795" lon="6.0526">
        <ele>243</ele>
        <time>2016-3-26T11:45:54.000Z</time>
      </trkpt>
      <trkpt lat="47.22796" lon="6.05262">
        <ele>243</ele>
        <time>2016-3-26T11:45:54.000Z</time>
      </trkpt>
      <trkpt lat="47.22796" lon="6.05264">
        <ele>243</ele>
        <time>2016-3-26T11:45:54.000Z</time>
      </trkpt>
      <trkpt lat="47.22797" lon="6.05267">
        <ele>241</ele>
        <time>2016-3-26T11:45:54.000Z</time>
      </trkpt>
      <trkpt lat="47.22797" lon="6.05269">
        <ele>240</ele>
        <time>2016-3-26T11:45:54.000Z</time>
      </trkpt>
      <trkpt lat="47.22798" lon="6.05271">
        <ele>239</ele>
        <time>2016-3-26T11:45:54.000Z</time>
      </trkpt>
      <trkpt lat="47.22798" lon="6.05273">
        <ele>238</ele>
        <time>2016-3-26T11:45:54.000Z</time>
      </trkpt>
      <trkpt lat="47.22799" lon="6.05275">
        <ele>239</ele>
        <time>2016-3-26T11:45:54.000Z</time>
      </trkpt>
      <trkpt lat="47.228" lon="6.05277">
        <ele>238</ele>
        <time>2016-3-26T11:45:54.000Z</time>
      </trkpt>
      <trkpt lat="47.22801" lon="6.05279">
        <ele>238</ele>
        <time>2016-3-26T11:45:54.000Z</time>
      </trkpt>
      <trkpt lat="47.22802" lon="6.0528">
        <ele>237</ele>
        <time>2016-3-26T11:45:54.000Z</time>
      </trkpt>
      <trkpt lat="47.22803" lon="6.05282">
        <ele>238</ele>
        <time>2016-3-26T11:45:54.000Z</time>
      </trkpt>
      <trkpt lat="47.22804" lon="6.05284">
        <ele>238</ele>
        <time>2016-3-26T11:45:54.000Z</time>
      </trkpt>
      <trkpt lat="47.22806" lon="6.05287">
        <ele>237</ele>
        <time>2016-3-26T11:45:54.000Z</time>
      </trkpt>
      <trkpt lat="47.22808" lon="6.0529">
        <ele>237</ele>
        <time>2016-3-26T11:45:54.000Z</time>
      </trkpt>
      <trkpt lat="47.22809" lon="6.05292">
        <ele>239</ele>
        <time>2016-3-26T11:45:54.000Z</time>
      </trkpt>
      <trkpt lat="47.2281" lon="6.05294">
        <ele>238</ele>
        <time>2016-3-26T11:45:54.000Z</time>
      </trkpt>
      <trkpt lat="47.22811" lon="6.05297">
        <ele>238</ele>
        <time>2016-3-26T11:45:54.000Z</time>
      </trkpt>
      <trkpt lat="47.22811" lon="6.05299">
        <ele>239</ele>
        <time>2016-3-26T11:45:54.000Z</time>
      </trkpt>
      <trkpt lat="47.22813" lon="6.05301">
        <ele>236</ele>
        <time>2016-3-26T11:45:54.000Z</time>
      </trkpt>
      <trkpt lat="47.22815" lon="6.05304">
        <ele>236</ele>
        <time>2016-3-26T11:45:54.000Z</time>
      </trkpt>
      <trkpt lat="47.22817" lon="6.05307">
        <ele>236</ele>
        <time>2016-3-26T11:45:54.000Z</time>
      </trkpt>
      <trkpt lat="47.22818" lon="6.0531">
        <ele>234</ele>
        <time>2016-3-26T11:45:54.000Z</time>
      </trkpt>
      <trkpt lat="47.22819" lon="6.05312">
        <ele>235</ele>
        <time>2016-3-26T11:45:54.000Z</time>
      </trkpt>
      <trkpt lat="47.22819" lon="6.05314">
        <ele>234</ele>
        <time>2016-3-26T11:45:54.000Z</time>
      </trkpt>
      <trkpt lat="47.2282" lon="6.05316">
        <ele>234</ele>
        <time>2016-3-26T11:45:54.000Z</time>
      </trkpt>
      <trkpt lat="47.22821" lon="6.05318">
        <ele>234</ele>
        <time>2016-3-26T11:45:54.000Z</time>
      </trkpt>
      <trkpt lat="47.22821" lon="6.05321">
        <ele>234</ele>
        <time>2016-3-26T11:45:54.000Z</time>
      </trkpt>
      <trkpt lat="47.22822" lon="6.05323">
        <ele>232</ele>
        <time>2016-3-26T11:45:54.000Z</time>
      </trkpt>
      <trkpt lat="47.22823" lon="6.05325">
        <ele>232</ele>
        <time>2016-3-26T11:45:54.000Z</time>
      </trkpt>
      <trkpt lat="47.22824" lon="6.05327">
        <ele>233</ele>
        <time>2016-3-26T11:48:2.000Z</time>
      </trkpt>
      <trkpt lat="47.22825" lon="6.05329">
        <ele>234</ele>
        <time>2016-3-26T11:48:2.000Z</time>
      </trkpt>
      <trkpt lat="47.22826" lon="6.05331">
        <ele>234</ele>
        <time>2016-3-26T11:48:2.000Z</time>
      </trkpt>
      <trkpt lat="47.22828" lon="6.05332">
        <ele>234</ele>
        <time>2016-3-26T11:48:2.000Z</time>
      </trkpt>
      <trkpt lat="47.22829" lon="6.05333">
        <ele>234</ele>
        <time>2016-3-26T11:48:2.000Z</time>
      </trkpt>
      <trkpt lat="47.2283" lon="6.05335">
        <ele>236</ele>
        <time>2016-3-26T11:48:2.000Z</time>
      </trkpt>
      <trkpt lat="47.22831" lon="6.05336">
        <ele>236</ele>
        <time>2016-3-26T11:48:2.000Z</time>
      </trkpt>
      <trkpt lat="47.22833" lon="6.05338">
        <ele>235</ele>
        <time>2016-3-26T11:48:2.000Z</time>
      </trkpt>
      <trkpt lat="47.22834" lon="6.05339">
        <ele>235</ele>
        <time>2016-3-26T11:48:2.000Z</time>
      </trkpt>
      <trkpt lat="47.22836" lon="6.05342">
        <ele>235</ele>
        <time>2016-3-26T11:48:2.000Z</time>
      </trkpt>
      <trkpt lat="47.22838" lon="6.05345">
        <ele>234</ele>
        <time>2016-3-26T11:48:2.000Z</time>
      </trkpt>
      <trkpt lat="47.2284" lon="6.05347">
        <ele>233</ele>
        <time>2016-3-26T11:48:2.000Z</time>
      </trkpt>
      <trkpt lat="47.22841" lon="6.05348">
        <ele>234</ele>
        <time>2016-3-26T11:48:2.000Z</time>
      </trkpt>
      <trkpt lat="47.22843" lon="6.0535">
        <ele>235</ele>
        <time>2016-3-26T11:48:2.000Z</time>
      </trkpt>
      <trkpt lat="47.22844" lon="6.05351">
        <ele>235</ele>
        <time>2016-3-26T11:48:2.000Z</time>
      </trkpt>
      <trkpt lat="47.22846" lon="6.05352">
        <ele>236</ele>
        <time>2016-3-26T11:48:2.000Z</time>
      </trkpt>
      <trkpt lat="47.22848" lon="6.05354">
        <ele>236</ele>
        <time>2016-3-26T11:48:2.000Z</time>
      </trkpt>
      <trkpt lat="47.2285" lon="6.05356">
        <ele>236</ele>
        <time>2016-3-26T11:48:2.000Z</time>
      </trkpt>
      <trkpt lat="47.22852" lon="6.05357">
        <ele>237</ele>
        <time>2016-3-26T11:48:2.000Z</time>
      </trkpt>
      <trkpt lat="47.22853" lon="6.05358">
        <ele>237</ele>
        <time>2016-3-26T11:48:2.000Z</time>
      </trkpt>
      <trkpt lat="47.22855" lon="6.05359">
        <ele>238</ele>
        <time>2016-3-26T11:48:2.000Z</time>
      </trkpt>
      <trkpt lat="47.22856" lon="6.05359">
        <ele>238</ele>
        <time>2016-3-26T11:48:2.000Z</time>
      </trkpt>
      <trkpt lat="47.22858" lon="6.05359">
        <ele>238</ele>
        <time>2016-3-26T11:48:2.000Z</time>
      </trkpt>
      <trkpt lat="47.22859" lon="6.05359">
        <ele>239</ele>
        <time>2016-3-26T11:48:2.000Z</time>
      </trkpt>
      <trkpt lat="47.22861" lon="6.05358">
        <ele>239</ele>
        <time>2016-3-26T11:48:2.000Z</time>
      </trkpt>
      <trkpt lat="47.22862" lon="6.05358">
        <ele>239</ele>
        <time>2016-3-26T11:48:2.000Z</time>
      </trkpt>
      <trkpt lat="47.22864" lon="6.05358">
        <ele>240</ele>
        <time>2016-3-26T11:48:2.000Z</time>
      </trkpt>
      <trkpt lat="47.22866" lon="6.0536">
        <ele>241</ele>
        <time>2016-3-26T11:48:2.000Z</time>
      </trkpt>
      <trkpt lat="47.22868" lon="6.05362">
        <ele>240</ele>
        <time>2016-3-26T11:48:2.000Z</time>
      </trkpt>
      <trkpt lat="47.22869" lon="6.05364">
        <ele>241</ele>
        <time>2016-3-26T11:48:2.000Z</time>
      </trkpt>
      <trkpt lat="47.2287" lon="6.05366">
        <ele>240</ele>
        <time>2016-3-26T11:48:2.000Z</time>
      </trkpt>
      <trkpt lat="47.22872" lon="6.05369">
        <ele>242</ele>
        <time>2016-3-26T11:48:2.000Z</time>
      </trkpt>
      <trkpt lat="47.22873" lon="6.05371">
        <ele>241</ele>
        <time>2016-3-26T11:48:2.000Z</time>
      </trkpt>
      <trkpt lat="47.22875" lon="6.05372">
        <ele>241</ele>
        <time>2016-3-26T11:48:2.000Z</time>
      </trkpt>
      <trkpt lat="47.22876" lon="6.05374">
        <ele>241</ele>
        <time>2016-3-26T11:48:2.000Z</time>
      </trkpt>
      <trkpt lat="47.22877" lon="6.05376">
        <ele>242</ele>
        <time>2016-3-26T11:48:2.000Z</time>
      </trkpt>
      <trkpt lat="47.22878" lon="6.05377">
        <ele>243</ele>
        <time>2016-3-26T11:48:2.000Z</time>
      </trkpt>
      <trkpt lat="47.22879" lon="6.05379">
        <ele>242</ele>
        <time>2016-3-26T11:48:2.000Z</time>
      </trkpt>
      <trkpt lat="47.2288" lon="6.0538">
        <ele>242</ele>
        <time>2016-3-26T11:48:2.000Z</time>
      </trkpt>
      <trkpt lat="47.22881" lon="6.05381">
        <ele>242</ele>
        <time>2016-3-26T11:48:2.000Z</time>
      </trkpt>
      <trkpt lat="47.22882" lon="6.05383">
        <ele>243</ele>
        <time>2016-3-26T11:48:2.000Z</time>
      </trkpt>
      <trkpt lat="47.22883" lon="6.05384">
        <ele>243</ele>
        <time>2016-3-26T11:48:2.000Z</time>
      </trkpt>
      <trkpt lat="47.22885" lon="6.05386">
        <ele>244</ele>
        <time>2016-3-26T11:48:2.000Z</time>
      </trkpt>
      <trkpt lat="47.22887" lon="6.05389">
        <ele>245</ele>
        <time>2016-3-26T11:48:2.000Z</time>
      </trkpt>
      <trkpt lat="47.22888" lon="6.0539">
        <ele>245</ele>
        <time>2016-3-26T11:48:2.000Z</time>
      </trkpt>
      <trkpt lat="47.22889" lon="6.05392">
        <ele>245</ele>
        <time>2016-3-26T11:48:2.000Z</time>
      </trkpt>
      <trkpt lat="47.2289" lon="6.05394">
        <ele>247</ele>
        <time>2016-3-26T11:48:2.000Z</time>
      </trkpt>
      <trkpt lat="47.22891" lon="6.05395">
        <ele>247</ele>
        <time>2016-3-26T11:48:2.000Z</time>
      </trkpt>
      <trkpt lat="47.22893" lon="6.05397">
        <ele>246</ele>
        <time>2016-3-26T11:48:2.000Z</time>
      </trkpt>
      <trkpt lat="47.22895" lon="6.05399">
        <ele>245</ele>
        <time>2016-3-26T11:48:2.000Z</time>
      </trkpt>
      <trkpt lat="47.22896" lon="6.05399">
        <ele>245</ele>
        <time>2016-3-26T11:48:2.000Z</time>
      </trkpt>
      <trkpt lat="47.22898" lon="6.05399">
        <ele>245</ele>
        <time>2016-3-26T11:48:2.000Z</time>
      </trkpt>
      <trkpt lat="47.229" lon="6.054">
        <ele>245</ele>
        <time>2016-3-26T11:48:2.000Z</time>
      </trkpt>
      <trkpt lat="47.22902" lon="6.05401">
        <ele>246</ele>
        <time>2016-3-26T11:48:2.000Z</time>
      </trkpt>
      <trkpt lat="47.22905" lon="6.05405">
        <ele>247</ele>
        <time>2016-3-26T11:48:2.000Z</time>
      </trkpt>
      <trkpt lat="47.22906" lon="6.05407">
        <ele>247</ele>
        <time>2016-3-26T11:48:2.000Z</time>
      </trkpt>
      <trkpt lat="47.22908" lon="6.05408">
        <ele>247</ele>
        <time>2016-3-26T11:48:2.000Z</time>
      </trkpt>
      <trkpt lat="47.22909" lon="6.05409">
        <ele>248</ele>
        <time>2016-3-26T11:48:2.000Z</time>
      </trkpt>
      <trkpt lat="47.2291" lon="6.0541">
        <ele>248</ele>
        <time>2016-3-26T11:48:2.000Z</time>
      </trkpt>
      <trkpt lat="47.22911" lon="6.05412">
        <ele>248</ele>
        <time>2016-3-26T11:48:2.000Z</time>
      </trkpt>
      <trkpt lat="47.22912" lon="6.05413">
        <ele>247</ele>
        <time>2016-3-26T11:48:2.000Z</time>
      </trkpt>
      <trkpt lat="47.22914" lon="6.05414">
        <ele>245</ele>
        <time>2016-3-26T11:48:2.000Z</time>
      </trkpt>
      <trkpt lat="47.22915" lon="6.05415">
        <ele>245</ele>
        <time>2016-3-26T11:48:2.000Z</time>
      </trkpt>
      <trkpt lat="47.22916" lon="6.05417">
        <ele>245</ele>
        <time>2016-3-26T11:48:2.000Z</time>
      </trkpt>
      <trkpt lat="47.22917" lon="6.05418">
        <ele>244</ele>
        <time>2016-3-26T11:48:2.000Z</time>
      </trkpt>
      <trkpt lat="47.22919" lon="6.05421">
        <ele>247</ele>
        <time>2016-3-26T11:48:2.000Z</time>
      </trkpt>
      <trkpt lat="47.22922" lon="6.05423">
        <ele>248</ele>
        <time>2016-3-26T11:48:2.000Z</time>
      </trkpt>
      <trkpt lat="47.22924" lon="6.05425">
        <ele>250</ele>
        <time>2016-3-26T11:48:2.000Z</time>
      </trkpt>
      <trkpt lat="47.22926" lon="6.05427">
        <ele>251</ele>
        <time>2016-3-26T11:48:2.000Z</time>
      </trkpt>
      <trkpt lat="47.22927" lon="6.05429">
        <ele>251</ele>
        <time>2016-3-26T11:48:2.000Z</time>
      </trkpt>
      <trkpt lat="47.22928" lon="6.05431">
        <ele>252</ele>
        <time>2016-3-26T11:48:2.000Z</time>
      </trkpt>
      <trkpt lat="47.2293" lon="6.05434">
        <ele>250</ele>
        <time>2016-3-26T11:48:2.000Z</time>
      </trkpt>
      <trkpt lat="47.22931" lon="6.05435">
        <ele>250</ele>
        <time>2016-3-26T11:48:2.000Z</time>
      </trkpt>
      <trkpt lat="47.22931" lon="6.05437">
        <ele>251</ele>
        <time>2016-3-26T11:48:2.000Z</time>
      </trkpt>
      <trkpt lat="47.22932" lon="6.05441">
        <ele>250</ele>
        <time>2016-3-26T11:48:2.000Z</time>
      </trkpt>
      <trkpt lat="47.22933" lon="6.05443">
        <ele>250</ele>
        <time>2016-3-26T11:48:2.000Z</time>
      </trkpt>
      <trkpt lat="47.22935" lon="6.05445">
        <ele>250</ele>
        <time>2016-3-26T11:48:2.000Z</time>
      </trkpt>
      <trkpt lat="47.22937" lon="6.05447">
        <ele>252</ele>
        <time>2016-3-26T11:48:2.000Z</time>
      </trkpt>
      <trkpt lat="47.22938" lon="6.05449">
        <ele>252</ele>
        <time>2016-3-26T11:48:2.000Z</time>
      </trkpt>
      <trkpt lat="47.22939" lon="6.0545">
        <ele>253</ele>
        <time>2016-3-26T11:48:2.000Z</time>
      </trkpt>
      <trkpt lat="47.22941" lon="6.05452">
        <ele>254</ele>
        <time>2016-3-26T11:48:2.000Z</time>
      </trkpt>
      <trkpt lat="47.22942" lon="6.05454">
        <ele>252</ele>
        <time>2016-3-26T11:48:2.000Z</time>
      </trkpt>
      <trkpt lat="47.22943" lon="6.05456">
        <ele>253</ele>
        <time>2016-3-26T11:48:2.000Z</time>
      </trkpt>
      <trkpt lat="47.22944" lon="6.05458">
        <ele>253</ele>
        <time>2016-3-26T11:48:2.000Z</time>
      </trkpt>
      <trkpt lat="47.22945" lon="6.0546">
        <ele>253</ele>
        <time>2016-3-26T11:48:2.000Z</time>
      </trkpt>
      <trkpt lat="47.22947" lon="6.05461">
        <ele>255</ele>
        <time>2016-3-26T11:48:2.000Z</time>
      </trkpt>
      <trkpt lat="47.22948" lon="6.05463">
        <ele>255</ele>
        <time>2016-3-26T11:48:2.000Z</time>
      </trkpt>
      <trkpt lat="47.22949" lon="6.05464">
        <ele>255</ele>
        <time>2016-3-26T11:48:2.000Z</time>
      </trkpt>
      <trkpt lat="47.22951" lon="6.05466">
        <ele>255</ele>
        <time>2016-3-26T11:48:2.000Z</time>
      </trkpt>
      <trkpt lat="47.22952" lon="6.05468">
        <ele>255</ele>
        <time>2016-3-26T11:48:2.000Z</time>
      </trkpt>
      <trkpt lat="47.22953" lon="6.05469">
        <ele>255</ele>
        <time>2016-3-26T11:48:2.000Z</time>
      </trkpt>
      <trkpt lat="47.22955" lon="6.05472">
        <ele>254</ele>
        <time>2016-3-26T11:48:2.000Z</time>
      </trkpt>
      <trkpt lat="47.22956" lon="6.05474">
        <ele>255</ele>
        <time>2016-3-26T11:48:2.000Z</time>
      </trkpt>
      <trkpt lat="47.22957" lon="6.05476">
        <ele>256</ele>
        <time>2016-3-26T11:48:2.000Z</time>
      </trkpt>
      <trkpt lat="47.22959" lon="6.05478">
        <ele>257</ele>
        <time>2016-3-26T11:48:2.000Z</time>
      </trkpt>
      <trkpt lat="47.2296" lon="6.05479">
        <ele>258</ele>
        <time>2016-3-26T11:48:2.000Z</time>
      </trkpt>
      <trkpt lat="47.22961" lon="6.05481">
        <ele>256</ele>
        <time>2016-3-26T11:48:2.000Z</time>
      </trkpt>
      <trkpt lat="47.22962" lon="6.05482">
        <ele>256</ele>
        <time>2016-3-26T11:48:2.000Z</time>
      </trkpt>
      <trkpt lat="47.22963" lon="6.05483">
        <ele>257</ele>
        <time>2016-3-26T11:48:2.000Z</time>
      </trkpt>
      <trkpt lat="47.22965" lon="6.05485">
        <ele>258</ele>
        <time>2016-3-26T11:48:2.000Z</time>
      </trkpt>
      <trkpt lat="47.22966" lon="6.05487">
        <ele>257</ele>
        <time>2016-3-26T11:48:2.000Z</time>
      </trkpt>
      <trkpt lat="47.22967" lon="6.05488">
        <ele>257</ele>
        <time>2016-3-26T11:50:18.000Z</time>
      </trkpt>
      <trkpt lat="47.22968" lon="6.0549">
        <ele>256</ele>
        <time>2016-3-26T11:50:18.000Z</time>
      </trkpt>
      <trkpt lat="47.22969" lon="6.05493">
        <ele>256</ele>
        <time>2016-3-26T11:50:18.000Z</time>
      </trkpt>
      <trkpt lat="47.22971" lon="6.05495">
        <ele>256</ele>
        <time>2016-3-26T11:50:18.000Z</time>
      </trkpt>
      <trkpt lat="47.22973" lon="6.05497">
        <ele>256</ele>
        <time>2016-3-26T11:50:18.000Z</time>
      </trkpt>
      <trkpt lat="47.22975" lon="6.05499">
        <ele>256</ele>
        <time>2016-3-26T11:50:18.000Z</time>
      </trkpt>
      <trkpt lat="47.22976" lon="6.05501">
        <ele>257</ele>
        <time>2016-3-26T11:50:18.000Z</time>
      </trkpt>
      <trkpt lat="47.22979" lon="6.05503">
        <ele>256</ele>
        <time>2016-3-26T11:50:18.000Z</time>
      </trkpt>
      <trkpt lat="47.2298" lon="6.05504">
        <ele>254</ele>
        <time>2016-3-26T11:50:18.000Z</time>
      </trkpt>
      <trkpt lat="47.22981" lon="6.05505">
        <ele>254</ele>
        <time>2016-3-26T11:50:18.000Z</time>
      </trkpt>
      <trkpt lat="47.22983" lon="6.05508">
        <ele>255</ele>
        <time>2016-3-26T11:50:18.000Z</time>
      </trkpt>
      <trkpt lat="47.22985" lon="6.05511">
        <ele>255</ele>
        <time>2016-3-26T11:50:18.000Z</time>
      </trkpt>
      <trkpt lat="47.22987" lon="6.05513">
        <ele>255</ele>
        <time>2016-3-26T11:50:18.000Z</time>
      </trkpt>
      <trkpt lat="47.22989" lon="6.05516">
        <ele>255</ele>
        <time>2016-3-26T11:50:18.000Z</time>
      </trkpt>
      <trkpt lat="47.2299" lon="6.05517">
        <ele>255</ele>
        <time>2016-3-26T11:50:18.000Z</time>
      </trkpt>
      <trkpt lat="47.22991" lon="6.05519">
        <ele>255</ele>
        <time>2016-3-26T11:50:18.000Z</time>
      </trkpt>
      <trkpt lat="47.22993" lon="6.0552">
        <ele>256</ele>
        <time>2016-3-26T11:50:18.000Z</time>
      </trkpt>
      <trkpt lat="47.22994" lon="6.05521">
        <ele>257</ele>
        <time>2016-3-26T11:50:18.000Z</time>
      </trkpt>
      <trkpt lat="47.22997" lon="6.05523">
        <ele>256</ele>
        <time>2016-3-26T11:50:18.000Z</time>
      </trkpt>
      <trkpt lat="47.22998" lon="6.05524">
        <ele>256</ele>
        <time>2016-3-26T11:50:18.000Z</time>
      </trkpt>
      <trkpt lat="47.22999" lon="6.05526">
        <ele>256</ele>
        <time>2016-3-26T11:50:18.000Z</time>
      </trkpt>
      <trkpt lat="47.23001" lon="6.05527">
        <ele>256</ele>
        <time>2016-3-26T11:50:18.000Z</time>
      </trkpt>
      <trkpt lat="47.23002" lon="6.05529">
        <ele>253</ele>
        <time>2016-3-26T11:50:18.000Z</time>
      </trkpt>
      <trkpt lat="47.23003" lon="6.05531">
        <ele>253</ele>
        <time>2016-3-26T11:50:18.000Z</time>
      </trkpt>
      <trkpt lat="47.23005" lon="6.05533">
        <ele>255</ele>
        <time>2016-3-26T11:50:18.000Z</time>
      </trkpt>
      <trkpt lat="47.23006" lon="6.05534">
        <ele>255</ele>
        <time>2016-3-26T11:50:18.000Z</time>
      </trkpt>
      <trkpt lat="47.23008" lon="6.05536">
        <ele>255</ele>
        <time>2016-3-26T11:50:18.000Z</time>
      </trkpt>
      <trkpt lat="47.23009" lon="6.05538">
        <ele>254</ele>
        <time>2016-3-26T11:50:18.000Z</time>
      </trkpt>
      <trkpt lat="47.2301" lon="6.0554">
        <ele>253</ele>
        <time>2016-3-26T11:50:18.000Z</time>
      </trkpt>
      <trkpt lat="47.23011" lon="6.05541">
        <ele>253</ele>
        <time>2016-3-26T11:50:18.000Z</time>
      </trkpt>
      <trkpt lat="47.23013" lon="6.05544">
        <ele>253</ele>
        <time>2016-3-26T11:50:18.000Z</time>
      </trkpt>
      <trkpt lat="47.23015" lon="6.05546">
        <ele>255</ele>
        <time>2016-3-26T11:50:18.000Z</time>
      </trkpt>
      <trkpt lat="47.23016" lon="6.05548">
        <ele>254</ele>
        <time>2016-3-26T11:50:18.000Z</time>
      </trkpt>
      <trkpt lat="47.23017" lon="6.0555">
        <ele>253</ele>
        <time>2016-3-26T11:50:18.000Z</time>
      </trkpt>
      <trkpt lat="47.23018" lon="6.05551">
        <ele>254</ele>
        <time>2016-3-26T11:50:18.000Z</time>
      </trkpt>
      <trkpt lat="47.2302" lon="6.05553">
        <ele>254</ele>
        <time>2016-3-26T11:50:18.000Z</time>
      </trkpt>
      <trkpt lat="47.23021" lon="6.05555">
        <ele>253</ele>
        <time>2016-3-26T11:50:18.000Z</time>
      </trkpt>
      <trkpt lat="47.23022" lon="6.05556">
        <ele>253</ele>
        <time>2016-3-26T11:50:18.000Z</time>
      </trkpt>
      <trkpt lat="47.23023" lon="6.05558">
        <ele>254</ele>
        <time>2016-3-26T11:50:18.000Z</time>
      </trkpt>
      <trkpt lat="47.23024" lon="6.05559">
        <ele>254</ele>
        <time>2016-3-26T11:50:18.000Z</time>
      </trkpt>
      <trkpt lat="47.23026" lon="6.05562">
        <ele>254</ele>
        <time>2016-3-26T11:50:18.000Z</time>
      </trkpt>
      <trkpt lat="47.23027" lon="6.05564">
        <ele>252</ele>
        <time>2016-3-26T11:50:18.000Z</time>
      </trkpt>
      <trkpt lat="47.23029" lon="6.05567">
        <ele>251</ele>
        <time>2016-3-26T11:50:18.000Z</time>
      </trkpt>
      <trkpt lat="47.23031" lon="6.05569">
        <ele>249</ele>
        <time>2016-3-26T11:50:18.000Z</time>
      </trkpt>
      <trkpt lat="47.23033" lon="6.05571">
        <ele>249</ele>
        <time>2016-3-26T11:50:18.000Z</time>
      </trkpt>
      <trkpt lat="47.23035" lon="6.05573">
        <ele>247</ele>
        <time>2016-3-26T11:50:18.000Z</time>
      </trkpt>
      <trkpt lat="47.23037" lon="6.05576">
        <ele>244</ele>
        <time>2016-3-26T11:50:18.000Z</time>
      </trkpt>
      <trkpt lat="47.23038" lon="6.05577">
        <ele>244</ele>
        <time>2016-3-26T11:50:18.000Z</time>
      </trkpt>
      <trkpt lat="47.23039" lon="6.05579">
        <ele>243</ele>
        <time>2016-3-26T11:50:18.000Z</time>
      </trkpt>
      <trkpt lat="47.2304" lon="6.05581">
        <ele>242</ele>
        <time>2016-3-26T11:50:18.000Z</time>
      </trkpt>
      <trkpt lat="47.23042" lon="6.05584">
        <ele>242</ele>
        <time>2016-3-26T11:50:18.000Z</time>
      </trkpt>
      <trkpt lat="47.23043" lon="6.05585">
        <ele>243</ele>
        <time>2016-3-26T11:50:18.000Z</time>
      </trkpt>
      <trkpt lat="47.23045" lon="6.05585">
        <ele>242</ele>
        <time>2016-3-26T11:50:18.000Z</time>
      </trkpt>
      <trkpt lat="47.23046" lon="6.05586">
        <ele>242</ele>
        <time>2016-3-26T11:50:18.000Z</time>
      </trkpt>
      <trkpt lat="47.23048" lon="6.05587">
        <ele>243</ele>
        <time>2016-3-26T11:50:18.000Z</time>
      </trkpt>
      <trkpt lat="47.2305" lon="6.05588">
        <ele>242</ele>
        <time>2016-3-26T11:50:18.000Z</time>
      </trkpt>
      <trkpt lat="47.23051" lon="6.05588">
        <ele>242</ele>
        <time>2016-3-26T11:50:18.000Z</time>
      </trkpt>
      <trkpt lat="47.23053" lon="6.05589">
        <ele>242</ele>
        <time>2016-3-26T11:50:18.000Z</time>
      </trkpt>
      <trkpt lat="47.23055" lon="6.05589">
        <ele>243</ele>
        <time>2016-3-26T11:50:18.000Z</time>
      </trkpt>
      <trkpt lat="47.23056" lon="6.0559">
        <ele>242</ele>
        <time>2016-3-26T11:50:18.000Z</time>
      </trkpt>
      <trkpt lat="47.23058" lon="6.0559">
        <ele>242</ele>
        <time>2016-3-26T11:50:18.000Z</time>
      </trkpt>
      <trkpt lat="47.23059" lon="6.05591">
        <ele>243</ele>
        <time>2016-3-26T11:50:18.000Z</time>
      </trkpt>
      <trkpt lat="47.23061" lon="6.05591">
        <ele>244</ele>
        <time>2016-3-26T11:50:18.000Z</time>
      </trkpt>
      <trkpt lat="47.23063" lon="6.05592">
        <ele>245</ele>
        <time>2016-3-26T11:50:18.000Z</time>
      </trkpt>
      <trkpt lat="47.23064" lon="6.05592">
        <ele>246</ele>
        <time>2016-3-26T11:50:18.000Z</time>
      </trkpt>
      <trkpt lat="47.23066" lon="6.05593">
        <ele>246</ele>
        <time>2016-3-26T11:50:18.000Z</time>
      </trkpt>
      <trkpt lat="47.23067" lon="6.05593">
        <ele>245</ele>
        <time>2016-3-26T11:50:18.000Z</time>
      </trkpt>
      <trkpt lat="47.23069" lon="6.05594">
        <ele>245</ele>
        <time>2016-3-26T11:50:18.000Z</time>
      </trkpt>
      <trkpt lat="47.23071" lon="6.05595">
        <ele>247</ele>
        <time>2016-3-26T11:50:18.000Z</time>
      </trkpt>
      <trkpt lat="47.23073" lon="6.05595">
        <ele>246</ele>
        <time>2016-3-26T11:50:18.000Z</time>
      </trkpt>
      <trkpt lat="47.23074" lon="6.05595">
        <ele>247</ele>
        <time>2016-3-26T11:50:18.000Z</time>
      </trkpt>
      <trkpt lat="47.23076" lon="6.05596">
        <ele>248</ele>
        <time>2016-3-26T11:50:18.000Z</time>
      </trkpt>
      <trkpt lat="47.23077" lon="6.05597">
        <ele>248</ele>
        <time>2016-3-26T11:50:18.000Z</time>
      </trkpt>
      <trkpt lat="47.23079" lon="6.05598">
        <ele>248</ele>
        <time>2016-3-26T11:50:18.000Z</time>
      </trkpt>
      <trkpt lat="47.23081" lon="6.05598">
        <ele>248</ele>
        <time>2016-3-26T11:50:18.000Z</time>
      </trkpt>
      <trkpt lat="47.23082" lon="6.05598">
        <ele>247</ele>
        <time>2016-3-26T11:50:18.000Z</time>
      </trkpt>
      <trkpt lat="47.23084" lon="6.05599">
        <ele>248</ele>
        <time>2016-3-26T11:50:18.000Z</time>
      </trkpt>
      <trkpt lat="47.23085" lon="6.05602">
        <ele>247</ele>
        <time>2016-3-26T11:50:18.000Z</time>
      </trkpt>
      <trkpt lat="47.23086" lon="6.05606">
        <ele>246</ele>
        <time>2016-3-26T11:50:18.000Z</time>
      </trkpt>
      <trkpt lat="47.23086" lon="6.0561">
        <ele>246</ele>
        <time>2016-3-26T11:50:18.000Z</time>
      </trkpt>
      <trkpt lat="47.23085" lon="6.05614">
        <ele>245</ele>
        <time>2016-3-26T11:50:18.000Z</time>
      </trkpt>
      <trkpt lat="47.23085" lon="6.05617">
        <ele>244</ele>
        <time>2016-3-26T11:50:18.000Z</time>
      </trkpt>
      <trkpt lat="47.23086" lon="6.05621">
        <ele>245</ele>
        <time>2016-3-26T11:50:18.000Z</time>
      </trkpt>
      <trkpt lat="47.23087" lon="6.05623">
        <ele>244</ele>
        <time>2016-3-26T11:50:18.000Z</time>
      </trkpt>
      <trkpt lat="47.23087" lon="6.05627">
        <ele>243</ele>
        <time>2016-3-26T11:50:18.000Z</time>
      </trkpt>
      <trkpt lat="47.23086" lon="6.05631">
        <ele>243</ele>
        <time>2016-3-26T11:50:18.000Z</time>
      </trkpt>
      <trkpt lat="47.23086" lon="6.05633">
        <ele>243</ele>
        <time>2016-3-26T11:50:18.000Z</time>
      </trkpt>
      <trkpt lat="47.23085" lon="6.05635">
        <ele>243</ele>
        <time>2016-3-26T11:50:18.000Z</time>
      </trkpt>
      <trkpt lat="47.23085" lon="6.05637">
        <ele>243</ele>
        <time>2016-3-26T11:50:18.000Z</time>
      </trkpt>
      <trkpt lat="47.23085" lon="6.0564">
        <ele>242</ele>
        <time>2016-3-26T11:50:18.000Z</time>
      </trkpt>
      <trkpt lat="47.23084" lon="6.05642">
        <ele>242</ele>
        <time>2016-3-26T11:50:18.000Z</time>
      </trkpt>
      <trkpt lat="47.23084" lon="6.05644">
        <ele>242</ele>
        <time>2016-3-26T11:50:18.000Z</time>
      </trkpt>
      <trkpt lat="47.23084" lon="6.05646">
        <ele>241</ele>
        <time>2016-3-26T11:50:18.000Z</time>
      </trkpt>
      <trkpt lat="47.23084" lon="6.0565">
        <ele>241</ele>
        <time>2016-3-26T11:50:18.000Z</time>
      </trkpt>
      <trkpt lat="47.23086" lon="6.05653">
        <ele>241</ele>
        <time>2016-3-26T11:50:18.000Z</time>
      </trkpt>
      <trkpt lat="47.23087" lon="6.05655">
        <ele>242</ele>
        <time>2016-3-26T11:50:18.000Z</time>
      </trkpt>
      <trkpt lat="47.23088" lon="6.05657">
        <ele>243</ele>
        <time>2016-3-26T11:50:18.000Z</time>
      </trkpt>
      <trkpt lat="47.23089" lon="6.05659">
        <ele>243</ele>
        <time>2016-3-26T11:50:18.000Z</time>
      </trkpt>
      <trkpt lat="47.23091" lon="6.05661">
        <ele>243</ele>
        <time>2016-3-26T11:50:18.000Z</time>
      </trkpt>
      <trkpt lat="47.23092" lon="6.05663">
        <ele>242</ele>
        <time>2016-3-26T11:50:18.000Z</time>
      </trkpt>
      <trkpt lat="47.23093" lon="6.05666">
        <ele>242</ele>
        <time>2016-3-26T11:50:18.000Z</time>
      </trkpt>
      <trkpt lat="47.23095" lon="6.05668">
        <ele>244</ele>
        <time>2016-3-26T11:52:35.000Z</time>
      </trkpt>
      <trkpt lat="47.23096" lon="6.0567">
        <ele>244</ele>
        <time>2016-3-26T11:52:35.000Z</time>
      </trkpt>
      <trkpt lat="47.23098" lon="6.05671">
        <ele>244</ele>
        <time>2016-3-26T11:52:35.000Z</time>
      </trkpt>
      <trkpt lat="47.23099" lon="6.05673">
        <ele>243</ele>
        <time>2016-3-26T11:52:35.000Z</time>
      </trkpt>
      <trkpt lat="47.23101" lon="6.05675">
        <ele>244</ele>
        <time>2016-3-26T11:52:35.000Z</time>
      </trkpt>
      <trkpt lat="47.23102" lon="6.05676">
        <ele>245</ele>
        <time>2016-3-26T11:52:35.000Z</time>
      </trkpt>
      <trkpt lat="47.23104" lon="6.05678">
        <ele>245</ele>
        <time>2016-3-26T11:52:35.000Z</time>
      </trkpt>
      <trkpt lat="47.23105" lon="6.05679">
        <ele>245</ele>
        <time>2016-3-26T11:52:35.000Z</time>
      </trkpt>
      <trkpt lat="47.23107" lon="6.0568">
        <ele>245</ele>
        <time>2016-3-26T11:52:35.000Z</time>
      </trkpt>
      <trkpt lat="47.23108" lon="6.05681">
        <ele>245</ele>
        <time>2016-3-26T11:52:35.000Z</time>
      </trkpt>
      <trkpt lat="47.23109" lon="6.05682">
        <ele>245</ele>
        <time>2016-3-26T11:52:35.000Z</time>
      </trkpt>
      <trkpt lat="47.23112" lon="6.05683">
        <ele>245</ele>
        <time>2016-3-26T11:52:35.000Z</time>
      </trkpt>
      <trkpt lat="47.23113" lon="6.05684">
        <ele>244</ele>
        <time>2016-3-26T11:52:35.000Z</time>
      </trkpt>
      <trkpt lat="47.23116" lon="6.05686">
        <ele>244</ele>
        <time>2016-3-26T11:52:35.000Z</time>
      </trkpt>
      <trkpt lat="47.23117" lon="6.05687">
        <ele>245</ele>
        <time>2016-3-26T11:52:35.000Z</time>
      </trkpt>
      <trkpt lat="47.23118" lon="6.05688">
        <ele>245</ele>
        <time>2016-3-26T11:52:35.000Z</time>
      </trkpt>
      <trkpt lat="47.2312" lon="6.05689">
        <ele>246</ele>
        <time>2016-3-26T11:52:35.000Z</time>
      </trkpt>
      <trkpt lat="47.23121" lon="6.0569">
        <ele>245</ele>
        <time>2016-3-26T11:52:35.000Z</time>
      </trkpt>
      <trkpt lat="47.23124" lon="6.05692">
        <ele>245</ele>
        <time>2016-3-26T11:52:35.000Z</time>
      </trkpt>
      <trkpt lat="47.23125" lon="6.05692">
        <ele>246</ele>
        <time>2016-3-26T11:52:35.000Z</time>
      </trkpt>
      <trkpt lat="47.23127" lon="6.05694">
        <ele>246</ele>
        <time>2016-3-26T11:52:35.000Z</time>
      </trkpt>
      <trkpt lat="47.23128" lon="6.05695">
        <ele>246</ele>
        <time>2016-3-26T11:52:35.000Z</time>
      </trkpt>
      <trkpt lat="47.23129" lon="6.05696">
        <ele>246</ele>
        <time>2016-3-26T11:52:35.000Z</time>
      </trkpt>
      <trkpt lat="47.23131" lon="6.05698">
        <ele>247</ele>
        <time>2016-3-26T11:52:35.000Z</time>
      </trkpt>
      <trkpt lat="47.23132" lon="6.05699">
        <ele>247</ele>
        <time>2016-3-26T11:52:35.000Z</time>
      </trkpt>
      <trkpt lat="47.23134" lon="6.057">
        <ele>248</ele>
        <time>2016-3-26T11:52:35.000Z</time>
      </trkpt>
      <trkpt lat="47.23135" lon="6.05701">
        <ele>248</ele>
        <time>2016-3-26T11:52:35.000Z</time>
      </trkpt>
      <trkpt lat="47.23136" lon="6.05702">
        <ele>249</ele>
        <time>2016-3-26T11:52:35.000Z</time>
      </trkpt>
      <trkpt lat="47.23138" lon="6.05703">
        <ele>249</ele>
        <time>2016-3-26T11:52:35.000Z</time>
      </trkpt>
      <trkpt lat="47.23139" lon="6.05705">
        <ele>249</ele>
        <time>2016-3-26T11:52:35.000Z</time>
      </trkpt>
      <trkpt lat="47.23141" lon="6.05706">
        <ele>249</ele>
        <time>2016-3-26T11:52:35.000Z</time>
      </trkpt>
      <trkpt lat="47.23142" lon="6.05707">
        <ele>251</ele>
        <time>2016-3-26T11:52:35.000Z</time>
      </trkpt>
      <trkpt lat="47.23144" lon="6.05708">
        <ele>251</ele>
        <time>2016-3-26T11:52:35.000Z</time>
      </trkpt>
      <trkpt lat="47.23145" lon="6.05709">
        <ele>251</ele>
        <time>2016-3-26T11:52:35.000Z</time>
      </trkpt>
      <trkpt lat="47.23147" lon="6.0571">
        <ele>251</ele>
        <time>2016-3-26T11:52:35.000Z</time>
      </trkpt>
      <trkpt lat="47.23148" lon="6.05711">
        <ele>251</ele>
        <time>2016-3-26T11:52:35.000Z</time>
      </trkpt>
      <trkpt lat="47.2315" lon="6.05712">
        <ele>250</ele>
        <time>2016-3-26T11:52:35.000Z</time>
      </trkpt>
      <trkpt lat="47.23151" lon="6.05714">
        <ele>252</ele>
        <time>2016-3-26T11:52:35.000Z</time>
      </trkpt>
      <trkpt lat="47.23153" lon="6.05715">
        <ele>252</ele>
        <time>2016-3-26T11:52:35.000Z</time>
      </trkpt>
      <trkpt lat="47.23154" lon="6.05717">
        <ele>252</ele>
        <time>2016-3-26T11:52:35.000Z</time>
      </trkpt>
      <trkpt lat="47.23156" lon="6.05718">
        <ele>252</ele>
        <time>2016-3-26T11:52:35.000Z</time>
      </trkpt>
      <trkpt lat="47.23157" lon="6.05719">
        <ele>253</ele>
        <time>2016-3-26T11:52:35.000Z</time>
      </trkpt>
      <trkpt lat="47.23157" lon="6.05722">
        <ele>252</ele>
        <time>2016-3-26T11:52:35.000Z</time>
      </trkpt>
      <trkpt lat="47.23155" lon="6.05725">
        <ele>250</ele>
        <time>2016-3-26T11:52:35.000Z</time>
      </trkpt>
      <trkpt lat="47.23154" lon="6.05727">
        <ele>250</ele>
        <time>2016-3-26T11:52:35.000Z</time>
      </trkpt>
      <trkpt lat="47.23152" lon="6.05729">
        <ele>249</ele>
        <time>2016-3-26T11:52:35.000Z</time>
      </trkpt>
      <trkpt lat="47.23151" lon="6.05731">
        <ele>249</ele>
        <time>2016-3-26T11:52:35.000Z</time>
      </trkpt>
      <trkpt lat="47.2315" lon="6.05734">
        <ele>249</ele>
        <time>2016-3-26T11:52:35.000Z</time>
      </trkpt>
      <trkpt lat="47.23149" lon="6.05736">
        <ele>249</ele>
        <time>2016-3-26T11:52:35.000Z</time>
      </trkpt>
      <trkpt lat="47.23148" lon="6.05739">
        <ele>247</ele>
        <time>2016-3-26T11:52:35.000Z</time>
      </trkpt>
      <trkpt lat="47.23146" lon="6.05742">
        <ele>246</ele>
        <time>2016-3-26T11:52:35.000Z</time>
      </trkpt>
      <trkpt lat="47.23145" lon="6.05745">
        <ele>246</ele>
        <time>2016-3-26T11:52:35.000Z</time>
      </trkpt>
      <trkpt lat="47.23143" lon="6.05749">
        <ele>246</ele>
        <time>2016-3-26T11:52:35.000Z</time>
      </trkpt>
      <trkpt lat="47.23142" lon="6.05752">
        <ele>245</ele>
        <time>2016-3-26T11:52:35.000Z</time>
      </trkpt>
      <trkpt lat="47.2314" lon="6.05755">
        <ele>246</ele>
        <time>2016-3-26T11:52:35.000Z</time>
      </trkpt>
      <trkpt lat="47.23138" lon="6.05758">
        <ele>245</ele>
        <time>2016-3-26T11:52:35.000Z</time>
      </trkpt>
      <trkpt lat="47.23137" lon="6.05762">
        <ele>245</ele>
        <time>2016-3-26T11:52:35.000Z</time>
      </trkpt>
      <trkpt lat="47.23135" lon="6.05765">
        <ele>247</ele>
        <time>2016-3-26T11:52:35.000Z</time>
      </trkpt>
      <trkpt lat="47.23133" lon="6.05769">
        <ele>246</ele>
        <time>2016-3-26T11:52:35.000Z</time>
      </trkpt>
      <trkpt lat="47.23132" lon="6.05772">
        <ele>246</ele>
        <time>2016-3-26T11:52:35.000Z</time>
      </trkpt>
      <trkpt lat="47.23132" lon="6.05774">
        <ele>245</ele>
        <time>2016-3-26T11:52:35.000Z</time>
      </trkpt>
      <trkpt lat="47.23131" lon="6.05776">
        <ele>246</ele>
        <time>2016-3-26T11:52:35.000Z</time>
      </trkpt>
      <trkpt lat="47.2313" lon="6.05777">
        <ele>245</ele>
        <time>2016-3-26T11:52:35.000Z</time>
      </trkpt>
      <trkpt lat="47.23129" lon="6.05779">
        <ele>245</ele>
        <time>2016-3-26T11:52:35.000Z</time>
      </trkpt>
      <trkpt lat="47.23128" lon="6.05781">
        <ele>247</ele>
        <time>2016-3-26T11:52:35.000Z</time>
      </trkpt>
      <trkpt lat="47.23127" lon="6.05783">
        <ele>247</ele>
        <time>2016-3-26T11:52:35.000Z</time>
      </trkpt>
      <trkpt lat="47.23126" lon="6.05785">
        <ele>247</ele>
        <time>2016-3-26T11:52:35.000Z</time>
      </trkpt>
      <trkpt lat="47.23125" lon="6.05787">
        <ele>247</ele>
        <time>2016-3-26T11:52:35.000Z</time>
      </trkpt>
      <trkpt lat="47.23124" lon="6.05789">
        <ele>247</ele>
        <time>2016-3-26T11:52:35.000Z</time>
      </trkpt>
      <trkpt lat="47.23123" lon="6.05791">
        <ele>247</ele>
        <time>2016-3-26T11:52:35.000Z</time>
      </trkpt>
      <trkpt lat="47.23122" lon="6.05793">
        <ele>246</ele>
        <time>2016-3-26T11:52:35.000Z</time>
      </trkpt>
      <trkpt lat="47.23121" lon="6.05795">
        <ele>247</ele>
        <time>2016-3-26T11:52:35.000Z</time>
      </trkpt>
      <trkpt lat="47.2312" lon="6.05798">
        <ele>248</ele>
        <time>2016-3-26T11:52:35.000Z</time>
      </trkpt>
      <trkpt lat="47.23119" lon="6.05799">
        <ele>247</ele>
        <time>2016-3-26T11:52:35.000Z</time>
      </trkpt>
      <trkpt lat="47.23119" lon="6.05801">
        <ele>248</ele>
        <time>2016-3-26T11:52:35.000Z</time>
      </trkpt>
      <trkpt lat="47.23117" lon="6.05805">
        <ele>247</ele>
        <time>2016-3-26T11:52:35.000Z</time>
      </trkpt>
      <trkpt lat="47.23115" lon="6.05808">
        <ele>249</ele>
        <time>2016-3-26T11:52:35.000Z</time>
      </trkpt>
      <trkpt lat="47.23114" lon="6.05811">
        <ele>249</ele>
        <time>2016-3-26T11:52:35.000Z</time>
      </trkpt>
      <trkpt lat="47.23112" lon="6.05814">
        <ele>248</ele>
        <time>2016-3-26T11:52:35.000Z</time>
      </trkpt>
      <trkpt lat="47.2311" lon="6.05817">
        <ele>247</ele>
        <time>2016-3-26T11:52:35.000Z</time>
      </trkpt>
      <trkpt lat="47.23109" lon="6.0582">
        <ele>248</ele>
        <time>2016-3-26T11:52:35.000Z</time>
      </trkpt>
      <trkpt lat="47.23107" lon="6.05823">
        <ele>249</ele>
        <time>2016-3-26T11:52:35.000Z</time>
      </trkpt>
      <trkpt lat="47.23105" lon="6.05824">
        <ele>248</ele>
        <time>2016-3-26T11:52:35.000Z</time>
      </trkpt>
      <trkpt lat="47.23104" lon="6.05822">
        <ele>247</ele>
        <time>2016-3-26T11:52:35.000Z</time>
      </trkpt>
      <trkpt lat="47.23103" lon="6.0582">
        <ele>248</ele>
        <time>2016-3-26T11:52:35.000Z</time>
      </trkpt>
      <trkpt lat="47.23101" lon="6.05817">
        <ele>249</ele>
        <time>2016-3-26T11:52:35.000Z</time>
      </trkpt>
      <trkpt lat="47.23099" lon="6.05815">
        <ele>248</ele>
        <time>2016-3-26T11:52:35.000Z</time>
      </trkpt>
      <trkpt lat="47.23097" lon="6.05814">
        <ele>247</ele>
        <time>2016-3-26T11:52:35.000Z</time>
      </trkpt>
      <trkpt lat="47.23094" lon="6.05811">
        <ele>247</ele>
        <time>2016-3-26T11:52:35.000Z</time>
      </trkpt>
      <trkpt lat="47.23093" lon="6.0581">
        <ele>246</ele>
        <time>2016-3-26T11:52:35.000Z</time>
      </trkpt>
      <trkpt lat="47.23091" lon="6.05809">
        <ele>244</ele>
        <time>2016-3-26T11:52:35.000Z</time>
      </trkpt>
      <trkpt lat="47.2309" lon="6.05807">
        <ele>244</ele>
        <time>2016-3-26T11:52:35.000Z</time>
      </trkpt>
      <trkpt lat="47.23089" lon="6.05806">
        <ele>244</ele>
        <time>2016-3-26T11:52:35.000Z</time>
      </trkpt>
      <trkpt lat="47.23087" lon="6.05805">
        <ele>244</ele>
        <time>2016-3-26T11:52:35.000Z</time>
      </trkpt>
      <trkpt lat="47.23085" lon="6.05804">
        <ele>244</ele>
        <time>2016-3-26T11:52:35.000Z</time>
      </trkpt>
      <trkpt lat="47.23084" lon="6.05803">
        <ele>242</ele>
        <time>2016-3-26T11:52:35.000Z</time>
      </trkpt>
      <trkpt lat="47.23083" lon="6.05802">
        <ele>242</ele>
        <time>2016-3-26T11:52:35.000Z</time>
      </trkpt>
      <trkpt lat="47.23081" lon="6.058">
        <ele>241</ele>
        <time>2016-3-26T11:52:35.000Z</time>
      </trkpt>
      <trkpt lat="47.23078" lon="6.05798">
        <ele>242</ele>
        <time>2016-3-26T11:52:35.000Z</time>
      </trkpt>
      <trkpt lat="47.23076" lon="6.05796">
        <ele>241</ele>
        <time>2016-3-26T11:52:35.000Z</time>
      </trkpt>
      <trkpt lat="47.23074" lon="6.05794">
        <ele>240</ele>
        <time>2016-3-26T11:52:35.000Z</time>
      </trkpt>
      <trkpt lat="47.23071" lon="6.05793">
        <ele>240</ele>
        <time>2016-3-26T11:55:39.000Z</time>
      </trkpt>
      <trkpt lat="47.23069" lon="6.05795">
        <ele>238</ele>
        <time>2016-3-26T11:55:39.000Z</time>
      </trkpt>
      <trkpt lat="47.23067" lon="6.05799">
        <ele>238</ele>
        <time>2016-3-26T11:55:39.000Z</time>
      </trkpt>
      <trkpt lat="47.23066" lon="6.05802">
        <ele>238</ele>
        <time>2016-3-26T11:55:39.000Z</time>
      </trkpt>
      <trkpt lat="47.23064" lon="6.05805">
        <ele>238</ele>
        <time>2016-3-26T11:55:39.000Z</time>
      </trkpt>
      <trkpt lat="47.23063" lon="6.05809">
        <ele>239</ele>
        <time>2016-3-26T11:55:39.000Z</time>
      </trkpt>
      <trkpt lat="47.23063" lon="6.05812">
        <ele>239</ele>
        <time>2016-3-26T11:55:39.000Z</time>
      </trkpt>
      <trkpt lat="47.23065" lon="6.05814">
        <ele>239</ele>
        <time>2016-3-26T11:55:39.000Z</time>
      </trkpt>
      <trkpt lat="47.23067" lon="6.05814">
        <ele>240</ele>
        <time>2016-3-26T11:55:39.000Z</time>
      </trkpt>
      <trkpt lat="47.23069" lon="6.05816">
        <ele>240</ele>
        <time>2016-3-26T11:55:39.000Z</time>
      </trkpt>
      <trkpt lat="47.23072" lon="6.05817">
        <ele>240</ele>
        <time>2016-3-26T11:55:39.000Z</time>
      </trkpt>
      <trkpt lat="47.23074" lon="6.05819">
        <ele>239</ele>
        <time>2016-3-26T11:55:39.000Z</time>
      </trkpt>
      <trkpt lat="47.23076" lon="6.05822">
        <ele>238</ele>
        <time>2016-3-26T11:55:39.000Z</time>
      </trkpt>
      <trkpt lat="47.23077" lon="6.05824">
        <ele>238</ele>
        <time>2016-3-26T11:55:39.000Z</time>
      </trkpt>
      <trkpt lat="47.23079" lon="6.05827">
        <ele>240</ele>
        <time>2016-3-26T11:55:39.000Z</time>
      </trkpt>
      <trkpt lat="47.23081" lon="6.05829">
        <ele>241</ele>
        <time>2016-3-26T11:55:39.000Z</time>
      </trkpt>
      <trkpt lat="47.23083" lon="6.0583">
        <ele>241</ele>
        <time>2016-3-26T11:55:39.000Z</time>
      </trkpt>
      <trkpt lat="47.23084" lon="6.0583">
        <ele>241</ele>
        <time>2016-3-26T11:55:39.000Z</time>
      </trkpt>
      <trkpt lat="47.23086" lon="6.05831">
        <ele>242</ele>
        <time>2016-3-26T11:55:39.000Z</time>
      </trkpt>
      <trkpt lat="47.23088" lon="6.05833">
        <ele>243</ele>
        <time>2016-3-26T11:55:39.000Z</time>
      </trkpt>
      <trkpt lat="47.2309" lon="6.05835">
        <ele>244</ele>
        <time>2016-3-26T11:55:39.000Z</time>
      </trkpt>
      <trkpt lat="47.23093" lon="6.05836">
        <ele>244</ele>
        <time>2016-3-26T11:55:39.000Z</time>
      </trkpt>
      <trkpt lat="47.23095" lon="6.05838">
        <ele>245</ele>
        <time>2016-3-26T11:55:39.000Z</time>
      </trkpt>
      <trkpt lat="47.23098" lon="6.0584">
        <ele>246</ele>
        <time>2016-3-26T11:55:39.000Z</time>
      </trkpt>
      <trkpt lat="47.231" lon="6.05842">
        <ele>247</ele>
        <time>2016-3-26T11:55:39.000Z</time>
      </trkpt>
      <trkpt lat="47.23102" lon="6.05844">
        <ele>247</ele>
        <time>2016-3-26T11:55:39.000Z</time>
      </trkpt>
      <trkpt lat="47.23104" lon="6.05846">
        <ele>247</ele>
        <time>2016-3-26T11:55:39.000Z</time>
      </trkpt>
      <trkpt lat="47.23106" lon="6.05848">
        <ele>248</ele>
        <time>2016-3-26T11:55:39.000Z</time>
      </trkpt>
      <trkpt lat="47.23109" lon="6.0585">
        <ele>248</ele>
        <time>2016-3-26T11:55:39.000Z</time>
      </trkpt>
      <trkpt lat="47.23111" lon="6.05852">
        <ele>248</ele>
        <time>2016-3-26T11:55:39.000Z</time>
      </trkpt>
      <trkpt lat="47.23113" lon="6.05854">
        <ele>248</ele>
        <time>2016-3-26T11:55:39.000Z</time>
      </trkpt>
      <trkpt lat="47.23115" lon="6.05855">
        <ele>247</ele>
        <time>2016-3-26T11:55:39.000Z</time>
      </trkpt>
      <trkpt lat="47.23117" lon="6.05857">
        <ele>247</ele>
        <time>2016-3-26T11:55:39.000Z</time>
      </trkpt>
      <trkpt lat="47.23118" lon="6.05859">
        <ele>247</ele>
        <time>2016-3-26T11:55:39.000Z</time>
      </trkpt>
      <trkpt lat="47.2312" lon="6.0586">
        <ele>249</ele>
        <time>2016-3-26T11:55:39.000Z</time>
      </trkpt>
      <trkpt lat="47.23121" lon="6.05862">
        <ele>249</ele>
        <time>2016-3-26T11:55:39.000Z</time>
      </trkpt>
      <trkpt lat="47.23122" lon="6.05864">
        <ele>249</ele>
        <time>2016-3-26T11:55:39.000Z</time>
      </trkpt>
      <trkpt lat="47.23124" lon="6.05865">
        <ele>249</ele>
        <time>2016-3-26T11:55:39.000Z</time>
      </trkpt>
      <trkpt lat="47.23125" lon="6.05866">
        <ele>249</ele>
        <time>2016-3-26T11:55:39.000Z</time>
      </trkpt>
      <trkpt lat="47.23127" lon="6.05867">
        <ele>250</ele>
        <time>2016-3-26T11:55:39.000Z</time>
      </trkpt>
      <trkpt lat="47.23128" lon="6.05868">
        <ele>249</ele>
        <time>2016-3-26T11:55:39.000Z</time>
      </trkpt>
      <trkpt lat="47.2313" lon="6.05869">
        <ele>249</ele>
        <time>2016-3-26T11:55:39.000Z</time>
      </trkpt>
      <trkpt lat="47.23131" lon="6.0587">
        <ele>249</ele>
        <time>2016-3-26T11:55:39.000Z</time>
      </trkpt>
      <trkpt lat="47.23132" lon="6.05871">
        <ele>249</ele>
        <time>2016-3-26T11:55:39.000Z</time>
      </trkpt>
      <trkpt lat="47.23134" lon="6.05872">
        <ele>249</ele>
        <time>2016-3-26T11:55:39.000Z</time>
      </trkpt>
      <trkpt lat="47.23136" lon="6.05874">
        <ele>248</ele>
        <time>2016-3-26T11:55:39.000Z</time>
      </trkpt>
      <trkpt lat="47.23138" lon="6.05875">
        <ele>248</ele>
        <time>2016-3-26T11:55:39.000Z</time>
      </trkpt>
      <trkpt lat="47.23139" lon="6.05876">
        <ele>248</ele>
        <time>2016-3-26T11:55:39.000Z</time>
      </trkpt>
      <trkpt lat="47.23141" lon="6.05878">
        <ele>249</ele>
        <time>2016-3-26T11:55:39.000Z</time>
      </trkpt>
      <trkpt lat="47.23144" lon="6.0588">
        <ele>247</ele>
        <time>2016-3-26T11:55:39.000Z</time>
      </trkpt>
      <trkpt lat="47.23145" lon="6.05881">
        <ele>246</ele>
        <time>2016-3-26T11:55:39.000Z</time>
      </trkpt>
      <trkpt lat="47.23147" lon="6.05882">
        <ele>247</ele>
        <time>2016-3-26T11:55:39.000Z</time>
      </trkpt>
      <trkpt lat="47.23148" lon="6.05883">
        <ele>247</ele>
        <time>2016-3-26T11:55:39.000Z</time>
      </trkpt>
      <trkpt lat="47.2315" lon="6.05884">
        <ele>247</ele>
        <time>2016-3-26T11:55:39.000Z</time>
      </trkpt>
      <trkpt lat="47.23151" lon="6.05885">
        <ele>246</ele>
        <time>2016-3-26T11:55:39.000Z</time>
      </trkpt>
      <trkpt lat="47.23153" lon="6.05886">
        <ele>246</ele>
        <time>2016-3-26T11:55:39.000Z</time>
      </trkpt>
      <trkpt lat="47.23154" lon="6.05887">
        <ele>246</ele>
        <time>2016-3-26T11:55:39.000Z</time>
      </trkpt>
      <trkpt lat="47.23155" lon="6.05888">
        <ele>246</ele>
        <time>2016-3-26T11:55:39.000Z</time>
      </trkpt>
      <trkpt lat="47.23157" lon="6.05889">
        <ele>246</ele>
        <time>2016-3-26T11:55:39.000Z</time>
      </trkpt>
      <trkpt lat="47.23158" lon="6.0589">
        <ele>247</ele>
        <time>2016-3-26T11:55:39.000Z</time>
      </trkpt>
      <trkpt lat="47.23159" lon="6.05891">
        <ele>247</ele>
        <time>2016-3-26T11:55:39.000Z</time>
      </trkpt>
      <trkpt lat="47.23161" lon="6.05892">
        <ele>247</ele>
        <time>2016-3-26T11:55:39.000Z</time>
      </trkpt>
      <trkpt lat="47.23162" lon="6.05893">
        <ele>247</ele>
        <time>2016-3-26T11:55:39.000Z</time>
      </trkpt>
      <trkpt lat="47.23163" lon="6.05894">
        <ele>247</ele>
        <time>2016-3-26T11:55:39.000Z</time>
      </trkpt>
      <trkpt lat="47.23164" lon="6.05895">
        <ele>247</ele>
        <time>2016-3-26T11:55:39.000Z</time>
      </trkpt>
      <trkpt lat="47.23165" lon="6.05897">
        <ele>247</ele>
        <time>2016-3-26T11:55:39.000Z</time>
      </trkpt>
      <trkpt lat="47.23167" lon="6.05898">
        <ele>246</ele>
        <time>2016-3-26T11:55:39.000Z</time>
      </trkpt>
      <trkpt lat="47.23168" lon="6.05899">
        <ele>246</ele>
        <time>2016-3-26T11:55:39.000Z</time>
      </trkpt>
      <trkpt lat="47.23169" lon="6.05901">
        <ele>246</ele>
        <time>2016-3-26T11:55:39.000Z</time>
      </trkpt>
      <trkpt lat="47.23171" lon="6.05902">
        <ele>247</ele>
        <time>2016-3-26T11:55:39.000Z</time>
      </trkpt>
      <trkpt lat="47.23172" lon="6.05903">
        <ele>246</ele>
        <time>2016-3-26T11:55:39.000Z</time>
      </trkpt>
      <trkpt lat="47.23173" lon="6.05904">
        <ele>246</ele>
        <time>2016-3-26T11:55:39.000Z</time>
      </trkpt>
      <trkpt lat="47.23175" lon="6.05905">
        <ele>245</ele>
        <time>2016-3-26T11:55:39.000Z</time>
      </trkpt>
      <trkpt lat="47.23176" lon="6.05906">
        <ele>245</ele>
        <time>2016-3-26T11:55:39.000Z</time>
      </trkpt>
      <trkpt lat="47.23178" lon="6.05907">
        <ele>245</ele>
        <time>2016-3-26T11:55:39.000Z</time>
      </trkpt>
      <trkpt lat="47.23179" lon="6.05908">
        <ele>246</ele>
        <time>2016-3-26T11:55:39.000Z</time>
      </trkpt>
      <trkpt lat="47.2318" lon="6.05909">
        <ele>247</ele>
        <time>2016-3-26T11:55:39.000Z</time>
      </trkpt>
      <trkpt lat="47.23181" lon="6.0591">
        <ele>247</ele>
        <time>2016-3-26T11:55:39.000Z</time>
      </trkpt>
      <trkpt lat="47.23183" lon="6.05911">
        <ele>247</ele>
        <time>2016-3-26T11:55:39.000Z</time>
      </trkpt>
      <trkpt lat="47.23184" lon="6.05912">
        <ele>247</ele>
        <time>2016-3-26T11:55:39.000Z</time>
      </trkpt>
      <trkpt lat="47.23186" lon="6.05914">
        <ele>246</ele>
        <time>2016-3-26T11:55:39.000Z</time>
      </trkpt>
      <trkpt lat="47.23189" lon="6.05916">
        <ele>246</ele>
        <time>2016-3-26T11:55:39.000Z</time>
      </trkpt>
      <trkpt lat="47.23191" lon="6.05917">
        <ele>246</ele>
        <time>2016-3-26T11:55:39.000Z</time>
      </trkpt>
      <trkpt lat="47.23193" lon="6.05918">
        <ele>247</ele>
        <time>2016-3-26T11:55:39.000Z</time>
      </trkpt>
      <trkpt lat="47.23194" lon="6.05919">
        <ele>247</ele>
        <time>2016-3-26T11:55:39.000Z</time>
      </trkpt>
      <trkpt lat="47.23196" lon="6.0592">
        <ele>247</ele>
        <time>2016-3-26T11:55:39.000Z</time>
      </trkpt>
      <trkpt lat="47.23199" lon="6.05921">
        <ele>248</ele>
        <time>2016-3-26T11:55:39.000Z</time>
      </trkpt>
      <trkpt lat="47.23201" lon="6.05922">
        <ele>248</ele>
        <time>2016-3-26T11:55:39.000Z</time>
      </trkpt>
      <trkpt lat="47.23203" lon="6.05923">
        <ele>248</ele>
        <time>2016-3-26T11:55:39.000Z</time>
      </trkpt>
      <trkpt lat="47.23204" lon="6.05924">
        <ele>248</ele>
        <time>2016-3-26T11:55:39.000Z</time>
      </trkpt>
      <trkpt lat="47.23206" lon="6.05925">
        <ele>248</ele>
        <time>2016-3-26T11:55:39.000Z</time>
      </trkpt>
      <trkpt lat="47.23207" lon="6.05925">
        <ele>248</ele>
        <time>2016-3-26T11:55:39.000Z</time>
      </trkpt>
      <trkpt lat="47.2321" lon="6.05927">
        <ele>248</ele>
        <time>2016-3-26T11:55:39.000Z</time>
      </trkpt>
      <trkpt lat="47.23212" lon="6.05929">
        <ele>247</ele>
        <time>2016-3-26T11:55:39.000Z</time>
      </trkpt>
      <trkpt lat="47.23213" lon="6.05931">
        <ele>246</ele>
        <time>2016-3-26T11:55:39.000Z</time>
      </trkpt>
      <trkpt lat="47.23215" lon="6.05934">
        <ele>246</ele>
        <time>2016-3-26T11:55:39.000Z</time>
      </trkpt>
      <trkpt lat="47.23217" lon="6.05936">
        <ele>245</ele>
        <time>2016-3-26T11:55:39.000Z</time>
      </trkpt>
      <trkpt lat="47.23219" lon="6.05938">
        <ele>245</ele>
        <time>2016-3-26T11:55:39.000Z</time>
      </trkpt>
      <trkpt lat="47.23221" lon="6.05941">
        <ele>245</ele>
        <time>2016-3-26T11:55:39.000Z</time>
      </trkpt>
      <trkpt lat="47.23223" lon="6.05943">
        <ele>245</ele>
        <time>2016-3-26T11:55:39.000Z</time>
      </trkpt>
      <trkpt lat="47.23224" lon="6.05944">
        <ele>246</ele>
        <time>2016-3-26T11:55:39.000Z</time>
      </trkpt>
      <trkpt lat="47.23226" lon="6.05946">
        <ele>246</ele>
        <time>2016-3-26T11:57:39.000Z</time>
      </trkpt>
      <trkpt lat="47.23227" lon="6.05947">
        <ele>245</ele>
        <time>2016-3-26T11:57:39.000Z</time>
      </trkpt>
      <trkpt lat="47.23229" lon="6.05948">
        <ele>245</ele>
        <time>2016-3-26T11:57:39.000Z</time>
      </trkpt>
      <trkpt lat="47.23231" lon="6.0595">
        <ele>246</ele>
        <time>2016-3-26T11:57:39.000Z</time>
      </trkpt>
      <trkpt lat="47.23233" lon="6.05953">
        <ele>245</ele>
        <time>2016-3-26T11:57:39.000Z</time>
      </trkpt>
      <trkpt lat="47.23235" lon="6.05956">
        <ele>243</ele>
        <time>2016-3-26T11:57:39.000Z</time>
      </trkpt>
      <trkpt lat="47.23236" lon="6.05958">
        <ele>243</ele>
        <time>2016-3-26T11:57:39.000Z</time>
      </trkpt>
      <trkpt lat="47.23237" lon="6.0596">
        <ele>243</ele>
        <time>2016-3-26T11:57:39.000Z</time>
      </trkpt>
      <trkpt lat="47.23238" lon="6.05962">
        <ele>243</ele>
        <time>2016-3-26T11:57:39.000Z</time>
      </trkpt>
      <trkpt lat="47.23239" lon="6.05964">
        <ele>242</ele>
        <time>2016-3-26T11:57:39.000Z</time>
      </trkpt>
      <trkpt lat="47.2324" lon="6.05965">
        <ele>242</ele>
        <time>2016-3-26T11:57:39.000Z</time>
      </trkpt>
      <trkpt lat="47.23241" lon="6.05967">
        <ele>243</ele>
        <time>2016-3-26T11:57:39.000Z</time>
      </trkpt>
      <trkpt lat="47.23243" lon="6.05969">
        <ele>244</ele>
        <time>2016-3-26T11:57:39.000Z</time>
      </trkpt>
      <trkpt lat="47.23244" lon="6.05971">
        <ele>244</ele>
        <time>2016-3-26T11:57:39.000Z</time>
      </trkpt>
      <trkpt lat="47.23246" lon="6.05972">
        <ele>244</ele>
        <time>2016-3-26T11:57:39.000Z</time>
      </trkpt>
      <trkpt lat="47.23247" lon="6.05974">
        <ele>244</ele>
        <time>2016-3-26T11:57:39.000Z</time>
      </trkpt>
      <trkpt lat="47.23249" lon="6.05976">
        <ele>244</ele>
        <time>2016-3-26T11:57:39.000Z</time>
      </trkpt>
      <trkpt lat="47.2325" lon="6.05977">
        <ele>244</ele>
        <time>2016-3-26T11:57:39.000Z</time>
      </trkpt>
      <trkpt lat="47.23251" lon="6.05979">
        <ele>243</ele>
        <time>2016-3-26T11:57:39.000Z</time>
      </trkpt>
      <trkpt lat="47.23252" lon="6.05981">
        <ele>243</ele>
        <time>2016-3-26T11:57:39.000Z</time>
      </trkpt>
      <trkpt lat="47.23253" lon="6.05982">
        <ele>244</ele>
        <time>2016-3-26T11:57:39.000Z</time>
      </trkpt>
      <trkpt lat="47.23255" lon="6.05984">
        <ele>244</ele>
        <time>2016-3-26T11:57:39.000Z</time>
      </trkpt>
      <trkpt lat="47.23256" lon="6.05985">
        <ele>245</ele>
        <time>2016-3-26T11:57:39.000Z</time>
      </trkpt>
      <trkpt lat="47.23257" lon="6.05986">
        <ele>245</ele>
        <time>2016-3-26T11:57:39.000Z</time>
      </trkpt>
      <trkpt lat="47.2326" lon="6.05989">
        <ele>246</ele>
        <time>2016-3-26T11:57:39.000Z</time>
      </trkpt>
      <trkpt lat="47.23261" lon="6.0599">
        <ele>246</ele>
        <time>2016-3-26T11:57:39.000Z</time>
      </trkpt>
      <trkpt lat="47.23263" lon="6.05992">
        <ele>246</ele>
        <time>2016-3-26T11:57:39.000Z</time>
      </trkpt>
      <trkpt lat="47.23264" lon="6.05993">
        <ele>246</ele>
        <time>2016-3-26T11:57:39.000Z</time>
      </trkpt>
      <trkpt lat="47.23265" lon="6.05994">
        <ele>246</ele>
        <time>2016-3-26T11:57:39.000Z</time>
      </trkpt>
      <trkpt lat="47.23267" lon="6.05995">
        <ele>246</ele>
        <time>2016-3-26T11:57:39.000Z</time>
      </trkpt>
      <trkpt lat="47.23268" lon="6.05996">
        <ele>246</ele>
        <time>2016-3-26T11:57:39.000Z</time>
      </trkpt>
      <trkpt lat="47.23269" lon="6.05997">
        <ele>245</ele>
        <time>2016-3-26T11:57:39.000Z</time>
      </trkpt>
      <trkpt lat="47.23271" lon="6.05999">
        <ele>245</ele>
        <time>2016-3-26T11:57:39.000Z</time>
      </trkpt>
      <trkpt lat="47.23272" lon="6.06">
        <ele>245</ele>
        <time>2016-3-26T11:57:39.000Z</time>
      </trkpt>
      <trkpt lat="47.23273" lon="6.06001">
        <ele>245</ele>
        <time>2016-3-26T11:57:39.000Z</time>
      </trkpt>
      <trkpt lat="47.23275" lon="6.06004">
        <ele>246</ele>
        <time>2016-3-26T11:57:39.000Z</time>
      </trkpt>
      <trkpt lat="47.23277" lon="6.06006">
        <ele>245</ele>
        <time>2016-3-26T11:57:39.000Z</time>
      </trkpt>
      <trkpt lat="47.23279" lon="6.06007">
        <ele>245</ele>
        <time>2016-3-26T11:57:39.000Z</time>
      </trkpt>
      <trkpt lat="47.23281" lon="6.0601">
        <ele>245</ele>
        <time>2016-3-26T11:57:39.000Z</time>
      </trkpt>
      <trkpt lat="47.23282" lon="6.06011">
        <ele>246</ele>
        <time>2016-3-26T11:57:39.000Z</time>
      </trkpt>
      <trkpt lat="47.23283" lon="6.06013">
        <ele>246</ele>
        <time>2016-3-26T11:57:39.000Z</time>
      </trkpt>
      <trkpt lat="47.23285" lon="6.06015">
        <ele>246</ele>
        <time>2016-3-26T11:57:39.000Z</time>
      </trkpt>
      <trkpt lat="47.23287" lon="6.06017">
        <ele>245</ele>
        <time>2016-3-26T11:57:39.000Z</time>
      </trkpt>
      <trkpt lat="47.23288" lon="6.06018">
        <ele>245</ele>
        <time>2016-3-26T11:57:39.000Z</time>
      </trkpt>
      <trkpt lat="47.23289" lon="6.0602">
        <ele>244</ele>
        <time>2016-3-26T11:57:39.000Z</time>
      </trkpt>
      <trkpt lat="47.2329" lon="6.06021">
        <ele>245</ele>
        <time>2016-3-26T11:57:39.000Z</time>
      </trkpt>
      <trkpt lat="47.23292" lon="6.06024">
        <ele>244</ele>
        <time>2016-3-26T11:57:39.000Z</time>
      </trkpt>
      <trkpt lat="47.23293" lon="6.06027">
        <ele>243</ele>
        <time>2016-3-26T11:57:39.000Z</time>
      </trkpt>
      <trkpt lat="47.23295" lon="6.0603">
        <ele>243</ele>
        <time>2016-3-26T11:57:39.000Z</time>
      </trkpt>
      <trkpt lat="47.23297" lon="6.06032">
        <ele>242</ele>
        <time>2016-3-26T11:57:39.000Z</time>
      </trkpt>
      <trkpt lat="47.23299" lon="6.06035">
        <ele>241</ele>
        <time>2016-3-26T11:57:39.000Z</time>
      </trkpt>
      <trkpt lat="47.23301" lon="6.06037">
        <ele>242</ele>
        <time>2016-3-26T11:57:39.000Z</time>
      </trkpt>
      <trkpt lat="47.23303" lon="6.06039">
        <ele>241</ele>
        <time>2016-3-26T11:57:39.000Z</time>
      </trkpt>
      <trkpt lat="47.23304" lon="6.06041">
        <ele>241</ele>
        <time>2016-3-26T11:57:39.000Z</time>
      </trkpt>
      <trkpt lat="47.23305" lon="6.06042">
        <ele>242</ele>
        <time>2016-3-26T11:57:39.000Z</time>
      </trkpt>
      <trkpt lat="47.23307" lon="6.06043">
        <ele>241</ele>
        <time>2016-3-26T11:57:39.000Z</time>
      </trkpt>
      <trkpt lat="47.23308" lon="6.06046">
        <ele>241</ele>
        <time>2016-3-26T11:57:39.000Z</time>
      </trkpt>
      <trkpt lat="47.23309" lon="6.06049">
        <ele>241</ele>
        <time>2016-3-26T11:57:39.000Z</time>
      </trkpt>
      <trkpt lat="47.23311" lon="6.06051">
        <ele>241</ele>
        <time>2016-3-26T11:57:39.000Z</time>
      </trkpt>
      <trkpt lat="47.23313" lon="6.06052">
        <ele>242</ele>
        <time>2016-3-26T11:57:39.000Z</time>
      </trkpt>
      <trkpt lat="47.23314" lon="6.06053">
        <ele>242</ele>
        <time>2016-3-26T11:57:39.000Z</time>
      </trkpt>
      <trkpt lat="47.23316" lon="6.06054">
        <ele>242</ele>
        <time>2016-3-26T11:57:39.000Z</time>
      </trkpt>
      <trkpt lat="47.23317" lon="6.06055">
        <ele>244</ele>
        <time>2016-3-26T11:57:39.000Z</time>
      </trkpt>
      <trkpt lat="47.23319" lon="6.06056">
        <ele>245</ele>
        <time>2016-3-26T11:57:39.000Z</time>
      </trkpt>
      <trkpt lat="47.23321" lon="6.06057">
        <ele>244</ele>
        <time>2016-3-26T11:57:39.000Z</time>
      </trkpt>
      <trkpt lat="47.23322" lon="6.06058">
        <ele>243</ele>
        <time>2016-3-26T11:57:39.000Z</time>
      </trkpt>
      <trkpt lat="47.23324" lon="6.06059">
        <ele>243</ele>
        <time>2016-3-26T11:57:39.000Z</time>
      </trkpt>
      <trkpt lat="47.23326" lon="6.0606">
        <ele>243</ele>
        <time>2016-3-26T11:57:39.000Z</time>
      </trkpt>
      <trkpt lat="47.23327" lon="6.06061">
        <ele>244</ele>
        <time>2016-3-26T11:57:39.000Z</time>
      </trkpt>
      <trkpt lat="47.23329" lon="6.06061">
        <ele>243</ele>
        <time>2016-3-26T11:57:39.000Z</time>
      </trkpt>
      <trkpt lat="47.23331" lon="6.06062">
        <ele>243</ele>
        <time>2016-3-26T11:57:39.000Z</time>
      </trkpt>
      <trkpt lat="47.23332" lon="6.06063">
        <ele>242</ele>
        <time>2016-3-26T11:57:39.000Z</time>
      </trkpt>
      <trkpt lat="47.23334" lon="6.06064">
        <ele>242</ele>
        <time>2016-3-26T11:57:39.000Z</time>
      </trkpt>
      <trkpt lat="47.23336" lon="6.06065">
        <ele>243</ele>
        <time>2016-3-26T11:57:39.000Z</time>
      </trkpt>
      <trkpt lat="47.23338" lon="6.06066">
        <ele>243</ele>
        <time>2016-3-26T11:57:39.000Z</time>
      </trkpt>
      <trkpt lat="47.23339" lon="6.06067">
        <ele>243</ele>
        <time>2016-3-26T11:57:39.000Z</time>
      </trkpt>
      <trkpt lat="47.23341" lon="6.06067">
        <ele>243</ele>
        <time>2016-3-26T11:57:39.000Z</time>
      </trkpt>
      <trkpt lat="47.23342" lon="6.06068">
        <ele>243</ele>
        <time>2016-3-26T11:57:39.000Z</time>
      </trkpt>
      <trkpt lat="47.23344" lon="6.06069">
        <ele>244</ele>
        <time>2016-3-26T11:57:39.000Z</time>
      </trkpt>
      <trkpt lat="47.23346" lon="6.0607">
        <ele>243</ele>
        <time>2016-3-26T11:57:39.000Z</time>
      </trkpt>
      <trkpt lat="47.23347" lon="6.06071">
        <ele>243</ele>
        <time>2016-3-26T11:57:39.000Z</time>
      </trkpt>
      <trkpt lat="47.23348" lon="6.06071">
        <ele>244</ele>
        <time>2016-3-26T11:57:39.000Z</time>
      </trkpt>
      <trkpt lat="47.2335" lon="6.06072">
        <ele>244</ele>
        <time>2016-3-26T11:57:39.000Z</time>
      </trkpt>
      <trkpt lat="47.23352" lon="6.06073">
        <ele>244</ele>
        <time>2016-3-26T11:57:39.000Z</time>
      </trkpt>
      <trkpt lat="47.23353" lon="6.06073">
        <ele>244</ele>
        <time>2016-3-26T11:57:39.000Z</time>
      </trkpt>
      <trkpt lat="47.23355" lon="6.06074">
        <ele>244</ele>
        <time>2016-3-26T11:57:39.000Z</time>
      </trkpt>
      <trkpt lat="47.23356" lon="6.06074">
        <ele>245</ele>
        <time>2016-3-26T11:57:39.000Z</time>
      </trkpt>
      <trkpt lat="47.23358" lon="6.06075">
        <ele>244</ele>
        <time>2016-3-26T11:57:39.000Z</time>
      </trkpt>
      <trkpt lat="47.23359" lon="6.06075">
        <ele>244</ele>
        <time>2016-3-26T11:57:39.000Z</time>
      </trkpt>
      <trkpt lat="47.2336" lon="6.06076">
        <ele>244</ele>
        <time>2016-3-26T11:57:39.000Z</time>
      </trkpt>
      <trkpt lat="47.23362" lon="6.06076">
        <ele>244</ele>
        <time>2016-3-26T11:57:39.000Z</time>
      </trkpt>
      <trkpt lat="47.23363" lon="6.06077">
        <ele>245</ele>
        <time>2016-3-26T11:57:39.000Z</time>
      </trkpt>
      <trkpt lat="47.23365" lon="6.06078">
        <ele>244</ele>
        <time>2016-3-26T11:57:39.000Z</time>
      </trkpt>
      <trkpt lat="47.23366" lon="6.06079">
        <ele>245</ele>
        <time>2016-3-26T11:57:39.000Z</time>
      </trkpt>
      <trkpt lat="47.23367" lon="6.0608">
        <ele>245</ele>
        <time>2016-3-26T11:57:39.000Z</time>
      </trkpt>
      <trkpt lat="47.23369" lon="6.06081">
        <ele>245</ele>
        <time>2016-3-26T11:57:39.000Z</time>
      </trkpt>
      <trkpt lat="47.2337" lon="6.06082">
        <ele>245</ele>
        <time>2016-3-26T11:57:39.000Z</time>
      </trkpt>
      <trkpt lat="47.23371" lon="6.06083">
        <ele>246</ele>
        <time>2016-3-26T11:57:39.000Z</time>
      </trkpt>
      <trkpt lat="47.23373" lon="6.06084">
        <ele>246</ele>
        <time>2016-3-26T11:57:39.000Z</time>
      </trkpt>
      <trkpt lat="47.23374" lon="6.06085">
        <ele>245</ele>
        <time>2016-3-26T11:57:39.000Z</time>
      </trkpt>
      <trkpt lat="47.23377" lon="6.06086">
        <ele>246</ele>
        <time>2016-3-26T11:57:39.000Z</time>
      </trkpt>
      <trkpt lat="47.23378" lon="6.06087">
        <ele>246</ele>
        <time>2016-3-26T11:59:37.000Z</time>
      </trkpt>
      <trkpt lat="47.2338" lon="6.06088">
        <ele>246</ele>
        <time>2016-3-26T11:59:37.000Z</time>
      </trkpt>
      <trkpt lat="47.23381" lon="6.06089">
        <ele>246</ele>
        <time>2016-3-26T11:59:37.000Z</time>
      </trkpt>
      <trkpt lat="47.23383" lon="6.06089">
        <ele>246</ele>
        <time>2016-3-26T11:59:37.000Z</time>
      </trkpt>
      <trkpt lat="47.23384" lon="6.0609">
        <ele>246</ele>
        <time>2016-3-26T11:59:37.000Z</time>
      </trkpt>
      <trkpt lat="47.23386" lon="6.06091">
        <ele>247</ele>
        <time>2016-3-26T11:59:37.000Z</time>
      </trkpt>
      <trkpt lat="47.23387" lon="6.06092">
        <ele>247</ele>
        <time>2016-3-26T11:59:37.000Z</time>
      </trkpt>
      <trkpt lat="47.23389" lon="6.06092">
        <ele>246</ele>
        <time>2016-3-26T11:59:37.000Z</time>
      </trkpt>
      <trkpt lat="47.2339" lon="6.06093">
        <ele>246</ele>
        <time>2016-3-26T11:59:37.000Z</time>
      </trkpt>
      <trkpt lat="47.23391" lon="6.06094">
        <ele>247</ele>
        <time>2016-3-26T11:59:37.000Z</time>
      </trkpt>
      <trkpt lat="47.23393" lon="6.06094">
        <ele>247</ele>
        <time>2016-3-26T11:59:37.000Z</time>
      </trkpt>
      <trkpt lat="47.23394" lon="6.06095">
        <ele>246</ele>
        <time>2016-3-26T11:59:37.000Z</time>
      </trkpt>
      <trkpt lat="47.23397" lon="6.06096">
        <ele>246</ele>
        <time>2016-3-26T11:59:37.000Z</time>
      </trkpt>
      <trkpt lat="47.23398" lon="6.06096">
        <ele>246</ele>
        <time>2016-3-26T11:59:37.000Z</time>
      </trkpt>
      <trkpt lat="47.23401" lon="6.06097">
        <ele>248</ele>
        <time>2016-3-26T11:59:37.000Z</time>
      </trkpt>
      <trkpt lat="47.23403" lon="6.06097">
        <ele>248</ele>
        <time>2016-3-26T11:59:37.000Z</time>
      </trkpt>
      <trkpt lat="47.23406" lon="6.06098">
        <ele>251</ele>
        <time>2016-3-26T11:59:37.000Z</time>
      </trkpt>
      <trkpt lat="47.23407" lon="6.06098">
        <ele>251</ele>
        <time>2016-3-26T11:59:37.000Z</time>
      </trkpt>
      <trkpt lat="47.23408" lon="6.06099">
        <ele>250</ele>
        <time>2016-3-26T11:59:37.000Z</time>
      </trkpt>
      <trkpt lat="47.2341" lon="6.06099">
        <ele>250</ele>
        <time>2016-3-26T11:59:37.000Z</time>
      </trkpt>
      <trkpt lat="47.23412" lon="6.061">
        <ele>251</ele>
        <time>2016-3-26T11:59:37.000Z</time>
      </trkpt>
      <trkpt lat="47.23414" lon="6.06101">
        <ele>250</ele>
        <time>2016-3-26T11:59:37.000Z</time>
      </trkpt>
      <trkpt lat="47.23415" lon="6.06101">
        <ele>250</ele>
        <time>2016-3-26T11:59:37.000Z</time>
      </trkpt>
      <trkpt lat="47.23417" lon="6.06101">
        <ele>249</ele>
        <time>2016-3-26T11:59:37.000Z</time>
      </trkpt>
      <trkpt lat="47.23419" lon="6.06101">
        <ele>248</ele>
        <time>2016-3-26T11:59:37.000Z</time>
      </trkpt>
      <trkpt lat="47.2342" lon="6.06101">
        <ele>247</ele>
        <time>2016-3-26T11:59:37.000Z</time>
      </trkpt>
      <trkpt lat="47.23422" lon="6.06102">
        <ele>248</ele>
        <time>2016-3-26T11:59:37.000Z</time>
      </trkpt>
      <trkpt lat="47.23424" lon="6.06102">
        <ele>247</ele>
        <time>2016-3-26T11:59:37.000Z</time>
      </trkpt>
      <trkpt lat="47.23425" lon="6.06103">
        <ele>247</ele>
        <time>2016-3-26T11:59:37.000Z</time>
      </trkpt>
      <trkpt lat="47.23427" lon="6.06103">
        <ele>247</ele>
        <time>2016-3-26T11:59:37.000Z</time>
      </trkpt>
      <trkpt lat="47.23428" lon="6.06104">
        <ele>247</ele>
        <time>2016-3-26T11:59:37.000Z</time>
      </trkpt>
      <trkpt lat="47.2343" lon="6.06104">
        <ele>247</ele>
        <time>2016-3-26T11:59:37.000Z</time>
      </trkpt>
      <trkpt lat="47.23432" lon="6.06104">
        <ele>247</ele>
        <time>2016-3-26T11:59:37.000Z</time>
      </trkpt>
      <trkpt lat="47.23433" lon="6.06105">
        <ele>247</ele>
        <time>2016-3-26T11:59:37.000Z</time>
      </trkpt>
      <trkpt lat="47.23435" lon="6.06105">
        <ele>248</ele>
        <time>2016-3-26T11:59:37.000Z</time>
      </trkpt>
      <trkpt lat="47.23437" lon="6.06106">
        <ele>247</ele>
        <time>2016-3-26T11:59:37.000Z</time>
      </trkpt>
      <trkpt lat="47.23438" lon="6.06106">
        <ele>248</ele>
        <time>2016-3-26T11:59:37.000Z</time>
      </trkpt>
      <trkpt lat="47.2344" lon="6.06107">
        <ele>248</ele>
        <time>2016-3-26T11:59:37.000Z</time>
      </trkpt>
      <trkpt lat="47.23441" lon="6.06107">
        <ele>248</ele>
        <time>2016-3-26T11:59:37.000Z</time>
      </trkpt>
      <trkpt lat="47.23444" lon="6.06108">
        <ele>248</ele>
        <time>2016-3-26T11:59:37.000Z</time>
      </trkpt>
      <trkpt lat="47.23445" lon="6.06109">
        <ele>248</ele>
        <time>2016-3-26T11:59:37.000Z</time>
      </trkpt>
      <trkpt lat="47.23447" lon="6.0611">
        <ele>248</ele>
        <time>2016-3-26T11:59:37.000Z</time>
      </trkpt>
      <trkpt lat="47.23448" lon="6.0611">
        <ele>249</ele>
        <time>2016-3-26T11:59:37.000Z</time>
      </trkpt>
      <trkpt lat="47.23451" lon="6.0611">
        <ele>248</ele>
        <time>2016-3-26T11:59:37.000Z</time>
      </trkpt>
      <trkpt lat="47.23454" lon="6.06111">
        <ele>250</ele>
        <time>2016-3-26T11:59:37.000Z</time>
      </trkpt>
      <trkpt lat="47.23456" lon="6.06112">
        <ele>250</ele>
        <time>2016-3-26T11:59:37.000Z</time>
      </trkpt>
      <trkpt lat="47.23457" lon="6.06113">
        <ele>250</ele>
        <time>2016-3-26T11:59:37.000Z</time>
      </trkpt>
      <trkpt lat="47.23459" lon="6.06113">
        <ele>250</ele>
        <time>2016-3-26T11:59:37.000Z</time>
      </trkpt>
      <trkpt lat="47.2346" lon="6.06114">
        <ele>250</ele>
        <time>2016-3-26T11:59:37.000Z</time>
      </trkpt>
      <trkpt lat="47.23462" lon="6.06114">
        <ele>250</ele>
        <time>2016-3-26T11:59:37.000Z</time>
      </trkpt>
      <trkpt lat="47.23463" lon="6.06114">
        <ele>250</ele>
        <time>2016-3-26T11:59:37.000Z</time>
      </trkpt>
      <trkpt lat="47.23465" lon="6.06113">
        <ele>250</ele>
        <time>2016-3-26T11:59:37.000Z</time>
      </trkpt>
      <trkpt lat="47.23466" lon="6.06113">
        <ele>250</ele>
        <time>2016-3-26T11:59:37.000Z</time>
      </trkpt>
      <trkpt lat="47.23468" lon="6.06114">
        <ele>252</ele>
        <time>2016-3-26T11:59:37.000Z</time>
      </trkpt>
      <trkpt lat="47.23469" lon="6.06114">
        <ele>253</ele>
        <time>2016-3-26T11:59:37.000Z</time>
      </trkpt>
      <trkpt lat="47.23471" lon="6.06116">
        <ele>253</ele>
        <time>2016-3-26T11:59:37.000Z</time>
      </trkpt>
      <trkpt lat="47.23473" lon="6.06118">
        <ele>253</ele>
        <time>2016-3-26T11:59:37.000Z</time>
      </trkpt>
      <trkpt lat="47.23475" lon="6.06118">
        <ele>253</ele>
        <time>2016-3-26T11:59:37.000Z</time>
      </trkpt>
      <trkpt lat="47.23476" lon="6.06118">
        <ele>253</ele>
        <time>2016-3-26T11:59:37.000Z</time>
      </trkpt>
      <trkpt lat="47.23478" lon="6.06118">
        <ele>253</ele>
        <time>2016-3-26T11:59:37.000Z</time>
      </trkpt>
      <trkpt lat="47.23479" lon="6.06119">
        <ele>253</ele>
        <time>2016-3-26T11:59:37.000Z</time>
      </trkpt>
      <trkpt lat="47.23481" lon="6.06119">
        <ele>253</ele>
        <time>2016-3-26T11:59:37.000Z</time>
      </trkpt>
      <trkpt lat="47.23482" lon="6.0612">
        <ele>252</ele>
        <time>2016-3-26T11:59:37.000Z</time>
      </trkpt>
      <trkpt lat="47.23484" lon="6.0612">
        <ele>253</ele>
        <time>2016-3-26T11:59:37.000Z</time>
      </trkpt>
      <trkpt lat="47.23486" lon="6.0612">
        <ele>253</ele>
        <time>2016-3-26T11:59:37.000Z</time>
      </trkpt>
      <trkpt lat="47.23487" lon="6.0612">
        <ele>252</ele>
        <time>2016-3-26T11:59:37.000Z</time>
      </trkpt>
      <trkpt lat="47.23489" lon="6.0612">
        <ele>252</ele>
        <time>2016-3-26T11:59:37.000Z</time>
      </trkpt>
      <trkpt lat="47.2349" lon="6.06121">
        <ele>252</ele>
        <time>2016-3-26T11:59:37.000Z</time>
      </trkpt>
      <trkpt lat="47.23492" lon="6.06121">
        <ele>252</ele>
        <time>2016-3-26T11:59:37.000Z</time>
      </trkpt>
      <trkpt lat="47.23494" lon="6.06121">
        <ele>252</ele>
        <time>2016-3-26T11:59:37.000Z</time>
      </trkpt>
      <trkpt lat="47.23495" lon="6.06121">
        <ele>251</ele>
        <time>2016-3-26T11:59:37.000Z</time>
      </trkpt>
      <trkpt lat="47.23497" lon="6.06122">
        <ele>252</ele>
        <time>2016-3-26T11:59:37.000Z</time>
      </trkpt>
      <trkpt lat="47.23498" lon="6.06122">
        <ele>251</ele>
        <time>2016-3-26T11:59:37.000Z</time>
      </trkpt>
      <trkpt lat="47.23501" lon="6.06123">
        <ele>251</ele>
        <time>2016-3-26T11:59:37.000Z</time>
      </trkpt>
      <trkpt lat="47.23502" lon="6.06123">
        <ele>252</ele>
        <time>2016-3-26T11:59:37.000Z</time>
      </trkpt>
      <trkpt lat="47.23504" lon="6.06124">
        <ele>252</ele>
        <time>2016-3-26T11:59:37.000Z</time>
      </trkpt>
      <trkpt lat="47.23506" lon="6.06125">
        <ele>251</ele>
        <time>2016-3-26T11:59:37.000Z</time>
      </trkpt>
      <trkpt lat="47.23509" lon="6.06126">
        <ele>250</ele>
        <time>2016-3-26T11:59:37.000Z</time>
      </trkpt>
      <trkpt lat="47.23512" lon="6.06126">
        <ele>250</ele>
        <time>2016-3-26T11:59:37.000Z</time>
      </trkpt>
      <trkpt lat="47.23513" lon="6.06127">
        <ele>251</ele>
        <time>2016-3-26T11:59:37.000Z</time>
      </trkpt>
      <trkpt lat="47.23515" lon="6.06127">
        <ele>250</ele>
        <time>2016-3-26T11:59:37.000Z</time>
      </trkpt>
      <trkpt lat="47.23516" lon="6.06127">
        <ele>251</ele>
        <time>2016-3-26T11:59:37.000Z</time>
      </trkpt>
      <trkpt lat="47.23518" lon="6.06128">
        <ele>250</ele>
        <time>2016-3-26T11:59:37.000Z</time>
      </trkpt>
      <trkpt lat="47.2352" lon="6.06128">
        <ele>250</ele>
        <time>2016-3-26T11:59:37.000Z</time>
      </trkpt>
      <trkpt lat="47.23521" lon="6.06128">
        <ele>251</ele>
        <time>2016-3-26T11:59:37.000Z</time>
      </trkpt>
      <trkpt lat="47.23523" lon="6.06128">
        <ele>251</ele>
        <time>2016-3-26T11:59:37.000Z</time>
      </trkpt>
      <trkpt lat="47.23525" lon="6.06128">
        <ele>251</ele>
        <time>2016-3-26T11:59:37.000Z</time>
      </trkpt>
      <trkpt lat="47.23527" lon="6.06129">
        <ele>251</ele>
        <time>2016-3-26T11:59:37.000Z</time>
      </trkpt>
      <trkpt lat="47.23528" lon="6.06129">
        <ele>250</ele>
        <time>2016-3-26T11:59:37.000Z</time>
      </trkpt>
      <trkpt lat="47.2353" lon="6.06129">
        <ele>250</ele>
        <time>2016-3-26T11:59:37.000Z</time>
      </trkpt>
      <trkpt lat="47.23532" lon="6.0613">
        <ele>252</ele>
        <time>2016-3-26T11:59:37.000Z</time>
      </trkpt>
      <trkpt lat="47.23533" lon="6.06131">
        <ele>251</ele>
        <time>2016-3-26T11:59:37.000Z</time>
      </trkpt>
      <trkpt lat="47.23535" lon="6.06131">
        <ele>251</ele>
        <time>2016-3-26T11:59:37.000Z</time>
      </trkpt>
      <trkpt lat="47.23537" lon="6.06131">
        <ele>250</ele>
        <time>2016-3-26T11:59:37.000Z</time>
      </trkpt>
      <trkpt lat="47.23539" lon="6.06132">
        <ele>250</ele>
        <time>2016-3-26T11:59:37.000Z</time>
      </trkpt>
      <trkpt lat="47.23542" lon="6.06133">
        <ele>249</ele>
        <time>2016-3-26T11:59:37.000Z</time>
      </trkpt>
      <trkpt lat="47.23545" lon="6.06133">
        <ele>249</ele>
        <time>2016-3-26T11:59:37.000Z</time>
      </trkpt>
      <trkpt lat="47.23547" lon="6.06133">
        <ele>248</ele>
        <time>2016-3-26T11:59:37.000Z</time>
      </trkpt>
      <trkpt lat="47.2355" lon="6.06133">
        <ele>248</ele>
        <time>2016-3-26T11:59:37.000Z</time>
      </trkpt>
      <trkpt lat="47.23552" lon="6.06133">
        <ele>248</ele>
        <time>2016-3-26T11:59:37.000Z</time>
      </trkpt>
      <trkpt lat="47.23555" lon="6.06134">
        <ele>248</ele>
        <time>2016-3-26T11:59:37.000Z</time>
      </trkpt>
      <trkpt lat="47.23556" lon="6.06134">
        <ele>248</ele>
        <time>2016-3-26T12:1:44.000Z</time>
      </trkpt>
      <trkpt lat="47.23558" lon="6.06135">
        <ele>249</ele>
        <time>2016-3-26T12:1:44.000Z</time>
      </trkpt>
      <trkpt lat="47.2356" lon="6.06135">
        <ele>248</ele>
        <time>2016-3-26T12:1:44.000Z</time>
      </trkpt>
      <trkpt lat="47.23561" lon="6.06135">
        <ele>248</ele>
        <time>2016-3-26T12:1:44.000Z</time>
      </trkpt>
      <trkpt lat="47.23563" lon="6.06135">
        <ele>248</ele>
        <time>2016-3-26T12:1:44.000Z</time>
      </trkpt>
      <trkpt lat="47.23566" lon="6.06136">
        <ele>248</ele>
        <time>2016-3-26T12:1:44.000Z</time>
      </trkpt>
      <trkpt lat="47.23568" lon="6.06136">
        <ele>248</ele>
        <time>2016-3-26T12:1:44.000Z</time>
      </trkpt>
      <trkpt lat="47.23569" lon="6.06137">
        <ele>248</ele>
        <time>2016-3-26T12:1:44.000Z</time>
      </trkpt>
      <trkpt lat="47.23571" lon="6.06138">
        <ele>248</ele>
        <time>2016-3-26T12:1:44.000Z</time>
      </trkpt>
      <trkpt lat="47.23574" lon="6.06138">
        <ele>247</ele>
        <time>2016-3-26T12:1:44.000Z</time>
      </trkpt>
      <trkpt lat="47.23577" lon="6.06139">
        <ele>249</ele>
        <time>2016-3-26T12:1:44.000Z</time>
      </trkpt>
      <trkpt lat="47.23579" lon="6.0614">
        <ele>249</ele>
        <time>2016-3-26T12:1:44.000Z</time>
      </trkpt>
      <trkpt lat="47.23581" lon="6.0614">
        <ele>249</ele>
        <time>2016-3-26T12:1:44.000Z</time>
      </trkpt>
      <trkpt lat="47.23582" lon="6.06141">
        <ele>250</ele>
        <time>2016-3-26T12:1:44.000Z</time>
      </trkpt>
      <trkpt lat="47.23584" lon="6.06142">
        <ele>251</ele>
        <time>2016-3-26T12:1:44.000Z</time>
      </trkpt>
      <trkpt lat="47.23585" lon="6.06143">
        <ele>251</ele>
        <time>2016-3-26T12:1:44.000Z</time>
      </trkpt>
      <trkpt lat="47.23587" lon="6.06143">
        <ele>251</ele>
        <time>2016-3-26T12:1:44.000Z</time>
      </trkpt>
      <trkpt lat="47.23588" lon="6.06144">
        <ele>251</ele>
        <time>2016-3-26T12:1:44.000Z</time>
      </trkpt>
      <trkpt lat="47.2359" lon="6.06144">
        <ele>250</ele>
        <time>2016-3-26T12:1:44.000Z</time>
      </trkpt>
      <trkpt lat="47.23591" lon="6.06144">
        <ele>250</ele>
        <time>2016-3-26T12:1:44.000Z</time>
      </trkpt>
      <trkpt lat="47.23593" lon="6.06145">
        <ele>250</ele>
        <time>2016-3-26T12:1:44.000Z</time>
      </trkpt>
      <trkpt lat="47.23596" lon="6.06145">
        <ele>250</ele>
        <time>2016-3-26T12:1:44.000Z</time>
      </trkpt>
      <trkpt lat="47.23597" lon="6.06146">
        <ele>250</ele>
        <time>2016-3-26T12:1:44.000Z</time>
      </trkpt>
      <trkpt lat="47.23599" lon="6.06146">
        <ele>250</ele>
        <time>2016-3-26T12:1:44.000Z</time>
      </trkpt>
      <trkpt lat="47.236" lon="6.06146">
        <ele>249</ele>
        <time>2016-3-26T12:1:44.000Z</time>
      </trkpt>
      <trkpt lat="47.23602" lon="6.06147">
        <ele>249</ele>
        <time>2016-3-26T12:1:44.000Z</time>
      </trkpt>
      <trkpt lat="47.23604" lon="6.06148">
        <ele>248</ele>
        <time>2016-3-26T12:1:44.000Z</time>
      </trkpt>
      <trkpt lat="47.23607" lon="6.06148">
        <ele>247</ele>
        <time>2016-3-26T12:1:44.000Z</time>
      </trkpt>
      <trkpt lat="47.23608" lon="6.06149">
        <ele>247</ele>
        <time>2016-3-26T12:1:44.000Z</time>
      </trkpt>
      <trkpt lat="47.2361" lon="6.06149">
        <ele>247</ele>
        <time>2016-3-26T12:1:44.000Z</time>
      </trkpt>
      <trkpt lat="47.23611" lon="6.06149">
        <ele>247</ele>
        <time>2016-3-26T12:1:44.000Z</time>
      </trkpt>
      <trkpt lat="47.23613" lon="6.06149">
        <ele>249</ele>
        <time>2016-3-26T12:1:44.000Z</time>
      </trkpt>
      <trkpt lat="47.23614" lon="6.0615">
        <ele>249</ele>
        <time>2016-3-26T12:1:44.000Z</time>
      </trkpt>
      <trkpt lat="47.23616" lon="6.06151">
        <ele>250</ele>
        <time>2016-3-26T12:1:44.000Z</time>
      </trkpt>
      <trkpt lat="47.23618" lon="6.06151">
        <ele>250</ele>
        <time>2016-3-26T12:1:44.000Z</time>
      </trkpt>
      <trkpt lat="47.2362" lon="6.06152">
        <ele>251</ele>
        <time>2016-3-26T12:1:44.000Z</time>
      </trkpt>
      <trkpt lat="47.23621" lon="6.06152">
        <ele>251</ele>
        <time>2016-3-26T12:1:44.000Z</time>
      </trkpt>
      <trkpt lat="47.23623" lon="6.06153">
        <ele>251</ele>
        <time>2016-3-26T12:1:44.000Z</time>
      </trkpt>
      <trkpt lat="47.23624" lon="6.06153">
        <ele>251</ele>
        <time>2016-3-26T12:1:44.000Z</time>
      </trkpt>
      <trkpt lat="47.23626" lon="6.06154">
        <ele>252</ele>
        <time>2016-3-26T12:1:44.000Z</time>
      </trkpt>
      <trkpt lat="47.23628" lon="6.06154">
        <ele>252</ele>
        <time>2016-3-26T12:1:44.000Z</time>
      </trkpt>
      <trkpt lat="47.2363" lon="6.06154">
        <ele>252</ele>
        <time>2016-3-26T12:1:44.000Z</time>
      </trkpt>
      <trkpt lat="47.23631" lon="6.06155">
        <ele>252</ele>
        <time>2016-3-26T12:1:44.000Z</time>
      </trkpt>
      <trkpt lat="47.23633" lon="6.06155">
        <ele>252</ele>
        <time>2016-3-26T12:1:44.000Z</time>
      </trkpt>
      <trkpt lat="47.23635" lon="6.06155">
        <ele>252</ele>
        <time>2016-3-26T12:1:44.000Z</time>
      </trkpt>
      <trkpt lat="47.23636" lon="6.06156">
        <ele>252</ele>
        <time>2016-3-26T12:1:44.000Z</time>
      </trkpt>
      <trkpt lat="47.23638" lon="6.06157">
        <ele>252</ele>
        <time>2016-3-26T12:1:44.000Z</time>
      </trkpt>
      <trkpt lat="47.23639" lon="6.06158">
        <ele>252</ele>
        <time>2016-3-26T12:1:44.000Z</time>
      </trkpt>
      <trkpt lat="47.23641" lon="6.06159">
        <ele>252</ele>
        <time>2016-3-26T12:1:44.000Z</time>
      </trkpt>
      <trkpt lat="47.23642" lon="6.0616">
        <ele>252</ele>
        <time>2016-3-26T12:1:44.000Z</time>
      </trkpt>
      <trkpt lat="47.23644" lon="6.0616">
        <ele>252</ele>
        <time>2016-3-26T12:1:44.000Z</time>
      </trkpt>
      <trkpt lat="47.23646" lon="6.06161">
        <ele>250</ele>
        <time>2016-3-26T12:1:44.000Z</time>
      </trkpt>
      <trkpt lat="47.23647" lon="6.06161">
        <ele>251</ele>
        <time>2016-3-26T12:1:44.000Z</time>
      </trkpt>
      <trkpt lat="47.23649" lon="6.06162">
        <ele>250</ele>
        <time>2016-3-26T12:1:44.000Z</time>
      </trkpt>
      <trkpt lat="47.2365" lon="6.06162">
        <ele>250</ele>
        <time>2016-3-26T12:1:44.000Z</time>
      </trkpt>
      <trkpt lat="47.23652" lon="6.06163">
        <ele>250</ele>
        <time>2016-3-26T12:1:44.000Z</time>
      </trkpt>
      <trkpt lat="47.23653" lon="6.06163">
        <ele>250</ele>
        <time>2016-3-26T12:1:44.000Z</time>
      </trkpt>
      <trkpt lat="47.23655" lon="6.06163">
        <ele>249</ele>
        <time>2016-3-26T12:1:44.000Z</time>
      </trkpt>
      <trkpt lat="47.23656" lon="6.06164">
        <ele>249</ele>
        <time>2016-3-26T12:1:44.000Z</time>
      </trkpt>
      <trkpt lat="47.23658" lon="6.06164">
        <ele>249</ele>
        <time>2016-3-26T12:1:44.000Z</time>
      </trkpt>
      <trkpt lat="47.2366" lon="6.06165">
        <ele>248</ele>
        <time>2016-3-26T12:1:44.000Z</time>
      </trkpt>
      <trkpt lat="47.23663" lon="6.06166">
        <ele>249</ele>
        <time>2016-3-26T12:1:44.000Z</time>
      </trkpt>
      <trkpt lat="47.23666" lon="6.06166">
        <ele>249</ele>
        <time>2016-3-26T12:1:44.000Z</time>
      </trkpt>
      <trkpt lat="47.23668" lon="6.06166">
        <ele>250</ele>
        <time>2016-3-26T12:1:44.000Z</time>
      </trkpt>
      <trkpt lat="47.23669" lon="6.06167">
        <ele>250</ele>
        <time>2016-3-26T12:1:44.000Z</time>
      </trkpt>
      <trkpt lat="47.23671" lon="6.06167">
        <ele>250</ele>
        <time>2016-3-26T12:1:44.000Z</time>
      </trkpt>
      <trkpt lat="47.23673" lon="6.06167">
        <ele>251</ele>
        <time>2016-3-26T12:1:44.000Z</time>
      </trkpt>
      <trkpt lat="47.23675" lon="6.06168">
        <ele>251</ele>
        <time>2016-3-26T12:1:44.000Z</time>
      </trkpt>
      <trkpt lat="47.23677" lon="6.06168">
        <ele>251</ele>
        <time>2016-3-26T12:1:44.000Z</time>
      </trkpt>
      <trkpt lat="47.23679" lon="6.06169">
        <ele>251</ele>
        <time>2016-3-26T12:1:44.000Z</time>
      </trkpt>
      <trkpt lat="47.2368" lon="6.0617">
        <ele>251</ele>
        <time>2016-3-26T12:1:44.000Z</time>
      </trkpt>
      <trkpt lat="47.23681" lon="6.06171">
        <ele>251</ele>
        <time>2016-3-26T12:1:44.000Z</time>
      </trkpt>
      <trkpt lat="47.23684" lon="6.06172">
        <ele>251</ele>
        <time>2016-3-26T12:1:44.000Z</time>
      </trkpt>
      <trkpt lat="47.23687" lon="6.06173">
        <ele>252</ele>
        <time>2016-3-26T12:1:44.000Z</time>
      </trkpt>
      <trkpt lat="47.23688" lon="6.06174">
        <ele>252</ele>
        <time>2016-3-26T12:1:44.000Z</time>
      </trkpt>
      <trkpt lat="47.2369" lon="6.06175">
        <ele>252</ele>
        <time>2016-3-26T12:1:44.000Z</time>
      </trkpt>
      <trkpt lat="47.23691" lon="6.06175">
        <ele>252</ele>
        <time>2016-3-26T12:1:44.000Z</time>
      </trkpt>
      <trkpt lat="47.23693" lon="6.06176">
        <ele>251</ele>
        <time>2016-3-26T12:1:44.000Z</time>
      </trkpt>
      <trkpt lat="47.23694" lon="6.06177">
        <ele>251</ele>
        <time>2016-3-26T12:1:44.000Z</time>
      </trkpt>
      <trkpt lat="47.23697" lon="6.06178">
        <ele>251</ele>
        <time>2016-3-26T12:1:44.000Z</time>
      </trkpt>
      <trkpt lat="47.23699" lon="6.0618">
        <ele>251</ele>
        <time>2016-3-26T12:1:44.000Z</time>
      </trkpt>
      <trkpt lat="47.23701" lon="6.06183">
        <ele>250</ele>
        <time>2016-3-26T12:1:44.000Z</time>
      </trkpt>
      <trkpt lat="47.23703" lon="6.06184">
        <ele>250</ele>
        <time>2016-3-26T12:1:44.000Z</time>
      </trkpt>
      <trkpt lat="47.23706" lon="6.06184">
        <ele>251</ele>
        <time>2016-3-26T12:1:44.000Z</time>
      </trkpt>
      <trkpt lat="47.23708" lon="6.06184">
        <ele>250</ele>
        <time>2016-3-26T12:1:44.000Z</time>
      </trkpt>
      <trkpt lat="47.23711" lon="6.06185">
        <ele>249</ele>
        <time>2016-3-26T12:1:44.000Z</time>
      </trkpt>
      <trkpt lat="47.23713" lon="6.06186">
        <ele>248</ele>
        <time>2016-3-26T12:1:44.000Z</time>
      </trkpt>
      <trkpt lat="47.23716" lon="6.06187">
        <ele>248</ele>
        <time>2016-3-26T12:1:44.000Z</time>
      </trkpt>
      <trkpt lat="47.23717" lon="6.06187">
        <ele>249</ele>
        <time>2016-3-26T12:1:44.000Z</time>
      </trkpt>
      <trkpt lat="47.23719" lon="6.06188">
        <ele>250</ele>
        <time>2016-3-26T12:1:44.000Z</time>
      </trkpt>
      <trkpt lat="47.23721" lon="6.06188">
        <ele>250</ele>
        <time>2016-3-26T12:1:44.000Z</time>
      </trkpt>
      <trkpt lat="47.23722" lon="6.06189">
        <ele>250</ele>
        <time>2016-3-26T12:1:44.000Z</time>
      </trkpt>
      <trkpt lat="47.23724" lon="6.06189">
        <ele>249</ele>
        <time>2016-3-26T12:1:44.000Z</time>
      </trkpt>
      <trkpt lat="47.23725" lon="6.0619">
        <ele>250</ele>
        <time>2016-3-26T12:1:44.000Z</time>
      </trkpt>
      <trkpt lat="47.23727" lon="6.06191">
        <ele>250</ele>
        <time>2016-3-26T12:1:44.000Z</time>
      </trkpt>
      <trkpt lat="47.23728" lon="6.06192">
        <ele>250</ele>
        <time>2016-3-26T12:1:44.000Z</time>
      </trkpt>
      <trkpt lat="47.23731" lon="6.06193">
        <ele>250</ele>
        <time>2016-3-26T12:1:44.000Z</time>
      </trkpt>
      <trkpt lat="47.23733" lon="6.06194">
        <ele>249</ele>
        <time>2016-3-26T12:1:44.000Z</time>
      </trkpt>
      <trkpt lat="47.23736" lon="6.06195">
        <ele>249</ele>
        <time>2016-3-26T12:1:44.000Z</time>
      </trkpt>
      <trkpt lat="47.23738" lon="6.06196">
        <ele>249</ele>
        <time>2016-3-26T12:1:44.000Z</time>
      </trkpt>
      <trkpt lat="47.2374" lon="6.06197">
        <ele>249</ele>
        <time>2016-3-26T12:1:44.000Z</time>
      </trkpt>
      <trkpt lat="47.23741" lon="6.06198">
        <ele>249</ele>
        <time>2016-3-26T12:4:11.000Z</time>
      </trkpt>
      <trkpt lat="47.23743" lon="6.06198">
        <ele>249</ele>
        <time>2016-3-26T12:4:11.000Z</time>
      </trkpt>
      <trkpt lat="47.23745" lon="6.062">
        <ele>248</ele>
        <time>2016-3-26T12:4:11.000Z</time>
      </trkpt>
      <trkpt lat="47.23747" lon="6.06201">
        <ele>248</ele>
        <time>2016-3-26T12:4:11.000Z</time>
      </trkpt>
      <trkpt lat="47.23748" lon="6.06202">
        <ele>248</ele>
        <time>2016-3-26T12:4:11.000Z</time>
      </trkpt>
      <trkpt lat="47.23749" lon="6.06203">
        <ele>248</ele>
        <time>2016-3-26T12:4:11.000Z</time>
      </trkpt>
      <trkpt lat="47.23751" lon="6.06203">
        <ele>248</ele>
        <time>2016-3-26T12:4:11.000Z</time>
      </trkpt>
      <trkpt lat="47.23753" lon="6.06205">
        <ele>249</ele>
        <time>2016-3-26T12:4:11.000Z</time>
      </trkpt>
      <trkpt lat="47.23755" lon="6.06206">
        <ele>249</ele>
        <time>2016-3-26T12:4:11.000Z</time>
      </trkpt>
      <trkpt lat="47.23756" lon="6.06207">
        <ele>248</ele>
        <time>2016-3-26T12:4:11.000Z</time>
      </trkpt>
      <trkpt lat="47.23759" lon="6.06208">
        <ele>248</ele>
        <time>2016-3-26T12:4:11.000Z</time>
      </trkpt>
      <trkpt lat="47.23762" lon="6.0621">
        <ele>249</ele>
        <time>2016-3-26T12:4:11.000Z</time>
      </trkpt>
      <trkpt lat="47.23763" lon="6.0621">
        <ele>249</ele>
        <time>2016-3-26T12:4:11.000Z</time>
      </trkpt>
      <trkpt lat="47.23764" lon="6.06211">
        <ele>249</ele>
        <time>2016-3-26T12:4:11.000Z</time>
      </trkpt>
      <trkpt lat="47.23766" lon="6.06212">
        <ele>249</ele>
        <time>2016-3-26T12:4:11.000Z</time>
      </trkpt>
      <trkpt lat="47.23767" lon="6.06213">
        <ele>249</ele>
        <time>2016-3-26T12:4:11.000Z</time>
      </trkpt>
      <trkpt lat="47.2377" lon="6.06215">
        <ele>249</ele>
        <time>2016-3-26T12:4:11.000Z</time>
      </trkpt>
      <trkpt lat="47.23772" lon="6.06217">
        <ele>249</ele>
        <time>2016-3-26T12:4:11.000Z</time>
      </trkpt>
      <trkpt lat="47.23773" lon="6.06218">
        <ele>249</ele>
        <time>2016-3-26T12:4:11.000Z</time>
      </trkpt>
      <trkpt lat="47.23776" lon="6.06219">
        <ele>250</ele>
        <time>2016-3-26T12:4:11.000Z</time>
      </trkpt>
      <trkpt lat="47.23778" lon="6.0622">
        <ele>250</ele>
        <time>2016-3-26T12:4:11.000Z</time>
      </trkpt>
      <trkpt lat="47.23779" lon="6.06221">
        <ele>250</ele>
        <time>2016-3-26T12:4:11.000Z</time>
      </trkpt>
      <trkpt lat="47.23781" lon="6.06222">
        <ele>249</ele>
        <time>2016-3-26T12:4:11.000Z</time>
      </trkpt>
      <trkpt lat="47.23784" lon="6.06224">
        <ele>249</ele>
        <time>2016-3-26T12:4:11.000Z</time>
      </trkpt>
      <trkpt lat="47.23786" lon="6.06226">
        <ele>249</ele>
        <time>2016-3-26T12:4:11.000Z</time>
      </trkpt>
      <trkpt lat="47.23788" lon="6.06228">
        <ele>249</ele>
        <time>2016-3-26T12:4:11.000Z</time>
      </trkpt>
      <trkpt lat="47.2379" lon="6.06229">
        <ele>249</ele>
        <time>2016-3-26T12:4:11.000Z</time>
      </trkpt>
      <trkpt lat="47.23792" lon="6.06232">
        <ele>249</ele>
        <time>2016-3-26T12:4:11.000Z</time>
      </trkpt>
      <trkpt lat="47.23795" lon="6.06233">
        <ele>248</ele>
        <time>2016-3-26T12:4:11.000Z</time>
      </trkpt>
      <trkpt lat="47.23797" lon="6.06235">
        <ele>249</ele>
        <time>2016-3-26T12:4:11.000Z</time>
      </trkpt>
      <trkpt lat="47.23799" lon="6.06238">
        <ele>249</ele>
        <time>2016-3-26T12:4:11.000Z</time>
      </trkpt>
      <trkpt lat="47.23802" lon="6.0624">
        <ele>249</ele>
        <time>2016-3-26T12:4:11.000Z</time>
      </trkpt>
      <trkpt lat="47.23804" lon="6.06241">
        <ele>249</ele>
        <time>2016-3-26T12:4:11.000Z</time>
      </trkpt>
      <trkpt lat="47.23805" lon="6.06242">
        <ele>249</ele>
        <time>2016-3-26T12:4:11.000Z</time>
      </trkpt>
      <trkpt lat="47.23808" lon="6.06245">
        <ele>249</ele>
        <time>2016-3-26T12:4:11.000Z</time>
      </trkpt>
      <trkpt lat="47.2381" lon="6.06247">
        <ele>249</ele>
        <time>2016-3-26T12:4:11.000Z</time>
      </trkpt>
      <trkpt lat="47.23812" lon="6.06249">
        <ele>249</ele>
        <time>2016-3-26T12:4:11.000Z</time>
      </trkpt>
      <trkpt lat="47.23814" lon="6.06252">
        <ele>248</ele>
        <time>2016-3-26T12:4:11.000Z</time>
      </trkpt>
      <trkpt lat="47.23816" lon="6.06254">
        <ele>248</ele>
        <time>2016-3-26T12:4:11.000Z</time>
      </trkpt>
      <trkpt lat="47.23818" lon="6.06257">
        <ele>248</ele>
        <time>2016-3-26T12:4:11.000Z</time>
      </trkpt>
      <trkpt lat="47.2382" lon="6.06259">
        <ele>248</ele>
        <time>2016-3-26T12:4:11.000Z</time>
      </trkpt>
      <trkpt lat="47.23822" lon="6.06261">
        <ele>247</ele>
        <time>2016-3-26T12:4:11.000Z</time>
      </trkpt>
      <trkpt lat="47.23824" lon="6.06264">
        <ele>247</ele>
        <time>2016-3-26T12:4:11.000Z</time>
      </trkpt>
      <trkpt lat="47.23826" lon="6.06266">
        <ele>247</ele>
        <time>2016-3-26T12:4:11.000Z</time>
      </trkpt>
      <trkpt lat="47.23828" lon="6.06269">
        <ele>247</ele>
        <time>2016-3-26T12:4:11.000Z</time>
      </trkpt>
      <trkpt lat="47.2383" lon="6.06271">
        <ele>246</ele>
        <time>2016-3-26T12:4:11.000Z</time>
      </trkpt>
      <trkpt lat="47.23832" lon="6.06274">
        <ele>246</ele>
        <time>2016-3-26T12:4:11.000Z</time>
      </trkpt>
      <trkpt lat="47.23834" lon="6.06276">
        <ele>245</ele>
        <time>2016-3-26T12:4:11.000Z</time>
      </trkpt>
      <trkpt lat="47.23836" lon="6.06279">
        <ele>244</ele>
        <time>2016-3-26T12:4:11.000Z</time>
      </trkpt>
      <trkpt lat="47.23838" lon="6.06282">
        <ele>245</ele>
        <time>2016-3-26T12:4:11.000Z</time>
      </trkpt>
      <trkpt lat="47.2384" lon="6.06284">
        <ele>244</ele>
        <time>2016-3-26T12:4:11.000Z</time>
      </trkpt>
      <trkpt lat="47.23842" lon="6.06287">
        <ele>243</ele>
        <time>2016-3-26T12:4:11.000Z</time>
      </trkpt>
      <trkpt lat="47.23843" lon="6.06288">
        <ele>243</ele>
        <time>2016-3-26T12:4:11.000Z</time>
      </trkpt>
      <trkpt lat="47.23844" lon="6.06289">
        <ele>243</ele>
        <time>2016-3-26T12:4:11.000Z</time>
      </trkpt>
      <trkpt lat="47.23846" lon="6.0629">
        <ele>243</ele>
        <time>2016-3-26T12:4:11.000Z</time>
      </trkpt>
      <trkpt lat="47.23847" lon="6.06291">
        <ele>244</ele>
        <time>2016-3-26T12:4:11.000Z</time>
      </trkpt>
      <trkpt lat="47.23848" lon="6.06292">
        <ele>244</ele>
        <time>2016-3-26T12:4:11.000Z</time>
      </trkpt>
      <trkpt lat="47.23849" lon="6.06293">
        <ele>244</ele>
        <time>2016-3-26T12:4:11.000Z</time>
      </trkpt>
      <trkpt lat="47.23851" lon="6.06295">
        <ele>244</ele>
        <time>2016-3-26T12:4:11.000Z</time>
      </trkpt>
      <trkpt lat="47.23852" lon="6.06297">
        <ele>244</ele>
        <time>2016-3-26T12:4:11.000Z</time>
      </trkpt>
      <trkpt lat="47.23853" lon="6.06298">
        <ele>244</ele>
        <time>2016-3-26T12:4:11.000Z</time>
      </trkpt>
      <trkpt lat="47.23854" lon="6.063">
        <ele>244</ele>
        <time>2016-3-26T12:4:11.000Z</time>
      </trkpt>
      <trkpt lat="47.23855" lon="6.06301">
        <ele>244</ele>
        <time>2016-3-26T12:4:11.000Z</time>
      </trkpt>
      <trkpt lat="47.23856" lon="6.06303">
        <ele>244</ele>
        <time>2016-3-26T12:4:11.000Z</time>
      </trkpt>
      <trkpt lat="47.23857" lon="6.06304">
        <ele>244</ele>
        <time>2016-3-26T12:4:11.000Z</time>
      </trkpt>
      <trkpt lat="47.23858" lon="6.06305">
        <ele>245</ele>
        <time>2016-3-26T12:4:11.000Z</time>
      </trkpt>
      <trkpt lat="47.2386" lon="6.06308">
        <ele>245</ele>
        <time>2016-3-26T12:4:11.000Z</time>
      </trkpt>
      <trkpt lat="47.23862" lon="6.0631">
        <ele>246</ele>
        <time>2016-3-26T12:4:11.000Z</time>
      </trkpt>
      <trkpt lat="47.23863" lon="6.06311">
        <ele>246</ele>
        <time>2016-3-26T12:4:11.000Z</time>
      </trkpt>
      <trkpt lat="47.23864" lon="6.06312">
        <ele>246</ele>
        <time>2016-3-26T12:4:11.000Z</time>
      </trkpt>
      <trkpt lat="47.23865" lon="6.06314">
        <ele>246</ele>
        <time>2016-3-26T12:4:11.000Z</time>
      </trkpt>
      <trkpt lat="47.23866" lon="6.06316">
        <ele>246</ele>
        <time>2016-3-26T12:4:11.000Z</time>
      </trkpt>
      <trkpt lat="47.23868" lon="6.06319">
        <ele>246</ele>
        <time>2016-3-26T12:4:11.000Z</time>
      </trkpt>
      <trkpt lat="47.2387" lon="6.06322">
        <ele>246</ele>
        <time>2016-3-26T12:4:11.000Z</time>
      </trkpt>
      <trkpt lat="47.23871" lon="6.06325">
        <ele>244</ele>
        <time>2016-3-26T12:4:11.000Z</time>
      </trkpt>
      <trkpt lat="47.23873" lon="6.06328">
        <ele>243</ele>
        <time>2016-3-26T12:4:11.000Z</time>
      </trkpt>
      <trkpt lat="47.23875" lon="6.0633">
        <ele>243</ele>
        <time>2016-3-26T12:4:11.000Z</time>
      </trkpt>
      <trkpt lat="47.23877" lon="6.06333">
        <ele>242</ele>
        <time>2016-3-26T12:4:11.000Z</time>
      </trkpt>
      <trkpt lat="47.23879" lon="6.06335">
        <ele>242</ele>
        <time>2016-3-26T12:4:11.000Z</time>
      </trkpt>
      <trkpt lat="47.2388" lon="6.06336">
        <ele>243</ele>
        <time>2016-3-26T12:4:11.000Z</time>
      </trkpt>
      <trkpt lat="47.23881" lon="6.06338">
        <ele>243</ele>
        <time>2016-3-26T12:4:11.000Z</time>
      </trkpt>
      <trkpt lat="47.23883" lon="6.06341">
        <ele>243</ele>
        <time>2016-3-26T12:4:11.000Z</time>
      </trkpt>
      <trkpt lat="47.23885" lon="6.06342">
        <ele>243</ele>
        <time>2016-3-26T12:4:11.000Z</time>
      </trkpt>
      <trkpt lat="47.23886" lon="6.06344">
        <ele>243</ele>
        <time>2016-3-26T12:4:11.000Z</time>
      </trkpt>
      <trkpt lat="47.23887" lon="6.06345">
        <ele>243</ele>
        <time>2016-3-26T12:4:11.000Z</time>
      </trkpt>
      <trkpt lat="47.23888" lon="6.06346">
        <ele>243</ele>
        <time>2016-3-26T12:4:11.000Z</time>
      </trkpt>
      <trkpt lat="47.23889" lon="6.06348">
        <ele>243</ele>
        <time>2016-3-26T12:4:11.000Z</time>
      </trkpt>
      <trkpt lat="47.23891" lon="6.06349">
        <ele>243</ele>
        <time>2016-3-26T12:4:11.000Z</time>
      </trkpt>
      <trkpt lat="47.23892" lon="6.0635">
        <ele>243</ele>
        <time>2016-3-26T12:4:11.000Z</time>
      </trkpt>
      <trkpt lat="47.23893" lon="6.06352">
        <ele>243</ele>
        <time>2016-3-26T12:4:11.000Z</time>
      </trkpt>
      <trkpt lat="47.23894" lon="6.06353">
        <ele>244</ele>
        <time>2016-3-26T12:4:11.000Z</time>
      </trkpt>
      <trkpt lat="47.23895" lon="6.06355">
        <ele>244</ele>
        <time>2016-3-26T12:4:11.000Z</time>
      </trkpt>
      <trkpt lat="47.23896" lon="6.06356">
        <ele>244</ele>
        <time>2016-3-26T12:4:11.000Z</time>
      </trkpt>
      <trkpt lat="47.23898" lon="6.06358">
        <ele>243</ele>
        <time>2016-3-26T12:4:11.000Z</time>
      </trkpt>
      <trkpt lat="47.23899" lon="6.06359">
        <ele>243</ele>
        <time>2016-3-26T12:4:11.000Z</time>
      </trkpt>
      <trkpt lat="47.239" lon="6.06362">
        <ele>243</ele>
        <time>2016-3-26T12:4:11.000Z</time>
      </trkpt>
      <trkpt lat="47.23902" lon="6.06364">
        <ele>243</ele>
        <time>2016-3-26T12:4:11.000Z</time>
      </trkpt>
      <trkpt lat="47.23903" lon="6.06365">
        <ele>244</ele>
        <time>2016-3-26T12:4:11.000Z</time>
      </trkpt>
      <trkpt lat="47.23904" lon="6.06366">
        <ele>244</ele>
        <time>2016-3-26T12:4:11.000Z</time>
      </trkpt>
      <trkpt lat="47.23905" lon="6.06368">
        <ele>244</ele>
        <time>2016-3-26T12:4:11.000Z</time>
      </trkpt>
      <trkpt lat="47.23906" lon="6.06369">
        <ele>244</ele>
        <time>2016-3-26T12:4:11.000Z</time>
      </trkpt>
      <trkpt lat="47.23908" lon="6.06372">
        <ele>242</ele>
        <time>2016-3-26T12:6:28.000Z</time>
      </trkpt>
      <trkpt lat="47.23909" lon="6.06375">
        <ele>242</ele>
        <time>2016-3-26T12:6:28.000Z</time>
      </trkpt>
      <trkpt lat="47.23911" lon="6.06379">
        <ele>243</ele>
        <time>2016-3-26T12:6:28.000Z</time>
      </trkpt>
      <trkpt lat="47.23913" lon="6.06381">
        <ele>243</ele>
        <time>2016-3-26T12:6:28.000Z</time>
      </trkpt>
      <trkpt lat="47.23915" lon="6.06384">
        <ele>242</ele>
        <time>2016-3-26T12:6:28.000Z</time>
      </trkpt>
      <trkpt lat="47.23917" lon="6.06387">
        <ele>243</ele>
        <time>2016-3-26T12:6:28.000Z</time>
      </trkpt>
      <trkpt lat="47.23918" lon="6.06388">
        <ele>243</ele>
        <time>2016-3-26T12:6:28.000Z</time>
      </trkpt>
      <trkpt lat="47.23919" lon="6.06389">
        <ele>243</ele>
        <time>2016-3-26T12:6:28.000Z</time>
      </trkpt>
      <trkpt lat="47.2392" lon="6.06391">
        <ele>243</ele>
        <time>2016-3-26T12:6:28.000Z</time>
      </trkpt>
      <trkpt lat="47.23922" lon="6.06392">
        <ele>243</ele>
        <time>2016-3-26T12:6:28.000Z</time>
      </trkpt>
      <trkpt lat="47.23923" lon="6.06393">
        <ele>243</ele>
        <time>2016-3-26T12:6:28.000Z</time>
      </trkpt>
      <trkpt lat="47.23924" lon="6.06395">
        <ele>243</ele>
        <time>2016-3-26T12:6:28.000Z</time>
      </trkpt>
      <trkpt lat="47.23925" lon="6.06396">
        <ele>243</ele>
        <time>2016-3-26T12:6:28.000Z</time>
      </trkpt>
      <trkpt lat="47.23926" lon="6.06398">
        <ele>243</ele>
        <time>2016-3-26T12:6:28.000Z</time>
      </trkpt>
      <trkpt lat="47.23927" lon="6.06399">
        <ele>243</ele>
        <time>2016-3-26T12:6:28.000Z</time>
      </trkpt>
      <trkpt lat="47.23928" lon="6.06401">
        <ele>243</ele>
        <time>2016-3-26T12:6:28.000Z</time>
      </trkpt>
      <trkpt lat="47.2393" lon="6.06402">
        <ele>244</ele>
        <time>2016-3-26T12:6:28.000Z</time>
      </trkpt>
      <trkpt lat="47.23931" lon="6.06404">
        <ele>244</ele>
        <time>2016-3-26T12:6:28.000Z</time>
      </trkpt>
      <trkpt lat="47.23932" lon="6.06405">
        <ele>244</ele>
        <time>2016-3-26T12:6:28.000Z</time>
      </trkpt>
      <trkpt lat="47.23933" lon="6.06407">
        <ele>243</ele>
        <time>2016-3-26T12:6:28.000Z</time>
      </trkpt>
      <trkpt lat="47.23934" lon="6.06408">
        <ele>243</ele>
        <time>2016-3-26T12:6:28.000Z</time>
      </trkpt>
      <trkpt lat="47.23936" lon="6.0641">
        <ele>243</ele>
        <time>2016-3-26T12:6:28.000Z</time>
      </trkpt>
      <trkpt lat="47.23938" lon="6.06412">
        <ele>243</ele>
        <time>2016-3-26T12:6:28.000Z</time>
      </trkpt>
      <trkpt lat="47.23939" lon="6.06413">
        <ele>243</ele>
        <time>2016-3-26T12:6:28.000Z</time>
      </trkpt>
      <trkpt lat="47.2394" lon="6.06416">
        <ele>242</ele>
        <time>2016-3-26T12:6:28.000Z</time>
      </trkpt>
      <trkpt lat="47.23942" lon="6.06419">
        <ele>239</ele>
        <time>2016-3-26T12:6:28.000Z</time>
      </trkpt>
      <trkpt lat="47.23942" lon="6.06422">
        <ele>240</ele>
        <time>2016-3-26T12:6:28.000Z</time>
      </trkpt>
      <trkpt lat="47.23944" lon="6.06425">
        <ele>239</ele>
        <time>2016-3-26T12:6:28.000Z</time>
      </trkpt>
      <trkpt lat="47.23946" lon="6.06427">
        <ele>239</ele>
        <time>2016-3-26T12:6:28.000Z</time>
      </trkpt>
      <trkpt lat="47.23947" lon="6.06429">
        <ele>240</ele>
        <time>2016-3-26T12:6:28.000Z</time>
      </trkpt>
      <trkpt lat="47.23948" lon="6.0643">
        <ele>240</ele>
        <time>2016-3-26T12:6:28.000Z</time>
      </trkpt>
      <trkpt lat="47.2395" lon="6.06431">
        <ele>240</ele>
        <time>2016-3-26T12:6:28.000Z</time>
      </trkpt>
      <trkpt lat="47.23951" lon="6.06433">
        <ele>240</ele>
        <time>2016-3-26T12:6:28.000Z</time>
      </trkpt>
      <trkpt lat="47.23952" lon="6.06434">
        <ele>240</ele>
        <time>2016-3-26T12:6:28.000Z</time>
      </trkpt>
      <trkpt lat="47.23953" lon="6.06436">
        <ele>240</ele>
        <time>2016-3-26T12:6:28.000Z</time>
      </trkpt>
      <trkpt lat="47.23954" lon="6.06437">
        <ele>240</ele>
        <time>2016-3-26T12:6:28.000Z</time>
      </trkpt>
      <trkpt lat="47.23956" lon="6.06439">
        <ele>240</ele>
        <time>2016-3-26T12:6:28.000Z</time>
      </trkpt>
      <trkpt lat="47.23957" lon="6.0644">
        <ele>240</ele>
        <time>2016-3-26T12:6:28.000Z</time>
      </trkpt>
      <trkpt lat="47.23958" lon="6.06442">
        <ele>240</ele>
        <time>2016-3-26T12:6:28.000Z</time>
      </trkpt>
      <trkpt lat="47.23959" lon="6.06443">
        <ele>240</ele>
        <time>2016-3-26T12:6:28.000Z</time>
      </trkpt>
      <trkpt lat="47.2396" lon="6.06446">
        <ele>240</ele>
        <time>2016-3-26T12:6:28.000Z</time>
      </trkpt>
      <trkpt lat="47.23962" lon="6.0645">
        <ele>241</ele>
        <time>2016-3-26T12:6:28.000Z</time>
      </trkpt>
      <trkpt lat="47.23963" lon="6.06451">
        <ele>241</ele>
        <time>2016-3-26T12:6:28.000Z</time>
      </trkpt>
      <trkpt lat="47.23965" lon="6.06454">
        <ele>240</ele>
        <time>2016-3-26T12:6:28.000Z</time>
      </trkpt>
      <trkpt lat="47.23966" lon="6.06457">
        <ele>240</ele>
        <time>2016-3-26T12:6:28.000Z</time>
      </trkpt>
      <trkpt lat="47.23969" lon="6.06459">
        <ele>241</ele>
        <time>2016-3-26T12:6:28.000Z</time>
      </trkpt>
      <trkpt lat="47.23971" lon="6.06462">
        <ele>240</ele>
        <time>2016-3-26T12:6:28.000Z</time>
      </trkpt>
      <trkpt lat="47.23973" lon="6.06464">
        <ele>240</ele>
        <time>2016-3-26T12:6:28.000Z</time>
      </trkpt>
      <trkpt lat="47.23974" lon="6.06465">
        <ele>241</ele>
        <time>2016-3-26T12:6:28.000Z</time>
      </trkpt>
      <trkpt lat="47.23976" lon="6.06466">
        <ele>241</ele>
        <time>2016-3-26T12:6:28.000Z</time>
      </trkpt>
      <trkpt lat="47.23977" lon="6.06468">
        <ele>241</ele>
        <time>2016-3-26T12:6:28.000Z</time>
      </trkpt>
      <trkpt lat="47.23979" lon="6.06469">
        <ele>241</ele>
        <time>2016-3-26T12:6:28.000Z</time>
      </trkpt>
      <trkpt lat="47.2398" lon="6.06472">
        <ele>240</ele>
        <time>2016-3-26T12:6:28.000Z</time>
      </trkpt>
      <trkpt lat="47.23983" lon="6.06475">
        <ele>240</ele>
        <time>2016-3-26T12:6:28.000Z</time>
      </trkpt>
      <trkpt lat="47.23984" lon="6.06476">
        <ele>240</ele>
        <time>2016-3-26T12:6:28.000Z</time>
      </trkpt>
      <trkpt lat="47.23985" lon="6.06477">
        <ele>241</ele>
        <time>2016-3-26T12:6:28.000Z</time>
      </trkpt>
      <trkpt lat="47.23987" lon="6.06478">
        <ele>241</ele>
        <time>2016-3-26T12:6:28.000Z</time>
      </trkpt>
      <trkpt lat="47.23988" lon="6.0648">
        <ele>241</ele>
        <time>2016-3-26T12:6:28.000Z</time>
      </trkpt>
      <trkpt lat="47.23989" lon="6.06481">
        <ele>242</ele>
        <time>2016-3-26T12:6:28.000Z</time>
      </trkpt>
      <trkpt lat="47.23991" lon="6.06482">
        <ele>242</ele>
        <time>2016-3-26T12:6:28.000Z</time>
      </trkpt>
      <trkpt lat="47.23992" lon="6.06483">
        <ele>242</ele>
        <time>2016-3-26T12:6:28.000Z</time>
      </trkpt>
      <trkpt lat="47.23994" lon="6.06484">
        <ele>243</ele>
        <time>2016-3-26T12:6:28.000Z</time>
      </trkpt>
      <trkpt lat="47.23995" lon="6.06485">
        <ele>242</ele>
        <time>2016-3-26T12:6:28.000Z</time>
      </trkpt>
      <trkpt lat="47.23997" lon="6.06486">
        <ele>242</ele>
        <time>2016-3-26T12:6:28.000Z</time>
      </trkpt>
      <trkpt lat="47.23998" lon="6.06488">
        <ele>242</ele>
        <time>2016-3-26T12:6:28.000Z</time>
      </trkpt>
      <trkpt lat="47.23999" lon="6.06489">
        <ele>242</ele>
        <time>2016-3-26T12:6:28.000Z</time>
      </trkpt>
      <trkpt lat="47.24001" lon="6.06493">
        <ele>242</ele>
        <time>2016-3-26T12:6:28.000Z</time>
      </trkpt>
      <trkpt lat="47.24003" lon="6.06495">
        <ele>242</ele>
        <time>2016-3-26T12:6:28.000Z</time>
      </trkpt>
      <trkpt lat="47.24004" lon="6.06496">
        <ele>243</ele>
        <time>2016-3-26T12:6:28.000Z</time>
      </trkpt>
      <trkpt lat="47.24006" lon="6.06497">
        <ele>243</ele>
        <time>2016-3-26T12:6:28.000Z</time>
      </trkpt>
      <trkpt lat="47.24008" lon="6.06499">
        <ele>242</ele>
        <time>2016-3-26T12:6:28.000Z</time>
      </trkpt>
      <trkpt lat="47.2401" lon="6.06501">
        <ele>242</ele>
        <time>2016-3-26T12:6:28.000Z</time>
      </trkpt>
      <trkpt lat="47.24012" lon="6.06504">
        <ele>243</ele>
        <time>2016-3-26T12:6:28.000Z</time>
      </trkpt>
      <trkpt lat="47.24014" lon="6.06504">
        <ele>243</ele>
        <time>2016-3-26T12:6:28.000Z</time>
      </trkpt>
      <trkpt lat="47.24015" lon="6.06505">
        <ele>243</ele>
        <time>2016-3-26T12:6:28.000Z</time>
      </trkpt>
      <trkpt lat="47.24017" lon="6.06506">
        <ele>244</ele>
        <time>2016-3-26T12:6:28.000Z</time>
      </trkpt>
      <trkpt lat="47.24019" lon="6.06508">
        <ele>245</ele>
        <time>2016-3-26T12:6:28.000Z</time>
      </trkpt>
      <trkpt lat="47.2402" lon="6.06509">
        <ele>245</ele>
        <time>2016-3-26T12:6:28.000Z</time>
      </trkpt>
      <trkpt lat="47.24022" lon="6.0651">
        <ele>245</ele>
        <time>2016-3-26T12:6:28.000Z</time>
      </trkpt>
      <trkpt lat="47.24023" lon="6.06511">
        <ele>245</ele>
        <time>2016-3-26T12:6:28.000Z</time>
      </trkpt>
      <trkpt lat="47.24024" lon="6.06512">
        <ele>246</ele>
        <time>2016-3-26T12:6:28.000Z</time>
      </trkpt>
      <trkpt lat="47.24026" lon="6.06513">
        <ele>246</ele>
        <time>2016-3-26T12:6:28.000Z</time>
      </trkpt>
      <trkpt lat="47.24027" lon="6.06514">
        <ele>246</ele>
        <time>2016-3-26T12:6:28.000Z</time>
      </trkpt>
      <trkpt lat="47.24028" lon="6.06515">
        <ele>246</ele>
        <time>2016-3-26T12:6:28.000Z</time>
      </trkpt>
      <trkpt lat="47.24031" lon="6.06518">
        <ele>246</ele>
        <time>2016-3-26T12:6:28.000Z</time>
      </trkpt>
      <trkpt lat="47.24033" lon="6.0652">
        <ele>246</ele>
        <time>2016-3-26T12:6:28.000Z</time>
      </trkpt>
      <trkpt lat="47.24035" lon="6.06522">
        <ele>246</ele>
        <time>2016-3-26T12:6:28.000Z</time>
      </trkpt>
      <trkpt lat="47.24036" lon="6.06524">
        <ele>246</ele>
        <time>2016-3-26T12:6:28.000Z</time>
      </trkpt>
      <trkpt lat="47.24038" lon="6.06525">
        <ele>246</ele>
        <time>2016-3-26T12:6:28.000Z</time>
      </trkpt>
      <trkpt lat="47.24039" lon="6.06526">
        <ele>246</ele>
        <time>2016-3-26T12:6:28.000Z</time>
      </trkpt>
      <trkpt lat="47.24041" lon="6.06529">
        <ele>246</ele>
        <time>2016-3-26T12:6:28.000Z</time>
      </trkpt>
      <trkpt lat="47.24042" lon="6.0653">
        <ele>246</ele>
        <time>2016-3-26T12:6:28.000Z</time>
      </trkpt>
      <trkpt lat="47.24044" lon="6.06533">
        <ele>246</ele>
        <time>2016-3-26T12:6:28.000Z</time>
      </trkpt>
      <trkpt lat="47.24046" lon="6.06535">
        <ele>246</ele>
        <time>2016-3-26T12:6:28.000Z</time>
      </trkpt>
      <trkpt lat="47.24048" lon="6.06538">
        <ele>246</ele>
        <time>2016-3-26T12:6:28.000Z</time>
      </trkpt>
      <trkpt lat="47.2405" lon="6.06541">
        <ele>245</ele>
        <time>2016-3-26T12:6:28.000Z</time>
      </trkpt>
      <trkpt lat="47.24053" lon="6.06544">
        <ele>245</ele>
        <time>2016-3-26T12:6:28.000Z</time>
      </trkpt>
      <trkpt lat="47.24054" lon="6.06545">
        <ele>244</ele>
        <time>2016-3-26T12:6:28.000Z</time>
      </trkpt>
      <trkpt lat="47.24055" lon="6.06546">
        <ele>245</ele>
        <time>2016-3-26T12:6:28.000Z</time>
      </trkpt>
      <trkpt lat="47.24057" lon="6.06549">
        <ele>245</ele>
        <time>2016-3-26T12:6:28.000Z</time>
      </trkpt>
      <trkpt lat="47.24059" lon="6.0655">
        <ele>245</ele>
        <time>2016-3-26T12:6:28.000Z</time>
      </trkpt>
      <trkpt lat="47.2406" lon="6.06551">
        <ele>245</ele>
        <time>2016-3-26T12:8:55.000Z</time>
      </trkpt>
      <trkpt lat="47.24061" lon="6.06553">
        <ele>245</ele>
        <time>2016-3-26T12:8:55.000Z</time>
      </trkpt>
      <trkpt lat="47.24062" lon="6.06554">
        <ele>245</ele>
        <time>2016-3-26T12:8:55.000Z</time>
      </trkpt>
      <trkpt lat="47.24063" lon="6.06556">
        <ele>246</ele>
        <time>2016-3-26T12:8:55.000Z</time>
      </trkpt>
      <trkpt lat="47.24064" lon="6.06557">
        <ele>245</ele>
        <time>2016-3-26T12:8:55.000Z</time>
      </trkpt>
      <trkpt lat="47.24066" lon="6.06559">
        <ele>245</ele>
        <time>2016-3-26T12:8:55.000Z</time>
      </trkpt>
      <trkpt lat="47.24067" lon="6.0656">
        <ele>245</ele>
        <time>2016-3-26T12:8:55.000Z</time>
      </trkpt>
      <trkpt lat="47.24068" lon="6.06561">
        <ele>246</ele>
        <time>2016-3-26T12:8:55.000Z</time>
      </trkpt>
      <trkpt lat="47.2407" lon="6.06564">
        <ele>245</ele>
        <time>2016-3-26T12:8:55.000Z</time>
      </trkpt>
      <trkpt lat="47.24071" lon="6.06565">
        <ele>245</ele>
        <time>2016-3-26T12:8:55.000Z</time>
      </trkpt>
      <trkpt lat="47.24074" lon="6.06568">
        <ele>246</ele>
        <time>2016-3-26T12:8:55.000Z</time>
      </trkpt>
      <trkpt lat="47.24075" lon="6.06569">
        <ele>246</ele>
        <time>2016-3-26T12:8:55.000Z</time>
      </trkpt>
      <trkpt lat="47.24076" lon="6.0657">
        <ele>246</ele>
        <time>2016-3-26T12:8:55.000Z</time>
      </trkpt>
      <trkpt lat="47.24077" lon="6.06572">
        <ele>246</ele>
        <time>2016-3-26T12:8:55.000Z</time>
      </trkpt>
      <trkpt lat="47.24078" lon="6.06573">
        <ele>246</ele>
        <time>2016-3-26T12:8:55.000Z</time>
      </trkpt>
      <trkpt lat="47.24079" lon="6.06574">
        <ele>246</ele>
        <time>2016-3-26T12:8:55.000Z</time>
      </trkpt>
      <trkpt lat="47.24081" lon="6.06576">
        <ele>247</ele>
        <time>2016-3-26T12:8:55.000Z</time>
      </trkpt>
      <trkpt lat="47.24083" lon="6.06579">
        <ele>247</ele>
        <time>2016-3-26T12:8:55.000Z</time>
      </trkpt>
      <trkpt lat="47.24086" lon="6.06583">
        <ele>246</ele>
        <time>2016-3-26T12:8:55.000Z</time>
      </trkpt>
      <trkpt lat="47.24088" lon="6.06585">
        <ele>247</ele>
        <time>2016-3-26T12:8:55.000Z</time>
      </trkpt>
      <trkpt lat="47.24089" lon="6.06587">
        <ele>247</ele>
        <time>2016-3-26T12:8:55.000Z</time>
      </trkpt>
      <trkpt lat="47.2409" lon="6.06588">
        <ele>247</ele>
        <time>2016-3-26T12:8:55.000Z</time>
      </trkpt>
      <trkpt lat="47.24091" lon="6.0659">
        <ele>247</ele>
        <time>2016-3-26T12:8:55.000Z</time>
      </trkpt>
      <trkpt lat="47.24092" lon="6.06591">
        <ele>247</ele>
        <time>2016-3-26T12:8:55.000Z</time>
      </trkpt>
      <trkpt lat="47.24094" lon="6.06592">
        <ele>247</ele>
        <time>2016-3-26T12:8:55.000Z</time>
      </trkpt>
      <trkpt lat="47.24095" lon="6.06593">
        <ele>247</ele>
        <time>2016-3-26T12:8:55.000Z</time>
      </trkpt>
      <trkpt lat="47.24096" lon="6.06595">
        <ele>247</ele>
        <time>2016-3-26T12:8:55.000Z</time>
      </trkpt>
      <trkpt lat="47.24097" lon="6.06596">
        <ele>247</ele>
        <time>2016-3-26T12:8:55.000Z</time>
      </trkpt>
      <trkpt lat="47.24098" lon="6.06597">
        <ele>247</ele>
        <time>2016-3-26T12:8:55.000Z</time>
      </trkpt>
      <trkpt lat="47.241" lon="6.06599">
        <ele>247</ele>
        <time>2016-3-26T12:8:55.000Z</time>
      </trkpt>
      <trkpt lat="47.24101" lon="6.066">
        <ele>247</ele>
        <time>2016-3-26T12:8:55.000Z</time>
      </trkpt>
      <trkpt lat="47.24103" lon="6.06603">
        <ele>247</ele>
        <time>2016-3-26T12:8:55.000Z</time>
      </trkpt>
      <trkpt lat="47.24105" lon="6.06605">
        <ele>247</ele>
        <time>2016-3-26T12:8:55.000Z</time>
      </trkpt>
      <trkpt lat="47.24109" lon="6.0661">
        <ele>246</ele>
        <time>2016-3-26T12:8:55.000Z</time>
      </trkpt>
      <trkpt lat="47.2411" lon="6.06611">
        <ele>247</ele>
        <time>2016-3-26T12:8:55.000Z</time>
      </trkpt>
      <trkpt lat="47.24111" lon="6.06612">
        <ele>247</ele>
        <time>2016-3-26T12:8:55.000Z</time>
      </trkpt>
      <trkpt lat="47.24113" lon="6.06615">
        <ele>244</ele>
        <time>2016-3-26T12:8:55.000Z</time>
      </trkpt>
      <trkpt lat="47.24114" lon="6.06618">
        <ele>244</ele>
        <time>2016-3-26T12:8:55.000Z</time>
      </trkpt>
      <trkpt lat="47.24116" lon="6.0662">
        <ele>244</ele>
        <time>2016-3-26T12:8:55.000Z</time>
      </trkpt>
      <trkpt lat="47.24119" lon="6.06623">
        <ele>244</ele>
        <time>2016-3-26T12:8:55.000Z</time>
      </trkpt>
      <trkpt lat="47.2412" lon="6.06624">
        <ele>244</ele>
        <time>2016-3-26T12:8:55.000Z</time>
      </trkpt>
      <trkpt lat="47.24121" lon="6.06625">
        <ele>245</ele>
        <time>2016-3-26T12:8:55.000Z</time>
      </trkpt>
      <trkpt lat="47.24123" lon="6.06626">
        <ele>245</ele>
        <time>2016-3-26T12:8:55.000Z</time>
      </trkpt>
      <trkpt lat="47.24124" lon="6.06627">
        <ele>244</ele>
        <time>2016-3-26T12:8:55.000Z</time>
      </trkpt>
      <trkpt lat="47.24125" lon="6.06628">
        <ele>244</ele>
        <time>2016-3-26T12:8:55.000Z</time>
      </trkpt>
      <trkpt lat="47.24128" lon="6.0663">
        <ele>244</ele>
        <time>2016-3-26T12:8:55.000Z</time>
      </trkpt>
      <trkpt lat="47.2413" lon="6.06632">
        <ele>242</ele>
        <time>2016-3-26T12:8:55.000Z</time>
      </trkpt>
      <trkpt lat="47.24131" lon="6.06635">
        <ele>242</ele>
        <time>2016-3-26T12:8:55.000Z</time>
      </trkpt>
      <trkpt lat="47.24133" lon="6.06637">
        <ele>242</ele>
        <time>2016-3-26T12:8:55.000Z</time>
      </trkpt>
      <trkpt lat="47.24135" lon="6.0664">
        <ele>243</ele>
        <time>2016-3-26T12:8:55.000Z</time>
      </trkpt>
      <trkpt lat="47.24137" lon="6.06641">
        <ele>243</ele>
        <time>2016-3-26T12:8:55.000Z</time>
      </trkpt>
      <trkpt lat="47.24138" lon="6.06642">
        <ele>243</ele>
        <time>2016-3-26T12:8:55.000Z</time>
      </trkpt>
      <trkpt lat="47.24139" lon="6.06643">
        <ele>244</ele>
        <time>2016-3-26T12:8:55.000Z</time>
      </trkpt>
      <trkpt lat="47.24141" lon="6.06645">
        <ele>244</ele>
        <time>2016-3-26T12:8:55.000Z</time>
      </trkpt>
      <trkpt lat="47.24143" lon="6.06648">
        <ele>243</ele>
        <time>2016-3-26T12:8:55.000Z</time>
      </trkpt>
      <trkpt lat="47.24144" lon="6.0665">
        <ele>242</ele>
        <time>2016-3-26T12:8:55.000Z</time>
      </trkpt>
      <trkpt lat="47.24146" lon="6.06653">
        <ele>243</ele>
        <time>2016-3-26T12:8:55.000Z</time>
      </trkpt>
      <trkpt lat="47.24148" lon="6.06655">
        <ele>242</ele>
        <time>2016-3-26T12:8:55.000Z</time>
      </trkpt>
      <trkpt lat="47.2415" lon="6.06657">
        <ele>242</ele>
        <time>2016-3-26T12:8:55.000Z</time>
      </trkpt>
      <trkpt lat="47.24152" lon="6.0666">
        <ele>243</ele>
        <time>2016-3-26T12:8:55.000Z</time>
      </trkpt>
      <trkpt lat="47.24153" lon="6.06661">
        <ele>243</ele>
        <time>2016-3-26T12:8:55.000Z</time>
      </trkpt>
      <trkpt lat="47.24155" lon="6.06662">
        <ele>243</ele>
        <time>2016-3-26T12:8:55.000Z</time>
      </trkpt>
      <trkpt lat="47.24156" lon="6.06664">
        <ele>244</ele>
        <time>2016-3-26T12:8:55.000Z</time>
      </trkpt>
      <trkpt lat="47.24157" lon="6.06665">
        <ele>244</ele>
        <time>2016-3-26T12:8:55.000Z</time>
      </trkpt>
      <trkpt lat="47.24158" lon="6.06667">
        <ele>244</ele>
        <time>2016-3-26T12:8:55.000Z</time>
      </trkpt>
      <trkpt lat="47.2416" lon="6.0667">
        <ele>243</ele>
        <time>2016-3-26T12:8:55.000Z</time>
      </trkpt>
      <trkpt lat="47.24161" lon="6.06673">
        <ele>243</ele>
        <time>2016-3-26T12:8:55.000Z</time>
      </trkpt>
      <trkpt lat="47.24163" lon="6.06676">
        <ele>243</ele>
        <time>2016-3-26T12:8:55.000Z</time>
      </trkpt>
      <trkpt lat="47.24166" lon="6.06678">
        <ele>243</ele>
        <time>2016-3-26T12:8:55.000Z</time>
      </trkpt>
      <trkpt lat="47.24168" lon="6.06681">
        <ele>243</ele>
        <time>2016-3-26T12:8:55.000Z</time>
      </trkpt>
      <trkpt lat="47.2417" lon="6.06683">
        <ele>244</ele>
        <time>2016-3-26T12:8:55.000Z</time>
      </trkpt>
      <trkpt lat="47.24172" lon="6.06686">
        <ele>244</ele>
        <time>2016-3-26T12:8:55.000Z</time>
      </trkpt>
      <trkpt lat="47.24174" lon="6.06688">
        <ele>244</ele>
        <time>2016-3-26T12:8:55.000Z</time>
      </trkpt>
      <trkpt lat="47.24177" lon="6.0669">
        <ele>243</ele>
        <time>2016-3-26T12:8:55.000Z</time>
      </trkpt>
      <trkpt lat="47.24179" lon="6.06693">
        <ele>244</ele>
        <time>2016-3-26T12:8:55.000Z</time>
      </trkpt>
      <trkpt lat="47.24181" lon="6.06694">
        <ele>245</ele>
        <time>2016-3-26T12:8:55.000Z</time>
      </trkpt>
      <trkpt lat="47.24184" lon="6.06696">
        <ele>245</ele>
        <time>2016-3-26T12:8:55.000Z</time>
      </trkpt>
      <trkpt lat="47.24186" lon="6.06698">
        <ele>245</ele>
        <time>2016-3-26T12:8:55.000Z</time>
      </trkpt>
      <trkpt lat="47.24185" lon="6.06701">
        <ele>245</ele>
        <time>2016-3-26T12:8:55.000Z</time>
      </trkpt>
      <trkpt lat="47.24184" lon="6.06704">
        <ele>244</ele>
        <time>2016-3-26T12:8:55.000Z</time>
      </trkpt>
      <trkpt lat="47.24183" lon="6.06707">
        <ele>244</ele>
        <time>2016-3-26T12:8:55.000Z</time>
      </trkpt>
      <trkpt lat="47.24183" lon="6.06711">
        <ele>244</ele>
        <time>2016-3-26T12:8:55.000Z</time>
      </trkpt>
      <trkpt lat="47.24184" lon="6.06713">
        <ele>243</ele>
        <time>2016-3-26T12:8:55.000Z</time>
      </trkpt>
      <trkpt lat="47.24185" lon="6.06714">
        <ele>244</ele>
        <time>2016-3-26T12:8:55.000Z</time>
      </trkpt>
      <trkpt lat="47.24186" lon="6.06716">
        <ele>244</ele>
        <time>2016-3-26T12:8:55.000Z</time>
      </trkpt>
      <trkpt lat="47.24188" lon="6.06717">
        <ele>244</ele>
        <time>2016-3-26T12:8:55.000Z</time>
      </trkpt>
      <trkpt lat="47.24189" lon="6.06718">
        <ele>244</ele>
        <time>2016-3-26T12:8:55.000Z</time>
      </trkpt>
      <trkpt lat="47.24191" lon="6.06719">
        <ele>245</ele>
        <time>2016-3-26T12:8:55.000Z</time>
      </trkpt>
      <trkpt lat="47.24192" lon="6.0672">
        <ele>245</ele>
        <time>2016-3-26T12:8:55.000Z</time>
      </trkpt>
      <trkpt lat="47.24193" lon="6.06721">
        <ele>245</ele>
        <time>2016-3-26T12:8:55.000Z</time>
      </trkpt>
      <trkpt lat="47.24195" lon="6.06723">
        <ele>244</ele>
        <time>2016-3-26T12:8:55.000Z</time>
      </trkpt>
      <trkpt lat="47.24197" lon="6.06726">
        <ele>244</ele>
        <time>2016-3-26T12:8:55.000Z</time>
      </trkpt>
      <trkpt lat="47.24198" lon="6.06727">
        <ele>245</ele>
        <time>2016-3-26T12:8:55.000Z</time>
      </trkpt>
      <trkpt lat="47.24199" lon="6.06728">
        <ele>245</ele>
        <time>2016-3-26T12:8:55.000Z</time>
      </trkpt>
      <trkpt lat="47.242" lon="6.06729">
        <ele>245</ele>
        <time>2016-3-26T12:8:55.000Z</time>
      </trkpt>
      <trkpt lat="47.24202" lon="6.06731">
        <ele>245</ele>
        <time>2016-3-26T12:8:55.000Z</time>
      </trkpt>
      <trkpt lat="47.24203" lon="6.06732">
        <ele>245</ele>
        <time>2016-3-26T12:8:55.000Z</time>
      </trkpt>
      <trkpt lat="47.24205" lon="6.06733">
        <ele>245</ele>
        <time>2016-3-26T12:8:55.000Z</time>
      </trkpt>
      <trkpt lat="47.24206" lon="6.06734">
        <ele>245</ele>
        <time>2016-3-26T12:8:55.000Z</time>
      </trkpt>
      <trkpt lat="47.24207" lon="6.06735">
        <ele>245</ele>
        <time>2016-3-26T12:8:55.000Z</time>
      </trkpt>
      <trkpt lat="47.24208" lon="6.06737">
        <ele>244</ele>
        <time>2016-3-26T12:8:55.000Z</time>
      </trkpt>
      <trkpt lat="47.24209" lon="6.06739">
        <ele>243</ele>
        <time>2016-3-26T12:11:5.000Z</time>
      </trkpt>
      <trkpt lat="47.24211" lon="6.06741">
        <ele>243</ele>
        <time>2016-3-26T12:11:5.000Z</time>
      </trkpt>
      <trkpt lat="47.24214" lon="6.06744">
        <ele>243</ele>
        <time>2016-3-26T12:11:5.000Z</time>
      </trkpt>
      <trkpt lat="47.24215" lon="6.06745">
        <ele>242</ele>
        <time>2016-3-26T12:11:5.000Z</time>
      </trkpt>
      <trkpt lat="47.24216" lon="6.06746">
        <ele>242</ele>
        <time>2016-3-26T12:11:5.000Z</time>
      </trkpt>
      <trkpt lat="47.24217" lon="6.06747">
        <ele>242</ele>
        <time>2016-3-26T12:11:5.000Z</time>
      </trkpt>
      <trkpt lat="47.24219" lon="6.06748">
        <ele>242</ele>
        <time>2016-3-26T12:11:5.000Z</time>
      </trkpt>
      <trkpt lat="47.2422" lon="6.0675">
        <ele>243</ele>
        <time>2016-3-26T12:11:5.000Z</time>
      </trkpt>
      <trkpt lat="47.24222" lon="6.06752">
        <ele>243</ele>
        <time>2016-3-26T12:11:5.000Z</time>
      </trkpt>
      <trkpt lat="47.24224" lon="6.06753">
        <ele>243</ele>
        <time>2016-3-26T12:11:5.000Z</time>
      </trkpt>
      <trkpt lat="47.24225" lon="6.06754">
        <ele>244</ele>
        <time>2016-3-26T12:11:5.000Z</time>
      </trkpt>
      <trkpt lat="47.24227" lon="6.06755">
        <ele>245</ele>
        <time>2016-3-26T12:11:5.000Z</time>
      </trkpt>
      <trkpt lat="47.24229" lon="6.06756">
        <ele>245</ele>
        <time>2016-3-26T12:11:5.000Z</time>
      </trkpt>
      <trkpt lat="47.2423" lon="6.06757">
        <ele>245</ele>
        <time>2016-3-26T12:11:5.000Z</time>
      </trkpt>
      <trkpt lat="47.24232" lon="6.06759">
        <ele>244</ele>
        <time>2016-3-26T12:11:5.000Z</time>
      </trkpt>
      <trkpt lat="47.24234" lon="6.0676">
        <ele>244</ele>
        <time>2016-3-26T12:11:5.000Z</time>
      </trkpt>
      <trkpt lat="47.24235" lon="6.06761">
        <ele>244</ele>
        <time>2016-3-26T12:11:5.000Z</time>
      </trkpt>
      <trkpt lat="47.24236" lon="6.06762">
        <ele>244</ele>
        <time>2016-3-26T12:11:5.000Z</time>
      </trkpt>
      <trkpt lat="47.24238" lon="6.06764">
        <ele>244</ele>
        <time>2016-3-26T12:11:5.000Z</time>
      </trkpt>
      <trkpt lat="47.24239" lon="6.06765">
        <ele>244</ele>
        <time>2016-3-26T12:11:5.000Z</time>
      </trkpt>
      <trkpt lat="47.2424" lon="6.06767">
        <ele>244</ele>
        <time>2016-3-26T12:11:5.000Z</time>
      </trkpt>
      <trkpt lat="47.24241" lon="6.06768">
        <ele>243</ele>
        <time>2016-3-26T12:11:5.000Z</time>
      </trkpt>
      <trkpt lat="47.24242" lon="6.0677">
        <ele>243</ele>
        <time>2016-3-26T12:11:5.000Z</time>
      </trkpt>
      <trkpt lat="47.24244" lon="6.06772">
        <ele>245</ele>
        <time>2016-3-26T12:11:5.000Z</time>
      </trkpt>
      <trkpt lat="47.24246" lon="6.06775">
        <ele>245</ele>
        <time>2016-3-26T12:11:5.000Z</time>
      </trkpt>
      <trkpt lat="47.24247" lon="6.06777">
        <ele>245</ele>
        <time>2016-3-26T12:11:5.000Z</time>
      </trkpt>
      <trkpt lat="47.24248" lon="6.06778">
        <ele>245</ele>
        <time>2016-3-26T12:11:5.000Z</time>
      </trkpt>
      <trkpt lat="47.24251" lon="6.0678">
        <ele>246</ele>
        <time>2016-3-26T12:11:5.000Z</time>
      </trkpt>
      <trkpt lat="47.24252" lon="6.06782">
        <ele>247</ele>
        <time>2016-3-26T12:11:5.000Z</time>
      </trkpt>
      <trkpt lat="47.24253" lon="6.06783">
        <ele>247</ele>
        <time>2016-3-26T12:11:5.000Z</time>
      </trkpt>
      <trkpt lat="47.24254" lon="6.06784">
        <ele>248</ele>
        <time>2016-3-26T12:11:5.000Z</time>
      </trkpt>
      <trkpt lat="47.24256" lon="6.06786">
        <ele>249</ele>
        <time>2016-3-26T12:11:5.000Z</time>
      </trkpt>
      <trkpt lat="47.24257" lon="6.06787">
        <ele>249</ele>
        <time>2016-3-26T12:11:5.000Z</time>
      </trkpt>
      <trkpt lat="47.24258" lon="6.06788">
        <ele>249</ele>
        <time>2016-3-26T12:11:5.000Z</time>
      </trkpt>
      <trkpt lat="47.2426" lon="6.0679">
        <ele>251</ele>
        <time>2016-3-26T12:11:5.000Z</time>
      </trkpt>
      <trkpt lat="47.24261" lon="6.06791">
        <ele>251</ele>
        <time>2016-3-26T12:11:5.000Z</time>
      </trkpt>
      <trkpt lat="47.24263" lon="6.06793">
        <ele>251</ele>
        <time>2016-3-26T12:11:5.000Z</time>
      </trkpt>
      <trkpt lat="47.24264" lon="6.06794">
        <ele>251</ele>
        <time>2016-3-26T12:11:5.000Z</time>
      </trkpt>
      <trkpt lat="47.24266" lon="6.06796">
        <ele>250</ele>
        <time>2016-3-26T12:11:5.000Z</time>
      </trkpt>
      <trkpt lat="47.24267" lon="6.06797">
        <ele>250</ele>
        <time>2016-3-26T12:11:5.000Z</time>
      </trkpt>
      <trkpt lat="47.24268" lon="6.06798">
        <ele>251</ele>
        <time>2016-3-26T12:11:5.000Z</time>
      </trkpt>
      <trkpt lat="47.2427" lon="6.068">
        <ele>251</ele>
        <time>2016-3-26T12:11:5.000Z</time>
      </trkpt>
      <trkpt lat="47.24271" lon="6.06801">
        <ele>251</ele>
        <time>2016-3-26T12:11:5.000Z</time>
      </trkpt>
      <trkpt lat="47.24273" lon="6.06802">
        <ele>250</ele>
        <time>2016-3-26T12:11:5.000Z</time>
      </trkpt>
      <trkpt lat="47.24274" lon="6.06803">
        <ele>250</ele>
        <time>2016-3-26T12:11:5.000Z</time>
      </trkpt>
      <trkpt lat="47.24276" lon="6.06805">
        <ele>250</ele>
        <time>2016-3-26T12:11:5.000Z</time>
      </trkpt>
      <trkpt lat="47.24277" lon="6.06806">
        <ele>251</ele>
        <time>2016-3-26T12:11:5.000Z</time>
      </trkpt>
      <trkpt lat="47.24278" lon="6.06808">
        <ele>251</ele>
        <time>2016-3-26T12:11:5.000Z</time>
      </trkpt>
      <trkpt lat="47.2428" lon="6.06809">
        <ele>251</ele>
        <time>2016-3-26T12:11:5.000Z</time>
      </trkpt>
      <trkpt lat="47.24282" lon="6.06812">
        <ele>251</ele>
        <time>2016-3-26T12:11:5.000Z</time>
      </trkpt>
      <trkpt lat="47.24283" lon="6.06813">
        <ele>251</ele>
        <time>2016-3-26T12:11:5.000Z</time>
      </trkpt>
      <trkpt lat="47.24284" lon="6.06814">
        <ele>250</ele>
        <time>2016-3-26T12:11:5.000Z</time>
      </trkpt>
      <trkpt lat="47.24285" lon="6.06816">
        <ele>250</ele>
        <time>2016-3-26T12:11:5.000Z</time>
      </trkpt>
      <trkpt lat="47.24286" lon="6.06817">
        <ele>250</ele>
        <time>2016-3-26T12:11:5.000Z</time>
      </trkpt>
      <trkpt lat="47.24288" lon="6.06818">
        <ele>250</ele>
        <time>2016-3-26T12:11:5.000Z</time>
      </trkpt>
      <trkpt lat="47.24289" lon="6.06819">
        <ele>250</ele>
        <time>2016-3-26T12:11:5.000Z</time>
      </trkpt>
      <trkpt lat="47.24291" lon="6.0682">
        <ele>250</ele>
        <time>2016-3-26T12:11:5.000Z</time>
      </trkpt>
      <trkpt lat="47.24292" lon="6.06821">
        <ele>250</ele>
        <time>2016-3-26T12:11:5.000Z</time>
      </trkpt>
      <trkpt lat="47.24294" lon="6.06822">
        <ele>250</ele>
        <time>2016-3-26T12:11:5.000Z</time>
      </trkpt>
      <trkpt lat="47.24295" lon="6.06823">
        <ele>250</ele>
        <time>2016-3-26T12:11:5.000Z</time>
      </trkpt>
      <trkpt lat="47.24296" lon="6.06824">
        <ele>250</ele>
        <time>2016-3-26T12:11:5.000Z</time>
      </trkpt>
      <trkpt lat="47.24297" lon="6.06826">
        <ele>249</ele>
        <time>2016-3-26T12:11:5.000Z</time>
      </trkpt>
      <trkpt lat="47.24298" lon="6.06827">
        <ele>249</ele>
        <time>2016-3-26T12:11:5.000Z</time>
      </trkpt>
      <trkpt lat="47.243" lon="6.06828">
        <ele>249</ele>
        <time>2016-3-26T12:11:5.000Z</time>
      </trkpt>
      <trkpt lat="47.24301" lon="6.06829">
        <ele>249</ele>
        <time>2016-3-26T12:11:5.000Z</time>
      </trkpt>
      <trkpt lat="47.24303" lon="6.06831">
        <ele>248</ele>
        <time>2016-3-26T12:11:5.000Z</time>
      </trkpt>
      <trkpt lat="47.24306" lon="6.06833">
        <ele>249</ele>
        <time>2016-3-26T12:11:5.000Z</time>
      </trkpt>
      <trkpt lat="47.24308" lon="6.06836">
        <ele>250</ele>
        <time>2016-3-26T12:11:5.000Z</time>
      </trkpt>
      <trkpt lat="47.2431" lon="6.06838">
        <ele>247</ele>
        <time>2016-3-26T12:11:5.000Z</time>
      </trkpt>
      <trkpt lat="47.24313" lon="6.06841">
        <ele>248</ele>
        <time>2016-3-26T12:11:5.000Z</time>
      </trkpt>
      <trkpt lat="47.24314" lon="6.06842">
        <ele>248</ele>
        <time>2016-3-26T12:11:5.000Z</time>
      </trkpt>
      <trkpt lat="47.24316" lon="6.06845">
        <ele>248</ele>
        <time>2016-3-26T12:11:5.000Z</time>
      </trkpt>
      <trkpt lat="47.24318" lon="6.06847">
        <ele>248</ele>
        <time>2016-3-26T12:11:5.000Z</time>
      </trkpt>
      <trkpt lat="47.2432" lon="6.0685">
        <ele>249</ele>
        <time>2016-3-26T12:11:5.000Z</time>
      </trkpt>
      <trkpt lat="47.24322" lon="6.06853">
        <ele>247</ele>
        <time>2016-3-26T12:11:5.000Z</time>
      </trkpt>
      <trkpt lat="47.24324" lon="6.06856">
        <ele>247</ele>
        <time>2016-3-26T12:11:5.000Z</time>
      </trkpt>
      <trkpt lat="47.24325" lon="6.06858">
        <ele>248</ele>
        <time>2016-3-26T12:11:5.000Z</time>
      </trkpt>
      <trkpt lat="47.24327" lon="6.06859">
        <ele>248</ele>
        <time>2016-3-26T12:11:5.000Z</time>
      </trkpt>
      <trkpt lat="47.24328" lon="6.0686">
        <ele>248</ele>
        <time>2016-3-26T12:11:5.000Z</time>
      </trkpt>
      <trkpt lat="47.24329" lon="6.06862">
        <ele>248</ele>
        <time>2016-3-26T12:11:5.000Z</time>
      </trkpt>
      <trkpt lat="47.24331" lon="6.06865">
        <ele>249</ele>
        <time>2016-3-26T12:11:5.000Z</time>
      </trkpt>
      <trkpt lat="47.24332" lon="6.06866">
        <ele>248</ele>
        <time>2016-3-26T12:11:5.000Z</time>
      </trkpt>
      <trkpt lat="47.24333" lon="6.06868">
        <ele>248</ele>
        <time>2016-3-26T12:11:5.000Z</time>
      </trkpt>
      <trkpt lat="47.24335" lon="6.06869">
        <ele>248</ele>
        <time>2016-3-26T12:11:5.000Z</time>
      </trkpt>
      <trkpt lat="47.24336" lon="6.06869">
        <ele>248</ele>
        <time>2016-3-26T12:11:5.000Z</time>
      </trkpt>
      <trkpt lat="47.24338" lon="6.0687">
        <ele>248</ele>
        <time>2016-3-26T12:11:5.000Z</time>
      </trkpt>
      <trkpt lat="47.24339" lon="6.06871">
        <ele>247</ele>
        <time>2016-3-26T12:11:5.000Z</time>
      </trkpt>
      <trkpt lat="47.24342" lon="6.06874">
        <ele>247</ele>
        <time>2016-3-26T12:11:5.000Z</time>
      </trkpt>
      <trkpt lat="47.24344" lon="6.06876">
        <ele>246</ele>
        <time>2016-3-26T12:11:5.000Z</time>
      </trkpt>
      <trkpt lat="47.24346" lon="6.06879">
        <ele>246</ele>
        <time>2016-3-26T12:11:5.000Z</time>
      </trkpt>
      <trkpt lat="47.24347" lon="6.06882">
        <ele>246</ele>
        <time>2016-3-26T12:11:5.000Z</time>
      </trkpt>
      <trkpt lat="47.24349" lon="6.06885">
        <ele>247</ele>
        <time>2016-3-26T12:11:5.000Z</time>
      </trkpt>
      <trkpt lat="47.24351" lon="6.06888">
        <ele>247</ele>
        <time>2016-3-26T12:11:5.000Z</time>
      </trkpt>
      <trkpt lat="47.24353" lon="6.06891">
        <ele>247</ele>
        <time>2016-3-26T12:11:5.000Z</time>
      </trkpt>
      <trkpt lat="47.24354" lon="6.06893">
        <ele>246</ele>
        <time>2016-3-26T12:11:5.000Z</time>
      </trkpt>
      <trkpt lat="47.24357" lon="6.06896">
        <ele>247</ele>
        <time>2016-3-26T12:11:5.000Z</time>
      </trkpt>
      <trkpt lat="47.24359" lon="6.06898">
        <ele>247</ele>
        <time>2016-3-26T12:11:5.000Z</time>
      </trkpt>
      <trkpt lat="47.24361" lon="6.069">
        <ele>247</ele>
        <time>2016-3-26T12:11:5.000Z</time>
      </trkpt>
      <trkpt lat="47.24363" lon="6.069">
        <ele>247</ele>
        <time>2016-3-26T12:11:5.000Z</time>
      </trkpt>
      <trkpt lat="47.24364" lon="6.06901">
        <ele>247</ele>
        <time>2016-3-26T12:11:5.000Z</time>
      </trkpt>
      <trkpt lat="47.24366" lon="6.06901">
        <ele>247</ele>
        <time>2016-3-26T12:11:5.000Z</time>
      </trkpt>
      <trkpt lat="47.24367" lon="6.06901">
        <ele>247</ele>
        <time>2016-3-26T12:13:32.000Z</time>
      </trkpt>
      <trkpt lat="47.2437" lon="6.06902">
        <ele>246</ele>
        <time>2016-3-26T12:13:32.000Z</time>
      </trkpt>
      <trkpt lat="47.24371" lon="6.06903">
        <ele>247</ele>
        <time>2016-3-26T12:13:32.000Z</time>
      </trkpt>
      <trkpt lat="47.24373" lon="6.06903">
        <ele>247</ele>
        <time>2016-3-26T12:13:32.000Z</time>
      </trkpt>
      <trkpt lat="47.24374" lon="6.06904">
        <ele>247</ele>
        <time>2016-3-26T12:13:32.000Z</time>
      </trkpt>
      <trkpt lat="47.24376" lon="6.06905">
        <ele>247</ele>
        <time>2016-3-26T12:13:32.000Z</time>
      </trkpt>
      <trkpt lat="47.24377" lon="6.06906">
        <ele>247</ele>
        <time>2016-3-26T12:13:32.000Z</time>
      </trkpt>
      <trkpt lat="47.24378" lon="6.06908">
        <ele>247</ele>
        <time>2016-3-26T12:13:32.000Z</time>
      </trkpt>
      <trkpt lat="47.24379" lon="6.06909">
        <ele>247</ele>
        <time>2016-3-26T12:13:32.000Z</time>
      </trkpt>
      <trkpt lat="47.24381" lon="6.0691">
        <ele>247</ele>
        <time>2016-3-26T12:13:32.000Z</time>
      </trkpt>
      <trkpt lat="47.24382" lon="6.06912">
        <ele>247</ele>
        <time>2016-3-26T12:13:32.000Z</time>
      </trkpt>
      <trkpt lat="47.24383" lon="6.06913">
        <ele>246</ele>
        <time>2016-3-26T12:13:32.000Z</time>
      </trkpt>
      <trkpt lat="47.24385" lon="6.06914">
        <ele>247</ele>
        <time>2016-3-26T12:13:32.000Z</time>
      </trkpt>
      <trkpt lat="47.24386" lon="6.06915">
        <ele>247</ele>
        <time>2016-3-26T12:13:32.000Z</time>
      </trkpt>
      <trkpt lat="47.24387" lon="6.06916">
        <ele>247</ele>
        <time>2016-3-26T12:13:32.000Z</time>
      </trkpt>
      <trkpt lat="47.24389" lon="6.06917">
        <ele>247</ele>
        <time>2016-3-26T12:13:32.000Z</time>
      </trkpt>
      <trkpt lat="47.24391" lon="6.0692">
        <ele>247</ele>
        <time>2016-3-26T12:13:32.000Z</time>
      </trkpt>
      <trkpt lat="47.24392" lon="6.06922">
        <ele>245</ele>
        <time>2016-3-26T12:13:32.000Z</time>
      </trkpt>
      <trkpt lat="47.24394" lon="6.06925">
        <ele>246</ele>
        <time>2016-3-26T12:13:32.000Z</time>
      </trkpt>
      <trkpt lat="47.24396" lon="6.06927">
        <ele>246</ele>
        <time>2016-3-26T12:13:32.000Z</time>
      </trkpt>
      <trkpt lat="47.24397" lon="6.0693">
        <ele>245</ele>
        <time>2016-3-26T12:13:32.000Z</time>
      </trkpt>
      <trkpt lat="47.24399" lon="6.06932">
        <ele>245</ele>
        <time>2016-3-26T12:13:32.000Z</time>
      </trkpt>
      <trkpt lat="47.24401" lon="6.06935">
        <ele>244</ele>
        <time>2016-3-26T12:13:32.000Z</time>
      </trkpt>
      <trkpt lat="47.24402" lon="6.06936">
        <ele>244</ele>
        <time>2016-3-26T12:13:32.000Z</time>
      </trkpt>
      <trkpt lat="47.24404" lon="6.06937">
        <ele>244</ele>
        <time>2016-3-26T12:13:32.000Z</time>
      </trkpt>
      <trkpt lat="47.24405" lon="6.0694">
        <ele>245</ele>
        <time>2016-3-26T12:13:32.000Z</time>
      </trkpt>
      <trkpt lat="47.24407" lon="6.06943">
        <ele>244</ele>
        <time>2016-3-26T12:13:32.000Z</time>
      </trkpt>
      <trkpt lat="47.24409" lon="6.06946">
        <ele>244</ele>
        <time>2016-3-26T12:13:32.000Z</time>
      </trkpt>
      <trkpt lat="47.2441" lon="6.06949">
        <ele>243</ele>
        <time>2016-3-26T12:13:32.000Z</time>
      </trkpt>
      <trkpt lat="47.24412" lon="6.06953">
        <ele>242</ele>
        <time>2016-3-26T12:13:32.000Z</time>
      </trkpt>
      <trkpt lat="47.24414" lon="6.06956">
        <ele>242</ele>
        <time>2016-3-26T12:13:32.000Z</time>
      </trkpt>
      <trkpt lat="47.24416" lon="6.06958">
        <ele>242</ele>
        <time>2016-3-26T12:13:32.000Z</time>
      </trkpt>
      <trkpt lat="47.24418" lon="6.06961">
        <ele>241</ele>
        <time>2016-3-26T12:13:32.000Z</time>
      </trkpt>
      <trkpt lat="47.24419" lon="6.06965">
        <ele>241</ele>
        <time>2016-3-26T12:13:32.000Z</time>
      </trkpt>
      <trkpt lat="47.2442" lon="6.06966">
        <ele>241</ele>
        <time>2016-3-26T12:13:32.000Z</time>
      </trkpt>
      <trkpt lat="47.24422" lon="6.06969">
        <ele>240</ele>
        <time>2016-3-26T12:13:32.000Z</time>
      </trkpt>
      <trkpt lat="47.24424" lon="6.06972">
        <ele>241</ele>
        <time>2016-3-26T12:13:32.000Z</time>
      </trkpt>
      <trkpt lat="47.24426" lon="6.06974">
        <ele>241</ele>
        <time>2016-3-26T12:13:32.000Z</time>
      </trkpt>
      <trkpt lat="47.24428" lon="6.06976">
        <ele>241</ele>
        <time>2016-3-26T12:13:32.000Z</time>
      </trkpt>
      <trkpt lat="47.2443" lon="6.06978">
        <ele>242</ele>
        <time>2016-3-26T12:13:32.000Z</time>
      </trkpt>
      <trkpt lat="47.24432" lon="6.06979">
        <ele>241</ele>
        <time>2016-3-26T12:13:32.000Z</time>
      </trkpt>
      <trkpt lat="47.24433" lon="6.0698">
        <ele>241</ele>
        <time>2016-3-26T12:13:32.000Z</time>
      </trkpt>
      <trkpt lat="47.24434" lon="6.06982">
        <ele>241</ele>
        <time>2016-3-26T12:13:32.000Z</time>
      </trkpt>
      <trkpt lat="47.24436" lon="6.06983">
        <ele>243</ele>
        <time>2016-3-26T12:13:32.000Z</time>
      </trkpt>
      <trkpt lat="47.24437" lon="6.06984">
        <ele>243</ele>
        <time>2016-3-26T12:13:32.000Z</time>
      </trkpt>
      <trkpt lat="47.24438" lon="6.06985">
        <ele>243</ele>
        <time>2016-3-26T12:13:32.000Z</time>
      </trkpt>
      <trkpt lat="47.2444" lon="6.06987">
        <ele>243</ele>
        <time>2016-3-26T12:13:32.000Z</time>
      </trkpt>
      <trkpt lat="47.24441" lon="6.06988">
        <ele>244</ele>
        <time>2016-3-26T12:13:32.000Z</time>
      </trkpt>
      <trkpt lat="47.24443" lon="6.06988">
        <ele>244</ele>
        <time>2016-3-26T12:13:32.000Z</time>
      </trkpt>
      <trkpt lat="47.24444" lon="6.06989">
        <ele>243</ele>
        <time>2016-3-26T12:13:32.000Z</time>
      </trkpt>
      <trkpt lat="47.24445" lon="6.0699">
        <ele>242</ele>
        <time>2016-3-26T12:13:32.000Z</time>
      </trkpt>
      <trkpt lat="47.24447" lon="6.06991">
        <ele>243</ele>
        <time>2016-3-26T12:13:32.000Z</time>
      </trkpt>
      <trkpt lat="47.24448" lon="6.06992">
        <ele>242</ele>
        <time>2016-3-26T12:13:32.000Z</time>
      </trkpt>
      <trkpt lat="47.2445" lon="6.06993">
        <ele>245</ele>
        <time>2016-3-26T12:13:32.000Z</time>
      </trkpt>
      <trkpt lat="47.24451" lon="6.06994">
        <ele>244</ele>
        <time>2016-3-26T12:13:32.000Z</time>
      </trkpt>
      <trkpt lat="47.24453" lon="6.06995">
        <ele>245</ele>
        <time>2016-3-26T12:13:32.000Z</time>
      </trkpt>
      <trkpt lat="47.24455" lon="6.06998">
        <ele>244</ele>
        <time>2016-3-26T12:13:32.000Z</time>
      </trkpt>
      <trkpt lat="47.24456" lon="6.06999">
        <ele>245</ele>
        <time>2016-3-26T12:13:32.000Z</time>
      </trkpt>
      <trkpt lat="47.24458" lon="6.07001">
        <ele>245</ele>
        <time>2016-3-26T12:13:32.000Z</time>
      </trkpt>
      <trkpt lat="47.24459" lon="6.07002">
        <ele>246</ele>
        <time>2016-3-26T12:13:32.000Z</time>
      </trkpt>
      <trkpt lat="47.24461" lon="6.07003">
        <ele>246</ele>
        <time>2016-3-26T12:13:32.000Z</time>
      </trkpt>
      <trkpt lat="47.24462" lon="6.07004">
        <ele>246</ele>
        <time>2016-3-26T12:13:32.000Z</time>
      </trkpt>
      <trkpt lat="47.24464" lon="6.07005">
        <ele>247</ele>
        <time>2016-3-26T12:13:32.000Z</time>
      </trkpt>
      <trkpt lat="47.24465" lon="6.07006">
        <ele>246</ele>
        <time>2016-3-26T12:13:32.000Z</time>
      </trkpt>
      <trkpt lat="47.24467" lon="6.07007">
        <ele>247</ele>
        <time>2016-3-26T12:13:32.000Z</time>
      </trkpt>
      <trkpt lat="47.24468" lon="6.07008">
        <ele>247</ele>
        <time>2016-3-26T12:13:32.000Z</time>
      </trkpt>
      <trkpt lat="47.2447" lon="6.0701">
        <ele>247</ele>
        <time>2016-3-26T12:13:32.000Z</time>
      </trkpt>
      <trkpt lat="47.24471" lon="6.07011">
        <ele>248</ele>
        <time>2016-3-26T12:13:32.000Z</time>
      </trkpt>
      <trkpt lat="47.24472" lon="6.07012">
        <ele>247</ele>
        <time>2016-3-26T12:13:32.000Z</time>
      </trkpt>
      <trkpt lat="47.24474" lon="6.07015">
        <ele>244</ele>
        <time>2016-3-26T12:13:32.000Z</time>
      </trkpt>
      <trkpt lat="47.24475" lon="6.07017">
        <ele>243</ele>
        <time>2016-3-26T12:13:32.000Z</time>
      </trkpt>
      <trkpt lat="47.24477" lon="6.07019">
        <ele>244</ele>
        <time>2016-3-26T12:13:32.000Z</time>
      </trkpt>
      <trkpt lat="47.24477" lon="6.07021">
        <ele>245</ele>
        <time>2016-3-26T12:13:32.000Z</time>
      </trkpt>
      <trkpt lat="47.24479" lon="6.07024">
        <ele>245</ele>
        <time>2016-3-26T12:13:32.000Z</time>
      </trkpt>
      <trkpt lat="47.24482" lon="6.07027">
        <ele>246</ele>
        <time>2016-3-26T12:13:32.000Z</time>
      </trkpt>
      <trkpt lat="47.24483" lon="6.07028">
        <ele>246</ele>
        <time>2016-3-26T12:13:32.000Z</time>
      </trkpt>
      <trkpt lat="47.24484" lon="6.0703">
        <ele>246</ele>
        <time>2016-3-26T12:13:32.000Z</time>
      </trkpt>
      <trkpt lat="47.24486" lon="6.07031">
        <ele>246</ele>
        <time>2016-3-26T12:13:32.000Z</time>
      </trkpt>
      <trkpt lat="47.24487" lon="6.07032">
        <ele>246</ele>
        <time>2016-3-26T12:13:32.000Z</time>
      </trkpt>
      <trkpt lat="47.24489" lon="6.07033">
        <ele>246</ele>
        <time>2016-3-26T12:13:32.000Z</time>
      </trkpt>
      <trkpt lat="47.2449" lon="6.07034">
        <ele>246</ele>
        <time>2016-3-26T12:13:32.000Z</time>
      </trkpt>
      <trkpt lat="47.24492" lon="6.07035">
        <ele>246</ele>
        <time>2016-3-26T12:13:32.000Z</time>
      </trkpt>
      <trkpt lat="47.24493" lon="6.07036">
        <ele>247</ele>
        <time>2016-3-26T12:13:32.000Z</time>
      </trkpt>
      <trkpt lat="47.24493" lon="6.07039">
        <ele>245</ele>
        <time>2016-3-26T12:13:32.000Z</time>
      </trkpt>
      <trkpt lat="47.24494" lon="6.07041">
        <ele>246</ele>
        <time>2016-3-26T12:13:32.000Z</time>
      </trkpt>
      <trkpt lat="47.24495" lon="6.07045">
        <ele>247</ele>
        <time>2016-3-26T12:13:32.000Z</time>
      </trkpt>
      <trkpt lat="47.24496" lon="6.07049">
        <ele>247</ele>
        <time>2016-3-26T12:13:32.000Z</time>
      </trkpt>
      <trkpt lat="47.24497" lon="6.07053">
        <ele>247</ele>
        <time>2016-3-26T12:13:32.000Z</time>
      </trkpt>
      <trkpt lat="47.24498" lon="6.07056">
        <ele>247</ele>
        <time>2016-3-26T12:13:32.000Z</time>
      </trkpt>
      <trkpt lat="47.24498" lon="6.0706">
        <ele>246</ele>
        <time>2016-3-26T12:13:32.000Z</time>
      </trkpt>
      <trkpt lat="47.24499" lon="6.07061">
        <ele>247</ele>
        <time>2016-3-26T12:13:32.000Z</time>
      </trkpt>
      <trkpt lat="47.24501" lon="6.07064">
        <ele>246</ele>
        <time>2016-3-26T12:13:32.000Z</time>
      </trkpt>
      <trkpt lat="47.24503" lon="6.07067">
        <ele>246</ele>
        <time>2016-3-26T12:13:32.000Z</time>
      </trkpt>
      <trkpt lat="47.24503" lon="6.07071">
        <ele>245</ele>
        <time>2016-3-26T12:13:32.000Z</time>
      </trkpt>
      <trkpt lat="47.24504" lon="6.07074">
        <ele>247</ele>
        <time>2016-3-26T12:13:32.000Z</time>
      </trkpt>
      <trkpt lat="47.24504" lon="6.07078">
        <ele>247</ele>
        <time>2016-3-26T12:13:32.000Z</time>
      </trkpt>
      <trkpt lat="47.24504" lon="6.07081">
        <ele>247</ele>
        <time>2016-3-26T12:13:32.000Z</time>
      </trkpt>
      <trkpt lat="47.24506" lon="6.07085">
        <ele>249</ele>
        <time>2016-3-26T12:13:32.000Z</time>
      </trkpt>
      <trkpt lat="47.24507" lon="6.07088">
        <ele>248</ele>
        <time>2016-3-26T12:13:32.000Z</time>
      </trkpt>
      <trkpt lat="47.24507" lon="6.0709">
        <ele>248</ele>
        <time>2016-3-26T12:13:32.000Z</time>
      </trkpt>
      <trkpt lat="47.24508" lon="6.07093">
        <ele>248</ele>
        <time>2016-3-26T12:13:32.000Z</time>
      </trkpt>
      <trkpt lat="47.2451" lon="6.07095">
        <ele>250</ele>
        <time>2016-3-26T12:16:22.000Z</time>
      </trkpt>
      <trkpt lat="47.24511" lon="6.07097">
        <ele>250</ele>
        <time>2016-3-26T12:16:22.000Z</time>
      </trkpt>
      <trkpt lat="47.24512" lon="6.07099">
        <ele>251</ele>
        <time>2016-3-26T12:16:22.000Z</time>
      </trkpt>
      <trkpt lat="47.24513" lon="6.07102">
        <ele>251</ele>
        <time>2016-3-26T12:16:22.000Z</time>
      </trkpt>
      <trkpt lat="47.24514" lon="6.07104">
        <ele>251</ele>
        <time>2016-3-26T12:16:22.000Z</time>
      </trkpt>
      <trkpt lat="47.24515" lon="6.07108">
        <ele>250</ele>
        <time>2016-3-26T12:16:22.000Z</time>
      </trkpt>
      <trkpt lat="47.24516" lon="6.07111">
        <ele>252</ele>
        <time>2016-3-26T12:16:22.000Z</time>
      </trkpt>
      <trkpt lat="47.24518" lon="6.07115">
        <ele>252</ele>
        <time>2016-3-26T12:16:22.000Z</time>
      </trkpt>
      <trkpt lat="47.24519" lon="6.07118">
        <ele>253</ele>
        <time>2016-3-26T12:16:22.000Z</time>
      </trkpt>
      <trkpt lat="47.24519" lon="6.07121">
        <ele>254</ele>
        <time>2016-3-26T12:16:22.000Z</time>
      </trkpt>
      <trkpt lat="47.2452" lon="6.07124">
        <ele>256</ele>
        <time>2016-3-26T12:16:22.000Z</time>
      </trkpt>
      <trkpt lat="47.24521" lon="6.07126">
        <ele>255</ele>
        <time>2016-3-26T12:16:22.000Z</time>
      </trkpt>
      <trkpt lat="47.24523" lon="6.07129">
        <ele>256</ele>
        <time>2016-3-26T12:16:22.000Z</time>
      </trkpt>
      <trkpt lat="47.24525" lon="6.07132">
        <ele>258</ele>
        <time>2016-3-26T12:16:22.000Z</time>
      </trkpt>
      <trkpt lat="47.24527" lon="6.07134">
        <ele>259</ele>
        <time>2016-3-26T12:16:22.000Z</time>
      </trkpt>
      <trkpt lat="47.24528" lon="6.07137">
        <ele>258</ele>
        <time>2016-3-26T12:16:22.000Z</time>
      </trkpt>
      <trkpt lat="47.24529" lon="6.07141">
        <ele>257</ele>
        <time>2016-3-26T12:16:22.000Z</time>
      </trkpt>
      <trkpt lat="47.24529" lon="6.07145">
        <ele>256</ele>
        <time>2016-3-26T12:16:22.000Z</time>
      </trkpt>
      <trkpt lat="47.2453" lon="6.07149">
        <ele>253</ele>
        <time>2016-3-26T12:16:22.000Z</time>
      </trkpt>
      <trkpt lat="47.24531" lon="6.07151">
        <ele>252</ele>
        <time>2016-3-26T12:16:22.000Z</time>
      </trkpt>
      <trkpt lat="47.24531" lon="6.07153">
        <ele>252</ele>
        <time>2016-3-26T12:16:22.000Z</time>
      </trkpt>
      <trkpt lat="47.24532" lon="6.07154">
        <ele>252</ele>
        <time>2016-3-26T12:16:22.000Z</time>
      </trkpt>
      <trkpt lat="47.24533" lon="6.07156">
        <ele>253</ele>
        <time>2016-3-26T12:16:22.000Z</time>
      </trkpt>
      <trkpt lat="47.24534" lon="6.07158">
        <ele>255</ele>
        <time>2016-3-26T12:16:22.000Z</time>
      </trkpt>
      <trkpt lat="47.24535" lon="6.07159">
        <ele>255</ele>
        <time>2016-3-26T12:16:22.000Z</time>
      </trkpt>
      <trkpt lat="47.24536" lon="6.07161">
        <ele>256</ele>
        <time>2016-3-26T12:16:22.000Z</time>
      </trkpt>
      <trkpt lat="47.24537" lon="6.07162">
        <ele>258</ele>
        <time>2016-3-26T12:16:22.000Z</time>
      </trkpt>
      <trkpt lat="47.24539" lon="6.07163">
        <ele>259</ele>
        <time>2016-3-26T12:16:22.000Z</time>
      </trkpt>
      <trkpt lat="47.2454" lon="6.07165">
        <ele>260</ele>
        <time>2016-3-26T12:16:22.000Z</time>
      </trkpt>
      <trkpt lat="47.24542" lon="6.07167">
        <ele>260</ele>
        <time>2016-3-26T12:16:22.000Z</time>
      </trkpt>
      <trkpt lat="47.24543" lon="6.07169">
        <ele>261</ele>
        <time>2016-3-26T12:16:22.000Z</time>
      </trkpt>
      <trkpt lat="47.24545" lon="6.07171">
        <ele>261</ele>
        <time>2016-3-26T12:16:22.000Z</time>
      </trkpt>
      <trkpt lat="47.24546" lon="6.07173">
        <ele>260</ele>
        <time>2016-3-26T12:16:22.000Z</time>
      </trkpt>
      <trkpt lat="47.24547" lon="6.07176">
        <ele>261</ele>
        <time>2016-3-26T12:16:22.000Z</time>
      </trkpt>
      <trkpt lat="47.24548" lon="6.07178">
        <ele>259</ele>
        <time>2016-3-26T12:16:22.000Z</time>
      </trkpt>
      <trkpt lat="47.24549" lon="6.0718">
        <ele>258</ele>
        <time>2016-3-26T12:16:22.000Z</time>
      </trkpt>
      <trkpt lat="47.24549" lon="6.07182">
        <ele>257</ele>
        <time>2016-3-26T12:16:22.000Z</time>
      </trkpt>
      <trkpt lat="47.24549" lon="6.07184">
        <ele>257</ele>
        <time>2016-3-26T12:16:22.000Z</time>
      </trkpt>
      <trkpt lat="47.2455" lon="6.07188">
        <ele>259</ele>
        <time>2016-3-26T12:16:22.000Z</time>
      </trkpt>
      <trkpt lat="47.24551" lon="6.0719">
        <ele>260</ele>
        <time>2016-3-26T12:16:22.000Z</time>
      </trkpt>
      <trkpt lat="47.24551" lon="6.07193">
        <ele>261</ele>
        <time>2016-3-26T12:16:22.000Z</time>
      </trkpt>
      <trkpt lat="47.24551" lon="6.07195">
        <ele>261</ele>
        <time>2016-3-26T12:16:22.000Z</time>
      </trkpt>
      <trkpt lat="47.2455" lon="6.07197">
        <ele>260</ele>
        <time>2016-3-26T12:16:22.000Z</time>
      </trkpt>
      <trkpt lat="47.24549" lon="6.07199">
        <ele>261</ele>
        <time>2016-3-26T12:16:22.000Z</time>
      </trkpt>
      <trkpt lat="47.24548" lon="6.07203">
        <ele>262</ele>
        <time>2016-3-26T12:16:22.000Z</time>
      </trkpt>
      <trkpt lat="47.24549" lon="6.07207">
        <ele>262</ele>
        <time>2016-3-26T12:16:22.000Z</time>
      </trkpt>
      <trkpt lat="47.24549" lon="6.07209">
        <ele>264</ele>
        <time>2016-3-26T12:16:22.000Z</time>
      </trkpt>
      <trkpt lat="47.24548" lon="6.07211">
        <ele>264</ele>
        <time>2016-3-26T12:16:22.000Z</time>
      </trkpt>
      <trkpt lat="47.24548" lon="6.07213">
        <ele>264</ele>
        <time>2016-3-26T12:16:22.000Z</time>
      </trkpt>
      <trkpt lat="47.24548" lon="6.07216">
        <ele>262</ele>
        <time>2016-3-26T12:16:22.000Z</time>
      </trkpt>
      <trkpt lat="47.24547" lon="6.07218">
        <ele>261</ele>
        <time>2016-3-26T12:16:22.000Z</time>
      </trkpt>
      <trkpt lat="47.24546" lon="6.0722">
        <ele>261</ele>
        <time>2016-3-26T12:16:22.000Z</time>
      </trkpt>
      <trkpt lat="47.24545" lon="6.07222">
        <ele>261</ele>
        <time>2016-3-26T12:16:22.000Z</time>
      </trkpt>
      <trkpt lat="47.24545" lon="6.07224">
        <ele>261</ele>
        <time>2016-3-26T12:16:22.000Z</time>
      </trkpt>
      <trkpt lat="47.24543" lon="6.07227">
        <ele>259</ele>
        <time>2016-3-26T12:16:22.000Z</time>
      </trkpt>
      <trkpt lat="47.24541" lon="6.07229">
        <ele>258</ele>
        <time>2016-3-26T12:16:22.000Z</time>
      </trkpt>
      <trkpt lat="47.24542" lon="6.07233">
        <ele>260</ele>
        <time>2016-3-26T12:16:22.000Z</time>
      </trkpt>
      <trkpt lat="47.24543" lon="6.07235">
        <ele>261</ele>
        <time>2016-3-26T12:16:22.000Z</time>
      </trkpt>
      <trkpt lat="47.24544" lon="6.07238">
        <ele>261</ele>
        <time>2016-3-26T12:16:22.000Z</time>
      </trkpt>
      <trkpt lat="47.24545" lon="6.07241">
        <ele>262</ele>
        <time>2016-3-26T12:16:22.000Z</time>
      </trkpt>
      <trkpt lat="47.24545" lon="6.07245">
        <ele>261</ele>
        <time>2016-3-26T12:16:22.000Z</time>
      </trkpt>
      <trkpt lat="47.24545" lon="6.07248">
        <ele>261</ele>
        <time>2016-3-26T12:16:22.000Z</time>
      </trkpt>
      <trkpt lat="47.24545" lon="6.0725">
        <ele>261</ele>
        <time>2016-3-26T12:16:22.000Z</time>
      </trkpt>
      <trkpt lat="47.24545" lon="6.07254">
        <ele>262</ele>
        <time>2016-3-26T12:16:22.000Z</time>
      </trkpt>
      <trkpt lat="47.24546" lon="6.07257">
        <ele>264</ele>
        <time>2016-3-26T12:16:22.000Z</time>
      </trkpt>
      <trkpt lat="47.24547" lon="6.07261">
        <ele>264</ele>
        <time>2016-3-26T12:16:22.000Z</time>
      </trkpt>
      <trkpt lat="47.24547" lon="6.07265">
        <ele>263</ele>
        <time>2016-3-26T12:16:22.000Z</time>
      </trkpt>
      <trkpt lat="47.24549" lon="6.07268">
        <ele>265</ele>
        <time>2016-3-26T12:16:22.000Z</time>
      </trkpt>
      <trkpt lat="47.2455" lon="6.07269">
        <ele>266</ele>
        <time>2016-3-26T12:16:22.000Z</time>
      </trkpt>
      <trkpt lat="47.24551" lon="6.07271">
        <ele>266</ele>
        <time>2016-3-26T12:16:22.000Z</time>
      </trkpt>
      <trkpt lat="47.24552" lon="6.07273">
        <ele>266</ele>
        <time>2016-3-26T12:16:22.000Z</time>
      </trkpt>
      <trkpt lat="47.24553" lon="6.07275">
        <ele>266</ele>
        <time>2016-3-26T12:16:22.000Z</time>
      </trkpt>
      <trkpt lat="47.24554" lon="6.07277">
        <ele>266</ele>
        <time>2016-3-26T12:16:22.000Z</time>
      </trkpt>
      <trkpt lat="47.24555" lon="6.07279">
        <ele>266</ele>
        <time>2016-3-26T12:16:22.000Z</time>
      </trkpt>
      <trkpt lat="47.24556" lon="6.07282">
        <ele>266</ele>
        <time>2016-3-26T12:16:22.000Z</time>
      </trkpt>
      <trkpt lat="47.24557" lon="6.07284">
        <ele>266</ele>
        <time>2016-3-26T12:16:22.000Z</time>
      </trkpt>
      <trkpt lat="47.24559" lon="6.07286">
        <ele>266</ele>
        <time>2016-3-26T12:16:22.000Z</time>
      </trkpt>
      <trkpt lat="47.2456" lon="6.07288">
        <ele>266</ele>
        <time>2016-3-26T12:16:22.000Z</time>
      </trkpt>
      <trkpt lat="47.24562" lon="6.0729">
        <ele>266</ele>
        <time>2016-3-26T12:16:22.000Z</time>
      </trkpt>
      <trkpt lat="47.24564" lon="6.07292">
        <ele>266</ele>
        <time>2016-3-26T12:16:22.000Z</time>
      </trkpt>
      <trkpt lat="47.24566" lon="6.07293">
        <ele>268</ele>
        <time>2016-3-26T12:16:22.000Z</time>
      </trkpt>
      <trkpt lat="47.24568" lon="6.07294">
        <ele>271</ele>
        <time>2016-3-26T12:16:22.000Z</time>
      </trkpt>
      <trkpt lat="47.24571" lon="6.07295">
        <ele>270</ele>
        <time>2016-3-26T12:16:22.000Z</time>
      </trkpt>
      <trkpt lat="47.24573" lon="6.07296">
        <ele>271</ele>
        <time>2016-3-26T12:16:22.000Z</time>
      </trkpt>
      <trkpt lat="47.24576" lon="6.07298">
        <ele>273</ele>
        <time>2016-3-26T12:16:22.000Z</time>
      </trkpt>
      <trkpt lat="47.24578" lon="6.073">
        <ele>276</ele>
        <time>2016-3-26T12:16:22.000Z</time>
      </trkpt>
      <trkpt lat="47.2458" lon="6.073">
        <ele>277</ele>
        <time>2016-3-26T12:16:22.000Z</time>
      </trkpt>
      <trkpt lat="47.24583" lon="6.07301">
        <ele>276</ele>
        <time>2016-3-26T12:16:22.000Z</time>
      </trkpt>
      <trkpt lat="47.24584" lon="6.07302">
        <ele>277</ele>
        <time>2016-3-26T12:16:22.000Z</time>
      </trkpt>
      <trkpt lat="47.24585" lon="6.07303">
        <ele>277</ele>
        <time>2016-3-26T12:16:22.000Z</time>
      </trkpt>
      <trkpt lat="47.24587" lon="6.07303">
        <ele>277</ele>
        <time>2016-3-26T12:16:22.000Z</time>
      </trkpt>
      <trkpt lat="47.24588" lon="6.07304">
        <ele>278</ele>
        <time>2016-3-26T12:16:22.000Z</time>
      </trkpt>
      <trkpt lat="47.2459" lon="6.07305">
        <ele>278</ele>
        <time>2016-3-26T12:16:22.000Z</time>
      </trkpt>
      <trkpt lat="47.24592" lon="6.07308">
        <ele>279</ele>
        <time>2016-3-26T12:16:22.000Z</time>
      </trkpt>
      <trkpt lat="47.24593" lon="6.07309">
        <ele>278</ele>
        <time>2016-3-26T12:16:22.000Z</time>
      </trkpt>
      <trkpt lat="47.24594" lon="6.0731">
        <ele>278</ele>
        <time>2016-3-26T12:16:22.000Z</time>
      </trkpt>
      <trkpt lat="47.24597" lon="6.07311">
        <ele>277</ele>
        <time>2016-3-26T12:16:22.000Z</time>
      </trkpt>
      <trkpt lat="47.24598" lon="6.07313">
        <ele>276</ele>
        <time>2016-3-26T12:16:22.000Z</time>
      </trkpt>
      <trkpt lat="47.24599" lon="6.07316">
        <ele>275</ele>
        <time>2016-3-26T12:16:22.000Z</time>
      </trkpt>
      <trkpt lat="47.24601" lon="6.07318">
        <ele>275</ele>
        <time>2016-3-26T12:16:22.000Z</time>
      </trkpt>
      <trkpt lat="47.24603" lon="6.07319">
        <ele>275</ele>
        <time>2016-3-26T12:16:22.000Z</time>
      </trkpt>
      <trkpt lat="47.24605" lon="6.07321">
        <ele>275</ele>
        <time>2016-3-26T12:19:42.000Z</time>
      </trkpt>
      <trkpt lat="47.24606" lon="6.07323">
        <ele>275</ele>
        <time>2016-3-26T12:19:42.000Z</time>
      </trkpt>
      <trkpt lat="47.24608" lon="6.07326">
        <ele>276</ele>
        <time>2016-3-26T12:19:42.000Z</time>
      </trkpt>
      <trkpt lat="47.24609" lon="6.07328">
        <ele>276</ele>
        <time>2016-3-26T12:19:42.000Z</time>
      </trkpt>
      <trkpt lat="47.24611" lon="6.07331">
        <ele>275</ele>
        <time>2016-3-26T12:19:42.000Z</time>
      </trkpt>
      <trkpt lat="47.24613" lon="6.07333">
        <ele>274</ele>
        <time>2016-3-26T12:19:42.000Z</time>
      </trkpt>
      <trkpt lat="47.24615" lon="6.07334">
        <ele>275</ele>
        <time>2016-3-26T12:19:42.000Z</time>
      </trkpt>
      <trkpt lat="47.24617" lon="6.07337">
        <ele>275</ele>
        <time>2016-3-26T12:19:42.000Z</time>
      </trkpt>
      <trkpt lat="47.24618" lon="6.07339">
        <ele>276</ele>
        <time>2016-3-26T12:19:42.000Z</time>
      </trkpt>
      <trkpt lat="47.24619" lon="6.07342">
        <ele>277</ele>
        <time>2016-3-26T12:19:42.000Z</time>
      </trkpt>
      <trkpt lat="47.2462" lon="6.07344">
        <ele>275</ele>
        <time>2016-3-26T12:19:42.000Z</time>
      </trkpt>
      <trkpt lat="47.24621" lon="6.07347">
        <ele>276</ele>
        <time>2016-3-26T12:19:42.000Z</time>
      </trkpt>
      <trkpt lat="47.24623" lon="6.07349">
        <ele>277</ele>
        <time>2016-3-26T12:19:42.000Z</time>
      </trkpt>
      <trkpt lat="47.24624" lon="6.07352">
        <ele>278</ele>
        <time>2016-3-26T12:19:42.000Z</time>
      </trkpt>
      <trkpt lat="47.24626" lon="6.07355">
        <ele>278</ele>
        <time>2016-3-26T12:19:42.000Z</time>
      </trkpt>
      <trkpt lat="47.24627" lon="6.07357">
        <ele>278</ele>
        <time>2016-3-26T12:19:42.000Z</time>
      </trkpt>
      <trkpt lat="47.24629" lon="6.0736">
        <ele>278</ele>
        <time>2016-3-26T12:19:42.000Z</time>
      </trkpt>
      <trkpt lat="47.2463" lon="6.07363">
        <ele>277</ele>
        <time>2016-3-26T12:19:42.000Z</time>
      </trkpt>
      <trkpt lat="47.24632" lon="6.07365">
        <ele>277</ele>
        <time>2016-3-26T12:19:42.000Z</time>
      </trkpt>
      <trkpt lat="47.24634" lon="6.07368">
        <ele>279</ele>
        <time>2016-3-26T12:19:42.000Z</time>
      </trkpt>
      <trkpt lat="47.24635" lon="6.07371">
        <ele>280</ele>
        <time>2016-3-26T12:19:42.000Z</time>
      </trkpt>
      <trkpt lat="47.24637" lon="6.07372">
        <ele>281</ele>
        <time>2016-3-26T12:19:42.000Z</time>
      </trkpt>
      <trkpt lat="47.24638" lon="6.07374">
        <ele>283</ele>
        <time>2016-3-26T12:19:42.000Z</time>
      </trkpt>
      <trkpt lat="47.2464" lon="6.07376">
        <ele>284</ele>
        <time>2016-3-26T12:19:42.000Z</time>
      </trkpt>
      <trkpt lat="47.24642" lon="6.07378">
        <ele>286</ele>
        <time>2016-3-26T12:19:42.000Z</time>
      </trkpt>
      <trkpt lat="47.24643" lon="6.0738">
        <ele>286</ele>
        <time>2016-3-26T12:19:42.000Z</time>
      </trkpt>
      <trkpt lat="47.24645" lon="6.07382">
        <ele>287</ele>
        <time>2016-3-26T12:19:42.000Z</time>
      </trkpt>
      <trkpt lat="47.24646" lon="6.07384">
        <ele>287</ele>
        <time>2016-3-26T12:19:42.000Z</time>
      </trkpt>
      <trkpt lat="47.24646" lon="6.07386">
        <ele>288</ele>
        <time>2016-3-26T12:19:42.000Z</time>
      </trkpt>
      <trkpt lat="47.24648" lon="6.07388">
        <ele>289</ele>
        <time>2016-3-26T12:19:42.000Z</time>
      </trkpt>
      <trkpt lat="47.24649" lon="6.0739">
        <ele>290</ele>
        <time>2016-3-26T12:19:42.000Z</time>
      </trkpt>
      <trkpt lat="47.24651" lon="6.07392">
        <ele>290</ele>
        <time>2016-3-26T12:19:42.000Z</time>
      </trkpt>
      <trkpt lat="47.24652" lon="6.07394">
        <ele>291</ele>
        <time>2016-3-26T12:19:42.000Z</time>
      </trkpt>
      <trkpt lat="47.24653" lon="6.07396">
        <ele>290</ele>
        <time>2016-3-26T12:19:42.000Z</time>
      </trkpt>
      <trkpt lat="47.24655" lon="6.07398">
        <ele>292</ele>
        <time>2016-3-26T12:19:42.000Z</time>
      </trkpt>
      <trkpt lat="47.24656" lon="6.074">
        <ele>292</ele>
        <time>2016-3-26T12:19:42.000Z</time>
      </trkpt>
      <trkpt lat="47.24654" lon="6.07401">
        <ele>293</ele>
        <time>2016-3-26T12:19:42.000Z</time>
      </trkpt>
      <trkpt lat="47.24654" lon="6.07404">
        <ele>291</ele>
        <time>2016-3-26T12:19:42.000Z</time>
      </trkpt>
      <trkpt lat="47.24656" lon="6.07407">
        <ele>293</ele>
        <time>2016-3-26T12:19:42.000Z</time>
      </trkpt>
      <trkpt lat="47.24657" lon="6.07408">
        <ele>293</ele>
        <time>2016-3-26T12:19:42.000Z</time>
      </trkpt>
      <trkpt lat="47.24658" lon="6.0741">
        <ele>294</ele>
        <time>2016-3-26T12:19:42.000Z</time>
      </trkpt>
      <trkpt lat="47.24659" lon="6.07411">
        <ele>293</ele>
        <time>2016-3-26T12:19:42.000Z</time>
      </trkpt>
      <trkpt lat="47.2466" lon="6.07413">
        <ele>293</ele>
        <time>2016-3-26T12:19:42.000Z</time>
      </trkpt>
      <trkpt lat="47.24661" lon="6.07415">
        <ele>294</ele>
        <time>2016-3-26T12:19:42.000Z</time>
      </trkpt>
      <trkpt lat="47.24661" lon="6.07417">
        <ele>295</ele>
        <time>2016-3-26T12:19:42.000Z</time>
      </trkpt>
      <trkpt lat="47.24662" lon="6.07419">
        <ele>296</ele>
        <time>2016-3-26T12:19:42.000Z</time>
      </trkpt>
      <trkpt lat="47.24663" lon="6.0742">
        <ele>296</ele>
        <time>2016-3-26T12:19:42.000Z</time>
      </trkpt>
      <trkpt lat="47.24665" lon="6.07421">
        <ele>295</ele>
        <time>2016-3-26T12:19:42.000Z</time>
      </trkpt>
      <trkpt lat="47.24667" lon="6.07423">
        <ele>295</ele>
        <time>2016-3-26T12:19:42.000Z</time>
      </trkpt>
      <trkpt lat="47.24668" lon="6.07426">
        <ele>296</ele>
        <time>2016-3-26T12:19:42.000Z</time>
      </trkpt>
      <trkpt lat="47.2467" lon="6.07428">
        <ele>296</ele>
        <time>2016-3-26T12:19:42.000Z</time>
      </trkpt>
      <trkpt lat="47.2467" lon="6.0743">
        <ele>297</ele>
        <time>2016-3-26T12:19:42.000Z</time>
      </trkpt>
      <trkpt lat="47.24671" lon="6.07432">
        <ele>298</ele>
        <time>2016-3-26T12:19:42.000Z</time>
      </trkpt>
      <trkpt lat="47.24672" lon="6.07433">
        <ele>298</ele>
        <time>2016-3-26T12:19:42.000Z</time>
      </trkpt>
      <trkpt lat="47.24673" lon="6.07435">
        <ele>299</ele>
        <time>2016-3-26T12:19:42.000Z</time>
      </trkpt>
      <trkpt lat="47.24674" lon="6.07438">
        <ele>298</ele>
        <time>2016-3-26T12:19:42.000Z</time>
      </trkpt>
      <trkpt lat="47.24675" lon="6.0744">
        <ele>299</ele>
        <time>2016-3-26T12:19:42.000Z</time>
      </trkpt>
      <trkpt lat="47.24676" lon="6.07442">
        <ele>300</ele>
        <time>2016-3-26T12:19:42.000Z</time>
      </trkpt>
      <trkpt lat="47.24678" lon="6.07444">
        <ele>301</ele>
        <time>2016-3-26T12:19:42.000Z</time>
      </trkpt>
      <trkpt lat="47.2468" lon="6.07445">
        <ele>302</ele>
        <time>2016-3-26T12:19:42.000Z</time>
      </trkpt>
      <trkpt lat="47.24682" lon="6.07447">
        <ele>303</ele>
        <time>2016-3-26T12:19:42.000Z</time>
      </trkpt>
      <trkpt lat="47.24684" lon="6.07449">
        <ele>304</ele>
        <time>2016-3-26T12:19:42.000Z</time>
      </trkpt>
      <trkpt lat="47.24685" lon="6.07451">
        <ele>304</ele>
        <time>2016-3-26T12:19:42.000Z</time>
      </trkpt>
      <trkpt lat="47.24687" lon="6.07453">
        <ele>305</ele>
        <time>2016-3-26T12:19:42.000Z</time>
      </trkpt>
      <trkpt lat="47.24688" lon="6.07455">
        <ele>305</ele>
        <time>2016-3-26T12:19:42.000Z</time>
      </trkpt>
      <trkpt lat="47.2469" lon="6.07457">
        <ele>306</ele>
        <time>2016-3-26T12:19:42.000Z</time>
      </trkpt>
      <trkpt lat="47.24691" lon="6.07458">
        <ele>305</ele>
        <time>2016-3-26T12:19:42.000Z</time>
      </trkpt>
      <trkpt lat="47.24692" lon="6.07461">
        <ele>306</ele>
        <time>2016-3-26T12:19:42.000Z</time>
      </trkpt>
      <trkpt lat="47.24693" lon="6.07463">
        <ele>306</ele>
        <time>2016-3-26T12:19:42.000Z</time>
      </trkpt>
      <trkpt lat="47.24695" lon="6.07466">
        <ele>305</ele>
        <time>2016-3-26T12:19:42.000Z</time>
      </trkpt>
      <trkpt lat="47.24697" lon="6.07469">
        <ele>304</ele>
        <time>2016-3-26T12:19:42.000Z</time>
      </trkpt>
      <trkpt lat="47.24698" lon="6.07471">
        <ele>303</ele>
        <time>2016-3-26T12:19:42.000Z</time>
      </trkpt>
      <trkpt lat="47.24699" lon="6.07473">
        <ele>303</ele>
        <time>2016-3-26T12:19:42.000Z</time>
      </trkpt>
      <trkpt lat="47.24701" lon="6.07475">
        <ele>303</ele>
        <time>2016-3-26T12:19:42.000Z</time>
      </trkpt>
      <trkpt lat="47.24703" lon="6.07478">
        <ele>303</ele>
        <time>2016-3-26T12:19:42.000Z</time>
      </trkpt>
      <trkpt lat="47.24704" lon="6.07482">
        <ele>304</ele>
        <time>2016-3-26T12:19:42.000Z</time>
      </trkpt>
      <trkpt lat="47.24706" lon="6.07485">
        <ele>304</ele>
        <time>2016-3-26T12:19:42.000Z</time>
      </trkpt>
      <trkpt lat="47.24707" lon="6.07487">
        <ele>305</ele>
        <time>2016-3-26T12:19:42.000Z</time>
      </trkpt>
      <trkpt lat="47.24708" lon="6.07489">
        <ele>306</ele>
        <time>2016-3-26T12:19:42.000Z</time>
      </trkpt>
      <trkpt lat="47.24709" lon="6.07491">
        <ele>307</ele>
        <time>2016-3-26T12:19:42.000Z</time>
      </trkpt>
      <trkpt lat="47.2471" lon="6.07493">
        <ele>308</ele>
        <time>2016-3-26T12:19:42.000Z</time>
      </trkpt>
      <trkpt lat="47.24712" lon="6.07496">
        <ele>310</ele>
        <time>2016-3-26T12:19:42.000Z</time>
      </trkpt>
      <trkpt lat="47.24713" lon="6.07497">
        <ele>310</ele>
        <time>2016-3-26T12:19:42.000Z</time>
      </trkpt>
      <trkpt lat="47.24715" lon="6.075">
        <ele>311</ele>
        <time>2016-3-26T12:19:42.000Z</time>
      </trkpt>
      <trkpt lat="47.24716" lon="6.07503">
        <ele>311</ele>
        <time>2016-3-26T12:19:42.000Z</time>
      </trkpt>
      <trkpt lat="47.24717" lon="6.07506">
        <ele>311</ele>
        <time>2016-3-26T12:19:42.000Z</time>
      </trkpt>
      <trkpt lat="47.24717" lon="6.07509">
        <ele>311</ele>
        <time>2016-3-26T12:19:42.000Z</time>
      </trkpt>
      <trkpt lat="47.24719" lon="6.0751">
        <ele>312</ele>
        <time>2016-3-26T12:19:42.000Z</time>
      </trkpt>
      <trkpt lat="47.2472" lon="6.07513">
        <ele>312</ele>
        <time>2016-3-26T12:19:42.000Z</time>
      </trkpt>
      <trkpt lat="47.24721" lon="6.07516">
        <ele>312</ele>
        <time>2016-3-26T12:19:42.000Z</time>
      </trkpt>
      <trkpt lat="47.24722" lon="6.07518">
        <ele>313</ele>
        <time>2016-3-26T12:19:42.000Z</time>
      </trkpt>
      <trkpt lat="47.24724" lon="6.0752">
        <ele>313</ele>
        <time>2016-3-26T12:19:42.000Z</time>
      </trkpt>
      <trkpt lat="47.24725" lon="6.07522">
        <ele>313</ele>
        <time>2016-3-26T12:19:42.000Z</time>
      </trkpt>
      <trkpt lat="47.24727" lon="6.07525">
        <ele>311</ele>
        <time>2016-3-26T12:19:42.000Z</time>
      </trkpt>
      <trkpt lat="47.24728" lon="6.07529">
        <ele>310</ele>
        <time>2016-3-26T12:19:42.000Z</time>
      </trkpt>
      <trkpt lat="47.24729" lon="6.07532">
        <ele>313</ele>
        <time>2016-3-26T12:19:42.000Z</time>
      </trkpt>
      <trkpt lat="47.2473" lon="6.07534">
        <ele>314</ele>
        <time>2016-3-26T12:19:42.000Z</time>
      </trkpt>
      <trkpt lat="47.24731" lon="6.07536">
        <ele>315</ele>
        <time>2016-3-26T12:19:42.000Z</time>
      </trkpt>
      <trkpt lat="47.24732" lon="6.07538">
        <ele>315</ele>
        <time>2016-3-26T12:19:42.000Z</time>
      </trkpt>
      <trkpt lat="47.24732" lon="6.0754">
        <ele>315</ele>
        <time>2016-3-26T12:19:42.000Z</time>
      </trkpt>
      <trkpt lat="47.24733" lon="6.07542">
        <ele>316</ele>
        <time>2016-3-26T12:19:42.000Z</time>
      </trkpt>
      <trkpt lat="47.24734" lon="6.07543">
        <ele>318</ele>
        <time>2016-3-26T12:23:24.000Z</time>
      </trkpt>
      <trkpt lat="47.24736" lon="6.07546">
        <ele>320</ele>
        <time>2016-3-26T12:23:24.000Z</time>
      </trkpt>
      <trkpt lat="47.24738" lon="6.07549">
        <ele>321</ele>
        <time>2016-3-26T12:23:24.000Z</time>
      </trkpt>
      <trkpt lat="47.24739" lon="6.07549">
        <ele>324</ele>
        <time>2016-3-26T12:23:24.000Z</time>
      </trkpt>
      <trkpt lat="47.2474" lon="6.07551">
        <ele>325</ele>
        <time>2016-3-26T12:23:24.000Z</time>
      </trkpt>
      <trkpt lat="47.24741" lon="6.07553">
        <ele>325</ele>
        <time>2016-3-26T12:23:24.000Z</time>
      </trkpt>
      <trkpt lat="47.24742" lon="6.07556">
        <ele>323</ele>
        <time>2016-3-26T12:23:24.000Z</time>
      </trkpt>
      <trkpt lat="47.24743" lon="6.0756">
        <ele>324</ele>
        <time>2016-3-26T12:23:24.000Z</time>
      </trkpt>
      <trkpt lat="47.24744" lon="6.07562">
        <ele>324</ele>
        <time>2016-3-26T12:23:24.000Z</time>
      </trkpt>
      <trkpt lat="47.24745" lon="6.07566">
        <ele>326</ele>
        <time>2016-3-26T12:23:24.000Z</time>
      </trkpt>
      <trkpt lat="47.24746" lon="6.07568">
        <ele>327</ele>
        <time>2016-3-26T12:23:24.000Z</time>
      </trkpt>
      <trkpt lat="47.24748" lon="6.07571">
        <ele>328</ele>
        <time>2016-3-26T12:23:24.000Z</time>
      </trkpt>
      <trkpt lat="47.24749" lon="6.07574">
        <ele>328</ele>
        <time>2016-3-26T12:23:24.000Z</time>
      </trkpt>
      <trkpt lat="47.24749" lon="6.07577">
        <ele>328</ele>
        <time>2016-3-26T12:23:24.000Z</time>
      </trkpt>
      <trkpt lat="47.24749" lon="6.0758">
        <ele>330</ele>
        <time>2016-3-26T12:23:24.000Z</time>
      </trkpt>
      <trkpt lat="47.2475" lon="6.07582">
        <ele>329</ele>
        <time>2016-3-26T12:23:24.000Z</time>
      </trkpt>
      <trkpt lat="47.24752" lon="6.07584">
        <ele>329</ele>
        <time>2016-3-26T12:23:24.000Z</time>
      </trkpt>
      <trkpt lat="47.24754" lon="6.07587">
        <ele>330</ele>
        <time>2016-3-26T12:23:24.000Z</time>
      </trkpt>
      <trkpt lat="47.24755" lon="6.0759">
        <ele>331</ele>
        <time>2016-3-26T12:23:24.000Z</time>
      </trkpt>
      <trkpt lat="47.24757" lon="6.07593">
        <ele>330</ele>
        <time>2016-3-26T12:23:24.000Z</time>
      </trkpt>
      <trkpt lat="47.24758" lon="6.07595">
        <ele>333</ele>
        <time>2016-3-26T12:23:24.000Z</time>
      </trkpt>
      <trkpt lat="47.2476" lon="6.07597">
        <ele>333</ele>
        <time>2016-3-26T12:23:24.000Z</time>
      </trkpt>
      <trkpt lat="47.24762" lon="6.07601">
        <ele>334</ele>
        <time>2016-3-26T12:23:24.000Z</time>
      </trkpt>
      <trkpt lat="47.24763" lon="6.07604">
        <ele>336</ele>
        <time>2016-3-26T12:23:24.000Z</time>
      </trkpt>
      <trkpt lat="47.24765" lon="6.07607">
        <ele>336</ele>
        <time>2016-3-26T12:23:24.000Z</time>
      </trkpt>
      <trkpt lat="47.24766" lon="6.0761">
        <ele>336</ele>
        <time>2016-3-26T12:23:24.000Z</time>
      </trkpt>
      <trkpt lat="47.24768" lon="6.07613">
        <ele>335</ele>
        <time>2016-3-26T12:23:24.000Z</time>
      </trkpt>
      <trkpt lat="47.24769" lon="6.07617">
        <ele>336</ele>
        <time>2016-3-26T12:23:24.000Z</time>
      </trkpt>
      <trkpt lat="47.2477" lon="6.07618">
        <ele>337</ele>
        <time>2016-3-26T12:23:24.000Z</time>
      </trkpt>
      <trkpt lat="47.24772" lon="6.07622">
        <ele>335</ele>
        <time>2016-3-26T12:23:24.000Z</time>
      </trkpt>
      <trkpt lat="47.24773" lon="6.07625">
        <ele>335</ele>
        <time>2016-3-26T12:23:24.000Z</time>
      </trkpt>
      <trkpt lat="47.24774" lon="6.07628">
        <ele>335</ele>
        <time>2016-3-26T12:23:24.000Z</time>
      </trkpt>
      <trkpt lat="47.24776" lon="6.07631">
        <ele>336</ele>
        <time>2016-3-26T12:23:24.000Z</time>
      </trkpt>
      <trkpt lat="47.24777" lon="6.07634">
        <ele>337</ele>
        <time>2016-3-26T12:23:24.000Z</time>
      </trkpt>
      <trkpt lat="47.24779" lon="6.07636">
        <ele>337</ele>
        <time>2016-3-26T12:23:24.000Z</time>
      </trkpt>
      <trkpt lat="47.2478" lon="6.07639">
        <ele>338</ele>
        <time>2016-3-26T12:23:24.000Z</time>
      </trkpt>
      <trkpt lat="47.24781" lon="6.07641">
        <ele>341</ele>
        <time>2016-3-26T12:23:24.000Z</time>
      </trkpt>
      <trkpt lat="47.24782" lon="6.07643">
        <ele>342</ele>
        <time>2016-3-26T12:23:24.000Z</time>
      </trkpt>
      <trkpt lat="47.24783" lon="6.07645">
        <ele>341</ele>
        <time>2016-3-26T12:23:24.000Z</time>
      </trkpt>
      <trkpt lat="47.24784" lon="6.07648">
        <ele>342</ele>
        <time>2016-3-26T12:23:24.000Z</time>
      </trkpt>
      <trkpt lat="47.24785" lon="6.07651">
        <ele>343</ele>
        <time>2016-3-26T12:23:24.000Z</time>
      </trkpt>
      <trkpt lat="47.24785" lon="6.07653">
        <ele>343</ele>
        <time>2016-3-26T12:23:24.000Z</time>
      </trkpt>
      <trkpt lat="47.24786" lon="6.07654">
        <ele>345</ele>
        <time>2016-3-26T12:23:24.000Z</time>
      </trkpt>
      <trkpt lat="47.24788" lon="6.07657">
        <ele>346</ele>
        <time>2016-3-26T12:23:24.000Z</time>
      </trkpt>
      <trkpt lat="47.2479" lon="6.07659">
        <ele>347</ele>
        <time>2016-3-26T12:23:24.000Z</time>
      </trkpt>
      <trkpt lat="47.24792" lon="6.07662">
        <ele>347</ele>
        <time>2016-3-26T12:23:24.000Z</time>
      </trkpt>
      <trkpt lat="47.24793" lon="6.07664">
        <ele>348</ele>
        <time>2016-3-26T12:23:24.000Z</time>
      </trkpt>
      <trkpt lat="47.24795" lon="6.07667">
        <ele>349</ele>
        <time>2016-3-26T12:23:24.000Z</time>
      </trkpt>
      <trkpt lat="47.24797" lon="6.07669">
        <ele>345</ele>
        <time>2016-3-26T12:23:24.000Z</time>
      </trkpt>
      <trkpt lat="47.24799" lon="6.07672">
        <ele>345</ele>
        <time>2016-3-26T12:23:24.000Z</time>
      </trkpt>
      <trkpt lat="47.248" lon="6.07674">
        <ele>345</ele>
        <time>2016-3-26T12:23:24.000Z</time>
      </trkpt>
      <trkpt lat="47.24802" lon="6.07676">
        <ele>346</ele>
        <time>2016-3-26T12:23:24.000Z</time>
      </trkpt>
      <trkpt lat="47.24803" lon="6.07679">
        <ele>348</ele>
        <time>2016-3-26T12:23:24.000Z</time>
      </trkpt>
      <trkpt lat="47.24805" lon="6.07681">
        <ele>349</ele>
        <time>2016-3-26T12:23:24.000Z</time>
      </trkpt>
      <trkpt lat="47.24807" lon="6.07683">
        <ele>347</ele>
        <time>2016-3-26T12:23:24.000Z</time>
      </trkpt>
      <trkpt lat="47.24808" lon="6.07685">
        <ele>346</ele>
        <time>2016-3-26T12:23:24.000Z</time>
      </trkpt>
      <trkpt lat="47.24808" lon="6.07688">
        <ele>345</ele>
        <time>2016-3-26T12:23:24.000Z</time>
      </trkpt>
      <trkpt lat="47.24809" lon="6.07691">
        <ele>347</ele>
        <time>2016-3-26T12:23:24.000Z</time>
      </trkpt>
      <trkpt lat="47.2481" lon="6.07693">
        <ele>346</ele>
        <time>2016-3-26T12:23:24.000Z</time>
      </trkpt>
      <trkpt lat="47.24812" lon="6.07696">
        <ele>346</ele>
        <time>2016-3-26T12:23:24.000Z</time>
      </trkpt>
      <trkpt lat="47.24814" lon="6.07699">
        <ele>346</ele>
        <time>2016-3-26T12:23:24.000Z</time>
      </trkpt>
      <trkpt lat="47.24816" lon="6.07702">
        <ele>347</ele>
        <time>2016-3-26T12:23:24.000Z</time>
      </trkpt>
      <trkpt lat="47.24817" lon="6.07705">
        <ele>348</ele>
        <time>2016-3-26T12:23:24.000Z</time>
      </trkpt>
      <trkpt lat="47.24819" lon="6.07707">
        <ele>348</ele>
        <time>2016-3-26T12:23:24.000Z</time>
      </trkpt>
      <trkpt lat="47.24821" lon="6.0771">
        <ele>349</ele>
        <time>2016-3-26T12:23:24.000Z</time>
      </trkpt>
      <trkpt lat="47.24822" lon="6.07713">
        <ele>349</ele>
        <time>2016-3-26T12:23:24.000Z</time>
      </trkpt>
      <trkpt lat="47.24824" lon="6.07715">
        <ele>350</ele>
        <time>2016-3-26T12:23:24.000Z</time>
      </trkpt>
      <trkpt lat="47.24825" lon="6.07717">
        <ele>352</ele>
        <time>2016-3-26T12:23:24.000Z</time>
      </trkpt>
      <trkpt lat="47.24827" lon="6.0772">
        <ele>352</ele>
        <time>2016-3-26T12:23:24.000Z</time>
      </trkpt>
      <trkpt lat="47.24828" lon="6.07722">
        <ele>353</ele>
        <time>2016-3-26T12:23:24.000Z</time>
      </trkpt>
      <trkpt lat="47.24829" lon="6.07725">
        <ele>355</ele>
        <time>2016-3-26T12:23:24.000Z</time>
      </trkpt>
      <trkpt lat="47.24829" lon="6.07727">
        <ele>356</ele>
        <time>2016-3-26T12:23:24.000Z</time>
      </trkpt>
      <trkpt lat="47.2483" lon="6.07729">
        <ele>356</ele>
        <time>2016-3-26T12:23:24.000Z</time>
      </trkpt>
      <trkpt lat="47.24831" lon="6.07732">
        <ele>356</ele>
        <time>2016-3-26T12:23:24.000Z</time>
      </trkpt>
      <trkpt lat="47.24833" lon="6.07735">
        <ele>355</ele>
        <time>2016-3-26T12:23:24.000Z</time>
      </trkpt>
      <trkpt lat="47.24834" lon="6.07738">
        <ele>356</ele>
        <time>2016-3-26T12:23:24.000Z</time>
      </trkpt>
      <trkpt lat="47.24836" lon="6.07741">
        <ele>355</ele>
        <time>2016-3-26T12:23:24.000Z</time>
      </trkpt>
      <trkpt lat="47.24837" lon="6.07743">
        <ele>356</ele>
        <time>2016-3-26T12:23:24.000Z</time>
      </trkpt>
      <trkpt lat="47.24838" lon="6.07744">
        <ele>357</ele>
        <time>2016-3-26T12:23:24.000Z</time>
      </trkpt>
      <trkpt lat="47.24839" lon="6.07746">
        <ele>358</ele>
        <time>2016-3-26T12:23:24.000Z</time>
      </trkpt>
      <trkpt lat="47.24839" lon="6.07748">
        <ele>360</ele>
        <time>2016-3-26T12:23:24.000Z</time>
      </trkpt>
      <trkpt lat="47.24839" lon="6.07751">
        <ele>360</ele>
        <time>2016-3-26T12:23:24.000Z</time>
      </trkpt>
      <trkpt lat="47.24841" lon="6.07753">
        <ele>360</ele>
        <time>2016-3-26T12:23:24.000Z</time>
      </trkpt>
      <trkpt lat="47.24842" lon="6.07756">
        <ele>361</ele>
        <time>2016-3-26T12:23:24.000Z</time>
      </trkpt>
      <trkpt lat="47.24844" lon="6.07758">
        <ele>362</ele>
        <time>2016-3-26T12:23:24.000Z</time>
      </trkpt>
      <trkpt lat="47.24845" lon="6.0776">
        <ele>363</ele>
        <time>2016-3-26T12:23:24.000Z</time>
      </trkpt>
      <trkpt lat="47.24847" lon="6.07762">
        <ele>363</ele>
        <time>2016-3-26T12:23:24.000Z</time>
      </trkpt>
      <trkpt lat="47.24848" lon="6.07764">
        <ele>363</ele>
        <time>2016-3-26T12:23:24.000Z</time>
      </trkpt>
      <trkpt lat="47.24849" lon="6.07767">
        <ele>362</ele>
        <time>2016-3-26T12:23:24.000Z</time>
      </trkpt>
      <trkpt lat="47.24849" lon="6.07769">
        <ele>361</ele>
        <time>2016-3-26T12:23:24.000Z</time>
      </trkpt>
      <trkpt lat="47.24851" lon="6.0777">
        <ele>360</ele>
        <time>2016-3-26T12:23:24.000Z</time>
      </trkpt>
      <trkpt lat="47.24852" lon="6.07772">
        <ele>360</ele>
        <time>2016-3-26T12:23:24.000Z</time>
      </trkpt>
      <trkpt lat="47.24853" lon="6.07773">
        <ele>362</ele>
        <time>2016-3-26T12:23:24.000Z</time>
      </trkpt>
      <trkpt lat="47.24854" lon="6.07776">
        <ele>362</ele>
        <time>2016-3-26T12:23:24.000Z</time>
      </trkpt>
      <trkpt lat="47.24856" lon="6.07778">
        <ele>363</ele>
        <time>2016-3-26T12:23:24.000Z</time>
      </trkpt>
      <trkpt lat="47.24857" lon="6.0778">
        <ele>364</ele>
        <time>2016-3-26T12:23:24.000Z</time>
      </trkpt>
      <trkpt lat="47.24859" lon="6.07782">
        <ele>364</ele>
        <time>2016-3-26T12:23:24.000Z</time>
      </trkpt>
      <trkpt lat="47.24859" lon="6.07785">
        <ele>363</ele>
        <time>2016-3-26T12:23:24.000Z</time>
      </trkpt>
      <trkpt lat="47.2486" lon="6.07788">
        <ele>363</ele>
        <time>2016-3-26T12:23:24.000Z</time>
      </trkpt>
      <trkpt lat="47.24861" lon="6.07791">
        <ele>363</ele>
        <time>2016-3-26T12:23:24.000Z</time>
      </trkpt>
      <trkpt lat="47.24862" lon="6.07795">
        <ele>364</ele>
        <time>2016-3-26T12:23:24.000Z</time>
      </trkpt>
      <trkpt lat="47.24864" lon="6.07796">
        <ele>365</ele>
        <time>2016-3-26T12:28:3.000Z</time>
      </trkpt>
      <trkpt lat="47.24865" lon="6.07799">
        <ele>365</ele>
        <time>2016-3-26T12:28:3.000Z</time>
      </trkpt>
      <trkpt lat="47.24866" lon="6.07802">
        <ele>366</ele>
        <time>2016-3-26T12:28:3.000Z</time>
      </trkpt>
      <trkpt lat="47.24867" lon="6.07805">
        <ele>368</ele>
        <time>2016-3-26T12:28:3.000Z</time>
      </trkpt>
      <trkpt lat="47.24869" lon="6.07808">
        <ele>369</ele>
        <time>2016-3-26T12:28:3.000Z</time>
      </trkpt>
      <trkpt lat="47.2487" lon="6.0781">
        <ele>370</ele>
        <time>2016-3-26T12:28:3.000Z</time>
      </trkpt>
      <trkpt lat="47.24871" lon="6.07813">
        <ele>371</ele>
        <time>2016-3-26T12:28:3.000Z</time>
      </trkpt>
      <trkpt lat="47.24872" lon="6.07815">
        <ele>370</ele>
        <time>2016-3-26T12:28:3.000Z</time>
      </trkpt>
      <trkpt lat="47.24873" lon="6.07816">
        <ele>371</ele>
        <time>2016-3-26T12:28:3.000Z</time>
      </trkpt>
      <trkpt lat="47.24874" lon="6.07818">
        <ele>371</ele>
        <time>2016-3-26T12:28:3.000Z</time>
      </trkpt>
      <trkpt lat="47.24875" lon="6.07821">
        <ele>372</ele>
        <time>2016-3-26T12:28:3.000Z</time>
      </trkpt>
      <trkpt lat="47.24876" lon="6.07824">
        <ele>371</ele>
        <time>2016-3-26T12:28:3.000Z</time>
      </trkpt>
      <trkpt lat="47.24877" lon="6.07827">
        <ele>371</ele>
        <time>2016-3-26T12:28:3.000Z</time>
      </trkpt>
      <trkpt lat="47.24878" lon="6.07831">
        <ele>372</ele>
        <time>2016-3-26T12:28:3.000Z</time>
      </trkpt>
      <trkpt lat="47.24879" lon="6.07833">
        <ele>372</ele>
        <time>2016-3-26T12:28:3.000Z</time>
      </trkpt>
      <trkpt lat="47.2488" lon="6.07837">
        <ele>372</ele>
        <time>2016-3-26T12:28:3.000Z</time>
      </trkpt>
      <trkpt lat="47.24881" lon="6.07839">
        <ele>372</ele>
        <time>2016-3-26T12:28:3.000Z</time>
      </trkpt>
      <trkpt lat="47.24883" lon="6.07843">
        <ele>373</ele>
        <time>2016-3-26T12:28:3.000Z</time>
      </trkpt>
      <trkpt lat="47.24884" lon="6.07846">
        <ele>375</ele>
        <time>2016-3-26T12:28:3.000Z</time>
      </trkpt>
      <trkpt lat="47.24885" lon="6.07849">
        <ele>374</ele>
        <time>2016-3-26T12:28:3.000Z</time>
      </trkpt>
      <trkpt lat="47.24887" lon="6.07853">
        <ele>376</ele>
        <time>2016-3-26T12:28:3.000Z</time>
      </trkpt>
      <trkpt lat="47.24888" lon="6.07854">
        <ele>376</ele>
        <time>2016-3-26T12:28:3.000Z</time>
      </trkpt>
      <trkpt lat="47.24889" lon="6.07858">
        <ele>376</ele>
        <time>2016-3-26T12:28:3.000Z</time>
      </trkpt>
      <trkpt lat="47.2489" lon="6.07861">
        <ele>376</ele>
        <time>2016-3-26T12:28:3.000Z</time>
      </trkpt>
      <trkpt lat="47.24891" lon="6.07864">
        <ele>377</ele>
        <time>2016-3-26T12:28:3.000Z</time>
      </trkpt>
      <trkpt lat="47.24892" lon="6.07867">
        <ele>378</ele>
        <time>2016-3-26T12:28:3.000Z</time>
      </trkpt>
      <trkpt lat="47.24892" lon="6.07871">
        <ele>378</ele>
        <time>2016-3-26T12:28:3.000Z</time>
      </trkpt>
      <trkpt lat="47.24893" lon="6.07874">
        <ele>378</ele>
        <time>2016-3-26T12:28:3.000Z</time>
      </trkpt>
      <trkpt lat="47.24893" lon="6.07876">
        <ele>379</ele>
        <time>2016-3-26T12:28:3.000Z</time>
      </trkpt>
      <trkpt lat="47.24893" lon="6.07879">
        <ele>380</ele>
        <time>2016-3-26T12:28:3.000Z</time>
      </trkpt>
      <trkpt lat="47.24894" lon="6.07881">
        <ele>381</ele>
        <time>2016-3-26T12:28:3.000Z</time>
      </trkpt>
      <trkpt lat="47.24895" lon="6.07883">
        <ele>380</ele>
        <time>2016-3-26T12:28:3.000Z</time>
      </trkpt>
      <trkpt lat="47.24897" lon="6.07886">
        <ele>379</ele>
        <time>2016-3-26T12:28:3.000Z</time>
      </trkpt>
      <trkpt lat="47.24898" lon="6.07888">
        <ele>379</ele>
        <time>2016-3-26T12:28:3.000Z</time>
      </trkpt>
      <trkpt lat="47.24899" lon="6.0789">
        <ele>381</ele>
        <time>2016-3-26T12:28:3.000Z</time>
      </trkpt>
      <trkpt lat="47.249" lon="6.07893">
        <ele>382</ele>
        <time>2016-3-26T12:28:3.000Z</time>
      </trkpt>
      <trkpt lat="47.24902" lon="6.07895">
        <ele>383</ele>
        <time>2016-3-26T12:28:3.000Z</time>
      </trkpt>
      <trkpt lat="47.24903" lon="6.07897">
        <ele>383</ele>
        <time>2016-3-26T12:28:3.000Z</time>
      </trkpt>
      <trkpt lat="47.24905" lon="6.079">
        <ele>383</ele>
        <time>2016-3-26T12:28:3.000Z</time>
      </trkpt>
      <trkpt lat="47.24907" lon="6.07902">
        <ele>384</ele>
        <time>2016-3-26T12:28:3.000Z</time>
      </trkpt>
      <trkpt lat="47.24908" lon="6.07905">
        <ele>384</ele>
        <time>2016-3-26T12:28:3.000Z</time>
      </trkpt>
      <trkpt lat="47.24909" lon="6.07907">
        <ele>386</ele>
        <time>2016-3-26T12:28:3.000Z</time>
      </trkpt>
      <trkpt lat="47.2491" lon="6.07909">
        <ele>389</ele>
        <time>2016-3-26T12:28:3.000Z</time>
      </trkpt>
      <trkpt lat="47.24912" lon="6.07911">
        <ele>389</ele>
        <time>2016-3-26T12:28:3.000Z</time>
      </trkpt>
      <trkpt lat="47.24914" lon="6.07914">
        <ele>391</ele>
        <time>2016-3-26T12:28:3.000Z</time>
      </trkpt>
      <trkpt lat="47.24914" lon="6.07917">
        <ele>393</ele>
        <time>2016-3-26T12:28:3.000Z</time>
      </trkpt>
      <trkpt lat="47.24916" lon="6.07918">
        <ele>395</ele>
        <time>2016-3-26T12:28:3.000Z</time>
      </trkpt>
      <trkpt lat="47.24915" lon="6.0792">
        <ele>396</ele>
        <time>2016-3-26T12:28:3.000Z</time>
      </trkpt>
      <trkpt lat="47.24914" lon="6.07923">
        <ele>396</ele>
        <time>2016-3-26T12:28:3.000Z</time>
      </trkpt>
      <trkpt lat="47.24913" lon="6.07926">
        <ele>395</ele>
        <time>2016-3-26T12:28:3.000Z</time>
      </trkpt>
      <trkpt lat="47.24913" lon="6.07928">
        <ele>396</ele>
        <time>2016-3-26T12:28:3.000Z</time>
      </trkpt>
      <trkpt lat="47.24913" lon="6.07931">
        <ele>396</ele>
        <time>2016-3-26T12:28:3.000Z</time>
      </trkpt>
      <trkpt lat="47.24913" lon="6.07934">
        <ele>397</ele>
        <time>2016-3-26T12:28:3.000Z</time>
      </trkpt>
      <trkpt lat="47.24912" lon="6.07936">
        <ele>397</ele>
        <time>2016-3-26T12:28:3.000Z</time>
      </trkpt>
      <trkpt lat="47.24911" lon="6.07938">
        <ele>397</ele>
        <time>2016-3-26T12:28:3.000Z</time>
      </trkpt>
      <trkpt lat="47.24911" lon="6.0794">
        <ele>398</ele>
        <time>2016-3-26T12:28:3.000Z</time>
      </trkpt>
      <trkpt lat="47.24909" lon="6.07942">
        <ele>398</ele>
        <time>2016-3-26T12:28:3.000Z</time>
      </trkpt>
      <trkpt lat="47.24908" lon="6.07943">
        <ele>400</ele>
        <time>2016-3-26T12:28:3.000Z</time>
      </trkpt>
      <trkpt lat="47.24907" lon="6.07947">
        <ele>400</ele>
        <time>2016-3-26T12:28:3.000Z</time>
      </trkpt>
      <trkpt lat="47.24907" lon="6.07952">
        <ele>402</ele>
        <time>2016-3-26T12:28:3.000Z</time>
      </trkpt>
      <trkpt lat="47.24907" lon="6.07954">
        <ele>402</ele>
        <time>2016-3-26T12:28:3.000Z</time>
      </trkpt>
      <trkpt lat="47.24906" lon="6.07957">
        <ele>403</ele>
        <time>2016-3-26T12:28:3.000Z</time>
      </trkpt>
      <trkpt lat="47.24905" lon="6.0796">
        <ele>403</ele>
        <time>2016-3-26T12:28:3.000Z</time>
      </trkpt>
      <trkpt lat="47.24904" lon="6.07962">
        <ele>401</ele>
        <time>2016-3-26T12:28:3.000Z</time>
      </trkpt>
      <trkpt lat="47.24903" lon="6.07964">
        <ele>401</ele>
        <time>2016-3-26T12:28:3.000Z</time>
      </trkpt>
      <trkpt lat="47.24903" lon="6.07967">
        <ele>403</ele>
        <time>2016-3-26T12:28:3.000Z</time>
      </trkpt>
      <trkpt lat="47.24904" lon="6.07968">
        <ele>404</ele>
        <time>2016-3-26T12:28:3.000Z</time>
      </trkpt>
      <trkpt lat="47.24905" lon="6.0797">
        <ele>405</ele>
        <time>2016-3-26T12:28:3.000Z</time>
      </trkpt>
      <trkpt lat="47.24905" lon="6.07973">
        <ele>407</ele>
        <time>2016-3-26T12:28:3.000Z</time>
      </trkpt>
      <trkpt lat="47.24906" lon="6.07977">
        <ele>409</ele>
        <time>2016-3-26T12:28:3.000Z</time>
      </trkpt>
      <trkpt lat="47.24907" lon="6.0798">
        <ele>408</ele>
        <time>2016-3-26T12:28:3.000Z</time>
      </trkpt>
      <trkpt lat="47.24907" lon="6.07983">
        <ele>409</ele>
        <time>2016-3-26T12:28:3.000Z</time>
      </trkpt>
      <trkpt lat="47.24907" lon="6.07987">
        <ele>408</ele>
        <time>2016-3-26T12:28:3.000Z</time>
      </trkpt>
      <trkpt lat="47.24908" lon="6.0799">
        <ele>409</ele>
        <time>2016-3-26T12:28:3.000Z</time>
      </trkpt>
      <trkpt lat="47.24907" lon="6.07993">
        <ele>409</ele>
        <time>2016-3-26T12:28:3.000Z</time>
      </trkpt>
      <trkpt lat="47.24906" lon="6.07996">
        <ele>408</ele>
        <time>2016-3-26T12:28:3.000Z</time>
      </trkpt>
      <trkpt lat="47.24905" lon="6.07999">
        <ele>406</ele>
        <time>2016-3-26T12:28:3.000Z</time>
      </trkpt>
      <trkpt lat="47.24904" lon="6.08003">
        <ele>407</ele>
        <time>2016-3-26T12:28:3.000Z</time>
      </trkpt>
      <trkpt lat="47.24904" lon="6.08005">
        <ele>407</ele>
        <time>2016-3-26T12:28:3.000Z</time>
      </trkpt>
      <trkpt lat="47.24904" lon="6.08008">
        <ele>408</ele>
        <time>2016-3-26T12:28:3.000Z</time>
      </trkpt>
      <trkpt lat="47.24904" lon="6.08012">
        <ele>408</ele>
        <time>2016-3-26T12:28:3.000Z</time>
      </trkpt>
      <trkpt lat="47.24904" lon="6.08015">
        <ele>407</ele>
        <time>2016-3-26T12:28:3.000Z</time>
      </trkpt>
      <trkpt lat="47.24902" lon="6.08019">
        <ele>405</ele>
        <time>2016-3-26T12:28:3.000Z</time>
      </trkpt>
      <trkpt lat="47.24902" lon="6.08021">
        <ele>406</ele>
        <time>2016-3-26T12:28:3.000Z</time>
      </trkpt>
      <trkpt lat="47.249" lon="6.08026">
        <ele>406</ele>
        <time>2016-3-26T12:28:3.000Z</time>
      </trkpt>
      <trkpt lat="47.24899" lon="6.08029">
        <ele>404</ele>
        <time>2016-3-26T12:28:3.000Z</time>
      </trkpt>
      <trkpt lat="47.24897" lon="6.08031">
        <ele>404</ele>
        <time>2016-3-26T12:28:3.000Z</time>
      </trkpt>
      <trkpt lat="47.24897" lon="6.08035">
        <ele>407</ele>
        <time>2016-3-26T12:28:3.000Z</time>
      </trkpt>
      <trkpt lat="47.24896" lon="6.08039">
        <ele>408</ele>
        <time>2016-3-26T12:28:3.000Z</time>
      </trkpt>
      <trkpt lat="47.24896" lon="6.08043">
        <ele>408</ele>
        <time>2016-3-26T12:28:3.000Z</time>
      </trkpt>
      <trkpt lat="47.24896" lon="6.08045">
        <ele>408</ele>
        <time>2016-3-26T12:28:3.000Z</time>
      </trkpt>
      <trkpt lat="47.24894" lon="6.08046">
        <ele>408</ele>
        <time>2016-3-26T12:28:3.000Z</time>
      </trkpt>
      <trkpt lat="47.24893" lon="6.08047">
        <ele>407</ele>
        <time>2016-3-26T12:28:3.000Z</time>
      </trkpt>
      <trkpt lat="47.24891" lon="6.08048">
        <ele>409</ele>
        <time>2016-3-26T12:28:3.000Z</time>
      </trkpt>
      <trkpt lat="47.2489" lon="6.08049">
        <ele>408</ele>
        <time>2016-3-26T12:28:3.000Z</time>
      </trkpt>
      <trkpt lat="47.24889" lon="6.08051">
        <ele>407</ele>
        <time>2016-3-26T12:28:3.000Z</time>
      </trkpt>
      <trkpt lat="47.24887" lon="6.08053">
        <ele>406</ele>
        <time>2016-3-26T12:28:3.000Z</time>
      </trkpt>
      <trkpt lat="47.24886" lon="6.08054">
        <ele>406</ele>
        <time>2016-3-26T12:28:3.000Z</time>
      </trkpt>
      <trkpt lat="47.24884" lon="6.08055">
        <ele>405</ele>
        <time>2016-3-26T12:28:3.000Z</time>
      </trkpt>
      <trkpt lat="47.24882" lon="6.08056">
        <ele>405</ele>
        <time>2016-3-26T12:28:3.000Z</time>
      </trkpt>
      <trkpt lat="47.24881" lon="6.08057">
        <ele>405</ele>
        <time>2016-3-26T12:28:3.000Z</time>
      </trkpt>
      <trkpt lat="47.24879" lon="6.08058">
        <ele>405</ele>
        <time>2016-3-26T12:31:58.000Z</time>
      </trkpt>
      <trkpt lat="47.24878" lon="6.08059">
        <ele>407</ele>
        <time>2016-3-26T12:31:58.000Z</time>
      </trkpt>
      <trkpt lat="47.24876" lon="6.08061">
        <ele>408</ele>
        <time>2016-3-26T12:31:58.000Z</time>
      </trkpt>
      <trkpt lat="47.24875" lon="6.08062">
        <ele>406</ele>
        <time>2016-3-26T12:31:58.000Z</time>
      </trkpt>
      <trkpt lat="47.24874" lon="6.08066">
        <ele>404</ele>
        <time>2016-3-26T12:31:58.000Z</time>
      </trkpt>
      <trkpt lat="47.24872" lon="6.08069">
        <ele>403</ele>
        <time>2016-3-26T12:31:58.000Z</time>
      </trkpt>
      <trkpt lat="47.2487" lon="6.08072">
        <ele>402</ele>
        <time>2016-3-26T12:31:58.000Z</time>
      </trkpt>
      <trkpt lat="47.24869" lon="6.08073">
        <ele>401</ele>
        <time>2016-3-26T12:31:58.000Z</time>
      </trkpt>
      <trkpt lat="47.24867" lon="6.08076">
        <ele>402</ele>
        <time>2016-3-26T12:31:58.000Z</time>
      </trkpt>
      <trkpt lat="47.24865" lon="6.08078">
        <ele>403</ele>
        <time>2016-3-26T12:31:58.000Z</time>
      </trkpt>
      <trkpt lat="47.24866" lon="6.08079">
        <ele>402</ele>
        <time>2016-3-26T12:31:58.000Z</time>
      </trkpt>
      <trkpt lat="47.24865" lon="6.08082">
        <ele>402</ele>
        <time>2016-3-26T12:31:58.000Z</time>
      </trkpt>
      <trkpt lat="47.24864" lon="6.08084">
        <ele>408</ele>
        <time>2016-3-26T12:31:58.000Z</time>
      </trkpt>
      <trkpt lat="47.24865" lon="6.08088">
        <ele>413</ele>
        <time>2016-3-26T12:31:58.000Z</time>
      </trkpt>
      <trkpt lat="47.24866" lon="6.08092">
        <ele>417</ele>
        <time>2016-3-26T12:31:58.000Z</time>
      </trkpt>
      <trkpt lat="47.24866" lon="6.08095">
        <ele>419</ele>
        <time>2016-3-26T12:31:58.000Z</time>
      </trkpt>
      <trkpt lat="47.24865" lon="6.08098">
        <ele>420</ele>
        <time>2016-3-26T12:31:58.000Z</time>
      </trkpt>
      <trkpt lat="47.24864" lon="6.08101">
        <ele>421</ele>
        <time>2016-3-26T12:31:58.000Z</time>
      </trkpt>
      <trkpt lat="47.24862" lon="6.08103">
        <ele>420</ele>
        <time>2016-3-26T12:31:58.000Z</time>
      </trkpt>
      <trkpt lat="47.24861" lon="6.08106">
        <ele>421</ele>
        <time>2016-3-26T12:31:58.000Z</time>
      </trkpt>
      <trkpt lat="47.24859" lon="6.08108">
        <ele>421</ele>
        <time>2016-3-26T12:31:58.000Z</time>
      </trkpt>
      <trkpt lat="47.24856" lon="6.08109">
        <ele>420</ele>
        <time>2016-3-26T12:31:58.000Z</time>
      </trkpt>
      <trkpt lat="47.24854" lon="6.08111">
        <ele>421</ele>
        <time>2016-3-26T12:31:58.000Z</time>
      </trkpt>
      <trkpt lat="47.24853" lon="6.08112">
        <ele>421</ele>
        <time>2016-3-26T12:31:58.000Z</time>
      </trkpt>
      <trkpt lat="47.24852" lon="6.08112">
        <ele>421</ele>
        <time>2016-3-26T12:31:58.000Z</time>
      </trkpt>
      <trkpt lat="47.2485" lon="6.08113">
        <ele>420</ele>
        <time>2016-3-26T12:31:58.000Z</time>
      </trkpt>
      <trkpt lat="47.24849" lon="6.08114">
        <ele>421</ele>
        <time>2016-3-26T12:31:58.000Z</time>
      </trkpt>
      <trkpt lat="47.24847" lon="6.08116">
        <ele>423</ele>
        <time>2016-3-26T12:31:58.000Z</time>
      </trkpt>
      <trkpt lat="47.24846" lon="6.08118">
        <ele>424</ele>
        <time>2016-3-26T12:31:58.000Z</time>
      </trkpt>
      <trkpt lat="47.24844" lon="6.08121">
        <ele>423</ele>
        <time>2016-3-26T12:31:58.000Z</time>
      </trkpt>
      <trkpt lat="47.24844" lon="6.08123">
        <ele>423</ele>
        <time>2016-3-26T12:31:58.000Z</time>
      </trkpt>
      <trkpt lat="47.24845" lon="6.08125">
        <ele>424</ele>
        <time>2016-3-26T12:31:58.000Z</time>
      </trkpt>
      <trkpt lat="47.24846" lon="6.08128">
        <ele>425</ele>
        <time>2016-3-26T12:31:58.000Z</time>
      </trkpt>
      <trkpt lat="47.24845" lon="6.0813">
        <ele>425</ele>
        <time>2016-3-26T12:31:58.000Z</time>
      </trkpt>
      <trkpt lat="47.24844" lon="6.08131">
        <ele>426</ele>
        <time>2016-3-26T12:31:58.000Z</time>
      </trkpt>
      <trkpt lat="47.24843" lon="6.08133">
        <ele>422</ele>
        <time>2016-3-26T12:31:58.000Z</time>
      </trkpt>
      <trkpt lat="47.24842" lon="6.08135">
        <ele>423</ele>
        <time>2016-3-26T12:31:58.000Z</time>
      </trkpt>
      <trkpt lat="47.2484" lon="6.08137">
        <ele>423</ele>
        <time>2016-3-26T12:31:58.000Z</time>
      </trkpt>
      <trkpt lat="47.24837" lon="6.08139">
        <ele>422</ele>
        <time>2016-3-26T12:31:58.000Z</time>
      </trkpt>
      <trkpt lat="47.24835" lon="6.0814">
        <ele>423</ele>
        <time>2016-3-26T12:31:58.000Z</time>
      </trkpt>
      <trkpt lat="47.24833" lon="6.08142">
        <ele>424</ele>
        <time>2016-3-26T12:31:58.000Z</time>
      </trkpt>
      <trkpt lat="47.24831" lon="6.08144">
        <ele>423</ele>
        <time>2016-3-26T12:31:58.000Z</time>
      </trkpt>
      <trkpt lat="47.24829" lon="6.08145">
        <ele>424</ele>
        <time>2016-3-26T12:31:58.000Z</time>
      </trkpt>
      <trkpt lat="47.24827" lon="6.08146">
        <ele>425</ele>
        <time>2016-3-26T12:31:58.000Z</time>
      </trkpt>
      <trkpt lat="47.24825" lon="6.08148">
        <ele>427</ele>
        <time>2016-3-26T12:31:58.000Z</time>
      </trkpt>
      <trkpt lat="47.24824" lon="6.0815">
        <ele>427</ele>
        <time>2016-3-26T12:31:58.000Z</time>
      </trkpt>
      <trkpt lat="47.24822" lon="6.08151">
        <ele>425</ele>
        <time>2016-3-26T12:31:58.000Z</time>
      </trkpt>
      <trkpt lat="47.2482" lon="6.08152">
        <ele>427</ele>
        <time>2016-3-26T12:31:58.000Z</time>
      </trkpt>
      <trkpt lat="47.24819" lon="6.08155">
        <ele>429</ele>
        <time>2016-3-26T12:31:58.000Z</time>
      </trkpt>
      <trkpt lat="47.24818" lon="6.08157">
        <ele>430</ele>
        <time>2016-3-26T12:31:58.000Z</time>
      </trkpt>
      <trkpt lat="47.24817" lon="6.08158">
        <ele>431</ele>
        <time>2016-3-26T12:31:58.000Z</time>
      </trkpt>
      <trkpt lat="47.24815" lon="6.08158">
        <ele>429</ele>
        <time>2016-3-26T12:31:58.000Z</time>
      </trkpt>
      <trkpt lat="47.24814" lon="6.08158">
        <ele>427</ele>
        <time>2016-3-26T12:31:58.000Z</time>
      </trkpt>
      <trkpt lat="47.24812" lon="6.08158">
        <ele>425</ele>
        <time>2016-3-26T12:31:58.000Z</time>
      </trkpt>
      <trkpt lat="47.2481" lon="6.08157">
        <ele>424</ele>
        <time>2016-3-26T12:31:58.000Z</time>
      </trkpt>
      <trkpt lat="47.24808" lon="6.08156">
        <ele>424</ele>
        <time>2016-3-26T12:31:58.000Z</time>
      </trkpt>
      <trkpt lat="47.24806" lon="6.08155">
        <ele>422</ele>
        <time>2016-3-26T12:31:58.000Z</time>
      </trkpt>
      <trkpt lat="47.24804" lon="6.08154">
        <ele>421</ele>
        <time>2016-3-26T12:31:58.000Z</time>
      </trkpt>
      <trkpt lat="47.24801" lon="6.08154">
        <ele>422</ele>
        <time>2016-3-26T12:31:58.000Z</time>
      </trkpt>
      <trkpt lat="47.24799" lon="6.08153">
        <ele>419</ele>
        <time>2016-3-26T12:31:58.000Z</time>
      </trkpt>
      <trkpt lat="47.24796" lon="6.08152">
        <ele>416</ele>
        <time>2016-3-26T12:31:58.000Z</time>
      </trkpt>
      <trkpt lat="47.24794" lon="6.08151">
        <ele>416</ele>
        <time>2016-3-26T12:31:58.000Z</time>
      </trkpt>
      <trkpt lat="47.24791" lon="6.0815">
        <ele>416</ele>
        <time>2016-3-26T12:31:58.000Z</time>
      </trkpt>
      <trkpt lat="47.24789" lon="6.08149">
        <ele>417</ele>
        <time>2016-3-26T12:31:58.000Z</time>
      </trkpt>
      <trkpt lat="47.24787" lon="6.08148">
        <ele>419</ele>
        <time>2016-3-26T12:31:58.000Z</time>
      </trkpt>
      <trkpt lat="47.24785" lon="6.08146">
        <ele>421</ele>
        <time>2016-3-26T12:31:58.000Z</time>
      </trkpt>
      <trkpt lat="47.24783" lon="6.08145">
        <ele>420</ele>
        <time>2016-3-26T12:31:58.000Z</time>
      </trkpt>
      <trkpt lat="47.24781" lon="6.08145">
        <ele>420</ele>
        <time>2016-3-26T12:31:58.000Z</time>
      </trkpt>
      <trkpt lat="47.2478" lon="6.08144">
        <ele>420</ele>
        <time>2016-3-26T12:31:58.000Z</time>
      </trkpt>
      <trkpt lat="47.24778" lon="6.08143">
        <ele>420</ele>
        <time>2016-3-26T12:31:58.000Z</time>
      </trkpt>
      <trkpt lat="47.24775" lon="6.08142">
        <ele>420</ele>
        <time>2016-3-26T12:31:58.000Z</time>
      </trkpt>
      <trkpt lat="47.24773" lon="6.0814">
        <ele>420</ele>
        <time>2016-3-26T12:31:58.000Z</time>
      </trkpt>
      <trkpt lat="47.24771" lon="6.08139">
        <ele>419</ele>
        <time>2016-3-26T12:31:58.000Z</time>
      </trkpt>
      <trkpt lat="47.24768" lon="6.08139">
        <ele>419</ele>
        <time>2016-3-26T12:31:58.000Z</time>
      </trkpt>
      <trkpt lat="47.24766" lon="6.08139">
        <ele>419</ele>
        <time>2016-3-26T12:31:58.000Z</time>
      </trkpt>
      <trkpt lat="47.24765" lon="6.08137">
        <ele>420</ele>
        <time>2016-3-26T12:31:58.000Z</time>
      </trkpt>
      <trkpt lat="47.24764" lon="6.08134">
        <ele>423</ele>
        <time>2016-3-26T12:31:58.000Z</time>
      </trkpt>
      <trkpt lat="47.24762" lon="6.08131">
        <ele>422</ele>
        <time>2016-3-26T12:31:58.000Z</time>
      </trkpt>
      <trkpt lat="47.24761" lon="6.08128">
        <ele>423</ele>
        <time>2016-3-26T12:31:58.000Z</time>
      </trkpt>
      <trkpt lat="47.24759" lon="6.08126">
        <ele>424</ele>
        <time>2016-3-26T12:31:58.000Z</time>
      </trkpt>
      <trkpt lat="47.24758" lon="6.08123">
        <ele>424</ele>
        <time>2016-3-26T12:31:58.000Z</time>
      </trkpt>
      <trkpt lat="47.24757" lon="6.08121">
        <ele>425</ele>
        <time>2016-3-26T12:31:58.000Z</time>
      </trkpt>
      <trkpt lat="47.24757" lon="6.08119">
        <ele>425</ele>
        <time>2016-3-26T12:31:58.000Z</time>
      </trkpt>
      <trkpt lat="47.24758" lon="6.08117">
        <ele>426</ele>
        <time>2016-3-26T12:31:58.000Z</time>
      </trkpt>
      <trkpt lat="47.24759" lon="6.08115">
        <ele>427</ele>
        <time>2016-3-26T12:31:58.000Z</time>
      </trkpt>
      <trkpt lat="47.2476" lon="6.08113">
        <ele>428</ele>
        <time>2016-3-26T12:31:58.000Z</time>
      </trkpt>
      <trkpt lat="47.24761" lon="6.08111">
        <ele>428</ele>
        <time>2016-3-26T12:31:58.000Z</time>
      </trkpt>
      <trkpt lat="47.24762" lon="6.08107">
        <ele>427</ele>
        <time>2016-3-26T12:31:58.000Z</time>
      </trkpt>
      <trkpt lat="47.24763" lon="6.08105">
        <ele>427</ele>
        <time>2016-3-26T12:31:58.000Z</time>
      </trkpt>
      <trkpt lat="47.24765" lon="6.08102">
        <ele>426</ele>
        <time>2016-3-26T12:31:58.000Z</time>
      </trkpt>
      <trkpt lat="47.24766" lon="6.08099">
        <ele>426</ele>
        <time>2016-3-26T12:31:58.000Z</time>
      </trkpt>
      <trkpt lat="47.24766" lon="6.08096">
        <ele>427</ele>
        <time>2016-3-26T12:31:58.000Z</time>
      </trkpt>
      <trkpt lat="47.24766" lon="6.08092">
        <ele>427</ele>
        <time>2016-3-26T12:31:58.000Z</time>
      </trkpt>
      <trkpt lat="47.24766" lon="6.08089">
        <ele>429</ele>
        <time>2016-3-26T12:31:58.000Z</time>
      </trkpt>
      <trkpt lat="47.24767" lon="6.08086">
        <ele>429</ele>
        <time>2016-3-26T12:31:58.000Z</time>
      </trkpt>
      <trkpt lat="47.24768" lon="6.08084">
        <ele>429</ele>
        <time>2016-3-26T12:31:58.000Z</time>
      </trkpt>
      <trkpt lat="47.2477" lon="6.08082">
        <ele>428</ele>
        <time>2016-3-26T12:31:58.000Z</time>
      </trkpt>
      <trkpt lat="47.24772" lon="6.08081">
        <ele>428</ele>
        <time>2016-3-26T12:31:58.000Z</time>
      </trkpt>
      <trkpt lat="47.24775" lon="6.0808">
        <ele>428</ele>
        <time>2016-3-26T12:31:58.000Z</time>
      </trkpt>
      <trkpt lat="47.24777" lon="6.08079">
        <ele>428</ele>
        <time>2016-3-26T12:31:58.000Z</time>
      </trkpt>
      <trkpt lat="47.2478" lon="6.08076">
        <ele>430</ele>
        <time>2016-3-26T12:31:58.000Z</time>
      </trkpt>
      <trkpt lat="47.24782" lon="6.08074">
        <ele>429</ele>
        <time>2016-3-26T12:40:33.000Z</time>
      </trkpt>
      <trkpt lat="47.24783" lon="6.08071">
        <ele>431</ele>
        <time>2016-3-26T12:40:33.000Z</time>
      </trkpt>
      <trkpt lat="47.24784" lon="6.08068">
        <ele>432</ele>
        <time>2016-3-26T12:40:33.000Z</time>
      </trkpt>
      <trkpt lat="47.24785" lon="6.08065">
        <ele>432</ele>
        <time>2016-3-26T12:40:33.000Z</time>
      </trkpt>
      <trkpt lat="47.24785" lon="6.08062">
        <ele>432</ele>
        <time>2016-3-26T12:40:33.000Z</time>
      </trkpt>
      <trkpt lat="47.24786" lon="6.0806">
        <ele>434</ele>
        <time>2016-3-26T12:40:33.000Z</time>
      </trkpt>
      <trkpt lat="47.24788" lon="6.08059">
        <ele>435</ele>
        <time>2016-3-26T12:40:33.000Z</time>
      </trkpt>
      <trkpt lat="47.24789" lon="6.08058">
        <ele>437</ele>
        <time>2016-3-26T12:40:33.000Z</time>
      </trkpt>
      <trkpt lat="47.24791" lon="6.08056">
        <ele>439</ele>
        <time>2016-3-26T12:40:33.000Z</time>
      </trkpt>
      <trkpt lat="47.24792" lon="6.08055">
        <ele>439</ele>
        <time>2016-3-26T12:40:33.000Z</time>
      </trkpt>
      <trkpt lat="47.24794" lon="6.08055">
        <ele>439</ele>
        <time>2016-3-26T12:40:33.000Z</time>
      </trkpt>
      <trkpt lat="47.24796" lon="6.08055">
        <ele>438</ele>
        <time>2016-3-26T12:40:33.000Z</time>
      </trkpt>
      <trkpt lat="47.24798" lon="6.08054">
        <ele>441</ele>
        <time>2016-3-26T12:40:33.000Z</time>
      </trkpt>
      <trkpt lat="47.248" lon="6.08054">
        <ele>442</ele>
        <time>2016-3-26T12:40:33.000Z</time>
      </trkpt>
      <trkpt lat="47.24802" lon="6.08051">
        <ele>442</ele>
        <time>2016-3-26T12:40:33.000Z</time>
      </trkpt>
      <trkpt lat="47.24803" lon="6.08048">
        <ele>443</ele>
        <time>2016-3-26T12:40:33.000Z</time>
      </trkpt>
      <trkpt lat="47.24804" lon="6.08046">
        <ele>445</ele>
        <time>2016-3-26T12:40:33.000Z</time>
      </trkpt>
      <trkpt lat="47.24804" lon="6.08043">
        <ele>448</ele>
        <time>2016-3-26T12:40:33.000Z</time>
      </trkpt>
      <trkpt lat="47.24804" lon="6.08041">
        <ele>448</ele>
        <time>2016-3-26T12:40:33.000Z</time>
      </trkpt>
      <trkpt lat="47.24803" lon="6.08038">
        <ele>450</ele>
        <time>2016-3-26T12:40:33.000Z</time>
      </trkpt>
      <trkpt lat="47.24802" lon="6.08037">
        <ele>450</ele>
        <time>2016-3-26T12:40:33.000Z</time>
      </trkpt>
      <trkpt lat="47.24801" lon="6.08035">
        <ele>450</ele>
        <time>2016-3-26T12:40:33.000Z</time>
      </trkpt>
      <trkpt lat="47.248" lon="6.08034">
        <ele>450</ele>
        <time>2016-3-26T12:40:33.000Z</time>
      </trkpt>
      <trkpt lat="47.24801" lon="6.08031">
        <ele>452</ele>
        <time>2016-3-26T12:40:33.000Z</time>
      </trkpt>
      <trkpt lat="47.24803" lon="6.08028">
        <ele>452</ele>
        <time>2016-3-26T12:40:33.000Z</time>
      </trkpt>
      <trkpt lat="47.24802" lon="6.08026">
        <ele>452</ele>
        <time>2016-3-26T12:40:33.000Z</time>
      </trkpt>
      <trkpt lat="47.24802" lon="6.08023">
        <ele>452</ele>
        <time>2016-3-26T12:40:33.000Z</time>
      </trkpt>
      <trkpt lat="47.24803" lon="6.08021">
        <ele>453</ele>
        <time>2016-3-26T12:40:33.000Z</time>
      </trkpt>
      <trkpt lat="47.24804" lon="6.08019">
        <ele>453</ele>
        <time>2016-3-26T12:40:33.000Z</time>
      </trkpt>
      <trkpt lat="47.24804" lon="6.08017">
        <ele>456</ele>
        <time>2016-3-26T12:40:33.000Z</time>
      </trkpt>
      <trkpt lat="47.24804" lon="6.08015">
        <ele>456</ele>
        <time>2016-3-26T12:40:33.000Z</time>
      </trkpt>
      <trkpt lat="47.24806" lon="6.08012">
        <ele>456</ele>
        <time>2016-3-26T12:40:33.000Z</time>
      </trkpt>
      <trkpt lat="47.24807" lon="6.0801">
        <ele>455</ele>
        <time>2016-3-26T12:40:33.000Z</time>
      </trkpt>
      <trkpt lat="47.24808" lon="6.08009">
        <ele>454</ele>
        <time>2016-3-26T12:40:33.000Z</time>
      </trkpt>
      <trkpt lat="47.2481" lon="6.08008">
        <ele>454</ele>
        <time>2016-3-26T12:40:33.000Z</time>
      </trkpt>
      <trkpt lat="47.24811" lon="6.08007">
        <ele>454</ele>
        <time>2016-3-26T12:40:33.000Z</time>
      </trkpt>
      <trkpt lat="47.24813" lon="6.08005">
        <ele>453</ele>
        <time>2016-3-26T12:40:33.000Z</time>
      </trkpt>
      <trkpt lat="47.24814" lon="6.08004">
        <ele>452</ele>
        <time>2016-3-26T12:40:33.000Z</time>
      </trkpt>
      <trkpt lat="47.24816" lon="6.08003">
        <ele>451</ele>
        <time>2016-3-26T12:40:33.000Z</time>
      </trkpt>
      <trkpt lat="47.24817" lon="6.08001">
        <ele>452</ele>
        <time>2016-3-26T12:40:33.000Z</time>
      </trkpt>
      <trkpt lat="47.24818" lon="6.07998">
        <ele>453</ele>
        <time>2016-3-26T12:40:33.000Z</time>
      </trkpt>
      <trkpt lat="47.24819" lon="6.07996">
        <ele>453</ele>
        <time>2016-3-26T12:40:33.000Z</time>
      </trkpt>
      <trkpt lat="47.24819" lon="6.07993">
        <ele>454</ele>
        <time>2016-3-26T12:40:33.000Z</time>
      </trkpt>
      <trkpt lat="47.2482" lon="6.07991">
        <ele>455</ele>
        <time>2016-3-26T12:40:33.000Z</time>
      </trkpt>
      <trkpt lat="47.24821" lon="6.07988">
        <ele>454</ele>
        <time>2016-3-26T12:40:33.000Z</time>
      </trkpt>
      <trkpt lat="47.24823" lon="6.07987">
        <ele>456</ele>
        <time>2016-3-26T12:40:33.000Z</time>
      </trkpt>
      <trkpt lat="47.24823" lon="6.07985">
        <ele>457</ele>
        <time>2016-3-26T12:40:33.000Z</time>
      </trkpt>
      <trkpt lat="47.24824" lon="6.07983">
        <ele>459</ele>
        <time>2016-3-26T12:40:33.000Z</time>
      </trkpt>
      <trkpt lat="47.24823" lon="6.07981">
        <ele>461</ele>
        <time>2016-3-26T12:40:33.000Z</time>
      </trkpt>
      <trkpt lat="47.24824" lon="6.07978">
        <ele>462</ele>
        <time>2016-3-26T12:40:33.000Z</time>
      </trkpt>
      <trkpt lat="47.24824" lon="6.07976">
        <ele>461</ele>
        <time>2016-3-26T12:40:33.000Z</time>
      </trkpt>
      <trkpt lat="47.24825" lon="6.07974">
        <ele>462</ele>
        <time>2016-3-26T12:40:33.000Z</time>
      </trkpt>
      <trkpt lat="47.24823" lon="6.07973">
        <ele>461</ele>
        <time>2016-3-26T12:40:33.000Z</time>
      </trkpt>
      <trkpt lat="47.24822" lon="6.07971">
        <ele>463</ele>
        <time>2016-3-26T12:40:33.000Z</time>
      </trkpt>
      <trkpt lat="47.24823" lon="6.07969">
        <ele>463</ele>
        <time>2016-3-26T12:40:33.000Z</time>
      </trkpt>
      <trkpt lat="47.24822" lon="6.07967">
        <ele>464</ele>
        <time>2016-3-26T12:40:33.000Z</time>
      </trkpt>
      <trkpt lat="47.24822" lon="6.07965">
        <ele>466</ele>
        <time>2016-3-26T12:40:33.000Z</time>
      </trkpt>
      <trkpt lat="47.24821" lon="6.07967">
        <ele>466</ele>
        <time>2016-3-26T12:40:33.000Z</time>
      </trkpt>
      <trkpt lat="47.24821" lon="6.07969">
        <ele>467</ele>
        <time>2016-3-26T12:40:33.000Z</time>
      </trkpt>
      <trkpt lat="47.24821" lon="6.07971">
        <ele>467</ele>
        <time>2016-3-26T12:40:33.000Z</time>
      </trkpt>
      <trkpt lat="47.24823" lon="6.07972">
        <ele>466</ele>
        <time>2016-3-26T12:40:33.000Z</time>
      </trkpt>
      <trkpt lat="47.24824" lon="6.07971">
        <ele>464</ele>
        <time>2016-3-26T12:40:33.000Z</time>
      </trkpt>
      <trkpt lat="47.24825" lon="6.07969">
        <ele>464</ele>
        <time>2016-3-26T12:40:33.000Z</time>
      </trkpt>
      <trkpt lat="47.24826" lon="6.07966">
        <ele>464</ele>
        <time>2016-3-26T12:40:33.000Z</time>
      </trkpt>
      <trkpt lat="47.24826" lon="6.07964">
        <ele>463</ele>
        <time>2016-3-26T12:40:33.000Z</time>
      </trkpt>
      <trkpt lat="47.24824" lon="6.07964">
        <ele>462</ele>
        <time>2016-3-26T12:40:33.000Z</time>
      </trkpt>
      <trkpt lat="47.24823" lon="6.07963">
        <ele>462</ele>
        <time>2016-3-26T12:40:33.000Z</time>
      </trkpt>
      <trkpt lat="47.24821" lon="6.07961">
        <ele>463</ele>
        <time>2016-3-26T12:40:33.000Z</time>
      </trkpt>
      <trkpt lat="47.24821" lon="6.07959">
        <ele>464</ele>
        <time>2016-3-26T12:40:33.000Z</time>
      </trkpt>
      <trkpt lat="47.2482" lon="6.07957">
        <ele>464</ele>
        <time>2016-3-26T12:40:33.000Z</time>
      </trkpt>
      <trkpt lat="47.2482" lon="6.07955">
        <ele>464</ele>
        <time>2016-3-26T12:40:33.000Z</time>
      </trkpt>
      <trkpt lat="47.24817" lon="6.07956">
        <ele>462</ele>
        <time>2016-3-26T12:40:33.000Z</time>
      </trkpt>
      <trkpt lat="47.24815" lon="6.07956">
        <ele>464</ele>
        <time>2016-3-26T12:40:33.000Z</time>
      </trkpt>
      <trkpt lat="47.24813" lon="6.07955">
        <ele>465</ele>
        <time>2016-3-26T12:40:33.000Z</time>
      </trkpt>
      <trkpt lat="47.24811" lon="6.07954">
        <ele>464</ele>
        <time>2016-3-26T12:40:33.000Z</time>
      </trkpt>
      <trkpt lat="47.24809" lon="6.07952">
        <ele>464</ele>
        <time>2016-3-26T12:40:33.000Z</time>
      </trkpt>
      <trkpt lat="47.24808" lon="6.07951">
        <ele>464</ele>
        <time>2016-3-26T12:40:33.000Z</time>
      </trkpt>
      <trkpt lat="47.24806" lon="6.0795">
        <ele>467</ele>
        <time>2016-3-26T12:40:33.000Z</time>
      </trkpt>
      <trkpt lat="47.24804" lon="6.07949">
        <ele>467</ele>
        <time>2016-3-26T12:40:33.000Z</time>
      </trkpt>
      <trkpt lat="47.24802" lon="6.07948">
        <ele>467</ele>
        <time>2016-3-26T12:40:33.000Z</time>
      </trkpt>
      <trkpt lat="47.24804" lon="6.07946">
        <ele>465</ele>
        <time>2016-3-26T12:40:33.000Z</time>
      </trkpt>
      <trkpt lat="47.24803" lon="6.07943">
        <ele>466</ele>
        <time>2016-3-26T12:40:33.000Z</time>
      </trkpt>
      <trkpt lat="47.24802" lon="6.07939">
        <ele>465</ele>
        <time>2016-3-26T12:40:33.000Z</time>
      </trkpt>
      <trkpt lat="47.24802" lon="6.07936">
        <ele>463</ele>
        <time>2016-3-26T12:40:33.000Z</time>
      </trkpt>
      <trkpt lat="47.248" lon="6.07934">
        <ele>462</ele>
        <time>2016-3-26T12:40:33.000Z</time>
      </trkpt>
      <trkpt lat="47.24798" lon="6.07935">
        <ele>462</ele>
        <time>2016-3-26T12:40:33.000Z</time>
      </trkpt>
      <trkpt lat="47.24795" lon="6.07934">
        <ele>463</ele>
        <time>2016-3-26T12:40:33.000Z</time>
      </trkpt>
      <trkpt lat="47.24793" lon="6.07934">
        <ele>463</ele>
        <time>2016-3-26T12:40:33.000Z</time>
      </trkpt>
      <trkpt lat="47.24791" lon="6.07931">
        <ele>462</ele>
        <time>2016-3-26T12:40:33.000Z</time>
      </trkpt>
      <trkpt lat="47.2479" lon="6.07929">
        <ele>465</ele>
        <time>2016-3-26T12:40:33.000Z</time>
      </trkpt>
      <trkpt lat="47.24789" lon="6.07926">
        <ele>465</ele>
        <time>2016-3-26T12:40:33.000Z</time>
      </trkpt>
      <trkpt lat="47.24789" lon="6.07923">
        <ele>464</ele>
        <time>2016-3-26T12:40:33.000Z</time>
      </trkpt>
      <trkpt lat="47.24786" lon="6.07922">
        <ele>463</ele>
        <time>2016-3-26T12:40:33.000Z</time>
      </trkpt>
      <trkpt lat="47.24784" lon="6.07921">
        <ele>462</ele>
        <time>2016-3-26T12:40:33.000Z</time>
      </trkpt>
      <trkpt lat="47.24783" lon="6.07921">
        <ele>464</ele>
        <time>2016-3-26T12:40:33.000Z</time>
      </trkpt>
      <trkpt lat="47.24781" lon="6.0792">
        <ele>464</ele>
        <time>2016-3-26T12:40:33.000Z</time>
      </trkpt>
      <trkpt lat="47.2478" lon="6.0792">
        <ele>463</ele>
        <time>2016-3-26T12:40:33.000Z</time>
      </trkpt>
      <trkpt lat="47.24778" lon="6.07919">
        <ele>463</ele>
        <time>2016-3-26T12:40:33.000Z</time>
      </trkpt>
      <trkpt lat="47.24777" lon="6.07918">
        <ele>463</ele>
        <time>2016-3-26T12:40:33.000Z</time>
      </trkpt>
      <trkpt lat="47.24775" lon="6.07917">
        <ele>464</ele>
        <time>2016-3-26T12:40:33.000Z</time>
      </trkpt>
      <trkpt lat="47.24773" lon="6.07916">
        <ele>465</ele>
        <time>2016-3-26T12:40:33.000Z</time>
      </trkpt>
      <trkpt lat="47.24771" lon="6.07916">
        <ele>463</ele>
        <time>2016-3-26T12:44:32.000Z</time>
      </trkpt>
      <trkpt lat="47.24769" lon="6.07916">
        <ele>466</ele>
        <time>2016-3-26T12:44:32.000Z</time>
      </trkpt>
      <trkpt lat="47.24767" lon="6.07915">
        <ele>464</ele>
        <time>2016-3-26T12:44:32.000Z</time>
      </trkpt>
      <trkpt lat="47.24766" lon="6.07916">
        <ele>463</ele>
        <time>2016-3-26T12:44:32.000Z</time>
      </trkpt>
      <trkpt lat="47.24764" lon="6.07917">
        <ele>463</ele>
        <time>2016-3-26T12:44:32.000Z</time>
      </trkpt>
      <trkpt lat="47.24762" lon="6.07917">
        <ele>463</ele>
        <time>2016-3-26T12:44:32.000Z</time>
      </trkpt>
      <trkpt lat="47.24759" lon="6.07917">
        <ele>463</ele>
        <time>2016-3-26T12:44:32.000Z</time>
      </trkpt>
      <trkpt lat="47.24757" lon="6.07916">
        <ele>464</ele>
        <time>2016-3-26T12:44:32.000Z</time>
      </trkpt>
      <trkpt lat="47.24755" lon="6.07914">
        <ele>464</ele>
        <time>2016-3-26T12:44:32.000Z</time>
      </trkpt>
      <trkpt lat="47.24752" lon="6.07912">
        <ele>462</ele>
        <time>2016-3-26T12:44:32.000Z</time>
      </trkpt>
      <trkpt lat="47.24751" lon="6.07911">
        <ele>462</ele>
        <time>2016-3-26T12:44:32.000Z</time>
      </trkpt>
      <trkpt lat="47.24749" lon="6.07909">
        <ele>462</ele>
        <time>2016-3-26T12:44:32.000Z</time>
      </trkpt>
      <trkpt lat="47.24747" lon="6.07908">
        <ele>463</ele>
        <time>2016-3-26T12:44:32.000Z</time>
      </trkpt>
      <trkpt lat="47.24745" lon="6.07906">
        <ele>464</ele>
        <time>2016-3-26T12:44:32.000Z</time>
      </trkpt>
      <trkpt lat="47.24743" lon="6.07905">
        <ele>463</ele>
        <time>2016-3-26T12:44:32.000Z</time>
      </trkpt>
      <trkpt lat="47.24741" lon="6.07905">
        <ele>463</ele>
        <time>2016-3-26T12:44:32.000Z</time>
      </trkpt>
      <trkpt lat="47.24738" lon="6.07904">
        <ele>465</ele>
        <time>2016-3-26T12:44:32.000Z</time>
      </trkpt>
      <trkpt lat="47.24736" lon="6.07903">
        <ele>465</ele>
        <time>2016-3-26T12:44:32.000Z</time>
      </trkpt>
      <trkpt lat="47.24733" lon="6.07902">
        <ele>464</ele>
        <time>2016-3-26T12:44:32.000Z</time>
      </trkpt>
      <trkpt lat="47.2473" lon="6.07902">
        <ele>464</ele>
        <time>2016-3-26T12:44:32.000Z</time>
      </trkpt>
      <trkpt lat="47.24728" lon="6.07902">
        <ele>463</ele>
        <time>2016-3-26T12:44:32.000Z</time>
      </trkpt>
      <trkpt lat="47.24725" lon="6.07902">
        <ele>462</ele>
        <time>2016-3-26T12:44:32.000Z</time>
      </trkpt>
      <trkpt lat="47.24723" lon="6.07901">
        <ele>461</ele>
        <time>2016-3-26T12:44:32.000Z</time>
      </trkpt>
      <trkpt lat="47.24721" lon="6.079">
        <ele>462</ele>
        <time>2016-3-26T12:44:32.000Z</time>
      </trkpt>
      <trkpt lat="47.24718" lon="6.07899">
        <ele>463</ele>
        <time>2016-3-26T12:44:32.000Z</time>
      </trkpt>
      <trkpt lat="47.24716" lon="6.07897">
        <ele>463</ele>
        <time>2016-3-26T12:44:32.000Z</time>
      </trkpt>
      <trkpt lat="47.24713" lon="6.07896">
        <ele>464</ele>
        <time>2016-3-26T12:44:32.000Z</time>
      </trkpt>
      <trkpt lat="47.24711" lon="6.07897">
        <ele>462</ele>
        <time>2016-3-26T12:44:32.000Z</time>
      </trkpt>
      <trkpt lat="47.24709" lon="6.07899">
        <ele>463</ele>
        <time>2016-3-26T12:44:32.000Z</time>
      </trkpt>
      <trkpt lat="47.24707" lon="6.07902">
        <ele>464</ele>
        <time>2016-3-26T12:44:32.000Z</time>
      </trkpt>
      <trkpt lat="47.24706" lon="6.07904">
        <ele>465</ele>
        <time>2016-3-26T12:44:32.000Z</time>
      </trkpt>
      <trkpt lat="47.24704" lon="6.07906">
        <ele>463</ele>
        <time>2016-3-26T12:44:32.000Z</time>
      </trkpt>
      <trkpt lat="47.24702" lon="6.07907">
        <ele>463</ele>
        <time>2016-3-26T12:44:32.000Z</time>
      </trkpt>
      <trkpt lat="47.24702" lon="6.07904">
        <ele>464</ele>
        <time>2016-3-26T12:44:32.000Z</time>
      </trkpt>
      <trkpt lat="47.24702" lon="6.079">
        <ele>464</ele>
        <time>2016-3-26T12:44:32.000Z</time>
      </trkpt>
      <trkpt lat="47.24701" lon="6.07897">
        <ele>464</ele>
        <time>2016-3-26T12:44:32.000Z</time>
      </trkpt>
      <trkpt lat="47.247" lon="6.07895">
        <ele>465</ele>
        <time>2016-3-26T12:44:32.000Z</time>
      </trkpt>
      <trkpt lat="47.24698" lon="6.07893">
        <ele>465</ele>
        <time>2016-3-26T12:44:32.000Z</time>
      </trkpt>
      <trkpt lat="47.24696" lon="6.0789">
        <ele>466</ele>
        <time>2016-3-26T12:44:32.000Z</time>
      </trkpt>
      <trkpt lat="47.24695" lon="6.07888">
        <ele>467</ele>
        <time>2016-3-26T12:44:32.000Z</time>
      </trkpt>
      <trkpt lat="47.24693" lon="6.07886">
        <ele>468</ele>
        <time>2016-3-26T12:44:32.000Z</time>
      </trkpt>
      <trkpt lat="47.2469" lon="6.07886">
        <ele>468</ele>
        <time>2016-3-26T12:44:32.000Z</time>
      </trkpt>
      <trkpt lat="47.24688" lon="6.07887">
        <ele>468</ele>
        <time>2016-3-26T12:44:32.000Z</time>
      </trkpt>
      <trkpt lat="47.24685" lon="6.07888">
        <ele>467</ele>
        <time>2016-3-26T12:44:32.000Z</time>
      </trkpt>
      <trkpt lat="47.24683" lon="6.07889">
        <ele>467</ele>
        <time>2016-3-26T12:44:32.000Z</time>
      </trkpt>
      <trkpt lat="47.24681" lon="6.0789">
        <ele>467</ele>
        <time>2016-3-26T12:44:32.000Z</time>
      </trkpt>
      <trkpt lat="47.24679" lon="6.0789">
        <ele>467</ele>
        <time>2016-3-26T12:44:32.000Z</time>
      </trkpt>
      <trkpt lat="47.24677" lon="6.0789">
        <ele>468</ele>
        <time>2016-3-26T12:44:32.000Z</time>
      </trkpt>
      <trkpt lat="47.24675" lon="6.0789">
        <ele>468</ele>
        <time>2016-3-26T12:44:32.000Z</time>
      </trkpt>
      <trkpt lat="47.24673" lon="6.0789">
        <ele>468</ele>
        <time>2016-3-26T12:44:32.000Z</time>
      </trkpt>
      <trkpt lat="47.24671" lon="6.07889">
        <ele>468</ele>
        <time>2016-3-26T12:44:32.000Z</time>
      </trkpt>
      <trkpt lat="47.24669" lon="6.07889">
        <ele>469</ele>
        <time>2016-3-26T12:44:32.000Z</time>
      </trkpt>
      <trkpt lat="47.24666" lon="6.07888">
        <ele>470</ele>
        <time>2016-3-26T12:44:32.000Z</time>
      </trkpt>
      <trkpt lat="47.24664" lon="6.07889">
        <ele>468</ele>
        <time>2016-3-26T12:44:32.000Z</time>
      </trkpt>
      <trkpt lat="47.24662" lon="6.07889">
        <ele>468</ele>
        <time>2016-3-26T12:44:32.000Z</time>
      </trkpt>
      <trkpt lat="47.2466" lon="6.07889">
        <ele>468</ele>
        <time>2016-3-26T12:44:32.000Z</time>
      </trkpt>
      <trkpt lat="47.24658" lon="6.07889">
        <ele>469</ele>
        <time>2016-3-26T12:44:32.000Z</time>
      </trkpt>
      <trkpt lat="47.24656" lon="6.07889">
        <ele>470</ele>
        <time>2016-3-26T12:44:32.000Z</time>
      </trkpt>
      <trkpt lat="47.24654" lon="6.07888">
        <ele>470</ele>
        <time>2016-3-26T12:44:32.000Z</time>
      </trkpt>
      <trkpt lat="47.24652" lon="6.07888">
        <ele>468</ele>
        <time>2016-3-26T12:44:32.000Z</time>
      </trkpt>
      <trkpt lat="47.24651" lon="6.07886">
        <ele>467</ele>
        <time>2016-3-26T12:44:32.000Z</time>
      </trkpt>
      <trkpt lat="47.2465" lon="6.07883">
        <ele>469</ele>
        <time>2016-3-26T12:44:32.000Z</time>
      </trkpt>
      <trkpt lat="47.24651" lon="6.07881">
        <ele>469</ele>
        <time>2016-3-26T12:44:32.000Z</time>
      </trkpt>
      <trkpt lat="47.24652" lon="6.07879">
        <ele>470</ele>
        <time>2016-3-26T12:44:32.000Z</time>
      </trkpt>
      <trkpt lat="47.24653" lon="6.07877">
        <ele>470</ele>
        <time>2016-3-26T12:44:32.000Z</time>
      </trkpt>
      <trkpt lat="47.24654" lon="6.07875">
        <ele>472</ele>
        <time>2016-3-26T12:44:32.000Z</time>
      </trkpt>
      <trkpt lat="47.24657" lon="6.07874">
        <ele>473</ele>
        <time>2016-3-26T12:44:32.000Z</time>
      </trkpt>
      <trkpt lat="47.24659" lon="6.07874">
        <ele>473</ele>
        <time>2016-3-26T12:44:32.000Z</time>
      </trkpt>
      <trkpt lat="47.24661" lon="6.07872">
        <ele>475</ele>
        <time>2016-3-26T12:44:32.000Z</time>
      </trkpt>
      <trkpt lat="47.24662" lon="6.07869">
        <ele>475</ele>
        <time>2016-3-26T12:44:32.000Z</time>
      </trkpt>
      <trkpt lat="47.24661" lon="6.07867">
        <ele>475</ele>
        <time>2016-3-26T12:44:32.000Z</time>
      </trkpt>
      <trkpt lat="47.2466" lon="6.07864">
        <ele>476</ele>
        <time>2016-3-26T12:44:32.000Z</time>
      </trkpt>
      <trkpt lat="47.24658" lon="6.07863">
        <ele>476</ele>
        <time>2016-3-26T12:44:32.000Z</time>
      </trkpt>
      <trkpt lat="47.24656" lon="6.07865">
        <ele>474</ele>
        <time>2016-3-26T12:44:32.000Z</time>
      </trkpt>
      <trkpt lat="47.24654" lon="6.07866">
        <ele>473</ele>
        <time>2016-3-26T12:44:32.000Z</time>
      </trkpt>
      <trkpt lat="47.24652" lon="6.07867">
        <ele>474</ele>
        <time>2016-3-26T12:44:32.000Z</time>
      </trkpt>
      <trkpt lat="47.24651" lon="6.07868">
        <ele>473</ele>
        <time>2016-3-26T12:44:32.000Z</time>
      </trkpt>
      <trkpt lat="47.24649" lon="6.0787">
        <ele>474</ele>
        <time>2016-3-26T12:44:32.000Z</time>
      </trkpt>
      <trkpt lat="47.24647" lon="6.07868">
        <ele>474</ele>
        <time>2016-3-26T12:44:32.000Z</time>
      </trkpt>
      <trkpt lat="47.24647" lon="6.07866">
        <ele>473</ele>
        <time>2016-3-26T12:44:32.000Z</time>
      </trkpt>
      <trkpt lat="47.24647" lon="6.07864">
        <ele>473</ele>
        <time>2016-3-26T12:44:32.000Z</time>
      </trkpt>
      <trkpt lat="47.24647" lon="6.07861">
        <ele>474</ele>
        <time>2016-3-26T12:44:32.000Z</time>
      </trkpt>
      <trkpt lat="47.24646" lon="6.07859">
        <ele>475</ele>
        <time>2016-3-26T12:44:32.000Z</time>
      </trkpt>
      <trkpt lat="47.24645" lon="6.07858">
        <ele>474</ele>
        <time>2016-3-26T12:44:32.000Z</time>
      </trkpt>
      <trkpt lat="47.24643" lon="6.07858">
        <ele>476</ele>
        <time>2016-3-26T12:44:32.000Z</time>
      </trkpt>
      <trkpt lat="47.24641" lon="6.07857">
        <ele>477</ele>
        <time>2016-3-26T12:44:32.000Z</time>
      </trkpt>
      <trkpt lat="47.2464" lon="6.07856">
        <ele>478</ele>
        <time>2016-3-26T12:44:32.000Z</time>
      </trkpt>
      <trkpt lat="47.24638" lon="6.07855">
        <ele>478</ele>
        <time>2016-3-26T12:44:32.000Z</time>
      </trkpt>
      <trkpt lat="47.24636" lon="6.07854">
        <ele>478</ele>
        <time>2016-3-26T12:44:32.000Z</time>
      </trkpt>
      <trkpt lat="47.24634" lon="6.07853">
        <ele>479</ele>
        <time>2016-3-26T12:44:32.000Z</time>
      </trkpt>
      <trkpt lat="47.24632" lon="6.07852">
        <ele>479</ele>
        <time>2016-3-26T12:44:32.000Z</time>
      </trkpt>
      <trkpt lat="47.24635" lon="6.07851">
        <ele>481</ele>
        <time>2016-3-26T12:44:32.000Z</time>
      </trkpt>
      <trkpt lat="47.24637" lon="6.0785">
        <ele>484</ele>
        <time>2016-3-26T12:44:32.000Z</time>
      </trkpt>
      <trkpt lat="47.24639" lon="6.07849">
        <ele>484</ele>
        <time>2016-3-26T12:44:32.000Z</time>
      </trkpt>
      <trkpt lat="47.24641" lon="6.07849">
        <ele>485</ele>
        <time>2016-3-26T12:44:32.000Z</time>
      </trkpt>
      <trkpt lat="47.24641" lon="6.07848">
        <ele>486</ele>
        <time>2016-3-26T12:58:32.000Z</time>
      </trkpt>
      <trkpt lat="47.24636" lon="6.0785">
        <ele>488</ele>
        <time>2016-3-26T12:58:32.000Z</time>
      </trkpt>
      <trkpt lat="47.24632" lon="6.07856">
        <ele>485</ele>
        <time>2016-3-26T12:58:32.000Z</time>
      </trkpt>
      <trkpt lat="47.24637" lon="6.07858">
        <ele>487</ele>
        <time>2016-3-26T12:58:32.000Z</time>
      </trkpt>
      <trkpt lat="47.24643" lon="6.07859">
        <ele>484</ele>
        <time>2016-3-26T12:58:32.000Z</time>
      </trkpt>
      <trkpt lat="47.24648" lon="6.07863">
        <ele>487</ele>
        <time>2016-3-26T12:58:32.000Z</time>
      </trkpt>
      <trkpt lat="47.24653" lon="6.07862">
        <ele>486</ele>
        <time>2016-3-26T12:58:32.000Z</time>
      </trkpt>
      <trkpt lat="47.24658" lon="6.07866">
        <ele>480</ele>
        <time>2016-3-26T12:58:32.000Z</time>
      </trkpt>
      <trkpt lat="47.24654" lon="6.07872">
        <ele>477</ele>
        <time>2016-3-26T12:58:32.000Z</time>
      </trkpt>
      <trkpt lat="47.24649" lon="6.07872">
        <ele>476</ele>
        <time>2016-3-26T12:58:32.000Z</time>
      </trkpt>
      <trkpt lat="47.24643" lon="6.07872">
        <ele>474</ele>
        <time>2016-3-26T12:58:32.000Z</time>
      </trkpt>
      <trkpt lat="47.24638" lon="6.07871">
        <ele>472</ele>
        <time>2016-3-26T12:58:32.000Z</time>
      </trkpt>
      <trkpt lat="47.24632" lon="6.07873">
        <ele>471</ele>
        <time>2016-3-26T12:58:32.000Z</time>
      </trkpt>
      <trkpt lat="47.24626" lon="6.07871">
        <ele>471</ele>
        <time>2016-3-26T12:58:32.000Z</time>
      </trkpt>
      <trkpt lat="47.24621" lon="6.07872">
        <ele>473</ele>
        <time>2016-3-26T12:58:32.000Z</time>
      </trkpt>
      <trkpt lat="47.24616" lon="6.07875">
        <ele>471</ele>
        <time>2016-3-26T12:58:32.000Z</time>
      </trkpt>
      <trkpt lat="47.2461" lon="6.07875">
        <ele>469</ele>
        <time>2016-3-26T12:58:32.000Z</time>
      </trkpt>
      <trkpt lat="47.24605" lon="6.07873">
        <ele>470</ele>
        <time>2016-3-26T12:58:32.000Z</time>
      </trkpt>
      <trkpt lat="47.24599" lon="6.07872">
        <ele>471</ele>
        <time>2016-3-26T12:58:32.000Z</time>
      </trkpt>
      <trkpt lat="47.24594" lon="6.07869">
        <ele>471</ele>
        <time>2016-3-26T12:58:32.000Z</time>
      </trkpt>
      <trkpt lat="47.24589" lon="6.07866">
        <ele>470</ele>
        <time>2016-3-26T12:58:32.000Z</time>
      </trkpt>
      <trkpt lat="47.24584" lon="6.07867">
        <ele>473</ele>
        <time>2016-3-26T12:58:32.000Z</time>
      </trkpt>
      <trkpt lat="47.24579" lon="6.07864">
        <ele>473</ele>
        <time>2016-3-26T12:58:32.000Z</time>
      </trkpt>
      <trkpt lat="47.24573" lon="6.07862">
        <ele>471</ele>
        <time>2016-3-26T12:58:32.000Z</time>
      </trkpt>
      <trkpt lat="47.24568" lon="6.07861">
        <ele>474</ele>
        <time>2016-3-26T12:58:32.000Z</time>
      </trkpt>
      <trkpt lat="47.24562" lon="6.0786">
        <ele>473</ele>
        <time>2016-3-26T12:58:32.000Z</time>
      </trkpt>
      <trkpt lat="47.24567" lon="6.0786">
        <ele>473</ele>
        <time>2016-3-26T12:58:32.000Z</time>
      </trkpt>
      <trkpt lat="47.24573" lon="6.07862">
        <ele>473</ele>
        <time>2016-3-26T12:58:32.000Z</time>
      </trkpt>
      <trkpt lat="47.24578" lon="6.07863">
        <ele>472</ele>
        <time>2016-3-26T12:58:32.000Z</time>
      </trkpt>
      <trkpt lat="47.24583" lon="6.07864">
        <ele>476</ele>
        <time>2016-3-26T12:58:32.000Z</time>
      </trkpt>
      <trkpt lat="47.24588" lon="6.07869">
        <ele>472</ele>
        <time>2016-3-26T12:58:32.000Z</time>
      </trkpt>
      <trkpt lat="47.24594" lon="6.0787">
        <ele>471</ele>
        <time>2016-3-26T12:58:32.000Z</time>
      </trkpt>
      <trkpt lat="47.24599" lon="6.07872">
        <ele>472</ele>
        <time>2016-3-26T12:58:32.000Z</time>
      </trkpt>
      <trkpt lat="47.24605" lon="6.07874">
        <ele>472</ele>
        <time>2016-3-26T12:58:32.000Z</time>
      </trkpt>
      <trkpt lat="47.2461" lon="6.07875">
        <ele>470</ele>
        <time>2016-3-26T12:58:32.000Z</time>
      </trkpt>
      <trkpt lat="47.24616" lon="6.07876">
        <ele>471</ele>
        <time>2016-3-26T12:58:32.000Z</time>
      </trkpt>
      <trkpt lat="47.24621" lon="6.07879">
        <ele>472</ele>
        <time>2016-3-26T12:58:32.000Z</time>
      </trkpt>
      <trkpt lat="47.24627" lon="6.07882">
        <ele>473</ele>
        <time>2016-3-26T12:58:32.000Z</time>
      </trkpt>
      <trkpt lat="47.24632" lon="6.07884">
        <ele>473</ele>
        <time>2016-3-26T12:58:32.000Z</time>
      </trkpt>
      <trkpt lat="47.24639" lon="6.07885">
        <ele>474</ele>
        <time>2016-3-26T12:58:32.000Z</time>
      </trkpt>
      <trkpt lat="47.24644" lon="6.07886">
        <ele>474</ele>
        <time>2016-3-26T12:58:32.000Z</time>
      </trkpt>
      <trkpt lat="47.24649" lon="6.07888">
        <ele>471</ele>
        <time>2016-3-26T12:58:32.000Z</time>
      </trkpt>
      <trkpt lat="47.24654" lon="6.0789">
        <ele>470</ele>
        <time>2016-3-26T12:58:32.000Z</time>
      </trkpt>
      <trkpt lat="47.2466" lon="6.0789">
        <ele>471</ele>
        <time>2016-3-26T12:58:32.000Z</time>
      </trkpt>
      <trkpt lat="47.24665" lon="6.07891">
        <ele>470</ele>
        <time>2016-3-26T12:58:32.000Z</time>
      </trkpt>
      <trkpt lat="47.2467" lon="6.07891">
        <ele>470</ele>
        <time>2016-3-26T12:58:32.000Z</time>
      </trkpt>
      <trkpt lat="47.24678" lon="6.07891">
        <ele>468</ele>
        <time>2016-3-26T12:58:32.000Z</time>
      </trkpt>
      <trkpt lat="47.24683" lon="6.07889">
        <ele>468</ele>
        <time>2016-3-26T12:58:32.000Z</time>
      </trkpt>
      <trkpt lat="47.24689" lon="6.07888">
        <ele>469</ele>
        <time>2016-3-26T12:58:32.000Z</time>
      </trkpt>
      <trkpt lat="47.24695" lon="6.07891">
        <ele>468</ele>
        <time>2016-3-26T12:58:32.000Z</time>
      </trkpt>
      <trkpt lat="47.24699" lon="6.07895">
        <ele>468</ele>
        <time>2016-3-26T12:58:32.000Z</time>
      </trkpt>
      <trkpt lat="47.24702" lon="6.07902">
        <ele>467</ele>
        <time>2016-3-26T12:58:32.000Z</time>
      </trkpt>
      <trkpt lat="47.24696" lon="6.07905">
        <ele>466</ele>
        <time>2016-3-26T12:58:32.000Z</time>
      </trkpt>
      <trkpt lat="47.2469" lon="6.07907">
        <ele>466</ele>
        <time>2016-3-26T12:58:32.000Z</time>
      </trkpt>
      <trkpt lat="47.24684" lon="6.07908">
        <ele>466</ele>
        <time>2016-3-26T12:58:32.000Z</time>
      </trkpt>
      <trkpt lat="47.24678" lon="6.07908">
        <ele>465</ele>
        <time>2016-3-26T12:58:32.000Z</time>
      </trkpt>
      <trkpt lat="47.24672" lon="6.07906">
        <ele>464</ele>
        <time>2016-3-26T12:58:32.000Z</time>
      </trkpt>
      <trkpt lat="47.24667" lon="6.07906">
        <ele>461</ele>
        <time>2016-3-26T12:58:32.000Z</time>
      </trkpt>
      <trkpt lat="47.24661" lon="6.07907">
        <ele>461</ele>
        <time>2016-3-26T12:58:32.000Z</time>
      </trkpt>
      <trkpt lat="47.24656" lon="6.07906">
        <ele>460</ele>
        <time>2016-3-26T12:58:32.000Z</time>
      </trkpt>
      <trkpt lat="47.24651" lon="6.07907">
        <ele>458</ele>
        <time>2016-3-26T12:58:32.000Z</time>
      </trkpt>
      <trkpt lat="47.24646" lon="6.07907">
        <ele>458</ele>
        <time>2016-3-26T12:58:32.000Z</time>
      </trkpt>
      <trkpt lat="47.24639" lon="6.07907">
        <ele>458</ele>
        <time>2016-3-26T12:58:32.000Z</time>
      </trkpt>
      <trkpt lat="47.24634" lon="6.07906">
        <ele>459</ele>
        <time>2016-3-26T12:58:32.000Z</time>
      </trkpt>
      <trkpt lat="47.24628" lon="6.07907">
        <ele>459</ele>
        <time>2016-3-26T12:58:32.000Z</time>
      </trkpt>
      <trkpt lat="47.24623" lon="6.07907">
        <ele>458</ele>
        <time>2016-3-26T12:58:32.000Z</time>
      </trkpt>
      <trkpt lat="47.24618" lon="6.07907">
        <ele>458</ele>
        <time>2016-3-26T12:58:32.000Z</time>
      </trkpt>
      <trkpt lat="47.24612" lon="6.07907">
        <ele>459</ele>
        <time>2016-3-26T12:58:32.000Z</time>
      </trkpt>
      <trkpt lat="47.24607" lon="6.07909">
        <ele>459</ele>
        <time>2016-3-26T12:58:32.000Z</time>
      </trkpt>
      <trkpt lat="47.24603" lon="6.07914">
        <ele>457</ele>
        <time>2016-3-26T12:58:32.000Z</time>
      </trkpt>
      <trkpt lat="47.246" lon="6.0792">
        <ele>455</ele>
        <time>2016-3-26T12:58:32.000Z</time>
      </trkpt>
      <trkpt lat="47.246" lon="6.07929">
        <ele>455</ele>
        <time>2016-3-26T12:58:32.000Z</time>
      </trkpt>
      <trkpt lat="47.246" lon="6.07937">
        <ele>455</ele>
        <time>2016-3-26T12:58:32.000Z</time>
      </trkpt>
      <trkpt lat="47.24599" lon="6.07947">
        <ele>454</ele>
        <time>2016-3-26T12:58:32.000Z</time>
      </trkpt>
      <trkpt lat="47.24596" lon="6.07954">
        <ele>453</ele>
        <time>2016-3-26T12:58:32.000Z</time>
      </trkpt>
      <trkpt lat="47.2459" lon="6.07959">
        <ele>452</ele>
        <time>2016-3-26T12:58:32.000Z</time>
      </trkpt>
      <trkpt lat="47.24587" lon="6.07965">
        <ele>456</ele>
        <time>2016-3-26T12:58:32.000Z</time>
      </trkpt>
      <trkpt lat="47.24581" lon="6.07969">
        <ele>455</ele>
        <time>2016-3-26T12:58:32.000Z</time>
      </trkpt>
      <trkpt lat="47.24576" lon="6.07973">
        <ele>455</ele>
        <time>2016-3-26T12:58:32.000Z</time>
      </trkpt>
      <trkpt lat="47.24571" lon="6.07977">
        <ele>454</ele>
        <time>2016-3-26T12:58:32.000Z</time>
      </trkpt>
      <trkpt lat="47.24567" lon="6.07983">
        <ele>455</ele>
        <time>2016-3-26T12:58:32.000Z</time>
      </trkpt>
      <trkpt lat="47.24562" lon="6.07987">
        <ele>454</ele>
        <time>2016-3-26T12:58:32.000Z</time>
      </trkpt>
      <trkpt lat="47.24556" lon="6.07991">
        <ele>454</ele>
        <time>2016-3-26T12:58:32.000Z</time>
      </trkpt>
      <trkpt lat="47.24551" lon="6.07993">
        <ele>451</ele>
        <time>2016-3-26T12:58:32.000Z</time>
      </trkpt>
      <trkpt lat="47.24544" lon="6.07993">
        <ele>449</ele>
        <time>2016-3-26T12:58:32.000Z</time>
      </trkpt>
      <trkpt lat="47.24537" lon="6.07991">
        <ele>447</ele>
        <time>2016-3-26T12:58:32.000Z</time>
      </trkpt>
      <trkpt lat="47.24532" lon="6.07987">
        <ele>448</ele>
        <time>2016-3-26T12:58:32.000Z</time>
      </trkpt>
      <trkpt lat="47.24527" lon="6.07981">
        <ele>449</ele>
        <time>2016-3-26T12:58:32.000Z</time>
      </trkpt>
      <trkpt lat="47.24522" lon="6.07977">
        <ele>448</ele>
        <time>2016-3-26T12:58:32.000Z</time>
      </trkpt>
      <trkpt lat="47.24517" lon="6.07973">
        <ele>446</ele>
        <time>2016-3-26T12:58:32.000Z</time>
      </trkpt>
      <trkpt lat="47.24512" lon="6.07969">
        <ele>443</ele>
        <time>2016-3-26T12:58:32.000Z</time>
      </trkpt>
      <trkpt lat="47.24506" lon="6.07965">
        <ele>441</ele>
        <time>2016-3-26T12:58:32.000Z</time>
      </trkpt>
      <trkpt lat="47.24501" lon="6.0796">
        <ele>440</ele>
        <time>2016-3-26T12:58:32.000Z</time>
      </trkpt>
      <trkpt lat="47.24496" lon="6.07959">
        <ele>438</ele>
        <time>2016-3-26T12:58:32.000Z</time>
      </trkpt>
      <trkpt lat="47.24491" lon="6.07959">
        <ele>439</ele>
        <time>2016-3-26T12:58:32.000Z</time>
      </trkpt>
      <trkpt lat="47.24485" lon="6.07958">
        <ele>438</ele>
        <time>2016-3-26T12:58:32.000Z</time>
      </trkpt>
      <trkpt lat="47.2448" lon="6.07956">
        <ele>436</ele>
        <time>2016-3-26T12:58:32.000Z</time>
      </trkpt>
      <trkpt lat="47.24475" lon="6.07954">
        <ele>436</ele>
        <time>2016-3-26T12:58:32.000Z</time>
      </trkpt>
      <trkpt lat="47.24469" lon="6.07953">
        <ele>437</ele>
        <time>2016-3-26T12:58:32.000Z</time>
      </trkpt>
      <trkpt lat="47.24463" lon="6.07953">
        <ele>437</ele>
        <time>2016-3-26T12:58:32.000Z</time>
      </trkpt>
      <trkpt lat="47.24457" lon="6.07953">
        <ele>435</ele>
        <time>2016-3-26T12:58:32.000Z</time>
      </trkpt>
      <trkpt lat="47.24452" lon="6.07954">
        <ele>434</ele>
        <time>2016-3-26T13:5:59.000Z</time>
      </trkpt>
      <trkpt lat="47.24446" lon="6.07956">
        <ele>434</ele>
        <time>2016-3-26T13:5:59.000Z</time>
      </trkpt>
      <trkpt lat="47.2444" lon="6.07957">
        <ele>431</ele>
        <time>2016-3-26T13:5:59.000Z</time>
      </trkpt>
      <trkpt lat="47.24434" lon="6.07958">
        <ele>430</ele>
        <time>2016-3-26T13:5:59.000Z</time>
      </trkpt>
      <trkpt lat="47.24429" lon="6.0796">
        <ele>432</ele>
        <time>2016-3-26T13:5:59.000Z</time>
      </trkpt>
      <trkpt lat="47.24423" lon="6.07962">
        <ele>432</ele>
        <time>2016-3-26T13:5:59.000Z</time>
      </trkpt>
      <trkpt lat="47.24418" lon="6.07964">
        <ele>433</ele>
        <time>2016-3-26T13:5:59.000Z</time>
      </trkpt>
      <trkpt lat="47.24412" lon="6.07964">
        <ele>434</ele>
        <time>2016-3-26T13:5:59.000Z</time>
      </trkpt>
      <trkpt lat="47.24406" lon="6.07965">
        <ele>437</ele>
        <time>2016-3-26T13:5:59.000Z</time>
      </trkpt>
      <trkpt lat="47.244" lon="6.07967">
        <ele>440</ele>
        <time>2016-3-26T13:5:59.000Z</time>
      </trkpt>
      <trkpt lat="47.24395" lon="6.07969">
        <ele>441</ele>
        <time>2016-3-26T13:5:59.000Z</time>
      </trkpt>
      <trkpt lat="47.2439" lon="6.07971">
        <ele>441</ele>
        <time>2016-3-26T13:5:59.000Z</time>
      </trkpt>
      <trkpt lat="47.24384" lon="6.07971">
        <ele>442</ele>
        <time>2016-3-26T13:5:59.000Z</time>
      </trkpt>
      <trkpt lat="47.24379" lon="6.0797">
        <ele>443</ele>
        <time>2016-3-26T13:5:59.000Z</time>
      </trkpt>
      <trkpt lat="47.24374" lon="6.0797">
        <ele>445</ele>
        <time>2016-3-26T13:5:59.000Z</time>
      </trkpt>
      <trkpt lat="47.24368" lon="6.07971">
        <ele>445</ele>
        <time>2016-3-26T13:5:59.000Z</time>
      </trkpt>
      <trkpt lat="47.24362" lon="6.0797">
        <ele>445</ele>
        <time>2016-3-26T13:5:59.000Z</time>
      </trkpt>
      <trkpt lat="47.24357" lon="6.07968">
        <ele>446</ele>
        <time>2016-3-26T13:5:59.000Z</time>
      </trkpt>
      <trkpt lat="47.24351" lon="6.07969">
        <ele>449</ele>
        <time>2016-3-26T13:5:59.000Z</time>
      </trkpt>
      <trkpt lat="47.24346" lon="6.0797">
        <ele>449</ele>
        <time>2016-3-26T13:5:59.000Z</time>
      </trkpt>
      <trkpt lat="47.24341" lon="6.07971">
        <ele>451</ele>
        <time>2016-3-26T13:5:59.000Z</time>
      </trkpt>
      <trkpt lat="47.24336" lon="6.07972">
        <ele>454</ele>
        <time>2016-3-26T13:5:59.000Z</time>
      </trkpt>
      <trkpt lat="47.2433" lon="6.07973">
        <ele>454</ele>
        <time>2016-3-26T13:5:59.000Z</time>
      </trkpt>
      <trkpt lat="47.24323" lon="6.07973">
        <ele>452</ele>
        <time>2016-3-26T13:5:59.000Z</time>
      </trkpt>
      <trkpt lat="47.24318" lon="6.07976">
        <ele>450</ele>
        <time>2016-3-26T13:5:59.000Z</time>
      </trkpt>
      <trkpt lat="47.24312" lon="6.07977">
        <ele>449</ele>
        <time>2016-3-26T13:5:59.000Z</time>
      </trkpt>
      <trkpt lat="47.24307" lon="6.07978">
        <ele>449</ele>
        <time>2016-3-26T13:5:59.000Z</time>
      </trkpt>
      <trkpt lat="47.24301" lon="6.07978">
        <ele>451</ele>
        <time>2016-3-26T13:5:59.000Z</time>
      </trkpt>
      <trkpt lat="47.24296" lon="6.07983">
        <ele>451</ele>
        <time>2016-3-26T13:5:59.000Z</time>
      </trkpt>
      <trkpt lat="47.24291" lon="6.07986">
        <ele>452</ele>
        <time>2016-3-26T13:5:59.000Z</time>
      </trkpt>
      <trkpt lat="47.24285" lon="6.07987">
        <ele>451</ele>
        <time>2016-3-26T13:5:59.000Z</time>
      </trkpt>
      <trkpt lat="47.24279" lon="6.07987">
        <ele>452</ele>
        <time>2016-3-26T13:5:59.000Z</time>
      </trkpt>
      <trkpt lat="47.24274" lon="6.07987">
        <ele>452</ele>
        <time>2016-3-26T13:5:59.000Z</time>
      </trkpt>
      <trkpt lat="47.24268" lon="6.07985">
        <ele>454</ele>
        <time>2016-3-26T13:5:59.000Z</time>
      </trkpt>
      <trkpt lat="47.24263" lon="6.07982">
        <ele>457</ele>
        <time>2016-3-26T13:5:59.000Z</time>
      </trkpt>
      <trkpt lat="47.24257" lon="6.0798">
        <ele>458</ele>
        <time>2016-3-26T13:5:59.000Z</time>
      </trkpt>
      <trkpt lat="47.24252" lon="6.07977">
        <ele>459</ele>
        <time>2016-3-26T13:5:59.000Z</time>
      </trkpt>
      <trkpt lat="47.24247" lon="6.07974">
        <ele>460</ele>
        <time>2016-3-26T13:5:59.000Z</time>
      </trkpt>
      <trkpt lat="47.24242" lon="6.07972">
        <ele>458</ele>
        <time>2016-3-26T13:5:59.000Z</time>
      </trkpt>
      <trkpt lat="47.24236" lon="6.0797">
        <ele>459</ele>
        <time>2016-3-26T13:5:59.000Z</time>
      </trkpt>
      <trkpt lat="47.24231" lon="6.07966">
        <ele>462</ele>
        <time>2016-3-26T13:5:59.000Z</time>
      </trkpt>
      <trkpt lat="47.24226" lon="6.07961">
        <ele>465</ele>
        <time>2016-3-26T13:5:59.000Z</time>
      </trkpt>
      <trkpt lat="47.24222" lon="6.07958">
        <ele>464</ele>
        <time>2016-3-26T13:5:59.000Z</time>
      </trkpt>
      <trkpt lat="47.24217" lon="6.07953">
        <ele>464</ele>
        <time>2016-3-26T13:5:59.000Z</time>
      </trkpt>
      <trkpt lat="47.24212" lon="6.07948">
        <ele>465</ele>
        <time>2016-3-26T13:5:59.000Z</time>
      </trkpt>
      <trkpt lat="47.24207" lon="6.07945">
        <ele>465</ele>
        <time>2016-3-26T13:5:59.000Z</time>
      </trkpt>
      <trkpt lat="47.24202" lon="6.07941">
        <ele>465</ele>
        <time>2016-3-26T13:5:59.000Z</time>
      </trkpt>
      <trkpt lat="47.24198" lon="6.07936">
        <ele>464</ele>
        <time>2016-3-26T13:5:59.000Z</time>
      </trkpt>
      <trkpt lat="47.24193" lon="6.07932">
        <ele>462</ele>
        <time>2016-3-26T13:5:59.000Z</time>
      </trkpt>
      <trkpt lat="47.24188" lon="6.07928">
        <ele>461</ele>
        <time>2016-3-26T13:5:59.000Z</time>
      </trkpt>
      <trkpt lat="47.24183" lon="6.07924">
        <ele>462</ele>
        <time>2016-3-26T13:5:59.000Z</time>
      </trkpt>
      <trkpt lat="47.24177" lon="6.07921">
        <ele>463</ele>
        <time>2016-3-26T13:5:59.000Z</time>
      </trkpt>
      <trkpt lat="47.24172" lon="6.0792">
        <ele>463</ele>
        <time>2016-3-26T13:5:59.000Z</time>
      </trkpt>
      <trkpt lat="47.24167" lon="6.07919">
        <ele>463</ele>
        <time>2016-3-26T13:5:59.000Z</time>
      </trkpt>
      <trkpt lat="47.24161" lon="6.07917">
        <ele>466</ele>
        <time>2016-3-26T13:5:59.000Z</time>
      </trkpt>
      <trkpt lat="47.24155" lon="6.07916">
        <ele>466</ele>
        <time>2016-3-26T13:5:59.000Z</time>
      </trkpt>
      <trkpt lat="47.2415" lon="6.07912">
        <ele>466</ele>
        <time>2016-3-26T13:5:59.000Z</time>
      </trkpt>
      <trkpt lat="47.24144" lon="6.07908">
        <ele>466</ele>
        <time>2016-3-26T13:5:59.000Z</time>
      </trkpt>
      <trkpt lat="47.24138" lon="6.07905">
        <ele>467</ele>
        <time>2016-3-26T13:5:59.000Z</time>
      </trkpt>
      <trkpt lat="47.24133" lon="6.07902">
        <ele>468</ele>
        <time>2016-3-26T13:5:59.000Z</time>
      </trkpt>
      <trkpt lat="47.24128" lon="6.07899">
        <ele>468</ele>
        <time>2016-3-26T13:5:59.000Z</time>
      </trkpt>
      <trkpt lat="47.24122" lon="6.07897">
        <ele>469</ele>
        <time>2016-3-26T13:5:59.000Z</time>
      </trkpt>
      <trkpt lat="47.24118" lon="6.07894">
        <ele>469</ele>
        <time>2016-3-26T13:5:59.000Z</time>
      </trkpt>
      <trkpt lat="47.24113" lon="6.07891">
        <ele>469</ele>
        <time>2016-3-26T13:5:59.000Z</time>
      </trkpt>
      <trkpt lat="47.24108" lon="6.07887">
        <ele>468</ele>
        <time>2016-3-26T13:5:59.000Z</time>
      </trkpt>
      <trkpt lat="47.24102" lon="6.07883">
        <ele>468</ele>
        <time>2016-3-26T13:5:59.000Z</time>
      </trkpt>
      <trkpt lat="47.24097" lon="6.0788">
        <ele>467</ele>
        <time>2016-3-26T13:5:59.000Z</time>
      </trkpt>
      <trkpt lat="47.24093" lon="6.07876">
        <ele>468</ele>
        <time>2016-3-26T13:5:59.000Z</time>
      </trkpt>
      <trkpt lat="47.24088" lon="6.07872">
        <ele>470</ele>
        <time>2016-3-26T13:5:59.000Z</time>
      </trkpt>
      <trkpt lat="47.24083" lon="6.0787">
        <ele>469</ele>
        <time>2016-3-26T13:5:59.000Z</time>
      </trkpt>
      <trkpt lat="47.24078" lon="6.07867">
        <ele>469</ele>
        <time>2016-3-26T13:5:59.000Z</time>
      </trkpt>
      <trkpt lat="47.24073" lon="6.07864">
        <ele>467</ele>
        <time>2016-3-26T13:5:59.000Z</time>
      </trkpt>
      <trkpt lat="47.24068" lon="6.0786">
        <ele>467</ele>
        <time>2016-3-26T13:5:59.000Z</time>
      </trkpt>
      <trkpt lat="47.24063" lon="6.07856">
        <ele>467</ele>
        <time>2016-3-26T13:5:59.000Z</time>
      </trkpt>
      <trkpt lat="47.24058" lon="6.07853">
        <ele>466</ele>
        <time>2016-3-26T13:5:59.000Z</time>
      </trkpt>
      <trkpt lat="47.24053" lon="6.07849">
        <ele>467</ele>
        <time>2016-3-26T13:5:59.000Z</time>
      </trkpt>
      <trkpt lat="47.24048" lon="6.07847">
        <ele>468</ele>
        <time>2016-3-26T13:5:59.000Z</time>
      </trkpt>
      <trkpt lat="47.24043" lon="6.07844">
        <ele>468</ele>
        <time>2016-3-26T13:5:59.000Z</time>
      </trkpt>
      <trkpt lat="47.24038" lon="6.07841">
        <ele>469</ele>
        <time>2016-3-26T13:5:59.000Z</time>
      </trkpt>
      <trkpt lat="47.24031" lon="6.07837">
        <ele>471</ele>
        <time>2016-3-26T13:5:59.000Z</time>
      </trkpt>
      <trkpt lat="47.24025" lon="6.07835">
        <ele>471</ele>
        <time>2016-3-26T13:5:59.000Z</time>
      </trkpt>
      <trkpt lat="47.2402" lon="6.07833">
        <ele>471</ele>
        <time>2016-3-26T13:5:59.000Z</time>
      </trkpt>
      <trkpt lat="47.24016" lon="6.07829">
        <ele>471</ele>
        <time>2016-3-26T13:5:59.000Z</time>
      </trkpt>
      <trkpt lat="47.24011" lon="6.07827">
        <ele>472</ele>
        <time>2016-3-26T13:5:59.000Z</time>
      </trkpt>
      <trkpt lat="47.24005" lon="6.07822">
        <ele>473</ele>
        <time>2016-3-26T13:5:59.000Z</time>
      </trkpt>
      <trkpt lat="47.24" lon="6.07822">
        <ele>474</ele>
        <time>2016-3-26T13:5:59.000Z</time>
      </trkpt>
      <trkpt lat="47.23994" lon="6.07821">
        <ele>474</ele>
        <time>2016-3-26T13:5:59.000Z</time>
      </trkpt>
      <trkpt lat="47.23989" lon="6.0782">
        <ele>476</ele>
        <time>2016-3-26T13:5:59.000Z</time>
      </trkpt>
      <trkpt lat="47.23983" lon="6.07819">
        <ele>477</ele>
        <time>2016-3-26T13:5:59.000Z</time>
      </trkpt>
      <trkpt lat="47.23977" lon="6.07817">
        <ele>477</ele>
        <time>2016-3-26T13:5:59.000Z</time>
      </trkpt>
      <trkpt lat="47.23972" lon="6.07815">
        <ele>477</ele>
        <time>2016-3-26T13:5:59.000Z</time>
      </trkpt>
      <trkpt lat="47.23967" lon="6.07813">
        <ele>477</ele>
        <time>2016-3-26T13:5:59.000Z</time>
      </trkpt>
      <trkpt lat="47.23961" lon="6.07812">
        <ele>476</ele>
        <time>2016-3-26T13:5:59.000Z</time>
      </trkpt>
      <trkpt lat="47.23956" lon="6.0781">
        <ele>477</ele>
        <time>2016-3-26T13:5:59.000Z</time>
      </trkpt>
      <trkpt lat="47.2395" lon="6.0781">
        <ele>476</ele>
        <time>2016-3-26T13:5:59.000Z</time>
      </trkpt>
      <trkpt lat="47.23944" lon="6.07807">
        <ele>478</ele>
        <time>2016-3-26T13:5:59.000Z</time>
      </trkpt>
      <trkpt lat="47.23938" lon="6.07806">
        <ele>479</ele>
        <time>2016-3-26T13:5:59.000Z</time>
      </trkpt>
      <trkpt lat="47.23932" lon="6.07803">
        <ele>477</ele>
        <time>2016-3-26T13:5:59.000Z</time>
      </trkpt>
      <trkpt lat="47.23927" lon="6.07801">
        <ele>477</ele>
        <time>2016-3-26T13:5:59.000Z</time>
      </trkpt>
      <trkpt lat="47.23922" lon="6.07799">
        <ele>480</ele>
        <time>2016-3-26T13:5:59.000Z</time>
      </trkpt>
      <trkpt lat="47.23917" lon="6.07797">
        <ele>480</ele>
        <time>2016-3-26T13:5:59.000Z</time>
      </trkpt>
      <trkpt lat="47.23911" lon="6.07796">
        <ele>482</ele>
        <time>2016-3-26T13:13:40.000Z</time>
      </trkpt>
      <trkpt lat="47.23905" lon="6.07795">
        <ele>483</ele>
        <time>2016-3-26T13:13:40.000Z</time>
      </trkpt>
      <trkpt lat="47.239" lon="6.07791">
        <ele>484</ele>
        <time>2016-3-26T13:13:40.000Z</time>
      </trkpt>
      <trkpt lat="47.23895" lon="6.0779">
        <ele>485</ele>
        <time>2016-3-26T13:13:40.000Z</time>
      </trkpt>
      <trkpt lat="47.2389" lon="6.07788">
        <ele>484</ele>
        <time>2016-3-26T13:13:40.000Z</time>
      </trkpt>
      <trkpt lat="47.23884" lon="6.07786">
        <ele>486</ele>
        <time>2016-3-26T13:13:40.000Z</time>
      </trkpt>
      <trkpt lat="47.2388" lon="6.07783">
        <ele>487</ele>
        <time>2016-3-26T13:13:40.000Z</time>
      </trkpt>
      <trkpt lat="47.23875" lon="6.0778">
        <ele>487</ele>
        <time>2016-3-26T13:13:40.000Z</time>
      </trkpt>
      <trkpt lat="47.2387" lon="6.07776">
        <ele>487</ele>
        <time>2016-3-26T13:13:40.000Z</time>
      </trkpt>
      <trkpt lat="47.23867" lon="6.07768">
        <ele>486</ele>
        <time>2016-3-26T13:13:40.000Z</time>
      </trkpt>
      <trkpt lat="47.23863" lon="6.07764">
        <ele>487</ele>
        <time>2016-3-26T13:13:40.000Z</time>
      </trkpt>
      <trkpt lat="47.23858" lon="6.0776">
        <ele>488</ele>
        <time>2016-3-26T13:13:40.000Z</time>
      </trkpt>
      <trkpt lat="47.23853" lon="6.07756">
        <ele>487</ele>
        <time>2016-3-26T13:13:40.000Z</time>
      </trkpt>
      <trkpt lat="47.23849" lon="6.07751">
        <ele>488</ele>
        <time>2016-3-26T13:13:40.000Z</time>
      </trkpt>
      <trkpt lat="47.23845" lon="6.07746">
        <ele>488</ele>
        <time>2016-3-26T13:13:40.000Z</time>
      </trkpt>
      <trkpt lat="47.2384" lon="6.0774">
        <ele>489</ele>
        <time>2016-3-26T13:13:40.000Z</time>
      </trkpt>
      <trkpt lat="47.23836" lon="6.07734">
        <ele>490</ele>
        <time>2016-3-26T13:13:40.000Z</time>
      </trkpt>
      <trkpt lat="47.23833" lon="6.07727">
        <ele>491</ele>
        <time>2016-3-26T13:13:40.000Z</time>
      </trkpt>
      <trkpt lat="47.23831" lon="6.07719">
        <ele>491</ele>
        <time>2016-3-26T13:13:40.000Z</time>
      </trkpt>
      <trkpt lat="47.23828" lon="6.07712">
        <ele>492</ele>
        <time>2016-3-26T13:13:40.000Z</time>
      </trkpt>
      <trkpt lat="47.23826" lon="6.07705">
        <ele>493</ele>
        <time>2016-3-26T13:13:40.000Z</time>
      </trkpt>
      <trkpt lat="47.23824" lon="6.07697">
        <ele>494</ele>
        <time>2016-3-26T13:13:40.000Z</time>
      </trkpt>
      <trkpt lat="47.23823" lon="6.0769">
        <ele>494</ele>
        <time>2016-3-26T13:13:40.000Z</time>
      </trkpt>
      <trkpt lat="47.2382" lon="6.07683">
        <ele>495</ele>
        <time>2016-3-26T13:13:40.000Z</time>
      </trkpt>
      <trkpt lat="47.23817" lon="6.07675">
        <ele>495</ele>
        <time>2016-3-26T13:13:40.000Z</time>
      </trkpt>
      <trkpt lat="47.23813" lon="6.07669">
        <ele>494</ele>
        <time>2016-3-26T13:13:40.000Z</time>
      </trkpt>
      <trkpt lat="47.23808" lon="6.07664">
        <ele>493</ele>
        <time>2016-3-26T13:13:40.000Z</time>
      </trkpt>
      <trkpt lat="47.23803" lon="6.07661">
        <ele>494</ele>
        <time>2016-3-26T13:13:40.000Z</time>
      </trkpt>
      <trkpt lat="47.23798" lon="6.07659">
        <ele>496</ele>
        <time>2016-3-26T13:13:40.000Z</time>
      </trkpt>
      <trkpt lat="47.23792" lon="6.07659">
        <ele>497</ele>
        <time>2016-3-26T13:13:40.000Z</time>
      </trkpt>
      <trkpt lat="47.23795" lon="6.07652">
        <ele>496</ele>
        <time>2016-3-26T13:13:40.000Z</time>
      </trkpt>
      <trkpt lat="47.23798" lon="6.07646">
        <ele>498</ele>
        <time>2016-3-26T13:13:40.000Z</time>
      </trkpt>
      <trkpt lat="47.23803" lon="6.07638">
        <ele>496</ele>
        <time>2016-3-26T13:13:40.000Z</time>
      </trkpt>
      <trkpt lat="47.23806" lon="6.07631">
        <ele>496</ele>
        <time>2016-3-26T13:13:40.000Z</time>
      </trkpt>
      <trkpt lat="47.23809" lon="6.07624">
        <ele>497</ele>
        <time>2016-3-26T13:13:40.000Z</time>
      </trkpt>
      <trkpt lat="47.2381" lon="6.07617">
        <ele>497</ele>
        <time>2016-3-26T13:13:40.000Z</time>
      </trkpt>
      <trkpt lat="47.23811" lon="6.07608">
        <ele>495</ele>
        <time>2016-3-26T13:13:40.000Z</time>
      </trkpt>
      <trkpt lat="47.23813" lon="6.07599">
        <ele>496</ele>
        <time>2016-3-26T13:13:40.000Z</time>
      </trkpt>
      <trkpt lat="47.23814" lon="6.07592">
        <ele>497</ele>
        <time>2016-3-26T13:13:40.000Z</time>
      </trkpt>
      <trkpt lat="47.23819" lon="6.07585">
        <ele>499</ele>
        <time>2016-3-26T13:13:40.000Z</time>
      </trkpt>
      <trkpt lat="47.23822" lon="6.07579">
        <ele>500</ele>
        <time>2016-3-26T13:13:40.000Z</time>
      </trkpt>
      <trkpt lat="47.23826" lon="6.07574">
        <ele>500</ele>
        <time>2016-3-26T13:13:40.000Z</time>
      </trkpt>
      <trkpt lat="47.2383" lon="6.0757">
        <ele>500</ele>
        <time>2016-3-26T13:13:40.000Z</time>
      </trkpt>
      <trkpt lat="47.23836" lon="6.07565">
        <ele>501</ele>
        <time>2016-3-26T13:13:40.000Z</time>
      </trkpt>
      <trkpt lat="47.23842" lon="6.07564">
        <ele>500</ele>
        <time>2016-3-26T13:13:40.000Z</time>
      </trkpt>
      <trkpt lat="47.23847" lon="6.07561">
        <ele>506</ele>
        <time>2016-3-26T13:13:40.000Z</time>
      </trkpt>
      <trkpt lat="47.23853" lon="6.07558">
        <ele>505</ele>
        <time>2016-3-26T13:13:40.000Z</time>
      </trkpt>
      <trkpt lat="47.23859" lon="6.07558">
        <ele>504</ele>
        <time>2016-3-26T13:13:40.000Z</time>
      </trkpt>
      <trkpt lat="47.23865" lon="6.07556">
        <ele>505</ele>
        <time>2016-3-26T13:13:40.000Z</time>
      </trkpt>
      <trkpt lat="47.2387" lon="6.07552">
        <ele>505</ele>
        <time>2016-3-26T13:13:40.000Z</time>
      </trkpt>
      <trkpt lat="47.23875" lon="6.07547">
        <ele>506</ele>
        <time>2016-3-26T13:13:40.000Z</time>
      </trkpt>
      <trkpt lat="47.23879" lon="6.07543">
        <ele>505</ele>
        <time>2016-3-26T13:13:40.000Z</time>
      </trkpt>
      <trkpt lat="47.23884" lon="6.07538">
        <ele>504</ele>
        <time>2016-3-26T13:13:40.000Z</time>
      </trkpt>
      <trkpt lat="47.2389" lon="6.07535">
        <ele>503</ele>
        <time>2016-3-26T13:13:40.000Z</time>
      </trkpt>
      <trkpt lat="47.23896" lon="6.07532">
        <ele>503</ele>
        <time>2016-3-26T13:13:40.000Z</time>
      </trkpt>
      <trkpt lat="47.23899" lon="6.07526">
        <ele>503</ele>
        <time>2016-3-26T13:13:40.000Z</time>
      </trkpt>
      <trkpt lat="47.23904" lon="6.07521">
        <ele>503</ele>
        <time>2016-3-26T13:13:40.000Z</time>
      </trkpt>
      <trkpt lat="47.23909" lon="6.07518">
        <ele>504</ele>
        <time>2016-3-26T13:13:40.000Z</time>
      </trkpt>
      <trkpt lat="47.23915" lon="6.07515">
        <ele>504</ele>
        <time>2016-3-26T13:13:40.000Z</time>
      </trkpt>
      <trkpt lat="47.2392" lon="6.07511">
        <ele>505</ele>
        <time>2016-3-26T13:13:40.000Z</time>
      </trkpt>
      <trkpt lat="47.23924" lon="6.07505">
        <ele>504</ele>
        <time>2016-3-26T13:13:40.000Z</time>
      </trkpt>
      <trkpt lat="47.23928" lon="6.075">
        <ele>505</ele>
        <time>2016-3-26T13:13:40.000Z</time>
      </trkpt>
      <trkpt lat="47.23933" lon="6.07497">
        <ele>508</ele>
        <time>2016-3-26T13:13:40.000Z</time>
      </trkpt>
      <trkpt lat="47.23939" lon="6.07493">
        <ele>507</ele>
        <time>2016-3-26T13:13:40.000Z</time>
      </trkpt>
      <trkpt lat="47.23943" lon="6.0749">
        <ele>506</ele>
        <time>2016-3-26T13:13:40.000Z</time>
      </trkpt>
      <trkpt lat="47.23948" lon="6.07487">
        <ele>506</ele>
        <time>2016-3-26T13:13:40.000Z</time>
      </trkpt>
      <trkpt lat="47.23953" lon="6.07485">
        <ele>506</ele>
        <time>2016-3-26T13:13:40.000Z</time>
      </trkpt>
      <trkpt lat="47.23959" lon="6.07482">
        <ele>503</ele>
        <time>2016-3-26T13:13:40.000Z</time>
      </trkpt>
      <trkpt lat="47.23965" lon="6.07477">
        <ele>503</ele>
        <time>2016-3-26T13:13:40.000Z</time>
      </trkpt>
      <trkpt lat="47.23971" lon="6.07473">
        <ele>502</ele>
        <time>2016-3-26T13:13:40.000Z</time>
      </trkpt>
      <trkpt lat="47.23976" lon="6.0747">
        <ele>502</ele>
        <time>2016-3-26T13:13:40.000Z</time>
      </trkpt>
      <trkpt lat="47.23982" lon="6.07468">
        <ele>503</ele>
        <time>2016-3-26T13:13:40.000Z</time>
      </trkpt>
      <trkpt lat="47.23988" lon="6.07465">
        <ele>503</ele>
        <time>2016-3-26T13:13:40.000Z</time>
      </trkpt>
      <trkpt lat="47.23993" lon="6.07464">
        <ele>504</ele>
        <time>2016-3-26T13:13:40.000Z</time>
      </trkpt>
      <trkpt lat="47.23998" lon="6.07462">
        <ele>504</ele>
        <time>2016-3-26T13:13:40.000Z</time>
      </trkpt>
      <trkpt lat="47.24005" lon="6.07461">
        <ele>504</ele>
        <time>2016-3-26T13:13:40.000Z</time>
      </trkpt>
      <trkpt lat="47.2401" lon="6.07461">
        <ele>503</ele>
        <time>2016-3-26T13:13:40.000Z</time>
      </trkpt>
      <trkpt lat="47.24015" lon="6.07462">
        <ele>504</ele>
        <time>2016-3-26T13:13:40.000Z</time>
      </trkpt>
      <trkpt lat="47.24022" lon="6.07462">
        <ele>503</ele>
        <time>2016-3-26T13:13:40.000Z</time>
      </trkpt>
      <trkpt lat="47.24028" lon="6.07461">
        <ele>503</ele>
        <time>2016-3-26T13:13:40.000Z</time>
      </trkpt>
      <trkpt lat="47.24035" lon="6.07464">
        <ele>503</ele>
        <time>2016-3-26T13:13:40.000Z</time>
      </trkpt>
      <trkpt lat="47.24042" lon="6.07466">
        <ele>503</ele>
        <time>2016-3-26T13:13:40.000Z</time>
      </trkpt>
      <trkpt lat="47.24047" lon="6.07467">
        <ele>502</ele>
        <time>2016-3-26T13:13:40.000Z</time>
      </trkpt>
      <trkpt lat="47.24052" lon="6.07469">
        <ele>501</ele>
        <time>2016-3-26T13:13:40.000Z</time>
      </trkpt>
      <trkpt lat="47.24058" lon="6.07471">
        <ele>501</ele>
        <time>2016-3-26T13:13:40.000Z</time>
      </trkpt>
      <trkpt lat="47.24064" lon="6.07474">
        <ele>500</ele>
        <time>2016-3-26T13:13:40.000Z</time>
      </trkpt>
      <trkpt lat="47.24069" lon="6.07476">
        <ele>500</ele>
        <time>2016-3-26T13:13:40.000Z</time>
      </trkpt>
      <trkpt lat="47.24075" lon="6.07479">
        <ele>499</ele>
        <time>2016-3-26T13:13:40.000Z</time>
      </trkpt>
      <trkpt lat="47.24081" lon="6.07481">
        <ele>499</ele>
        <time>2016-3-26T13:13:40.000Z</time>
      </trkpt>
      <trkpt lat="47.24087" lon="6.07483">
        <ele>499</ele>
        <time>2016-3-26T13:13:40.000Z</time>
      </trkpt>
      <trkpt lat="47.24093" lon="6.07485">
        <ele>500</ele>
        <time>2016-3-26T13:13:40.000Z</time>
      </trkpt>
      <trkpt lat="47.24099" lon="6.07488">
        <ele>498</ele>
        <time>2016-3-26T13:13:40.000Z</time>
      </trkpt>
      <trkpt lat="47.24104" lon="6.0749">
        <ele>496</ele>
        <time>2016-3-26T13:13:40.000Z</time>
      </trkpt>
      <trkpt lat="47.2411" lon="6.07491">
        <ele>496</ele>
        <time>2016-3-26T13:13:40.000Z</time>
      </trkpt>
      <trkpt lat="47.24115" lon="6.07492">
        <ele>495</ele>
        <time>2016-3-26T13:13:40.000Z</time>
      </trkpt>
      <trkpt lat="47.24121" lon="6.07496">
        <ele>495</ele>
        <time>2016-3-26T13:13:40.000Z</time>
      </trkpt>
      <trkpt lat="47.24127" lon="6.07499">
        <ele>495</ele>
        <time>2016-3-26T13:13:40.000Z</time>
      </trkpt>
      <trkpt lat="47.24133" lon="6.07501">
        <ele>496</ele>
        <time>2016-3-26T13:13:40.000Z</time>
      </trkpt>
      <trkpt lat="47.24138" lon="6.07504">
        <ele>496</ele>
        <time>2016-3-26T13:13:40.000Z</time>
      </trkpt>
      <trkpt lat="47.24143" lon="6.07504">
        <ele>495</ele>
        <time>2016-3-26T13:13:40.000Z</time>
      </trkpt>
      <trkpt lat="47.24148" lon="6.07503">
        <ele>495</ele>
        <time>2016-3-26T13:13:40.000Z</time>
      </trkpt>
      <trkpt lat="47.24153" lon="6.075">
        <ele>495</ele>
        <time>2016-3-26T13:22:44.000Z</time>
      </trkpt>
      <trkpt lat="47.24159" lon="6.07497">
        <ele>495</ele>
        <time>2016-3-26T13:22:44.000Z</time>
      </trkpt>
      <trkpt lat="47.24164" lon="6.07494">
        <ele>496</ele>
        <time>2016-3-26T13:22:44.000Z</time>
      </trkpt>
      <trkpt lat="47.24169" lon="6.07494">
        <ele>495</ele>
        <time>2016-3-26T13:22:44.000Z</time>
      </trkpt>
      <trkpt lat="47.24175" lon="6.07493">
        <ele>492</ele>
        <time>2016-3-26T13:22:44.000Z</time>
      </trkpt>
      <trkpt lat="47.2418" lon="6.07494">
        <ele>492</ele>
        <time>2016-3-26T13:22:44.000Z</time>
      </trkpt>
      <trkpt lat="47.24186" lon="6.07495">
        <ele>492</ele>
        <time>2016-3-26T13:22:44.000Z</time>
      </trkpt>
      <trkpt lat="47.24191" lon="6.07496">
        <ele>491</ele>
        <time>2016-3-26T13:22:44.000Z</time>
      </trkpt>
      <trkpt lat="47.24197" lon="6.07495">
        <ele>490</ele>
        <time>2016-3-26T13:22:44.000Z</time>
      </trkpt>
      <trkpt lat="47.24202" lon="6.07497">
        <ele>491</ele>
        <time>2016-3-26T13:22:44.000Z</time>
      </trkpt>
      <trkpt lat="47.24209" lon="6.07498">
        <ele>487</ele>
        <time>2016-3-26T13:22:44.000Z</time>
      </trkpt>
      <trkpt lat="47.24214" lon="6.07498">
        <ele>488</ele>
        <time>2016-3-26T13:22:44.000Z</time>
      </trkpt>
      <trkpt lat="47.24219" lon="6.07504">
        <ele>488</ele>
        <time>2016-3-26T13:22:44.000Z</time>
      </trkpt>
      <trkpt lat="47.24225" lon="6.07505">
        <ele>485</ele>
        <time>2016-3-26T13:22:44.000Z</time>
      </trkpt>
      <trkpt lat="47.2423" lon="6.07504">
        <ele>483</ele>
        <time>2016-3-26T13:22:44.000Z</time>
      </trkpt>
      <trkpt lat="47.24236" lon="6.07502">
        <ele>481</ele>
        <time>2016-3-26T13:22:44.000Z</time>
      </trkpt>
      <trkpt lat="47.24241" lon="6.07499">
        <ele>480</ele>
        <time>2016-3-26T13:22:44.000Z</time>
      </trkpt>
      <trkpt lat="47.24246" lon="6.07496">
        <ele>479</ele>
        <time>2016-3-26T13:22:44.000Z</time>
      </trkpt>
      <trkpt lat="47.24248" lon="6.07489">
        <ele>476</ele>
        <time>2016-3-26T13:22:44.000Z</time>
      </trkpt>
      <trkpt lat="47.24247" lon="6.07481">
        <ele>473</ele>
        <time>2016-3-26T13:22:44.000Z</time>
      </trkpt>
      <trkpt lat="47.24248" lon="6.07473">
        <ele>471</ele>
        <time>2016-3-26T13:22:44.000Z</time>
      </trkpt>
      <trkpt lat="47.24248" lon="6.07465">
        <ele>471</ele>
        <time>2016-3-26T13:22:44.000Z</time>
      </trkpt>
      <trkpt lat="47.24247" lon="6.07457">
        <ele>469</ele>
        <time>2016-3-26T13:22:44.000Z</time>
      </trkpt>
      <trkpt lat="47.24248" lon="6.0745">
        <ele>470</ele>
        <time>2016-3-26T13:22:44.000Z</time>
      </trkpt>
      <trkpt lat="47.24251" lon="6.07444">
        <ele>472</ele>
        <time>2016-3-26T13:22:44.000Z</time>
      </trkpt>
      <trkpt lat="47.24255" lon="6.07438">
        <ele>470</ele>
        <time>2016-3-26T13:22:44.000Z</time>
      </trkpt>
      <trkpt lat="47.24259" lon="6.07434">
        <ele>468</ele>
        <time>2016-3-26T13:22:44.000Z</time>
      </trkpt>
      <trkpt lat="47.24264" lon="6.07429">
        <ele>468</ele>
        <time>2016-3-26T13:22:44.000Z</time>
      </trkpt>
      <trkpt lat="47.24269" lon="6.07425">
        <ele>466</ele>
        <time>2016-3-26T13:22:44.000Z</time>
      </trkpt>
      <trkpt lat="47.24272" lon="6.07417">
        <ele>464</ele>
        <time>2016-3-26T13:22:44.000Z</time>
      </trkpt>
      <trkpt lat="47.24276" lon="6.07409">
        <ele>458</ele>
        <time>2016-3-26T13:22:44.000Z</time>
      </trkpt>
      <trkpt lat="47.24279" lon="6.07403">
        <ele>458</ele>
        <time>2016-3-26T13:22:44.000Z</time>
      </trkpt>
      <trkpt lat="47.24284" lon="6.07397">
        <ele>454</ele>
        <time>2016-3-26T13:22:44.000Z</time>
      </trkpt>
      <trkpt lat="47.24288" lon="6.07392">
        <ele>452</ele>
        <time>2016-3-26T13:22:44.000Z</time>
      </trkpt>
      <trkpt lat="47.24293" lon="6.07387">
        <ele>448</ele>
        <time>2016-3-26T13:22:44.000Z</time>
      </trkpt>
      <trkpt lat="47.24295" lon="6.0738">
        <ele>445</ele>
        <time>2016-3-26T13:22:44.000Z</time>
      </trkpt>
      <trkpt lat="47.24294" lon="6.07372">
        <ele>442</ele>
        <time>2016-3-26T13:22:44.000Z</time>
      </trkpt>
      <trkpt lat="47.24296" lon="6.07365">
        <ele>441</ele>
        <time>2016-3-26T13:22:44.000Z</time>
      </trkpt>
      <trkpt lat="47.24293" lon="6.07358">
        <ele>440</ele>
        <time>2016-3-26T13:22:44.000Z</time>
      </trkpt>
      <trkpt lat="47.24293" lon="6.07355">
        <ele>440</ele>
        <time>2016-3-26T13:22:44.000Z</time>
      </trkpt>
      <trkpt lat="47.2429" lon="6.07348">
        <ele>434</ele>
        <time>2016-3-26T13:22:44.000Z</time>
      </trkpt>
      <trkpt lat="47.24286" lon="6.07341">
        <ele>432</ele>
        <time>2016-3-26T13:22:44.000Z</time>
      </trkpt>
      <trkpt lat="47.2428" lon="6.07337">
        <ele>429</ele>
        <time>2016-3-26T13:22:44.000Z</time>
      </trkpt>
      <trkpt lat="47.24276" lon="6.07332">
        <ele>427</ele>
        <time>2016-3-26T13:22:44.000Z</time>
      </trkpt>
      <trkpt lat="47.24273" lon="6.07326">
        <ele>426</ele>
        <time>2016-3-26T13:22:44.000Z</time>
      </trkpt>
      <trkpt lat="47.24268" lon="6.0732">
        <ele>426</ele>
        <time>2016-3-26T13:22:44.000Z</time>
      </trkpt>
      <trkpt lat="47.24264" lon="6.07317">
        <ele>423</ele>
        <time>2016-3-26T13:22:44.000Z</time>
      </trkpt>
      <trkpt lat="47.24259" lon="6.07311">
        <ele>422</ele>
        <time>2016-3-26T13:22:44.000Z</time>
      </trkpt>
      <trkpt lat="47.24254" lon="6.07307">
        <ele>419</ele>
        <time>2016-3-26T13:22:44.000Z</time>
      </trkpt>
      <trkpt lat="47.24249" lon="6.07304">
        <ele>416</ele>
        <time>2016-3-26T13:22:44.000Z</time>
      </trkpt>
      <trkpt lat="47.24242" lon="6.07302">
        <ele>415</ele>
        <time>2016-3-26T13:22:44.000Z</time>
      </trkpt>
      <trkpt lat="47.24237" lon="6.07298">
        <ele>417</ele>
        <time>2016-3-26T13:22:44.000Z</time>
      </trkpt>
      <trkpt lat="47.2423" lon="6.07293">
        <ele>418</ele>
        <time>2016-3-26T13:22:44.000Z</time>
      </trkpt>
      <trkpt lat="47.24224" lon="6.07289">
        <ele>416</ele>
        <time>2016-3-26T13:22:44.000Z</time>
      </trkpt>
      <trkpt lat="47.24218" lon="6.07286">
        <ele>414</ele>
        <time>2016-3-26T13:22:44.000Z</time>
      </trkpt>
      <trkpt lat="47.24212" lon="6.07282">
        <ele>413</ele>
        <time>2016-3-26T13:22:44.000Z</time>
      </trkpt>
      <trkpt lat="47.24205" lon="6.07276">
        <ele>414</ele>
        <time>2016-3-26T13:22:44.000Z</time>
      </trkpt>
      <trkpt lat="47.24199" lon="6.07272">
        <ele>412</ele>
        <time>2016-3-26T13:22:44.000Z</time>
      </trkpt>
      <trkpt lat="47.24194" lon="6.07266">
        <ele>413</ele>
        <time>2016-3-26T13:22:44.000Z</time>
      </trkpt>
      <trkpt lat="47.24188" lon="6.07263">
        <ele>411</ele>
        <time>2016-3-26T13:22:44.000Z</time>
      </trkpt>
      <trkpt lat="47.24182" lon="6.07259">
        <ele>410</ele>
        <time>2016-3-26T13:22:44.000Z</time>
      </trkpt>
      <trkpt lat="47.24176" lon="6.07253">
        <ele>408</ele>
        <time>2016-3-26T13:22:44.000Z</time>
      </trkpt>
      <trkpt lat="47.24172" lon="6.07249">
        <ele>408</ele>
        <time>2016-3-26T13:22:44.000Z</time>
      </trkpt>
      <trkpt lat="47.24166" lon="6.07242">
        <ele>408</ele>
        <time>2016-3-26T13:22:44.000Z</time>
      </trkpt>
      <trkpt lat="47.2416" lon="6.07239">
        <ele>408</ele>
        <time>2016-3-26T13:22:44.000Z</time>
      </trkpt>
      <trkpt lat="47.24154" lon="6.07233">
        <ele>410</ele>
        <time>2016-3-26T13:22:44.000Z</time>
      </trkpt>
      <trkpt lat="47.24149" lon="6.07225">
        <ele>411</ele>
        <time>2016-3-26T13:22:44.000Z</time>
      </trkpt>
      <trkpt lat="47.24145" lon="6.07217">
        <ele>411</ele>
        <time>2016-3-26T13:22:44.000Z</time>
      </trkpt>
      <trkpt lat="47.24139" lon="6.07211">
        <ele>412</ele>
        <time>2016-3-26T13:22:44.000Z</time>
      </trkpt>
      <trkpt lat="47.24134" lon="6.07205">
        <ele>412</ele>
        <time>2016-3-26T13:22:44.000Z</time>
      </trkpt>
      <trkpt lat="47.2413" lon="6.07198">
        <ele>412</ele>
        <time>2016-3-26T13:22:44.000Z</time>
      </trkpt>
      <trkpt lat="47.24125" lon="6.07192">
        <ele>412</ele>
        <time>2016-3-26T13:22:44.000Z</time>
      </trkpt>
      <trkpt lat="47.24121" lon="6.07186">
        <ele>413</ele>
        <time>2016-3-26T13:22:44.000Z</time>
      </trkpt>
      <trkpt lat="47.24115" lon="6.07182">
        <ele>410</ele>
        <time>2016-3-26T13:22:44.000Z</time>
      </trkpt>
      <trkpt lat="47.24108" lon="6.07179">
        <ele>408</ele>
        <time>2016-3-26T13:22:44.000Z</time>
      </trkpt>
      <trkpt lat="47.24103" lon="6.07174">
        <ele>407</ele>
        <time>2016-3-26T13:22:44.000Z</time>
      </trkpt>
      <trkpt lat="47.24097" lon="6.07168">
        <ele>406</ele>
        <time>2016-3-26T13:22:44.000Z</time>
      </trkpt>
      <trkpt lat="47.24092" lon="6.07166">
        <ele>406</ele>
        <time>2016-3-26T13:22:44.000Z</time>
      </trkpt>
      <trkpt lat="47.24086" lon="6.07162">
        <ele>406</ele>
        <time>2016-3-26T13:22:44.000Z</time>
      </trkpt>
      <trkpt lat="47.24081" lon="6.07158">
        <ele>404</ele>
        <time>2016-3-26T13:22:44.000Z</time>
      </trkpt>
      <trkpt lat="47.24075" lon="6.07153">
        <ele>403</ele>
        <time>2016-3-26T13:22:44.000Z</time>
      </trkpt>
      <trkpt lat="47.24069" lon="6.07147">
        <ele>403</ele>
        <time>2016-3-26T13:22:44.000Z</time>
      </trkpt>
      <trkpt lat="47.24064" lon="6.07145">
        <ele>402</ele>
        <time>2016-3-26T13:22:44.000Z</time>
      </trkpt>
      <trkpt lat="47.24058" lon="6.07142">
        <ele>400</ele>
        <time>2016-3-26T13:22:44.000Z</time>
      </trkpt>
      <trkpt lat="47.24054" lon="6.07139">
        <ele>401</ele>
        <time>2016-3-26T13:22:44.000Z</time>
      </trkpt>
      <trkpt lat="47.24049" lon="6.07135">
        <ele>399</ele>
        <time>2016-3-26T13:22:44.000Z</time>
      </trkpt>
      <trkpt lat="47.24044" lon="6.07132">
        <ele>398</ele>
        <time>2016-3-26T13:22:44.000Z</time>
      </trkpt>
      <trkpt lat="47.24038" lon="6.07129">
        <ele>397</ele>
        <time>2016-3-26T13:22:44.000Z</time>
      </trkpt>
      <trkpt lat="47.24031" lon="6.07123">
        <ele>398</ele>
        <time>2016-3-26T13:22:44.000Z</time>
      </trkpt>
      <trkpt lat="47.24026" lon="6.07116">
        <ele>400</ele>
        <time>2016-3-26T13:22:44.000Z</time>
      </trkpt>
      <trkpt lat="47.2402" lon="6.07108">
        <ele>398</ele>
        <time>2016-3-26T13:22:44.000Z</time>
      </trkpt>
      <trkpt lat="47.24017" lon="6.07102">
        <ele>398</ele>
        <time>2016-3-26T13:22:44.000Z</time>
      </trkpt>
      <trkpt lat="47.24011" lon="6.07096">
        <ele>397</ele>
        <time>2016-3-26T13:22:44.000Z</time>
      </trkpt>
      <trkpt lat="47.24006" lon="6.07089">
        <ele>397</ele>
        <time>2016-3-26T13:22:44.000Z</time>
      </trkpt>
      <trkpt lat="47.24003" lon="6.07081">
        <ele>399</ele>
        <time>2016-3-26T13:22:44.000Z</time>
      </trkpt>
      <trkpt lat="47.23999" lon="6.07071">
        <ele>399</ele>
        <time>2016-3-26T13:22:44.000Z</time>
      </trkpt>
      <trkpt lat="47.23997" lon="6.07065">
        <ele>399</ele>
        <time>2016-3-26T13:22:44.000Z</time>
      </trkpt>
      <trkpt lat="47.23992" lon="6.07055">
        <ele>400</ele>
        <time>2016-3-26T13:22:44.000Z</time>
      </trkpt>
      <trkpt lat="47.23988" lon="6.07047">
        <ele>400</ele>
        <time>2016-3-26T13:22:44.000Z</time>
      </trkpt>
      <trkpt lat="47.23983" lon="6.07041">
        <ele>399</ele>
        <time>2016-3-26T13:22:44.000Z</time>
      </trkpt>
      <trkpt lat="47.23977" lon="6.07035">
        <ele>398</ele>
        <time>2016-3-26T13:22:44.000Z</time>
      </trkpt>
      <trkpt lat="47.23973" lon="6.07028">
        <ele>400</ele>
        <time>2016-3-26T13:30:8.000Z</time>
      </trkpt>
      <trkpt lat="47.23969" lon="6.0702">
        <ele>399</ele>
        <time>2016-3-26T13:30:8.000Z</time>
      </trkpt>
      <trkpt lat="47.23966" lon="6.07012">
        <ele>398</ele>
        <time>2016-3-26T13:30:8.000Z</time>
      </trkpt>
      <trkpt lat="47.23962" lon="6.07005">
        <ele>397</ele>
        <time>2016-3-26T13:30:8.000Z</time>
      </trkpt>
      <trkpt lat="47.23957" lon="6.06999">
        <ele>397</ele>
        <time>2016-3-26T13:30:8.000Z</time>
      </trkpt>
      <trkpt lat="47.23952" lon="6.06992">
        <ele>394</ele>
        <time>2016-3-26T13:30:8.000Z</time>
      </trkpt>
      <trkpt lat="47.23947" lon="6.06985">
        <ele>392</ele>
        <time>2016-3-26T13:30:8.000Z</time>
      </trkpt>
      <trkpt lat="47.23943" lon="6.06978">
        <ele>387</ele>
        <time>2016-3-26T13:30:8.000Z</time>
      </trkpt>
      <trkpt lat="47.2394" lon="6.06972">
        <ele>387</ele>
        <time>2016-3-26T13:30:8.000Z</time>
      </trkpt>
      <trkpt lat="47.23936" lon="6.06966">
        <ele>389</ele>
        <time>2016-3-26T13:30:8.000Z</time>
      </trkpt>
      <trkpt lat="47.23933" lon="6.06958">
        <ele>391</ele>
        <time>2016-3-26T13:30:8.000Z</time>
      </trkpt>
      <trkpt lat="47.23929" lon="6.06952">
        <ele>393</ele>
        <time>2016-3-26T13:30:8.000Z</time>
      </trkpt>
      <trkpt lat="47.23924" lon="6.06945">
        <ele>394</ele>
        <time>2016-3-26T13:30:8.000Z</time>
      </trkpt>
      <trkpt lat="47.2392" lon="6.0694">
        <ele>393</ele>
        <time>2016-3-26T13:30:8.000Z</time>
      </trkpt>
      <trkpt lat="47.23914" lon="6.06936">
        <ele>389</ele>
        <time>2016-3-26T13:30:8.000Z</time>
      </trkpt>
      <trkpt lat="47.23909" lon="6.06937">
        <ele>389</ele>
        <time>2016-3-26T13:30:8.000Z</time>
      </trkpt>
      <trkpt lat="47.23904" lon="6.06936">
        <ele>390</ele>
        <time>2016-3-26T13:30:8.000Z</time>
      </trkpt>
      <trkpt lat="47.23898" lon="6.06936">
        <ele>386</ele>
        <time>2016-3-26T13:30:8.000Z</time>
      </trkpt>
      <trkpt lat="47.23893" lon="6.06933">
        <ele>386</ele>
        <time>2016-3-26T13:30:8.000Z</time>
      </trkpt>
      <trkpt lat="47.23888" lon="6.06932">
        <ele>389</ele>
        <time>2016-3-26T13:30:8.000Z</time>
      </trkpt>
      <trkpt lat="47.23882" lon="6.0693">
        <ele>390</ele>
        <time>2016-3-26T13:30:8.000Z</time>
      </trkpt>
      <trkpt lat="47.23876" lon="6.06928">
        <ele>390</ele>
        <time>2016-3-26T13:30:8.000Z</time>
      </trkpt>
      <trkpt lat="47.23871" lon="6.06927">
        <ele>388</ele>
        <time>2016-3-26T13:30:8.000Z</time>
      </trkpt>
      <trkpt lat="47.23866" lon="6.06926">
        <ele>390</ele>
        <time>2016-3-26T13:30:8.000Z</time>
      </trkpt>
      <trkpt lat="47.2386" lon="6.06926">
        <ele>392</ele>
        <time>2016-3-26T13:30:8.000Z</time>
      </trkpt>
      <trkpt lat="47.23854" lon="6.06926">
        <ele>395</ele>
        <time>2016-3-26T13:30:8.000Z</time>
      </trkpt>
      <trkpt lat="47.23849" lon="6.06929">
        <ele>395</ele>
        <time>2016-3-26T13:30:8.000Z</time>
      </trkpt>
      <trkpt lat="47.23844" lon="6.06932">
        <ele>396</ele>
        <time>2016-3-26T13:30:8.000Z</time>
      </trkpt>
      <trkpt lat="47.2384" lon="6.06937">
        <ele>397</ele>
        <time>2016-3-26T13:30:8.000Z</time>
      </trkpt>
      <trkpt lat="47.23836" lon="6.06942">
        <ele>399</ele>
        <time>2016-3-26T13:30:8.000Z</time>
      </trkpt>
      <trkpt lat="47.23831" lon="6.06949">
        <ele>397</ele>
        <time>2016-3-26T13:30:8.000Z</time>
      </trkpt>
      <trkpt lat="47.23828" lon="6.06956">
        <ele>398</ele>
        <time>2016-3-26T13:30:8.000Z</time>
      </trkpt>
      <trkpt lat="47.23826" lon="6.06963">
        <ele>398</ele>
        <time>2016-3-26T13:30:8.000Z</time>
      </trkpt>
      <trkpt lat="47.23823" lon="6.06969">
        <ele>396</ele>
        <time>2016-3-26T13:30:8.000Z</time>
      </trkpt>
      <trkpt lat="47.23819" lon="6.06976">
        <ele>396</ele>
        <time>2016-3-26T13:30:8.000Z</time>
      </trkpt>
      <trkpt lat="47.23815" lon="6.06983">
        <ele>397</ele>
        <time>2016-3-26T13:30:8.000Z</time>
      </trkpt>
      <trkpt lat="47.23811" lon="6.06989">
        <ele>399</ele>
        <time>2016-3-26T13:30:8.000Z</time>
      </trkpt>
      <trkpt lat="47.23807" lon="6.06996">
        <ele>395</ele>
        <time>2016-3-26T13:30:8.000Z</time>
      </trkpt>
      <trkpt lat="47.23804" lon="6.07001">
        <ele>397</ele>
        <time>2016-3-26T13:30:8.000Z</time>
      </trkpt>
      <trkpt lat="47.23801" lon="6.07009">
        <ele>397</ele>
        <time>2016-3-26T13:30:8.000Z</time>
      </trkpt>
      <trkpt lat="47.23798" lon="6.07015">
        <ele>398</ele>
        <time>2016-3-26T13:30:8.000Z</time>
      </trkpt>
      <trkpt lat="47.23796" lon="6.07023">
        <ele>398</ele>
        <time>2016-3-26T13:30:8.000Z</time>
      </trkpt>
      <trkpt lat="47.23792" lon="6.07032">
        <ele>397</ele>
        <time>2016-3-26T13:30:8.000Z</time>
      </trkpt>
      <trkpt lat="47.2379" lon="6.07039">
        <ele>397</ele>
        <time>2016-3-26T13:30:8.000Z</time>
      </trkpt>
      <trkpt lat="47.23785" lon="6.07045">
        <ele>398</ele>
        <time>2016-3-26T13:30:8.000Z</time>
      </trkpt>
      <trkpt lat="47.23779" lon="6.07049">
        <ele>399</ele>
        <time>2016-3-26T13:30:8.000Z</time>
      </trkpt>
      <trkpt lat="47.23774" lon="6.07055">
        <ele>399</ele>
        <time>2016-3-26T13:30:8.000Z</time>
      </trkpt>
      <trkpt lat="47.23768" lon="6.07058">
        <ele>399</ele>
        <time>2016-3-26T13:30:8.000Z</time>
      </trkpt>
      <trkpt lat="47.23762" lon="6.07061">
        <ele>402</ele>
        <time>2016-3-26T13:30:8.000Z</time>
      </trkpt>
      <trkpt lat="47.23757" lon="6.07064">
        <ele>402</ele>
        <time>2016-3-26T13:30:8.000Z</time>
      </trkpt>
      <trkpt lat="47.23751" lon="6.07067">
        <ele>400</ele>
        <time>2016-3-26T13:30:8.000Z</time>
      </trkpt>
      <trkpt lat="47.23746" lon="6.07071">
        <ele>399</ele>
        <time>2016-3-26T13:30:8.000Z</time>
      </trkpt>
      <trkpt lat="47.23741" lon="6.07074">
        <ele>398</ele>
        <time>2016-3-26T13:30:8.000Z</time>
      </trkpt>
      <trkpt lat="47.23737" lon="6.07079">
        <ele>398</ele>
        <time>2016-3-26T13:30:8.000Z</time>
      </trkpt>
      <trkpt lat="47.23734" lon="6.07085">
        <ele>398</ele>
        <time>2016-3-26T13:30:8.000Z</time>
      </trkpt>
      <trkpt lat="47.23728" lon="6.07088">
        <ele>397</ele>
        <time>2016-3-26T13:30:8.000Z</time>
      </trkpt>
      <trkpt lat="47.23723" lon="6.07092">
        <ele>399</ele>
        <time>2016-3-26T13:30:8.000Z</time>
      </trkpt>
      <trkpt lat="47.23718" lon="6.07096">
        <ele>400</ele>
        <time>2016-3-26T13:30:8.000Z</time>
      </trkpt>
      <trkpt lat="47.23712" lon="6.071">
        <ele>400</ele>
        <time>2016-3-26T13:30:8.000Z</time>
      </trkpt>
      <trkpt lat="47.23706" lon="6.07104">
        <ele>401</ele>
        <time>2016-3-26T13:30:8.000Z</time>
      </trkpt>
      <trkpt lat="47.237" lon="6.07106">
        <ele>402</ele>
        <time>2016-3-26T13:30:8.000Z</time>
      </trkpt>
      <trkpt lat="47.23695" lon="6.07107">
        <ele>407</ele>
        <time>2016-3-26T13:30:8.000Z</time>
      </trkpt>
      <trkpt lat="47.23691" lon="6.07112">
        <ele>409</ele>
        <time>2016-3-26T13:30:8.000Z</time>
      </trkpt>
      <trkpt lat="47.23686" lon="6.07116">
        <ele>411</ele>
        <time>2016-3-26T13:30:8.000Z</time>
      </trkpt>
      <trkpt lat="47.23681" lon="6.07121">
        <ele>412</ele>
        <time>2016-3-26T13:30:8.000Z</time>
      </trkpt>
      <trkpt lat="47.23677" lon="6.07127">
        <ele>410</ele>
        <time>2016-3-26T13:30:8.000Z</time>
      </trkpt>
      <trkpt lat="47.23672" lon="6.0713">
        <ele>413</ele>
        <time>2016-3-26T13:30:8.000Z</time>
      </trkpt>
      <trkpt lat="47.23666" lon="6.07132">
        <ele>414</ele>
        <time>2016-3-26T13:30:8.000Z</time>
      </trkpt>
      <trkpt lat="47.2366" lon="6.07137">
        <ele>419</ele>
        <time>2016-3-26T13:30:8.000Z</time>
      </trkpt>
      <trkpt lat="47.23655" lon="6.0714">
        <ele>420</ele>
        <time>2016-3-26T13:30:8.000Z</time>
      </trkpt>
      <trkpt lat="47.2365" lon="6.07144">
        <ele>420</ele>
        <time>2016-3-26T13:30:8.000Z</time>
      </trkpt>
      <trkpt lat="47.23644" lon="6.07148">
        <ele>421</ele>
        <time>2016-3-26T13:30:8.000Z</time>
      </trkpt>
      <trkpt lat="47.2364" lon="6.07152">
        <ele>421</ele>
        <time>2016-3-26T13:30:8.000Z</time>
      </trkpt>
      <trkpt lat="47.23635" lon="6.07156">
        <ele>419</ele>
        <time>2016-3-26T13:30:8.000Z</time>
      </trkpt>
      <trkpt lat="47.23629" lon="6.07158">
        <ele>420</ele>
        <time>2016-3-26T13:30:8.000Z</time>
      </trkpt>
      <trkpt lat="47.23623" lon="6.0716">
        <ele>420</ele>
        <time>2016-3-26T13:30:8.000Z</time>
      </trkpt>
      <trkpt lat="47.23617" lon="6.07158">
        <ele>422</ele>
        <time>2016-3-26T13:30:8.000Z</time>
      </trkpt>
      <trkpt lat="47.23611" lon="6.07157">
        <ele>422</ele>
        <time>2016-3-26T13:30:8.000Z</time>
      </trkpt>
      <trkpt lat="47.23606" lon="6.07154">
        <ele>423</ele>
        <time>2016-3-26T13:30:8.000Z</time>
      </trkpt>
      <trkpt lat="47.23601" lon="6.0715">
        <ele>424</ele>
        <time>2016-3-26T13:30:8.000Z</time>
      </trkpt>
      <trkpt lat="47.23598" lon="6.07143">
        <ele>425</ele>
        <time>2016-3-26T13:30:8.000Z</time>
      </trkpt>
      <trkpt lat="47.23595" lon="6.07135">
        <ele>424</ele>
        <time>2016-3-26T13:30:8.000Z</time>
      </trkpt>
      <trkpt lat="47.23592" lon="6.07128">
        <ele>424</ele>
        <time>2016-3-26T13:30:8.000Z</time>
      </trkpt>
      <trkpt lat="47.23591" lon="6.07121">
        <ele>428</ele>
        <time>2016-3-26T13:30:8.000Z</time>
      </trkpt>
      <trkpt lat="47.23589" lon="6.07112">
        <ele>429</ele>
        <time>2016-3-26T13:30:8.000Z</time>
      </trkpt>
      <trkpt lat="47.23586" lon="6.07105">
        <ele>429</ele>
        <time>2016-3-26T13:30:8.000Z</time>
      </trkpt>
      <trkpt lat="47.23583" lon="6.07097">
        <ele>430</ele>
        <time>2016-3-26T13:30:8.000Z</time>
      </trkpt>
      <trkpt lat="47.23579" lon="6.0709">
        <ele>429</ele>
        <time>2016-3-26T13:30:8.000Z</time>
      </trkpt>
      <trkpt lat="47.23573" lon="6.07084">
        <ele>429</ele>
        <time>2016-3-26T13:30:8.000Z</time>
      </trkpt>
      <trkpt lat="47.23568" lon="6.07081">
        <ele>428</ele>
        <time>2016-3-26T13:30:8.000Z</time>
      </trkpt>
      <trkpt lat="47.23563" lon="6.0708">
        <ele>429</ele>
        <time>2016-3-26T13:30:8.000Z</time>
      </trkpt>
      <trkpt lat="47.2356" lon="6.07074">
        <ele>429</ele>
        <time>2016-3-26T13:30:8.000Z</time>
      </trkpt>
      <trkpt lat="47.23555" lon="6.07072">
        <ele>434</ele>
        <time>2016-3-26T13:30:8.000Z</time>
      </trkpt>
      <trkpt lat="47.23549" lon="6.07072">
        <ele>435</ele>
        <time>2016-3-26T13:30:8.000Z</time>
      </trkpt>
      <trkpt lat="47.23542" lon="6.07072">
        <ele>434</ele>
        <time>2016-3-26T13:30:8.000Z</time>
      </trkpt>
      <trkpt lat="47.23536" lon="6.07072">
        <ele>431</ele>
        <time>2016-3-26T13:30:8.000Z</time>
      </trkpt>
      <trkpt lat="47.2353" lon="6.0707">
        <ele>434</ele>
        <time>2016-3-26T13:30:8.000Z</time>
      </trkpt>
      <trkpt lat="47.23525" lon="6.07065">
        <ele>434</ele>
        <time>2016-3-26T13:30:8.000Z</time>
      </trkpt>
      <trkpt lat="47.23519" lon="6.07067">
        <ele>431</ele>
        <time>2016-3-26T13:30:8.000Z</time>
      </trkpt>
      <trkpt lat="47.23513" lon="6.07064">
        <ele>433</ele>
        <time>2016-3-26T13:30:8.000Z</time>
      </trkpt>
      <trkpt lat="47.23508" lon="6.07062">
        <ele>433</ele>
        <time>2016-3-26T13:30:8.000Z</time>
      </trkpt>
      <trkpt lat="47.23502" lon="6.07062">
        <ele>436</ele>
        <time>2016-3-26T13:39:24.000Z</time>
      </trkpt>
      <trkpt lat="47.23496" lon="6.07061">
        <ele>437</ele>
        <time>2016-3-26T13:39:24.000Z</time>
      </trkpt>
      <trkpt lat="47.23491" lon="6.07061">
        <ele>442</ele>
        <time>2016-3-26T13:39:24.000Z</time>
      </trkpt>
      <trkpt lat="47.23486" lon="6.07062">
        <ele>443</ele>
        <time>2016-3-26T13:39:24.000Z</time>
      </trkpt>
      <trkpt lat="47.2348" lon="6.07062">
        <ele>444</ele>
        <time>2016-3-26T13:39:24.000Z</time>
      </trkpt>
      <trkpt lat="47.23475" lon="6.0706">
        <ele>442</ele>
        <time>2016-3-26T13:39:24.000Z</time>
      </trkpt>
      <trkpt lat="47.2347" lon="6.0706">
        <ele>440</ele>
        <time>2016-3-26T13:39:24.000Z</time>
      </trkpt>
      <trkpt lat="47.23464" lon="6.07059">
        <ele>437</ele>
        <time>2016-3-26T13:39:24.000Z</time>
      </trkpt>
      <trkpt lat="47.23459" lon="6.07058">
        <ele>439</ele>
        <time>2016-3-26T13:39:24.000Z</time>
      </trkpt>
      <trkpt lat="47.23454" lon="6.07057">
        <ele>439</ele>
        <time>2016-3-26T13:39:24.000Z</time>
      </trkpt>
      <trkpt lat="47.23448" lon="6.07055">
        <ele>439</ele>
        <time>2016-3-26T13:39:24.000Z</time>
      </trkpt>
      <trkpt lat="47.23443" lon="6.07053">
        <ele>439</ele>
        <time>2016-3-26T13:39:24.000Z</time>
      </trkpt>
      <trkpt lat="47.23438" lon="6.07052">
        <ele>439</ele>
        <time>2016-3-26T13:39:24.000Z</time>
      </trkpt>
      <trkpt lat="47.23431" lon="6.07051">
        <ele>436</ele>
        <time>2016-3-26T13:39:24.000Z</time>
      </trkpt>
      <trkpt lat="47.23426" lon="6.07049">
        <ele>436</ele>
        <time>2016-3-26T13:39:24.000Z</time>
      </trkpt>
      <trkpt lat="47.23421" lon="6.07045">
        <ele>435</ele>
        <time>2016-3-26T13:39:24.000Z</time>
      </trkpt>
      <trkpt lat="47.23415" lon="6.07041">
        <ele>436</ele>
        <time>2016-3-26T13:39:24.000Z</time>
      </trkpt>
      <trkpt lat="47.23409" lon="6.07039">
        <ele>436</ele>
        <time>2016-3-26T13:39:24.000Z</time>
      </trkpt>
      <trkpt lat="47.23403" lon="6.07039">
        <ele>436</ele>
        <time>2016-3-26T13:39:24.000Z</time>
      </trkpt>
      <trkpt lat="47.23395" lon="6.07039">
        <ele>438</ele>
        <time>2016-3-26T13:39:24.000Z</time>
      </trkpt>
      <trkpt lat="47.23389" lon="6.07036">
        <ele>439</ele>
        <time>2016-3-26T13:39:24.000Z</time>
      </trkpt>
      <trkpt lat="47.23386" lon="6.0703">
        <ele>438</ele>
        <time>2016-3-26T13:39:24.000Z</time>
      </trkpt>
      <trkpt lat="47.23383" lon="6.07024">
        <ele>437</ele>
        <time>2016-3-26T13:39:24.000Z</time>
      </trkpt>
      <trkpt lat="47.2338" lon="6.07018">
        <ele>437</ele>
        <time>2016-3-26T13:39:24.000Z</time>
      </trkpt>
      <trkpt lat="47.23378" lon="6.07009">
        <ele>433</ele>
        <time>2016-3-26T13:39:24.000Z</time>
      </trkpt>
      <trkpt lat="47.23376" lon="6.07">
        <ele>432</ele>
        <time>2016-3-26T13:39:24.000Z</time>
      </trkpt>
      <trkpt lat="47.23374" lon="6.06992">
        <ele>431</ele>
        <time>2016-3-26T13:39:24.000Z</time>
      </trkpt>
      <trkpt lat="47.23372" lon="6.06984">
        <ele>430</ele>
        <time>2016-3-26T13:39:24.000Z</time>
      </trkpt>
      <trkpt lat="47.23369" lon="6.06976">
        <ele>428</ele>
        <time>2016-3-26T13:39:24.000Z</time>
      </trkpt>
      <trkpt lat="47.23367" lon="6.06967">
        <ele>427</ele>
        <time>2016-3-26T13:39:24.000Z</time>
      </trkpt>
      <trkpt lat="47.23364" lon="6.0696">
        <ele>427</ele>
        <time>2016-3-26T13:39:24.000Z</time>
      </trkpt>
      <trkpt lat="47.23361" lon="6.06951">
        <ele>428</ele>
        <time>2016-3-26T13:39:24.000Z</time>
      </trkpt>
      <trkpt lat="47.23357" lon="6.06945">
        <ele>427</ele>
        <time>2016-3-26T13:39:24.000Z</time>
      </trkpt>
      <trkpt lat="47.23354" lon="6.06938">
        <ele>427</ele>
        <time>2016-3-26T13:39:24.000Z</time>
      </trkpt>
      <trkpt lat="47.23352" lon="6.0693">
        <ele>428</ele>
        <time>2016-3-26T13:39:24.000Z</time>
      </trkpt>
      <trkpt lat="47.23348" lon="6.06922">
        <ele>429</ele>
        <time>2016-3-26T13:39:24.000Z</time>
      </trkpt>
      <trkpt lat="47.23344" lon="6.06916">
        <ele>429</ele>
        <time>2016-3-26T13:39:24.000Z</time>
      </trkpt>
      <trkpt lat="47.23341" lon="6.06908">
        <ele>428</ele>
        <time>2016-3-26T13:39:24.000Z</time>
      </trkpt>
      <trkpt lat="47.23339" lon="6.06899">
        <ele>430</ele>
        <time>2016-3-26T13:39:24.000Z</time>
      </trkpt>
      <trkpt lat="47.23336" lon="6.06892">
        <ele>430</ele>
        <time>2016-3-26T13:39:24.000Z</time>
      </trkpt>
      <trkpt lat="47.23334" lon="6.06885">
        <ele>430</ele>
        <time>2016-3-26T13:39:24.000Z</time>
      </trkpt>
      <trkpt lat="47.23333" lon="6.06875">
        <ele>430</ele>
        <time>2016-3-26T13:39:24.000Z</time>
      </trkpt>
      <trkpt lat="47.23333" lon="6.06866">
        <ele>432</ele>
        <time>2016-3-26T13:39:24.000Z</time>
      </trkpt>
      <trkpt lat="47.23331" lon="6.06858">
        <ele>430</ele>
        <time>2016-3-26T13:39:24.000Z</time>
      </trkpt>
      <trkpt lat="47.23329" lon="6.0685">
        <ele>432</ele>
        <time>2016-3-26T13:39:24.000Z</time>
      </trkpt>
      <trkpt lat="47.23327" lon="6.06841">
        <ele>432</ele>
        <time>2016-3-26T13:39:24.000Z</time>
      </trkpt>
      <trkpt lat="47.23327" lon="6.06833">
        <ele>428</ele>
        <time>2016-3-26T13:39:24.000Z</time>
      </trkpt>
      <trkpt lat="47.23326" lon="6.06825">
        <ele>429</ele>
        <time>2016-3-26T13:39:24.000Z</time>
      </trkpt>
      <trkpt lat="47.23327" lon="6.06816">
        <ele>430</ele>
        <time>2016-3-26T13:39:24.000Z</time>
      </trkpt>
      <trkpt lat="47.23326" lon="6.06807">
        <ele>429</ele>
        <time>2016-3-26T13:39:24.000Z</time>
      </trkpt>
      <trkpt lat="47.23327" lon="6.06799">
        <ele>428</ele>
        <time>2016-3-26T13:39:24.000Z</time>
      </trkpt>
      <trkpt lat="47.23327" lon="6.06791">
        <ele>429</ele>
        <time>2016-3-26T13:39:24.000Z</time>
      </trkpt>
      <trkpt lat="47.23328" lon="6.06783">
        <ele>426</ele>
        <time>2016-3-26T13:39:24.000Z</time>
      </trkpt>
      <trkpt lat="47.2333" lon="6.06775">
        <ele>426</ele>
        <time>2016-3-26T13:39:24.000Z</time>
      </trkpt>
      <trkpt lat="47.23332" lon="6.06768">
        <ele>423</ele>
        <time>2016-3-26T13:39:24.000Z</time>
      </trkpt>
      <trkpt lat="47.23335" lon="6.06761">
        <ele>422</ele>
        <time>2016-3-26T13:39:24.000Z</time>
      </trkpt>
      <trkpt lat="47.23336" lon="6.06752">
        <ele>419</ele>
        <time>2016-3-26T13:39:24.000Z</time>
      </trkpt>
      <trkpt lat="47.23335" lon="6.06744">
        <ele>417</ele>
        <time>2016-3-26T13:39:24.000Z</time>
      </trkpt>
      <trkpt lat="47.23335" lon="6.06735">
        <ele>416</ele>
        <time>2016-3-26T13:39:24.000Z</time>
      </trkpt>
      <trkpt lat="47.23337" lon="6.06727">
        <ele>412</ele>
        <time>2016-3-26T13:39:24.000Z</time>
      </trkpt>
      <trkpt lat="47.23338" lon="6.06719">
        <ele>409</ele>
        <time>2016-3-26T13:39:24.000Z</time>
      </trkpt>
      <trkpt lat="47.23339" lon="6.0671">
        <ele>407</ele>
        <time>2016-3-26T13:39:24.000Z</time>
      </trkpt>
      <trkpt lat="47.23339" lon="6.06703">
        <ele>404</ele>
        <time>2016-3-26T13:39:24.000Z</time>
      </trkpt>
      <trkpt lat="47.23338" lon="6.06695">
        <ele>404</ele>
        <time>2016-3-26T13:39:24.000Z</time>
      </trkpt>
      <trkpt lat="47.23336" lon="6.06686">
        <ele>401</ele>
        <time>2016-3-26T13:39:24.000Z</time>
      </trkpt>
      <trkpt lat="47.23336" lon="6.06678">
        <ele>398</ele>
        <time>2016-3-26T13:39:24.000Z</time>
      </trkpt>
      <trkpt lat="47.23331" lon="6.06674">
        <ele>390</ele>
        <time>2016-3-26T13:39:24.000Z</time>
      </trkpt>
      <trkpt lat="47.23326" lon="6.06674">
        <ele>385</ele>
        <time>2016-3-26T13:39:24.000Z</time>
      </trkpt>
      <trkpt lat="47.23321" lon="6.06669">
        <ele>383</ele>
        <time>2016-3-26T13:39:24.000Z</time>
      </trkpt>
      <trkpt lat="47.23316" lon="6.0667">
        <ele>380</ele>
        <time>2016-3-26T13:39:24.000Z</time>
      </trkpt>
      <trkpt lat="47.23315" lon="6.06662">
        <ele>378</ele>
        <time>2016-3-26T13:39:24.000Z</time>
      </trkpt>
      <trkpt lat="47.23315" lon="6.06653">
        <ele>377</ele>
        <time>2016-3-26T13:39:24.000Z</time>
      </trkpt>
      <trkpt lat="47.23315" lon="6.06644">
        <ele>377</ele>
        <time>2016-3-26T13:39:24.000Z</time>
      </trkpt>
      <trkpt lat="47.23315" lon="6.06636">
        <ele>373</ele>
        <time>2016-3-26T13:39:24.000Z</time>
      </trkpt>
      <trkpt lat="47.23316" lon="6.06628">
        <ele>374</ele>
        <time>2016-3-26T13:39:24.000Z</time>
      </trkpt>
      <trkpt lat="47.23321" lon="6.0662">
        <ele>372</ele>
        <time>2016-3-26T13:39:24.000Z</time>
      </trkpt>
      <trkpt lat="47.23325" lon="6.06616">
        <ele>373</ele>
        <time>2016-3-26T13:39:24.000Z</time>
      </trkpt>
      <trkpt lat="47.23331" lon="6.06614">
        <ele>375</ele>
        <time>2016-3-26T13:39:24.000Z</time>
      </trkpt>
      <trkpt lat="47.23336" lon="6.06611">
        <ele>376</ele>
        <time>2016-3-26T13:39:24.000Z</time>
      </trkpt>
      <trkpt lat="47.23341" lon="6.06612">
        <ele>378</ele>
        <time>2016-3-26T13:39:24.000Z</time>
      </trkpt>
      <trkpt lat="47.23341" lon="6.06603">
        <ele>378</ele>
        <time>2016-3-26T13:39:24.000Z</time>
      </trkpt>
      <trkpt lat="47.23344" lon="6.06596">
        <ele>376</ele>
        <time>2016-3-26T13:39:24.000Z</time>
      </trkpt>
      <trkpt lat="47.23349" lon="6.06593">
        <ele>376</ele>
        <time>2016-3-26T13:39:24.000Z</time>
      </trkpt>
      <trkpt lat="47.23354" lon="6.06594">
        <ele>372</ele>
        <time>2016-3-26T13:39:24.000Z</time>
      </trkpt>
      <trkpt lat="47.23359" lon="6.06597">
        <ele>373</ele>
        <time>2016-3-26T13:39:24.000Z</time>
      </trkpt>
      <trkpt lat="47.23364" lon="6.06601">
        <ele>372</ele>
        <time>2016-3-26T13:39:24.000Z</time>
      </trkpt>
      <trkpt lat="47.23369" lon="6.06605">
        <ele>373</ele>
        <time>2016-3-26T13:39:24.000Z</time>
      </trkpt>
      <trkpt lat="47.23374" lon="6.06609">
        <ele>373</ele>
        <time>2016-3-26T13:39:24.000Z</time>
      </trkpt>
      <trkpt lat="47.23379" lon="6.06613">
        <ele>375</ele>
        <time>2016-3-26T13:39:24.000Z</time>
      </trkpt>
      <trkpt lat="47.23384" lon="6.06616">
        <ele>374</ele>
        <time>2016-3-26T13:39:24.000Z</time>
      </trkpt>
      <trkpt lat="47.23389" lon="6.0662">
        <ele>373</ele>
        <time>2016-3-26T13:39:24.000Z</time>
      </trkpt>
      <trkpt lat="47.23394" lon="6.06626">
        <ele>372</ele>
        <time>2016-3-26T13:39:24.000Z</time>
      </trkpt>
      <trkpt lat="47.23399" lon="6.06631">
        <ele>372</ele>
        <time>2016-3-26T13:39:24.000Z</time>
      </trkpt>
      <trkpt lat="47.23403" lon="6.06636">
        <ele>371</ele>
        <time>2016-3-26T13:39:24.000Z</time>
      </trkpt>
      <trkpt lat="47.23409" lon="6.06639">
        <ele>373</ele>
        <time>2016-3-26T13:39:24.000Z</time>
      </trkpt>
      <trkpt lat="47.23414" lon="6.06643">
        <ele>372</ele>
        <time>2016-3-26T13:39:24.000Z</time>
      </trkpt>
      <trkpt lat="47.23419" lon="6.0665">
        <ele>368</ele>
        <time>2016-3-26T13:39:24.000Z</time>
      </trkpt>
      <trkpt lat="47.23424" lon="6.06656">
        <ele>370</ele>
        <time>2016-3-26T13:39:24.000Z</time>
      </trkpt>
      <trkpt lat="47.23428" lon="6.06661">
        <ele>369</ele>
        <time>2016-3-26T13:39:24.000Z</time>
      </trkpt>
      <trkpt lat="47.23433" lon="6.06667">
        <ele>368</ele>
        <time>2016-3-26T13:39:24.000Z</time>
      </trkpt>
      <trkpt lat="47.23438" lon="6.06672">
        <ele>369</ele>
        <time>2016-3-26T13:39:24.000Z</time>
      </trkpt>
      <trkpt lat="47.23443" lon="6.06679">
        <ele>371</ele>
        <time>2016-3-26T13:46:23.000Z</time>
      </trkpt>
      <trkpt lat="47.23449" lon="6.06683">
        <ele>373</ele>
        <time>2016-3-26T13:46:23.000Z</time>
      </trkpt>
      <trkpt lat="47.23455" lon="6.06685">
        <ele>376</ele>
        <time>2016-3-26T13:46:23.000Z</time>
      </trkpt>
      <trkpt lat="47.2346" lon="6.06689">
        <ele>375</ele>
        <time>2016-3-26T13:46:23.000Z</time>
      </trkpt>
      <trkpt lat="47.23463" lon="6.06695">
        <ele>373</ele>
        <time>2016-3-26T13:46:23.000Z</time>
      </trkpt>
      <trkpt lat="47.23467" lon="6.06701">
        <ele>369</ele>
        <time>2016-3-26T13:46:23.000Z</time>
      </trkpt>
      <trkpt lat="47.23473" lon="6.06704">
        <ele>369</ele>
        <time>2016-3-26T13:46:23.000Z</time>
      </trkpt>
      <trkpt lat="47.23477" lon="6.0671">
        <ele>367</ele>
        <time>2016-3-26T13:46:23.000Z</time>
      </trkpt>
      <trkpt lat="47.23482" lon="6.06713">
        <ele>368</ele>
        <time>2016-3-26T13:46:23.000Z</time>
      </trkpt>
      <trkpt lat="47.23488" lon="6.06717">
        <ele>368</ele>
        <time>2016-3-26T13:46:23.000Z</time>
      </trkpt>
      <trkpt lat="47.23492" lon="6.06721">
        <ele>367</ele>
        <time>2016-3-26T13:46:23.000Z</time>
      </trkpt>
      <trkpt lat="47.23497" lon="6.06725">
        <ele>368</ele>
        <time>2016-3-26T13:46:23.000Z</time>
      </trkpt>
      <trkpt lat="47.23503" lon="6.06728">
        <ele>368</ele>
        <time>2016-3-26T13:46:23.000Z</time>
      </trkpt>
      <trkpt lat="47.23507" lon="6.06733">
        <ele>367</ele>
        <time>2016-3-26T13:46:23.000Z</time>
      </trkpt>
      <trkpt lat="47.23511" lon="6.06739">
        <ele>365</ele>
        <time>2016-3-26T13:46:23.000Z</time>
      </trkpt>
      <trkpt lat="47.23516" lon="6.06742">
        <ele>361</ele>
        <time>2016-3-26T13:46:23.000Z</time>
      </trkpt>
      <trkpt lat="47.23521" lon="6.06745">
        <ele>359</ele>
        <time>2016-3-26T13:46:23.000Z</time>
      </trkpt>
      <trkpt lat="47.23526" lon="6.06747">
        <ele>358</ele>
        <time>2016-3-26T13:46:23.000Z</time>
      </trkpt>
      <trkpt lat="47.23531" lon="6.06751">
        <ele>357</ele>
        <time>2016-3-26T13:46:23.000Z</time>
      </trkpt>
      <trkpt lat="47.23536" lon="6.06756">
        <ele>355</ele>
        <time>2016-3-26T13:46:23.000Z</time>
      </trkpt>
      <trkpt lat="47.23542" lon="6.06759">
        <ele>353</ele>
        <time>2016-3-26T13:46:23.000Z</time>
      </trkpt>
      <trkpt lat="47.23548" lon="6.06762">
        <ele>353</ele>
        <time>2016-3-26T13:46:23.000Z</time>
      </trkpt>
      <trkpt lat="47.23553" lon="6.06767">
        <ele>354</ele>
        <time>2016-3-26T13:46:23.000Z</time>
      </trkpt>
      <trkpt lat="47.23558" lon="6.0677">
        <ele>354</ele>
        <time>2016-3-26T13:46:23.000Z</time>
      </trkpt>
      <trkpt lat="47.23558" lon="6.06763">
        <ele>354</ele>
        <time>2016-3-26T13:46:23.000Z</time>
      </trkpt>
      <trkpt lat="47.23554" lon="6.06754">
        <ele>353</ele>
        <time>2016-3-26T13:46:23.000Z</time>
      </trkpt>
      <trkpt lat="47.23551" lon="6.06747">
        <ele>355</ele>
        <time>2016-3-26T13:46:23.000Z</time>
      </trkpt>
      <trkpt lat="47.23547" lon="6.0674">
        <ele>354</ele>
        <time>2016-3-26T13:46:23.000Z</time>
      </trkpt>
      <trkpt lat="47.23542" lon="6.06735">
        <ele>352</ele>
        <time>2016-3-26T13:46:23.000Z</time>
      </trkpt>
      <trkpt lat="47.23536" lon="6.06732">
        <ele>351</ele>
        <time>2016-3-26T13:46:23.000Z</time>
      </trkpt>
      <trkpt lat="47.23532" lon="6.06726">
        <ele>347</ele>
        <time>2016-3-26T13:46:23.000Z</time>
      </trkpt>
      <trkpt lat="47.23527" lon="6.06722">
        <ele>345</ele>
        <time>2016-3-26T13:46:23.000Z</time>
      </trkpt>
      <trkpt lat="47.23521" lon="6.06718">
        <ele>345</ele>
        <time>2016-3-26T13:46:23.000Z</time>
      </trkpt>
      <trkpt lat="47.23515" lon="6.06714">
        <ele>345</ele>
        <time>2016-3-26T13:46:23.000Z</time>
      </trkpt>
      <trkpt lat="47.23509" lon="6.06707">
        <ele>345</ele>
        <time>2016-3-26T13:46:23.000Z</time>
      </trkpt>
      <trkpt lat="47.23504" lon="6.067">
        <ele>344</ele>
        <time>2016-3-26T13:46:23.000Z</time>
      </trkpt>
      <trkpt lat="47.23498" lon="6.06695">
        <ele>344</ele>
        <time>2016-3-26T13:46:23.000Z</time>
      </trkpt>
      <trkpt lat="47.23494" lon="6.06689">
        <ele>346</ele>
        <time>2016-3-26T13:46:23.000Z</time>
      </trkpt>
      <trkpt lat="47.2349" lon="6.0668">
        <ele>349</ele>
        <time>2016-3-26T13:46:23.000Z</time>
      </trkpt>
      <trkpt lat="47.23487" lon="6.06673">
        <ele>350</ele>
        <time>2016-3-26T13:46:23.000Z</time>
      </trkpt>
      <trkpt lat="47.23483" lon="6.06667">
        <ele>353</ele>
        <time>2016-3-26T13:46:23.000Z</time>
      </trkpt>
      <trkpt lat="47.23479" lon="6.0666">
        <ele>353</ele>
        <time>2016-3-26T13:46:23.000Z</time>
      </trkpt>
      <trkpt lat="47.23475" lon="6.06653">
        <ele>355</ele>
        <time>2016-3-26T13:46:23.000Z</time>
      </trkpt>
      <trkpt lat="47.2347" lon="6.06647">
        <ele>356</ele>
        <time>2016-3-26T13:46:23.000Z</time>
      </trkpt>
      <trkpt lat="47.23464" lon="6.06642">
        <ele>356</ele>
        <time>2016-3-26T13:46:23.000Z</time>
      </trkpt>
      <trkpt lat="47.23461" lon="6.06636">
        <ele>358</ele>
        <time>2016-3-26T13:46:23.000Z</time>
      </trkpt>
      <trkpt lat="47.2346" lon="6.06626">
        <ele>359</ele>
        <time>2016-3-26T13:46:23.000Z</time>
      </trkpt>
      <trkpt lat="47.23458" lon="6.06618">
        <ele>359</ele>
        <time>2016-3-26T13:46:23.000Z</time>
      </trkpt>
      <trkpt lat="47.23454" lon="6.0661">
        <ele>358</ele>
        <time>2016-3-26T13:46:23.000Z</time>
      </trkpt>
      <trkpt lat="47.23451" lon="6.06601">
        <ele>356</ele>
        <time>2016-3-26T13:46:23.000Z</time>
      </trkpt>
      <trkpt lat="47.23447" lon="6.06592">
        <ele>357</ele>
        <time>2016-3-26T13:46:23.000Z</time>
      </trkpt>
      <trkpt lat="47.23442" lon="6.06585">
        <ele>354</ele>
        <time>2016-3-26T13:46:23.000Z</time>
      </trkpt>
      <trkpt lat="47.23438" lon="6.06577">
        <ele>353</ele>
        <time>2016-3-26T13:46:23.000Z</time>
      </trkpt>
      <trkpt lat="47.23436" lon="6.06568">
        <ele>353</ele>
        <time>2016-3-26T13:46:23.000Z</time>
      </trkpt>
      <trkpt lat="47.23435" lon="6.06558">
        <ele>354</ele>
        <time>2016-3-26T13:46:23.000Z</time>
      </trkpt>
      <trkpt lat="47.23432" lon="6.06551">
        <ele>352</ele>
        <time>2016-3-26T13:46:23.000Z</time>
      </trkpt>
      <trkpt lat="47.23431" lon="6.06542">
        <ele>351</ele>
        <time>2016-3-26T13:46:23.000Z</time>
      </trkpt>
      <trkpt lat="47.23429" lon="6.06533">
        <ele>350</ele>
        <time>2016-3-26T13:46:23.000Z</time>
      </trkpt>
      <trkpt lat="47.23427" lon="6.06524">
        <ele>348</ele>
        <time>2016-3-26T13:46:23.000Z</time>
      </trkpt>
      <trkpt lat="47.23425" lon="6.06517">
        <ele>346</ele>
        <time>2016-3-26T13:46:23.000Z</time>
      </trkpt>
      <trkpt lat="47.23421" lon="6.06509">
        <ele>344</ele>
        <time>2016-3-26T13:46:23.000Z</time>
      </trkpt>
      <trkpt lat="47.2342" lon="6.06502">
        <ele>345</ele>
        <time>2016-3-26T13:46:23.000Z</time>
      </trkpt>
      <trkpt lat="47.2342" lon="6.06493">
        <ele>346</ele>
        <time>2016-3-26T13:46:23.000Z</time>
      </trkpt>
      <trkpt lat="47.2342" lon="6.06484">
        <ele>347</ele>
        <time>2016-3-26T13:46:23.000Z</time>
      </trkpt>
      <trkpt lat="47.23419" lon="6.06475">
        <ele>345</ele>
        <time>2016-3-26T13:46:23.000Z</time>
      </trkpt>
      <trkpt lat="47.23419" lon="6.06466">
        <ele>343</ele>
        <time>2016-3-26T13:46:23.000Z</time>
      </trkpt>
      <trkpt lat="47.23422" lon="6.06459">
        <ele>341</ele>
        <time>2016-3-26T13:46:23.000Z</time>
      </trkpt>
      <trkpt lat="47.23426" lon="6.06453">
        <ele>340</ele>
        <time>2016-3-26T13:46:23.000Z</time>
      </trkpt>
      <trkpt lat="47.23431" lon="6.06448">
        <ele>338</ele>
        <time>2016-3-26T13:46:23.000Z</time>
      </trkpt>
      <trkpt lat="47.23437" lon="6.06446">
        <ele>337</ele>
        <time>2016-3-26T13:46:23.000Z</time>
      </trkpt>
      <trkpt lat="47.23443" lon="6.06444">
        <ele>322</ele>
        <time>2016-3-26T13:46:23.000Z</time>
      </trkpt>
      <trkpt lat="47.23447" lon="6.06448">
        <ele>322</ele>
        <time>2016-3-26T13:46:23.000Z</time>
      </trkpt>
      <trkpt lat="47.23452" lon="6.06452">
        <ele>322</ele>
        <time>2016-3-26T13:46:23.000Z</time>
      </trkpt>
      <trkpt lat="47.23456" lon="6.06457">
        <ele>323</ele>
        <time>2016-3-26T13:46:23.000Z</time>
      </trkpt>
      <trkpt lat="47.23461" lon="6.06461">
        <ele>322</ele>
        <time>2016-3-26T13:46:23.000Z</time>
      </trkpt>
      <trkpt lat="47.23466" lon="6.06466">
        <ele>322</ele>
        <time>2016-3-26T13:46:23.000Z</time>
      </trkpt>
      <trkpt lat="47.2347" lon="6.06472">
        <ele>324</ele>
        <time>2016-3-26T13:46:23.000Z</time>
      </trkpt>
      <trkpt lat="47.23474" lon="6.06477">
        <ele>323</ele>
        <time>2016-3-26T13:46:23.000Z</time>
      </trkpt>
      <trkpt lat="47.23479" lon="6.06481">
        <ele>323</ele>
        <time>2016-3-26T13:46:23.000Z</time>
      </trkpt>
      <trkpt lat="47.23483" lon="6.06488">
        <ele>321</ele>
        <time>2016-3-26T13:46:23.000Z</time>
      </trkpt>
      <trkpt lat="47.23488" lon="6.06493">
        <ele>320</ele>
        <time>2016-3-26T13:46:23.000Z</time>
      </trkpt>
      <trkpt lat="47.23493" lon="6.06499">
        <ele>318</ele>
        <time>2016-3-26T13:46:23.000Z</time>
      </trkpt>
      <trkpt lat="47.23497" lon="6.06503">
        <ele>317</ele>
        <time>2016-3-26T13:46:23.000Z</time>
      </trkpt>
      <trkpt lat="47.235" lon="6.0651">
        <ele>317</ele>
        <time>2016-3-26T13:46:23.000Z</time>
      </trkpt>
      <trkpt lat="47.23503" lon="6.06518">
        <ele>317</ele>
        <time>2016-3-26T13:46:23.000Z</time>
      </trkpt>
      <trkpt lat="47.23504" lon="6.06525">
        <ele>318</ele>
        <time>2016-3-26T13:46:23.000Z</time>
      </trkpt>
      <trkpt lat="47.23506" lon="6.06535">
        <ele>318</ele>
        <time>2016-3-26T13:46:23.000Z</time>
      </trkpt>
      <trkpt lat="47.23507" lon="6.06544">
        <ele>319</ele>
        <time>2016-3-26T13:46:23.000Z</time>
      </trkpt>
      <trkpt lat="47.23507" lon="6.06552">
        <ele>319</ele>
        <time>2016-3-26T13:46:23.000Z</time>
      </trkpt>
      <trkpt lat="47.23508" lon="6.0656">
        <ele>318</ele>
        <time>2016-3-26T13:46:23.000Z</time>
      </trkpt>
      <trkpt lat="47.23508" lon="6.06568">
        <ele>319</ele>
        <time>2016-3-26T13:46:23.000Z</time>
      </trkpt>
      <trkpt lat="47.2351" lon="6.06576">
        <ele>319</ele>
        <time>2016-3-26T13:46:23.000Z</time>
      </trkpt>
      <trkpt lat="47.23515" lon="6.0658">
        <ele>320</ele>
        <time>2016-3-26T13:46:23.000Z</time>
      </trkpt>
      <trkpt lat="47.23519" lon="6.06587">
        <ele>320</ele>
        <time>2016-3-26T13:46:23.000Z</time>
      </trkpt>
      <trkpt lat="47.23523" lon="6.06593">
        <ele>321</ele>
        <time>2016-3-26T13:46:23.000Z</time>
      </trkpt>
      <trkpt lat="47.23528" lon="6.06598">
        <ele>322</ele>
        <time>2016-3-26T13:46:23.000Z</time>
      </trkpt>
      <trkpt lat="47.23532" lon="6.06603">
        <ele>318</ele>
        <time>2016-3-26T13:46:23.000Z</time>
      </trkpt>
      <trkpt lat="47.23537" lon="6.06605">
        <ele>317</ele>
        <time>2016-3-26T13:46:23.000Z</time>
      </trkpt>
      <trkpt lat="47.23543" lon="6.06605">
        <ele>316</ele>
        <time>2016-3-26T13:46:23.000Z</time>
      </trkpt>
      <trkpt lat="47.2355" lon="6.06605">
        <ele>315</ele>
        <time>2016-3-26T13:46:23.000Z</time>
      </trkpt>
      <trkpt lat="47.23556" lon="6.06604">
        <ele>315</ele>
        <time>2016-3-26T13:46:23.000Z</time>
      </trkpt>
      <trkpt lat="47.23562" lon="6.06603">
        <ele>314</ele>
        <time>2016-3-26T13:53:13.000Z</time>
      </trkpt>
      <trkpt lat="47.23569" lon="6.06602">
        <ele>315</ele>
        <time>2016-3-26T13:53:13.000Z</time>
      </trkpt>
      <trkpt lat="47.23574" lon="6.06598">
        <ele>314</ele>
        <time>2016-3-26T13:53:13.000Z</time>
      </trkpt>
      <trkpt lat="47.23571" lon="6.06591">
        <ele>312</ele>
        <time>2016-3-26T13:53:13.000Z</time>
      </trkpt>
      <trkpt lat="47.23565" lon="6.06586">
        <ele>311</ele>
        <time>2016-3-26T13:53:13.000Z</time>
      </trkpt>
      <trkpt lat="47.23559" lon="6.06583">
        <ele>310</ele>
        <time>2016-3-26T13:53:13.000Z</time>
      </trkpt>
      <trkpt lat="47.23555" lon="6.06578">
        <ele>309</ele>
        <time>2016-3-26T13:53:13.000Z</time>
      </trkpt>
      <trkpt lat="47.2355" lon="6.06572">
        <ele>310</ele>
        <time>2016-3-26T13:53:13.000Z</time>
      </trkpt>
      <trkpt lat="47.23547" lon="6.06565">
        <ele>309</ele>
        <time>2016-3-26T13:53:13.000Z</time>
      </trkpt>
      <trkpt lat="47.23545" lon="6.06558">
        <ele>309</ele>
        <time>2016-3-26T13:53:13.000Z</time>
      </trkpt>
      <trkpt lat="47.23543" lon="6.0655">
        <ele>308</ele>
        <time>2016-3-26T13:53:13.000Z</time>
      </trkpt>
      <trkpt lat="47.23543" lon="6.06542">
        <ele>307</ele>
        <time>2016-3-26T13:53:13.000Z</time>
      </trkpt>
      <trkpt lat="47.23544" lon="6.06534">
        <ele>305</ele>
        <time>2016-3-26T13:53:13.000Z</time>
      </trkpt>
      <trkpt lat="47.23545" lon="6.06526">
        <ele>303</ele>
        <time>2016-3-26T13:53:13.000Z</time>
      </trkpt>
      <trkpt lat="47.23548" lon="6.0652">
        <ele>301</ele>
        <time>2016-3-26T13:53:13.000Z</time>
      </trkpt>
      <trkpt lat="47.23552" lon="6.06515">
        <ele>299</ele>
        <time>2016-3-26T13:53:13.000Z</time>
      </trkpt>
      <trkpt lat="47.23558" lon="6.06512">
        <ele>298</ele>
        <time>2016-3-26T13:53:13.000Z</time>
      </trkpt>
      <trkpt lat="47.23564" lon="6.06512">
        <ele>297</ele>
        <time>2016-3-26T13:53:13.000Z</time>
      </trkpt>
      <trkpt lat="47.2357" lon="6.06513">
        <ele>295</ele>
        <time>2016-3-26T13:53:13.000Z</time>
      </trkpt>
      <trkpt lat="47.23575" lon="6.06515">
        <ele>292</ele>
        <time>2016-3-26T13:53:13.000Z</time>
      </trkpt>
      <trkpt lat="47.2358" lon="6.06517">
        <ele>292</ele>
        <time>2016-3-26T13:53:13.000Z</time>
      </trkpt>
      <trkpt lat="47.23585" lon="6.06516">
        <ele>291</ele>
        <time>2016-3-26T13:53:13.000Z</time>
      </trkpt>
      <trkpt lat="47.2359" lon="6.06512">
        <ele>291</ele>
        <time>2016-3-26T13:53:13.000Z</time>
      </trkpt>
      <trkpt lat="47.23592" lon="6.06506">
        <ele>290</ele>
        <time>2016-3-26T13:53:13.000Z</time>
      </trkpt>
      <trkpt lat="47.23592" lon="6.06497">
        <ele>289</ele>
        <time>2016-3-26T13:53:13.000Z</time>
      </trkpt>
      <trkpt lat="47.23588" lon="6.06491">
        <ele>289</ele>
        <time>2016-3-26T13:53:13.000Z</time>
      </trkpt>
      <trkpt lat="47.23585" lon="6.06484">
        <ele>288</ele>
        <time>2016-3-26T13:53:13.000Z</time>
      </trkpt>
      <trkpt lat="47.23584" lon="6.06476">
        <ele>288</ele>
        <time>2016-3-26T13:53:13.000Z</time>
      </trkpt>
      <trkpt lat="47.23582" lon="6.06468">
        <ele>288</ele>
        <time>2016-3-26T13:53:13.000Z</time>
      </trkpt>
      <trkpt lat="47.2358" lon="6.06461">
        <ele>287</ele>
        <time>2016-3-26T13:53:13.000Z</time>
      </trkpt>
      <trkpt lat="47.23577" lon="6.06452">
        <ele>287</ele>
        <time>2016-3-26T13:53:13.000Z</time>
      </trkpt>
      <trkpt lat="47.23577" lon="6.06444">
        <ele>286</ele>
        <time>2016-3-26T13:53:13.000Z</time>
      </trkpt>
      <trkpt lat="47.23575" lon="6.06436">
        <ele>285</ele>
        <time>2016-3-26T13:53:13.000Z</time>
      </trkpt>
      <trkpt lat="47.23574" lon="6.06429">
        <ele>285</ele>
        <time>2016-3-26T13:53:13.000Z</time>
      </trkpt>
      <trkpt lat="47.23572" lon="6.06421">
        <ele>285</ele>
        <time>2016-3-26T13:53:13.000Z</time>
      </trkpt>
      <trkpt lat="47.23571" lon="6.06413">
        <ele>284</ele>
        <time>2016-3-26T13:53:13.000Z</time>
      </trkpt>
      <trkpt lat="47.23569" lon="6.06405">
        <ele>284</ele>
        <time>2016-3-26T13:53:13.000Z</time>
      </trkpt>
      <trkpt lat="47.23567" lon="6.06397">
        <ele>283</ele>
        <time>2016-3-26T13:53:13.000Z</time>
      </trkpt>
      <trkpt lat="47.23564" lon="6.0639">
        <ele>283</ele>
        <time>2016-3-26T13:53:13.000Z</time>
      </trkpt>
      <trkpt lat="47.23561" lon="6.06382">
        <ele>282</ele>
        <time>2016-3-26T13:53:13.000Z</time>
      </trkpt>
      <trkpt lat="47.2356" lon="6.06374">
        <ele>282</ele>
        <time>2016-3-26T13:53:13.000Z</time>
      </trkpt>
      <trkpt lat="47.23559" lon="6.06365">
        <ele>282</ele>
        <time>2016-3-26T13:53:13.000Z</time>
      </trkpt>
      <trkpt lat="47.23557" lon="6.06357">
        <ele>282</ele>
        <time>2016-3-26T13:53:13.000Z</time>
      </trkpt>
      <trkpt lat="47.23555" lon="6.06349">
        <ele>279</ele>
        <time>2016-3-26T13:53:13.000Z</time>
      </trkpt>
      <trkpt lat="47.23553" lon="6.06341">
        <ele>277</ele>
        <time>2016-3-26T13:53:13.000Z</time>
      </trkpt>
      <trkpt lat="47.23552" lon="6.06333">
        <ele>276</ele>
        <time>2016-3-26T13:53:13.000Z</time>
      </trkpt>
      <trkpt lat="47.23549" lon="6.06326">
        <ele>273</ele>
        <time>2016-3-26T13:53:13.000Z</time>
      </trkpt>
      <trkpt lat="47.23547" lon="6.06317">
        <ele>273</ele>
        <time>2016-3-26T13:53:13.000Z</time>
      </trkpt>
      <trkpt lat="47.23544" lon="6.0631">
        <ele>271</ele>
        <time>2016-3-26T13:53:13.000Z</time>
      </trkpt>
      <trkpt lat="47.23541" lon="6.06302">
        <ele>270</ele>
        <time>2016-3-26T13:53:13.000Z</time>
      </trkpt>
      <trkpt lat="47.2354" lon="6.06294">
        <ele>270</ele>
        <time>2016-3-26T13:53:13.000Z</time>
      </trkpt>
      <trkpt lat="47.23537" lon="6.06287">
        <ele>270</ele>
        <time>2016-3-26T13:53:13.000Z</time>
      </trkpt>
      <trkpt lat="47.23532" lon="6.06283">
        <ele>270</ele>
        <time>2016-3-26T13:53:13.000Z</time>
      </trkpt>
      <trkpt lat="47.23528" lon="6.06278">
        <ele>269</ele>
        <time>2016-3-26T13:53:13.000Z</time>
      </trkpt>
      <trkpt lat="47.23523" lon="6.06273">
        <ele>267</ele>
        <time>2016-3-26T13:53:13.000Z</time>
      </trkpt>
      <trkpt lat="47.23519" lon="6.06268">
        <ele>267</ele>
        <time>2016-3-26T13:53:13.000Z</time>
      </trkpt>
      <trkpt lat="47.23513" lon="6.06264">
        <ele>267</ele>
        <time>2016-3-26T13:53:13.000Z</time>
      </trkpt>
      <trkpt lat="47.23508" lon="6.0626">
        <ele>266</ele>
        <time>2016-3-26T13:53:13.000Z</time>
      </trkpt>
      <trkpt lat="47.23502" lon="6.06255">
        <ele>264</ele>
        <time>2016-3-26T13:53:13.000Z</time>
      </trkpt>
      <trkpt lat="47.23498" lon="6.0625">
        <ele>263</ele>
        <time>2016-3-26T13:53:13.000Z</time>
      </trkpt>
      <trkpt lat="47.23493" lon="6.06245">
        <ele>264</ele>
        <time>2016-3-26T13:53:13.000Z</time>
      </trkpt>
      <trkpt lat="47.23488" lon="6.0624">
        <ele>264</ele>
        <time>2016-3-26T13:53:13.000Z</time>
      </trkpt>
      <trkpt lat="47.23484" lon="6.06237">
        <ele>263</ele>
        <time>2016-3-26T13:53:13.000Z</time>
      </trkpt>
      <trkpt lat="47.23479" lon="6.06233">
        <ele>264</ele>
        <time>2016-3-26T13:53:13.000Z</time>
      </trkpt>
      <trkpt lat="47.23474" lon="6.06228">
        <ele>262</ele>
        <time>2016-3-26T13:53:13.000Z</time>
      </trkpt>
      <trkpt lat="47.23469" lon="6.06224">
        <ele>261</ele>
        <time>2016-3-26T13:53:13.000Z</time>
      </trkpt>
      <trkpt lat="47.23465" lon="6.06219">
        <ele>260</ele>
        <time>2016-3-26T13:53:13.000Z</time>
      </trkpt>
      <trkpt lat="47.2346" lon="6.06215">
        <ele>259</ele>
        <time>2016-3-26T13:53:13.000Z</time>
      </trkpt>
      <trkpt lat="47.23455" lon="6.06211">
        <ele>258</ele>
        <time>2016-3-26T13:53:13.000Z</time>
      </trkpt>
      <trkpt lat="47.2345" lon="6.06207">
        <ele>258</ele>
        <time>2016-3-26T13:53:13.000Z</time>
      </trkpt>
      <trkpt lat="47.23445" lon="6.06203">
        <ele>256</ele>
        <time>2016-3-26T13:53:13.000Z</time>
      </trkpt>
      <trkpt lat="47.2344" lon="6.06199">
        <ele>256</ele>
        <time>2016-3-26T13:53:13.000Z</time>
      </trkpt>
      <trkpt lat="47.23436" lon="6.06195">
        <ele>253</ele>
        <time>2016-3-26T13:53:13.000Z</time>
      </trkpt>
      <trkpt lat="47.23431" lon="6.06192">
        <ele>253</ele>
        <time>2016-3-26T13:53:13.000Z</time>
      </trkpt>
      <trkpt lat="47.23426" lon="6.06188">
        <ele>253</ele>
        <time>2016-3-26T13:53:13.000Z</time>
      </trkpt>
      <trkpt lat="47.23421" lon="6.06183">
        <ele>254</ele>
        <time>2016-3-26T13:53:13.000Z</time>
      </trkpt>
      <trkpt lat="47.23416" lon="6.06179">
        <ele>254</ele>
        <time>2016-3-26T13:53:13.000Z</time>
      </trkpt>
      <trkpt lat="47.23409" lon="6.06174">
        <ele>254</ele>
        <time>2016-3-26T13:53:13.000Z</time>
      </trkpt>
      <trkpt lat="47.23404" lon="6.06171">
        <ele>252</ele>
        <time>2016-3-26T13:53:13.000Z</time>
      </trkpt>
      <trkpt lat="47.23399" lon="6.06169">
        <ele>252</ele>
        <time>2016-3-26T13:53:13.000Z</time>
      </trkpt>
      <trkpt lat="47.23393" lon="6.06167">
        <ele>251</ele>
        <time>2016-3-26T13:53:13.000Z</time>
      </trkpt>
      <trkpt lat="47.23388" lon="6.06164">
        <ele>252</ele>
        <time>2016-3-26T13:53:13.000Z</time>
      </trkpt>
      <trkpt lat="47.23382" lon="6.06161">
        <ele>250</ele>
        <time>2016-3-26T13:53:13.000Z</time>
      </trkpt>
      <trkpt lat="47.23377" lon="6.06158">
        <ele>250</ele>
        <time>2016-3-26T13:53:13.000Z</time>
      </trkpt>
      <trkpt lat="47.23372" lon="6.06154">
        <ele>251</ele>
        <time>2016-3-26T13:53:13.000Z</time>
      </trkpt>
      <trkpt lat="47.23366" lon="6.06151">
        <ele>249</ele>
        <time>2016-3-26T13:53:13.000Z</time>
      </trkpt>
      <trkpt lat="47.23361" lon="6.06147">
        <ele>248</ele>
        <time>2016-3-26T13:53:13.000Z</time>
      </trkpt>
      <trkpt lat="47.23356" lon="6.06144">
        <ele>248</ele>
        <time>2016-3-26T13:53:13.000Z</time>
      </trkpt>
      <trkpt lat="47.23351" lon="6.06139">
        <ele>248</ele>
        <time>2016-3-26T13:53:13.000Z</time>
      </trkpt>
      <trkpt lat="47.23348" lon="6.06133">
        <ele>246</ele>
        <time>2016-3-26T13:53:13.000Z</time>
      </trkpt>
      <trkpt lat="47.23346" lon="6.06124">
        <ele>247</ele>
        <time>2016-3-26T13:53:13.000Z</time>
      </trkpt>
      <trkpt lat="47.2334" lon="6.06121">
        <ele>247</ele>
        <time>2016-3-26T13:53:13.000Z</time>
      </trkpt>
      <trkpt lat="47.23334" lon="6.06118">
        <ele>245</ele>
        <time>2016-3-26T13:53:13.000Z</time>
      </trkpt>
      <trkpt lat="47.23329" lon="6.06115">
        <ele>244</ele>
        <time>2016-3-26T13:53:13.000Z</time>
      </trkpt>
      <trkpt lat="47.23322" lon="6.06115">
        <ele>244</ele>
        <time>2016-3-26T13:53:13.000Z</time>
      </trkpt>
      <trkpt lat="47.23316" lon="6.06113">
        <ele>247</ele>
        <time>2016-3-26T13:53:13.000Z</time>
      </trkpt>
      <trkpt lat="47.23311" lon="6.06109">
        <ele>247</ele>
        <time>2016-3-26T13:53:13.000Z</time>
      </trkpt>
      <trkpt lat="47.23305" lon="6.06106">
        <ele>247</ele>
        <time>2016-3-26T13:53:13.000Z</time>
      </trkpt>
      <trkpt lat="47.23299" lon="6.06102">
        <ele>248</ele>
        <time>2016-3-26T13:53:13.000Z</time>
      </trkpt>
      <trkpt lat="47.23294" lon="6.06099">
        <ele>249</ele>
        <time>2016-3-26T13:53:13.000Z</time>
      </trkpt>
      <trkpt lat="47.23288" lon="6.06096">
        <ele>250</ele>
        <time>2016-3-26T13:53:13.000Z</time>
      </trkpt>
      <trkpt lat="47.23282" lon="6.06092">
        <ele>251</ele>
        <time>2016-3-26T13:59:58.000Z</time>
      </trkpt>
      <trkpt lat="47.23276" lon="6.06089">
        <ele>249</ele>
        <time>2016-3-26T13:59:58.000Z</time>
      </trkpt>
      <trkpt lat="47.23271" lon="6.06086">
        <ele>248</ele>
        <time>2016-3-26T13:59:58.000Z</time>
      </trkpt>
      <trkpt lat="47.23265" lon="6.06084">
        <ele>247</ele>
        <time>2016-3-26T13:59:58.000Z</time>
      </trkpt>
      <trkpt lat="47.2326" lon="6.06082">
        <ele>245</ele>
        <time>2016-3-26T13:59:58.000Z</time>
      </trkpt>
      <trkpt lat="47.23255" lon="6.06078">
        <ele>245</ele>
        <time>2016-3-26T13:59:58.000Z</time>
      </trkpt>
      <trkpt lat="47.23249" lon="6.06076">
        <ele>245</ele>
        <time>2016-3-26T13:59:58.000Z</time>
      </trkpt>
      <trkpt lat="47.23245" lon="6.06073">
        <ele>246</ele>
        <time>2016-3-26T13:59:58.000Z</time>
      </trkpt>
      <trkpt lat="47.2324" lon="6.0607">
        <ele>246</ele>
        <time>2016-3-26T13:59:58.000Z</time>
      </trkpt>
      <trkpt lat="47.23235" lon="6.06066">
        <ele>246</ele>
        <time>2016-3-26T13:59:58.000Z</time>
      </trkpt>
      <trkpt lat="47.23231" lon="6.06061">
        <ele>245</ele>
        <time>2016-3-26T13:59:58.000Z</time>
      </trkpt>
      <trkpt lat="47.23227" lon="6.06056">
        <ele>245</ele>
        <time>2016-3-26T13:59:58.000Z</time>
      </trkpt>
      <trkpt lat="47.23223" lon="6.06049">
        <ele>244</ele>
        <time>2016-3-26T13:59:58.000Z</time>
      </trkpt>
      <trkpt lat="47.23219" lon="6.06043">
        <ele>245</ele>
        <time>2016-3-26T13:59:58.000Z</time>
      </trkpt>
      <trkpt lat="47.23217" lon="6.06036">
        <ele>245</ele>
        <time>2016-3-26T13:59:58.000Z</time>
      </trkpt>
      <trkpt lat="47.23214" lon="6.06029">
        <ele>244</ele>
        <time>2016-3-26T13:59:58.000Z</time>
      </trkpt>
      <trkpt lat="47.23212" lon="6.0602">
        <ele>244</ele>
        <time>2016-3-26T13:59:58.000Z</time>
      </trkpt>
      <trkpt lat="47.23209" lon="6.06014">
        <ele>244</ele>
        <time>2016-3-26T13:59:58.000Z</time>
      </trkpt>
      <trkpt lat="47.23205" lon="6.06008">
        <ele>244</ele>
        <time>2016-3-26T13:59:58.000Z</time>
      </trkpt>
      <trkpt lat="47.232" lon="6.06005">
        <ele>243</ele>
        <time>2016-3-26T13:59:58.000Z</time>
      </trkpt>
      <trkpt lat="47.23195" lon="6.06001">
        <ele>244</ele>
        <time>2016-3-26T13:59:58.000Z</time>
      </trkpt>
      <trkpt lat="47.2319" lon="6.05996">
        <ele>244</ele>
        <time>2016-3-26T13:59:58.000Z</time>
      </trkpt>
      <trkpt lat="47.23187" lon="6.0599">
        <ele>244</ele>
        <time>2016-3-26T13:59:58.000Z</time>
      </trkpt>
      <trkpt lat="47.23182" lon="6.05985">
        <ele>245</ele>
        <time>2016-3-26T13:59:58.000Z</time>
      </trkpt>
      <trkpt lat="47.23178" lon="6.05978">
        <ele>244</ele>
        <time>2016-3-26T13:59:58.000Z</time>
      </trkpt>
      <trkpt lat="47.23176" lon="6.0597">
        <ele>247</ele>
        <time>2016-3-26T13:59:58.000Z</time>
      </trkpt>
      <trkpt lat="47.23175" lon="6.05962">
        <ele>247</ele>
        <time>2016-3-26T13:59:58.000Z</time>
      </trkpt>
      <trkpt lat="47.23171" lon="6.05955">
        <ele>247</ele>
        <time>2016-3-26T13:59:58.000Z</time>
      </trkpt>
      <trkpt lat="47.23166" lon="6.05949">
        <ele>244</ele>
        <time>2016-3-26T13:59:58.000Z</time>
      </trkpt>
      <trkpt lat="47.23161" lon="6.05943">
        <ele>244</ele>
        <time>2016-3-26T13:59:58.000Z</time>
      </trkpt>
      <trkpt lat="47.23156" lon="6.05938">
        <ele>243</ele>
        <time>2016-3-26T13:59:58.000Z</time>
      </trkpt>
      <trkpt lat="47.23151" lon="6.05932">
        <ele>244</ele>
        <time>2016-3-26T13:59:58.000Z</time>
      </trkpt>
      <trkpt lat="47.23147" lon="6.05926">
        <ele>244</ele>
        <time>2016-3-26T13:59:58.000Z</time>
      </trkpt>
      <trkpt lat="47.23141" lon="6.05919">
        <ele>243</ele>
        <time>2016-3-26T13:59:58.000Z</time>
      </trkpt>
      <trkpt lat="47.23136" lon="6.05914">
        <ele>243</ele>
        <time>2016-3-26T13:59:58.000Z</time>
      </trkpt>
      <trkpt lat="47.23132" lon="6.05909">
        <ele>244</ele>
        <time>2016-3-26T13:59:58.000Z</time>
      </trkpt>
      <trkpt lat="47.23127" lon="6.05904">
        <ele>244</ele>
        <time>2016-3-26T13:59:58.000Z</time>
      </trkpt>
      <trkpt lat="47.23122" lon="6.05899">
        <ele>243</ele>
        <time>2016-3-26T13:59:58.000Z</time>
      </trkpt>
      <trkpt lat="47.2312" lon="6.05892">
        <ele>243</ele>
        <time>2016-3-26T13:59:58.000Z</time>
      </trkpt>
      <trkpt lat="47.23123" lon="6.05884">
        <ele>245</ele>
        <time>2016-3-26T13:59:58.000Z</time>
      </trkpt>
      <trkpt lat="47.23125" lon="6.05875">
        <ele>246</ele>
        <time>2016-3-26T13:59:58.000Z</time>
      </trkpt>
      <trkpt lat="47.23125" lon="6.05866">
        <ele>245</ele>
        <time>2016-3-26T13:59:58.000Z</time>
      </trkpt>
      <trkpt lat="47.2312" lon="6.05862">
        <ele>246</ele>
        <time>2016-3-26T13:59:58.000Z</time>
      </trkpt>
      <trkpt lat="47.23114" lon="6.05858">
        <ele>245</ele>
        <time>2016-3-26T13:59:58.000Z</time>
      </trkpt>
      <trkpt lat="47.23109" lon="6.05853">
        <ele>246</ele>
        <time>2016-3-26T13:59:58.000Z</time>
      </trkpt>
      <trkpt lat="47.23103" lon="6.05848">
        <ele>246</ele>
        <time>2016-3-26T13:59:58.000Z</time>
      </trkpt>
      <trkpt lat="47.23098" lon="6.05843">
        <ele>246</ele>
        <time>2016-3-26T13:59:58.000Z</time>
      </trkpt>
      <trkpt lat="47.23093" lon="6.05838">
        <ele>247</ele>
        <time>2016-3-26T13:59:58.000Z</time>
      </trkpt>
      <trkpt lat="47.23088" lon="6.05833">
        <ele>248</ele>
        <time>2016-3-26T13:59:58.000Z</time>
      </trkpt>
      <trkpt lat="47.23083" lon="6.05827">
        <ele>249</ele>
        <time>2016-3-26T13:59:58.000Z</time>
      </trkpt>
      <trkpt lat="47.23078" lon="6.05821">
        <ele>250</ele>
        <time>2016-3-26T13:59:58.000Z</time>
      </trkpt>
      <trkpt lat="47.23073" lon="6.05816">
        <ele>251</ele>
        <time>2016-3-26T13:59:58.000Z</time>
      </trkpt>
      <trkpt lat="47.23068" lon="6.05812">
        <ele>252</ele>
        <time>2016-3-26T13:59:58.000Z</time>
      </trkpt>
      <trkpt lat="47.23063" lon="6.05807">
        <ele>253</ele>
        <time>2016-3-26T13:59:58.000Z</time>
      </trkpt>
      <trkpt lat="47.23058" lon="6.05803">
        <ele>254</ele>
        <time>2016-3-26T13:59:58.000Z</time>
      </trkpt>
      <trkpt lat="47.23052" lon="6.05798">
        <ele>254</ele>
        <time>2016-3-26T13:59:58.000Z</time>
      </trkpt>
      <trkpt lat="47.23047" lon="6.05793">
        <ele>253</ele>
        <time>2016-3-26T13:59:58.000Z</time>
      </trkpt>
      <trkpt lat="47.23042" lon="6.0579">
        <ele>253</ele>
        <time>2016-3-26T13:59:58.000Z</time>
      </trkpt>
      <trkpt lat="47.23037" lon="6.05786">
        <ele>252</ele>
        <time>2016-3-26T13:59:58.000Z</time>
      </trkpt>
      <trkpt lat="47.23032" lon="6.05781">
        <ele>251</ele>
        <time>2016-3-26T13:59:58.000Z</time>
      </trkpt>
      <trkpt lat="47.23027" lon="6.05776">
        <ele>252</ele>
        <time>2016-3-26T13:59:58.000Z</time>
      </trkpt>
      <trkpt lat="47.23022" lon="6.0577">
        <ele>252</ele>
        <time>2016-3-26T13:59:58.000Z</time>
      </trkpt>
      <trkpt lat="47.23017" lon="6.05765">
        <ele>252</ele>
        <time>2016-3-26T13:59:58.000Z</time>
      </trkpt>
      <trkpt lat="47.23012" lon="6.0576">
        <ele>251</ele>
        <time>2016-3-26T13:59:58.000Z</time>
      </trkpt>
      <trkpt lat="47.23008" lon="6.05754">
        <ele>253</ele>
        <time>2016-3-26T13:59:58.000Z</time>
      </trkpt>
      <trkpt lat="47.23003" lon="6.05748">
        <ele>253</ele>
        <time>2016-3-26T13:59:58.000Z</time>
      </trkpt>
      <trkpt lat="47.22998" lon="6.05743">
        <ele>253</ele>
        <time>2016-3-26T13:59:58.000Z</time>
      </trkpt>
      <trkpt lat="47.22993" lon="6.05738">
        <ele>254</ele>
        <time>2016-3-26T13:59:58.000Z</time>
      </trkpt>
      <trkpt lat="47.22988" lon="6.05732">
        <ele>253</ele>
        <time>2016-3-26T13:59:58.000Z</time>
      </trkpt>
      <trkpt lat="47.22983" lon="6.05727">
        <ele>253</ele>
        <time>2016-3-26T13:59:58.000Z</time>
      </trkpt>
      <trkpt lat="47.22978" lon="6.05723">
        <ele>253</ele>
        <time>2016-3-26T13:59:58.000Z</time>
      </trkpt>
      <trkpt lat="47.22973" lon="6.05719">
        <ele>252</ele>
        <time>2016-3-26T13:59:58.000Z</time>
      </trkpt>
      <trkpt lat="47.22969" lon="6.05714">
        <ele>250</ele>
        <time>2016-3-26T13:59:58.000Z</time>
      </trkpt>
      <trkpt lat="47.22965" lon="6.05709">
        <ele>250</ele>
        <time>2016-3-26T13:59:58.000Z</time>
      </trkpt>
      <trkpt lat="47.22961" lon="6.05703">
        <ele>250</ele>
        <time>2016-3-26T13:59:58.000Z</time>
      </trkpt>
      <trkpt lat="47.22957" lon="6.05698">
        <ele>250</ele>
        <time>2016-3-26T13:59:58.000Z</time>
      </trkpt>
      <trkpt lat="47.22952" lon="6.05694">
        <ele>250</ele>
        <time>2016-3-26T13:59:58.000Z</time>
      </trkpt>
      <trkpt lat="47.22948" lon="6.05689">
        <ele>251</ele>
        <time>2016-3-26T13:59:58.000Z</time>
      </trkpt>
      <trkpt lat="47.22944" lon="6.05682">
        <ele>251</ele>
        <time>2016-3-26T13:59:58.000Z</time>
      </trkpt>
      <trkpt lat="47.2294" lon="6.05674">
        <ele>252</ele>
        <time>2016-3-26T13:59:58.000Z</time>
      </trkpt>
      <trkpt lat="47.22936" lon="6.05668">
        <ele>252</ele>
        <time>2016-3-26T13:59:58.000Z</time>
      </trkpt>
      <trkpt lat="47.22932" lon="6.05662">
        <ele>251</ele>
        <time>2016-3-26T13:59:58.000Z</time>
      </trkpt>
      <trkpt lat="47.22928" lon="6.05656">
        <ele>251</ele>
        <time>2016-3-26T13:59:58.000Z</time>
      </trkpt>
      <trkpt lat="47.22924" lon="6.0565">
        <ele>252</ele>
        <time>2016-3-26T13:59:58.000Z</time>
      </trkpt>
      <trkpt lat="47.22919" lon="6.05645">
        <ele>251</ele>
        <time>2016-3-26T13:59:58.000Z</time>
      </trkpt>
      <trkpt lat="47.22915" lon="6.05639">
        <ele>251</ele>
        <time>2016-3-26T13:59:58.000Z</time>
      </trkpt>
      <trkpt lat="47.22911" lon="6.05633">
        <ele>251</ele>
        <time>2016-3-26T13:59:58.000Z</time>
      </trkpt>
      <trkpt lat="47.22907" lon="6.05626">
        <ele>251</ele>
        <time>2016-3-26T13:59:58.000Z</time>
      </trkpt>
      <trkpt lat="47.22903" lon="6.0562">
        <ele>252</ele>
        <time>2016-3-26T13:59:58.000Z</time>
      </trkpt>
      <trkpt lat="47.22899" lon="6.05615">
        <ele>251</ele>
        <time>2016-3-26T13:59:58.000Z</time>
      </trkpt>
      <trkpt lat="47.22895" lon="6.05608">
        <ele>251</ele>
        <time>2016-3-26T13:59:58.000Z</time>
      </trkpt>
      <trkpt lat="47.22891" lon="6.05603">
        <ele>251</ele>
        <time>2016-3-26T13:59:58.000Z</time>
      </trkpt>
      <trkpt lat="47.22887" lon="6.05597">
        <ele>251</ele>
        <time>2016-3-26T13:59:58.000Z</time>
      </trkpt>
      <trkpt lat="47.22882" lon="6.05591">
        <ele>252</ele>
        <time>2016-3-26T13:59:58.000Z</time>
      </trkpt>
      <trkpt lat="47.22878" lon="6.05584">
        <ele>252</ele>
        <time>2016-3-26T13:59:58.000Z</time>
      </trkpt>
      <trkpt lat="47.22874" lon="6.05578">
        <ele>252</ele>
        <time>2016-3-26T13:59:58.000Z</time>
      </trkpt>
      <trkpt lat="47.2287" lon="6.05571">
        <ele>251</ele>
        <time>2016-3-26T13:59:58.000Z</time>
      </trkpt>
      <trkpt lat="47.22865" lon="6.05565">
        <ele>251</ele>
        <time>2016-3-26T13:59:58.000Z</time>
      </trkpt>
      <trkpt lat="47.22861" lon="6.05558">
        <ele>250</ele>
        <time>2016-3-26T13:59:58.000Z</time>
      </trkpt>
      <trkpt lat="47.22857" lon="6.05552">
        <ele>250</ele>
        <time>2016-3-26T13:59:58.000Z</time>
      </trkpt>
      <trkpt lat="47.22854" lon="6.05545">
        <ele>251</ele>
        <time>2016-3-26T13:59:58.000Z</time>
      </trkpt>
      <trkpt lat="47.22851" lon="6.05537">
        <ele>251</ele>
        <time>2016-3-26T14:2:0.000Z</time>
      </trkpt>
      <trkpt lat="47.22847" lon="6.05531">
        <ele>251</ele>
        <time>2016-3-26T14:2:0.000Z</time>
      </trkpt>
      <trkpt lat="47.22842" lon="6.05525">
        <ele>249</ele>
        <time>2016-3-26T14:2:0.000Z</time>
      </trkpt>
      <trkpt lat="47.22838" lon="6.05519">
        <ele>249</ele>
        <time>2016-3-26T14:2:0.000Z</time>
      </trkpt>
      <trkpt lat="47.22834" lon="6.05512">
        <ele>251</ele>
        <time>2016-3-26T14:2:0.000Z</time>
      </trkpt>
      <trkpt lat="47.2283" lon="6.05505">
        <ele>251</ele>
        <time>2016-3-26T14:2:0.000Z</time>
      </trkpt>
      <trkpt lat="47.22826" lon="6.05497">
        <ele>251</ele>
        <time>2016-3-26T14:2:0.000Z</time>
      </trkpt>
      <trkpt lat="47.22822" lon="6.0549">
        <ele>252</ele>
        <time>2016-3-26T14:2:0.000Z</time>
      </trkpt>
      <trkpt lat="47.22818" lon="6.05484">
        <ele>251</ele>
        <time>2016-3-26T14:2:0.000Z</time>
      </trkpt>
      <trkpt lat="47.22815" lon="6.05476">
        <ele>251</ele>
        <time>2016-3-26T14:2:0.000Z</time>
      </trkpt>
      <trkpt lat="47.22811" lon="6.0547">
        <ele>250</ele>
        <time>2016-3-26T14:2:0.000Z</time>
      </trkpt>
      <trkpt lat="47.22807" lon="6.05463">
        <ele>249</ele>
        <time>2016-3-26T14:2:0.000Z</time>
      </trkpt>
      <trkpt lat="47.22803" lon="6.05456">
        <ele>249</ele>
        <time>2016-3-26T14:2:0.000Z</time>
      </trkpt>
      <trkpt lat="47.22799" lon="6.05449">
        <ele>249</ele>
        <time>2016-3-26T14:2:0.000Z</time>
      </trkpt>
      <trkpt lat="47.22796" lon="6.05441">
        <ele>248</ele>
        <time>2016-3-26T14:2:0.000Z</time>
      </trkpt>
      <trkpt lat="47.22792" lon="6.05434">
        <ele>249</ele>
        <time>2016-3-26T14:2:0.000Z</time>
      </trkpt>
      <trkpt lat="47.22789" lon="6.05427">
        <ele>248</ele>
        <time>2016-3-26T14:2:0.000Z</time>
      </trkpt>
      <trkpt lat="47.22786" lon="6.0542">
        <ele>249</ele>
        <time>2016-3-26T14:2:0.000Z</time>
      </trkpt>
      <trkpt lat="47.22783" lon="6.05413">
        <ele>249</ele>
        <time>2016-3-26T14:2:0.000Z</time>
      </trkpt>
      <trkpt lat="47.2278" lon="6.05406">
        <ele>250</ele>
        <time>2016-3-26T14:2:0.000Z</time>
      </trkpt>
      <trkpt lat="47.22776" lon="6.05401">
        <ele>251</ele>
        <time>2016-3-26T14:2:0.000Z</time>
      </trkpt>
      <trkpt lat="47.22772" lon="6.05393">
        <ele>251</ele>
        <time>2016-3-26T14:2:0.000Z</time>
      </trkpt>
      <trkpt lat="47.2277" lon="6.05385">
        <ele>251</ele>
        <time>2016-3-26T14:2:0.000Z</time>
      </trkpt>
      <trkpt lat="47.22766" lon="6.05379">
        <ele>251</ele>
        <time>2016-3-26T14:2:0.000Z</time>
      </trkpt>
      <trkpt lat="47.22762" lon="6.05372">
        <ele>252</ele>
        <time>2016-3-26T14:2:0.000Z</time>
      </trkpt>
      <trkpt lat="47.22759" lon="6.05364">
        <ele>252</ele>
        <time>2016-3-26T14:2:0.000Z</time>
      </trkpt>
      <trkpt lat="47.22757" lon="6.05357">
        <ele>254</ele>
        <time>2016-3-26T14:2:0.000Z</time>
      </trkpt>
      <trkpt lat="47.22754" lon="6.0535">
        <ele>253</ele>
        <time>2016-3-26T14:2:0.000Z</time>
      </trkpt>
      <trkpt lat="47.22751" lon="6.05343">
        <ele>254</ele>
        <time>2016-3-26T14:2:0.000Z</time>
      </trkpt>
      <trkpt lat="47.22748" lon="6.05336">
        <ele>253</ele>
        <time>2016-3-26T14:2:0.000Z</time>
      </trkpt>
      <trkpt lat="47.22716" lon="6.0528">
        <ele>264</ele>
        <time>2016-3-26T14:8:58.000Z</time>
      </trkpt>
      <trkpt lat="47.22718" lon="6.05275">
        <ele>258</ele>
        <time>2016-3-26T14:8:58.000Z</time>
      </trkpt>
      <trkpt lat="47.2272" lon="6.05272">
        <ele>255</ele>
        <time>2016-3-26T14:8:58.000Z</time>
      </trkpt>
      <trkpt lat="47.22721" lon="6.05268">
        <ele>254</ele>
        <time>2016-3-26T14:8:58.000Z</time>
      </trkpt>
      <trkpt lat="47.22722" lon="6.0526">
        <ele>254</ele>
        <time>2016-3-26T14:8:58.000Z</time>
      </trkpt>
      <trkpt lat="47.22722" lon="6.05252">
        <ele>255</ele>
        <time>2016-3-26T14:8:58.000Z</time>
      </trkpt>
      <trkpt lat="47.22722" lon="6.05242">
        <ele>257</ele>
        <time>2016-3-26T14:8:58.000Z</time>
      </trkpt>
      <trkpt lat="47.22721" lon="6.05234">
        <ele>260</ele>
        <time>2016-3-26T14:8:58.000Z</time>
      </trkpt>
      <trkpt lat="47.2272" lon="6.05226">
        <ele>259</ele>
        <time>2016-3-26T14:8:58.000Z</time>
      </trkpt>
      <trkpt lat="47.22718" lon="6.05217">
        <ele>260</ele>
        <time>2016-3-26T14:8:58.000Z</time>
      </trkpt>
      <trkpt lat="47.22715" lon="6.05209">
        <ele>258</ele>
        <time>2016-3-26T14:8:58.000Z</time>
      </trkpt>
      <trkpt lat="47.22714" lon="6.05201">
        <ele>259</ele>
        <time>2016-3-26T14:8:58.000Z</time>
      </trkpt>
      <trkpt lat="47.22712" lon="6.05194">
        <ele>258</ele>
        <time>2016-3-26T14:8:58.000Z</time>
      </trkpt>
      <trkpt lat="47.22711" lon="6.05185">
        <ele>259</ele>
        <time>2016-3-26T14:8:58.000Z</time>
      </trkpt>
      <trkpt lat="47.22709" lon="6.05176">
        <ele>259</ele>
        <time>2016-3-26T14:8:58.000Z</time>
      </trkpt>
      <trkpt lat="47.22708" lon="6.05168">
        <ele>259</ele>
        <time>2016-3-26T14:8:58.000Z</time>
      </trkpt>
      <trkpt lat="47.22705" lon="6.0516">
        <ele>258</ele>
        <time>2016-3-26T14:8:58.000Z</time>
      </trkpt>
      <trkpt lat="47.22702" lon="6.05153">
        <ele>256</ele>
        <time>2016-3-26T14:8:58.000Z</time>
      </trkpt>
      <trkpt lat="47.227" lon="6.05145">
        <ele>257</ele>
        <time>2016-3-26T14:8:58.000Z</time>
      </trkpt>
      <trkpt lat="47.22698" lon="6.05138">
        <ele>256</ele>
        <time>2016-3-26T14:8:58.000Z</time>
      </trkpt>
      <trkpt lat="47.22696" lon="6.0513">
        <ele>256</ele>
        <time>2016-3-26T14:8:58.000Z</time>
      </trkpt>
      <trkpt lat="47.22694" lon="6.05121">
        <ele>258</ele>
        <time>2016-3-26T14:8:58.000Z</time>
      </trkpt>
      <trkpt lat="47.22692" lon="6.05114">
        <ele>259</ele>
        <time>2016-3-26T14:8:58.000Z</time>
      </trkpt>
      <trkpt lat="47.22689" lon="6.05107">
        <ele>258</ele>
        <time>2016-3-26T14:8:58.000Z</time>
      </trkpt>
      <trkpt lat="47.22686" lon="6.051">
        <ele>257</ele>
        <time>2016-3-26T14:8:58.000Z</time>
      </trkpt>
      <trkpt lat="47.22683" lon="6.05092">
        <ele>257</ele>
        <time>2016-3-26T14:8:58.000Z</time>
      </trkpt>
      <trkpt lat="47.22681" lon="6.05083">
        <ele>256</ele>
        <time>2016-3-26T14:8:58.000Z</time>
      </trkpt>
      <trkpt lat="47.22679" lon="6.05076">
        <ele>256</ele>
        <time>2016-3-26T14:8:58.000Z</time>
      </trkpt>
      <trkpt lat="47.22678" lon="6.05068">
        <ele>255</ele>
        <time>2016-3-26T14:8:58.000Z</time>
      </trkpt>
      <trkpt lat="47.22675" lon="6.0506">
        <ele>254</ele>
        <time>2016-3-26T14:8:58.000Z</time>
      </trkpt>
      <trkpt lat="47.22673" lon="6.05052">
        <ele>252</ele>
        <time>2016-3-26T14:8:58.000Z</time>
      </trkpt>
      <trkpt lat="47.2267" lon="6.05044">
        <ele>253</ele>
        <time>2016-3-26T14:8:58.000Z</time>
      </trkpt>
      <trkpt lat="47.22669" lon="6.05035">
        <ele>254</ele>
        <time>2016-3-26T14:8:58.000Z</time>
      </trkpt>
      <trkpt lat="47.22667" lon="6.05026">
        <ele>254</ele>
        <time>2016-3-26T14:8:58.000Z</time>
      </trkpt>
      <trkpt lat="47.22666" lon="6.05018">
        <ele>255</ele>
        <time>2016-3-26T14:8:58.000Z</time>
      </trkpt>
      <trkpt lat="47.22664" lon="6.05009">
        <ele>255</ele>
        <time>2016-3-26T14:8:58.000Z</time>
      </trkpt>
      <trkpt lat="47.22661" lon="6.05">
        <ele>255</ele>
        <time>2016-3-26T14:8:58.000Z</time>
      </trkpt>
      <trkpt lat="47.22659" lon="6.04992">
        <ele>255</ele>
        <time>2016-3-26T14:8:58.000Z</time>
      </trkpt>
      <trkpt lat="47.22656" lon="6.04983">
        <ele>255</ele>
        <time>2016-3-26T14:8:58.000Z</time>
      </trkpt>
      <trkpt lat="47.22653" lon="6.04976">
        <ele>255</ele>
        <time>2016-3-26T14:8:58.000Z</time>
      </trkpt>
      <trkpt lat="47.22649" lon="6.04969">
        <ele>255</ele>
        <time>2016-3-26T14:8:58.000Z</time>
      </trkpt>
      <trkpt lat="47.22647" lon="6.04961">
        <ele>254</ele>
        <time>2016-3-26T14:8:58.000Z</time>
      </trkpt>
      <trkpt lat="47.22644" lon="6.04953">
        <ele>253</ele>
        <time>2016-3-26T14:8:58.000Z</time>
      </trkpt>
      <trkpt lat="47.22642" lon="6.04945">
        <ele>254</ele>
        <time>2016-3-26T14:8:58.000Z</time>
      </trkpt>
      <trkpt lat="47.2264" lon="6.04937">
        <ele>254</ele>
        <time>2016-3-26T14:8:58.000Z</time>
      </trkpt>
      <trkpt lat="47.22637" lon="6.04928">
        <ele>254</ele>
        <time>2016-3-26T14:8:58.000Z</time>
      </trkpt>
      <trkpt lat="47.22634" lon="6.0492">
        <ele>254</ele>
        <time>2016-3-26T14:8:58.000Z</time>
      </trkpt>
      <trkpt lat="47.22632" lon="6.04912">
        <ele>255</ele>
        <time>2016-3-26T14:8:58.000Z</time>
      </trkpt>
      <trkpt lat="47.2263" lon="6.04904">
        <ele>255</ele>
        <time>2016-3-26T14:8:58.000Z</time>
      </trkpt>
      <trkpt lat="47.22629" lon="6.04896">
        <ele>255</ele>
        <time>2016-3-26T14:8:58.000Z</time>
      </trkpt>
      <trkpt lat="47.22627" lon="6.04887">
        <ele>254</ele>
        <time>2016-3-26T14:8:58.000Z</time>
      </trkpt>
      <trkpt lat="47.22624" lon="6.04879">
        <ele>255</ele>
        <time>2016-3-26T14:8:58.000Z</time>
      </trkpt>
      <trkpt lat="47.22622" lon="6.04871">
        <ele>256</ele>
        <time>2016-3-26T14:8:58.000Z</time>
      </trkpt>
      <trkpt lat="47.22621" lon="6.04862">
        <ele>256</ele>
        <time>2016-3-26T14:8:58.000Z</time>
      </trkpt>
      <trkpt lat="47.22619" lon="6.04854">
        <ele>256</ele>
        <time>2016-3-26T14:8:58.000Z</time>
      </trkpt>
      <trkpt lat="47.22618" lon="6.04845">
        <ele>256</ele>
        <time>2016-3-26T14:8:58.000Z</time>
      </trkpt>
      <trkpt lat="47.22616" lon="6.04836">
        <ele>255</ele>
        <time>2016-3-26T14:8:58.000Z</time>
      </trkpt>
      <trkpt lat="47.22615" lon="6.04827">
        <ele>255</ele>
        <time>2016-3-26T14:8:58.000Z</time>
      </trkpt>
      <trkpt lat="47.22613" lon="6.04819">
        <ele>254</ele>
        <time>2016-3-26T14:8:58.000Z</time>
      </trkpt>
      <trkpt lat="47.22612" lon="6.0481">
        <ele>254</ele>
        <time>2016-3-26T14:8:58.000Z</time>
      </trkpt>
      <trkpt lat="47.2261" lon="6.04802">
        <ele>255</ele>
        <time>2016-3-26T14:8:58.000Z</time>
      </trkpt>
      <trkpt lat="47.22611" lon="6.04793">
        <ele>258</ele>
        <time>2016-3-26T14:8:58.000Z</time>
      </trkpt>
      <trkpt lat="47.2261" lon="6.04784">
        <ele>256</ele>
        <time>2016-3-26T14:8:58.000Z</time>
      </trkpt>
      <trkpt lat="47.2261" lon="6.04775">
        <ele>257</ele>
        <time>2016-3-26T14:8:58.000Z</time>
      </trkpt>
      <trkpt lat="47.2261" lon="6.04766">
        <ele>258</ele>
        <time>2016-3-26T14:8:58.000Z</time>
      </trkpt>
      <trkpt lat="47.2261" lon="6.04757">
        <ele>258</ele>
        <time>2016-3-26T14:8:58.000Z</time>
      </trkpt>
      <trkpt lat="47.2261" lon="6.04748">
        <ele>260</ele>
        <time>2016-3-26T14:8:58.000Z</time>
      </trkpt>
      <trkpt lat="47.2261" lon="6.04739">
        <ele>261</ele>
        <time>2016-3-26T14:8:58.000Z</time>
      </trkpt>
      <trkpt lat="47.2261" lon="6.0473">
        <ele>261</ele>
        <time>2016-3-26T14:8:58.000Z</time>
      </trkpt>
      <trkpt lat="47.22609" lon="6.04721">
        <ele>263</ele>
        <time>2016-3-26T14:8:58.000Z</time>
      </trkpt>
      <trkpt lat="47.22608" lon="6.04712">
        <ele>261</ele>
        <time>2016-3-26T14:8:58.000Z</time>
      </trkpt>
      <trkpt lat="47.22607" lon="6.04703">
        <ele>262</ele>
        <time>2016-3-26T14:8:58.000Z</time>
      </trkpt>
      <trkpt lat="47.22606" lon="6.04694">
        <ele>262</ele>
        <time>2016-3-26T14:8:58.000Z</time>
      </trkpt>
      <trkpt lat="47.22605" lon="6.04685">
        <ele>261</ele>
        <time>2016-3-26T14:8:58.000Z</time>
      </trkpt>
      <trkpt lat="47.22604" lon="6.04676">
        <ele>262</ele>
        <time>2016-3-26T14:8:58.000Z</time>
      </trkpt>
      <trkpt lat="47.22603" lon="6.04667">
        <ele>262</ele>
        <time>2016-3-26T14:8:58.000Z</time>
      </trkpt>
      <trkpt lat="47.22602" lon="6.04659">
        <ele>261</ele>
        <time>2016-3-26T14:8:58.000Z</time>
      </trkpt>
      <trkpt lat="47.22599" lon="6.0465">
        <ele>258</ele>
        <time>2016-3-26T14:8:58.000Z</time>
      </trkpt>
      <trkpt lat="47.22598" lon="6.0464">
        <ele>258</ele>
        <time>2016-3-26T14:8:58.000Z</time>
      </trkpt>
      <trkpt lat="47.22599" lon="6.04631">
        <ele>258</ele>
        <time>2016-3-26T14:8:58.000Z</time>
      </trkpt>
      <trkpt lat="47.22597" lon="6.04622">
        <ele>256</ele>
        <time>2016-3-26T14:8:58.000Z</time>
      </trkpt>
      <trkpt lat="47.22596" lon="6.04613">
        <ele>256</ele>
        <time>2016-3-26T14:8:58.000Z</time>
      </trkpt>
      <trkpt lat="47.22596" lon="6.04603">
        <ele>257</ele>
        <time>2016-3-26T14:8:58.000Z</time>
      </trkpt>
      <trkpt lat="47.22594" lon="6.04595">
        <ele>255</ele>
        <time>2016-3-26T14:8:58.000Z</time>
      </trkpt>
      <trkpt lat="47.22593" lon="6.04586">
        <ele>256</ele>
        <time>2016-3-26T14:8:58.000Z</time>
      </trkpt>
      <trkpt lat="47.22592" lon="6.04577">
        <ele>255</ele>
        <time>2016-3-26T14:8:58.000Z</time>
      </trkpt>
      <trkpt lat="47.22591" lon="6.04568">
        <ele>254</ele>
        <time>2016-3-26T14:8:58.000Z</time>
      </trkpt>
      <trkpt lat="47.22591" lon="6.0456">
        <ele>256</ele>
        <time>2016-3-26T14:8:58.000Z</time>
      </trkpt>
      <trkpt lat="47.2259" lon="6.04551">
        <ele>254</ele>
        <time>2016-3-26T14:8:58.000Z</time>
      </trkpt>
      <trkpt lat="47.2259" lon="6.04541">
        <ele>255</ele>
        <time>2016-3-26T14:8:58.000Z</time>
      </trkpt>
      <trkpt lat="47.2259" lon="6.04532">
        <ele>255</ele>
        <time>2016-3-26T14:8:58.000Z</time>
      </trkpt>
      <trkpt lat="47.2259" lon="6.04523">
        <ele>255</ele>
        <time>2016-3-26T14:8:58.000Z</time>
      </trkpt>
      <trkpt lat="47.2259" lon="6.04513">
        <ele>255</ele>
        <time>2016-3-26T14:8:58.000Z</time>
      </trkpt>
      <trkpt lat="47.22589" lon="6.04505">
        <ele>255</ele>
        <time>2016-3-26T14:8:58.000Z</time>
      </trkpt>
      <trkpt lat="47.22588" lon="6.04496">
        <ele>254</ele>
        <time>2016-3-26T14:8:58.000Z</time>
      </trkpt>
      <trkpt lat="47.22589" lon="6.04487">
        <ele>255</ele>
        <time>2016-3-26T14:8:58.000Z</time>
      </trkpt>
      <trkpt lat="47.22589" lon="6.04478">
        <ele>256</ele>
        <time>2016-3-26T14:8:58.000Z</time>
      </trkpt>
      <trkpt lat="47.2259" lon="6.04469">
        <ele>257</ele>
        <time>2016-3-26T14:8:58.000Z</time>
      </trkpt>
      <trkpt lat="47.22592" lon="6.0446">
        <ele>258</ele>
        <time>2016-3-26T14:8:58.000Z</time>
      </trkpt>
      <trkpt lat="47.22593" lon="6.04451">
        <ele>259</ele>
        <time>2016-3-26T14:8:58.000Z</time>
      </trkpt>
      <trkpt lat="47.22595" lon="6.04442">
        <ele>259</ele>
        <time>2016-3-26T14:8:58.000Z</time>
      </trkpt>
      <trkpt lat="47.22596" lon="6.04433">
        <ele>260</ele>
        <time>2016-3-26T14:15:44.000Z</time>
      </trkpt>
      <trkpt lat="47.22598" lon="6.04425">
        <ele>258</ele>
        <time>2016-3-26T14:15:44.000Z</time>
      </trkpt>
      <trkpt lat="47.22599" lon="6.04417">
        <ele>257</ele>
        <time>2016-3-26T14:15:44.000Z</time>
      </trkpt>
      <trkpt lat="47.226" lon="6.04409">
        <ele>256</ele>
        <time>2016-3-26T14:15:44.000Z</time>
      </trkpt>
      <trkpt lat="47.22602" lon="6.04401">
        <ele>255</ele>
        <time>2016-3-26T14:15:44.000Z</time>
      </trkpt>
      <trkpt lat="47.22604" lon="6.04393">
        <ele>256</ele>
        <time>2016-3-26T14:15:44.000Z</time>
      </trkpt>
      <trkpt lat="47.22606" lon="6.04385">
        <ele>256</ele>
        <time>2016-3-26T14:15:44.000Z</time>
      </trkpt>
      <trkpt lat="47.22607" lon="6.04376">
        <ele>255</ele>
        <time>2016-3-26T14:15:44.000Z</time>
      </trkpt>
      <trkpt lat="47.22607" lon="6.04368">
        <ele>254</ele>
        <time>2016-3-26T14:15:44.000Z</time>
      </trkpt>
      <trkpt lat="47.22609" lon="6.04359">
        <ele>253</ele>
        <time>2016-3-26T14:15:44.000Z</time>
      </trkpt>
      <trkpt lat="47.22611" lon="6.04351">
        <ele>251</ele>
        <time>2016-3-26T14:15:44.000Z</time>
      </trkpt>
      <trkpt lat="47.22611" lon="6.04343">
        <ele>251</ele>
        <time>2016-3-26T14:15:44.000Z</time>
      </trkpt>
      <trkpt lat="47.22613" lon="6.04335">
        <ele>251</ele>
        <time>2016-3-26T14:15:44.000Z</time>
      </trkpt>
      <trkpt lat="47.22614" lon="6.04327">
        <ele>250</ele>
        <time>2016-3-26T14:15:44.000Z</time>
      </trkpt>
      <trkpt lat="47.22614" lon="6.04318">
        <ele>249</ele>
        <time>2016-3-26T14:15:44.000Z</time>
      </trkpt>
      <trkpt lat="47.22616" lon="6.0431">
        <ele>248</ele>
        <time>2016-3-26T14:15:44.000Z</time>
      </trkpt>
      <trkpt lat="47.22617" lon="6.04301">
        <ele>247</ele>
        <time>2016-3-26T14:15:44.000Z</time>
      </trkpt>
      <trkpt lat="47.22619" lon="6.04293">
        <ele>247</ele>
        <time>2016-3-26T14:15:44.000Z</time>
      </trkpt>
      <trkpt lat="47.22621" lon="6.04284">
        <ele>248</ele>
        <time>2016-3-26T14:15:44.000Z</time>
      </trkpt>
      <trkpt lat="47.22624" lon="6.04276">
        <ele>250</ele>
        <time>2016-3-26T14:15:44.000Z</time>
      </trkpt>
      <trkpt lat="47.22627" lon="6.04268">
        <ele>250</ele>
        <time>2016-3-26T14:15:44.000Z</time>
      </trkpt>
      <trkpt lat="47.22629" lon="6.0426">
        <ele>251</ele>
        <time>2016-3-26T14:15:44.000Z</time>
      </trkpt>
      <trkpt lat="47.22632" lon="6.04253">
        <ele>251</ele>
        <time>2016-3-26T14:15:44.000Z</time>
      </trkpt>
      <trkpt lat="47.22635" lon="6.04244">
        <ele>252</ele>
        <time>2016-3-26T14:15:44.000Z</time>
      </trkpt>
      <trkpt lat="47.22638" lon="6.04236">
        <ele>252</ele>
        <time>2016-3-26T14:15:44.000Z</time>
      </trkpt>
      <trkpt lat="47.22641" lon="6.04228">
        <ele>253</ele>
        <time>2016-3-26T14:15:44.000Z</time>
      </trkpt>
      <trkpt lat="47.22643" lon="6.0422">
        <ele>250</ele>
        <time>2016-3-26T14:15:44.000Z</time>
      </trkpt>
      <trkpt lat="47.22645" lon="6.04211">
        <ele>248</ele>
        <time>2016-3-26T14:15:44.000Z</time>
      </trkpt>
      <trkpt lat="47.22647" lon="6.04203">
        <ele>249</ele>
        <time>2016-3-26T14:15:44.000Z</time>
      </trkpt>
      <trkpt lat="47.22649" lon="6.04194">
        <ele>249</ele>
        <time>2016-3-26T14:15:44.000Z</time>
      </trkpt>
      <trkpt lat="47.22652" lon="6.04186">
        <ele>250</ele>
        <time>2016-3-26T14:15:44.000Z</time>
      </trkpt>
      <trkpt lat="47.22653" lon="6.04178">
        <ele>251</ele>
        <time>2016-3-26T14:15:44.000Z</time>
      </trkpt>
      <trkpt lat="47.22656" lon="6.0417">
        <ele>252</ele>
        <time>2016-3-26T14:15:44.000Z</time>
      </trkpt>
      <trkpt lat="47.22659" lon="6.04162">
        <ele>252</ele>
        <time>2016-3-26T14:15:44.000Z</time>
      </trkpt>
      <trkpt lat="47.22661" lon="6.04153">
        <ele>251</ele>
        <time>2016-3-26T14:15:44.000Z</time>
      </trkpt>
      <trkpt lat="47.22663" lon="6.04146">
        <ele>250</ele>
        <time>2016-3-26T14:15:44.000Z</time>
      </trkpt>
      <trkpt lat="47.22665" lon="6.04138">
        <ele>249</ele>
        <time>2016-3-26T14:15:44.000Z</time>
      </trkpt>
      <trkpt lat="47.22668" lon="6.04131">
        <ele>248</ele>
        <time>2016-3-26T14:15:44.000Z</time>
      </trkpt>
      <trkpt lat="47.22671" lon="6.04123">
        <ele>248</ele>
        <time>2016-3-26T14:15:44.000Z</time>
      </trkpt>
      <trkpt lat="47.22673" lon="6.04115">
        <ele>247</ele>
        <time>2016-3-26T14:15:44.000Z</time>
      </trkpt>
      <trkpt lat="47.22676" lon="6.04107">
        <ele>247</ele>
        <time>2016-3-26T14:15:44.000Z</time>
      </trkpt>
      <trkpt lat="47.22678" lon="6.041">
        <ele>247</ele>
        <time>2016-3-26T14:15:44.000Z</time>
      </trkpt>
      <trkpt lat="47.22681" lon="6.04093">
        <ele>247</ele>
        <time>2016-3-26T14:15:44.000Z</time>
      </trkpt>
      <trkpt lat="47.22684" lon="6.04085">
        <ele>247</ele>
        <time>2016-3-26T14:15:44.000Z</time>
      </trkpt>
      <trkpt lat="47.22688" lon="6.04079">
        <ele>248</ele>
        <time>2016-3-26T14:15:44.000Z</time>
      </trkpt>
      <trkpt lat="47.22693" lon="6.04072">
        <ele>250</ele>
        <time>2016-3-26T14:15:44.000Z</time>
      </trkpt>
      <trkpt lat="47.22697" lon="6.04065">
        <ele>250</ele>
        <time>2016-3-26T14:15:44.000Z</time>
      </trkpt>
      <trkpt lat="47.227" lon="6.04058">
        <ele>250</ele>
        <time>2016-3-26T14:15:44.000Z</time>
      </trkpt>
      <trkpt lat="47.22704" lon="6.04051">
        <ele>250</ele>
        <time>2016-3-26T14:15:44.000Z</time>
      </trkpt>
      <trkpt lat="47.22707" lon="6.04044">
        <ele>249</ele>
        <time>2016-3-26T14:15:44.000Z</time>
      </trkpt>
      <trkpt lat="47.2271" lon="6.04037">
        <ele>247</ele>
        <time>2016-3-26T14:15:44.000Z</time>
      </trkpt>
      <trkpt lat="47.22714" lon="6.04031">
        <ele>246</ele>
        <time>2016-3-26T14:15:44.000Z</time>
      </trkpt>
      <trkpt lat="47.22717" lon="6.04023">
        <ele>246</ele>
        <time>2016-3-26T14:15:44.000Z</time>
      </trkpt>
      <trkpt lat="47.22719" lon="6.04015">
        <ele>245</ele>
        <time>2016-3-26T14:15:44.000Z</time>
      </trkpt>
      <trkpt lat="47.22721" lon="6.04008">
        <ele>245</ele>
        <time>2016-3-26T14:15:44.000Z</time>
      </trkpt>
      <trkpt lat="47.22725" lon="6.04002">
        <ele>245</ele>
        <time>2016-3-26T14:15:44.000Z</time>
      </trkpt>
      <trkpt lat="47.22727" lon="6.03995">
        <ele>246</ele>
        <time>2016-3-26T14:15:44.000Z</time>
      </trkpt>
      <trkpt lat="47.2273" lon="6.03987">
        <ele>243</ele>
        <time>2016-3-26T14:15:44.000Z</time>
      </trkpt>
      <trkpt lat="47.22733" lon="6.0398">
        <ele>244</ele>
        <time>2016-3-26T14:15:44.000Z</time>
      </trkpt>
      <trkpt lat="47.22737" lon="6.03973">
        <ele>244</ele>
        <time>2016-3-26T14:15:44.000Z</time>
      </trkpt>
      <trkpt lat="47.2274" lon="6.03967">
        <ele>242</ele>
        <time>2016-3-26T14:15:44.000Z</time>
      </trkpt>
      <trkpt lat="47.22744" lon="6.03959">
        <ele>243</ele>
        <time>2016-3-26T14:15:44.000Z</time>
      </trkpt>
      <trkpt lat="47.22749" lon="6.03953">
        <ele>242</ele>
        <time>2016-3-26T14:15:44.000Z</time>
      </trkpt>
      <trkpt lat="47.22753" lon="6.03947">
        <ele>241</ele>
        <time>2016-3-26T14:15:44.000Z</time>
      </trkpt>
      <trkpt lat="47.22757" lon="6.03941">
        <ele>242</ele>
        <time>2016-3-26T14:15:44.000Z</time>
      </trkpt>
      <trkpt lat="47.22761" lon="6.03934">
        <ele>241</ele>
        <time>2016-3-26T14:15:44.000Z</time>
      </trkpt>
      <trkpt lat="47.22765" lon="6.03928">
        <ele>238</ele>
        <time>2016-3-26T14:15:44.000Z</time>
      </trkpt>
      <trkpt lat="47.22769" lon="6.03923">
        <ele>237</ele>
        <time>2016-3-26T14:15:44.000Z</time>
      </trkpt>
      <trkpt lat="47.22774" lon="6.03918">
        <ele>236</ele>
        <time>2016-3-26T14:15:44.000Z</time>
      </trkpt>
      <trkpt lat="47.22779" lon="6.03914">
        <ele>236</ele>
        <time>2016-3-26T14:15:44.000Z</time>
      </trkpt>
      <trkpt lat="47.22783" lon="6.03908">
        <ele>235</ele>
        <time>2016-3-26T14:15:44.000Z</time>
      </trkpt>
      <trkpt lat="47.22788" lon="6.03903">
        <ele>234</ele>
        <time>2016-3-26T14:15:44.000Z</time>
      </trkpt>
      <trkpt lat="47.22793" lon="6.03899">
        <ele>234</ele>
        <time>2016-3-26T14:15:44.000Z</time>
      </trkpt>
      <trkpt lat="47.22798" lon="6.03896">
        <ele>234</ele>
        <time>2016-3-26T14:15:44.000Z</time>
      </trkpt>
      <trkpt lat="47.22802" lon="6.03891">
        <ele>232</ele>
        <time>2016-3-26T14:15:44.000Z</time>
      </trkpt>
      <trkpt lat="47.22807" lon="6.03887">
        <ele>232</ele>
        <time>2016-3-26T14:15:44.000Z</time>
      </trkpt>
      <trkpt lat="47.22812" lon="6.03883">
        <ele>231</ele>
        <time>2016-3-26T14:15:44.000Z</time>
      </trkpt>
      <trkpt lat="47.22817" lon="6.0388">
        <ele>230</ele>
        <time>2016-3-26T14:15:44.000Z</time>
      </trkpt>
      <trkpt lat="47.22822" lon="6.03876">
        <ele>230</ele>
        <time>2016-3-26T14:15:44.000Z</time>
      </trkpt>
      <trkpt lat="47.22828" lon="6.03872">
        <ele>229</ele>
        <time>2016-3-26T14:15:44.000Z</time>
      </trkpt>
      <trkpt lat="47.22834" lon="6.03871">
        <ele>229</ele>
        <time>2016-3-26T14:15:44.000Z</time>
      </trkpt>
      <trkpt lat="47.22839" lon="6.03868">
        <ele>229</ele>
        <time>2016-3-26T14:15:44.000Z</time>
      </trkpt>
      <trkpt lat="47.22844" lon="6.03866">
        <ele>229</ele>
        <time>2016-3-26T14:15:44.000Z</time>
      </trkpt>
      <trkpt lat="47.22849" lon="6.03865">
        <ele>228</ele>
        <time>2016-3-26T14:15:44.000Z</time>
      </trkpt>
      <trkpt lat="47.22855" lon="6.03863">
        <ele>227</ele>
        <time>2016-3-26T14:15:44.000Z</time>
      </trkpt>
      <trkpt lat="47.2286" lon="6.03862">
        <ele>228</ele>
        <time>2016-3-26T14:15:44.000Z</time>
      </trkpt>
      <trkpt lat="47.22866" lon="6.03859">
        <ele>228</ele>
        <time>2016-3-26T14:15:44.000Z</time>
      </trkpt>
      <trkpt lat="47.22871" lon="6.03856">
        <ele>228</ele>
        <time>2016-3-26T14:15:44.000Z</time>
      </trkpt>
      <trkpt lat="47.22876" lon="6.03851">
        <ele>229</ele>
        <time>2016-3-26T14:15:44.000Z</time>
      </trkpt>
      <trkpt lat="47.22881" lon="6.03845">
        <ele>229</ele>
        <time>2016-3-26T14:15:44.000Z</time>
      </trkpt>
      <trkpt lat="47.22886" lon="6.03841">
        <ele>231</ele>
        <time>2016-3-26T14:15:44.000Z</time>
      </trkpt>
      <trkpt lat="47.22891" lon="6.03837">
        <ele>232</ele>
        <time>2016-3-26T14:15:44.000Z</time>
      </trkpt>
      <trkpt lat="47.22896" lon="6.03834">
        <ele>232</ele>
        <time>2016-3-26T14:15:44.000Z</time>
      </trkpt>
      <trkpt lat="47.22901" lon="6.0383">
        <ele>234</ele>
        <time>2016-3-26T14:15:44.000Z</time>
      </trkpt>
      <trkpt lat="47.22906" lon="6.03827">
        <ele>234</ele>
        <time>2016-3-26T14:15:44.000Z</time>
      </trkpt>
      <trkpt lat="47.22911" lon="6.03823">
        <ele>234</ele>
        <time>2016-3-26T14:15:44.000Z</time>
      </trkpt>
      <trkpt lat="47.22917" lon="6.03819">
        <ele>235</ele>
        <time>2016-3-26T14:15:44.000Z</time>
      </trkpt>
      <trkpt lat="47.22922" lon="6.03814">
        <ele>236</ele>
        <time>2016-3-26T14:15:44.000Z</time>
      </trkpt>
      <trkpt lat="47.22928" lon="6.0381">
        <ele>237</ele>
        <time>2016-3-26T14:15:44.000Z</time>
      </trkpt>
      <trkpt lat="47.22933" lon="6.03805">
        <ele>237</ele>
        <time>2016-3-26T14:15:44.000Z</time>
      </trkpt>
      <trkpt lat="47.22938" lon="6.038">
        <ele>236</ele>
        <time>2016-3-26T14:15:44.000Z</time>
      </trkpt>
      <trkpt lat="47.22944" lon="6.03796">
        <ele>235</ele>
        <time>2016-3-26T14:20:57.000Z</time>
      </trkpt>
      <trkpt lat="47.22949" lon="6.0379">
        <ele>233</ele>
        <time>2016-3-26T14:20:57.000Z</time>
      </trkpt>
      <trkpt lat="47.22953" lon="6.03785">
        <ele>233</ele>
        <time>2016-3-26T14:20:57.000Z</time>
      </trkpt>
      <trkpt lat="47.22958" lon="6.03781">
        <ele>235</ele>
        <time>2016-3-26T14:20:57.000Z</time>
      </trkpt>
      <trkpt lat="47.22963" lon="6.03777">
        <ele>234</ele>
        <time>2016-3-26T14:20:57.000Z</time>
      </trkpt>
      <trkpt lat="47.22969" lon="6.03771">
        <ele>235</ele>
        <time>2016-3-26T14:20:57.000Z</time>
      </trkpt>
      <trkpt lat="47.22974" lon="6.03767">
        <ele>236</ele>
        <time>2016-3-26T14:20:57.000Z</time>
      </trkpt>
      <trkpt lat="47.2298" lon="6.03763">
        <ele>238</ele>
        <time>2016-3-26T14:20:57.000Z</time>
      </trkpt>
      <trkpt lat="47.22985" lon="6.0376">
        <ele>237</ele>
        <time>2016-3-26T14:20:57.000Z</time>
      </trkpt>
      <trkpt lat="47.2299" lon="6.03755">
        <ele>239</ele>
        <time>2016-3-26T14:20:57.000Z</time>
      </trkpt>
      <trkpt lat="47.22995" lon="6.0375">
        <ele>239</ele>
        <time>2016-3-26T14:20:57.000Z</time>
      </trkpt>
      <trkpt lat="47.23" lon="6.03746">
        <ele>239</ele>
        <time>2016-3-26T14:20:57.000Z</time>
      </trkpt>
      <trkpt lat="47.23006" lon="6.03742">
        <ele>240</ele>
        <time>2016-3-26T14:20:57.000Z</time>
      </trkpt>
      <trkpt lat="47.23011" lon="6.03738">
        <ele>240</ele>
        <time>2016-3-26T14:20:57.000Z</time>
      </trkpt>
      <trkpt lat="47.23015" lon="6.03734">
        <ele>239</ele>
        <time>2016-3-26T14:20:57.000Z</time>
      </trkpt>
      <trkpt lat="47.23019" lon="6.03728">
        <ele>239</ele>
        <time>2016-3-26T14:20:57.000Z</time>
      </trkpt>
      <trkpt lat="47.23024" lon="6.03725">
        <ele>240</ele>
        <time>2016-3-26T14:20:57.000Z</time>
      </trkpt>
      <trkpt lat="47.23028" lon="6.03721">
        <ele>239</ele>
        <time>2016-3-26T14:20:57.000Z</time>
      </trkpt>
      <trkpt lat="47.23033" lon="6.03717">
        <ele>239</ele>
        <time>2016-3-26T14:20:57.000Z</time>
      </trkpt>
      <trkpt lat="47.23039" lon="6.03713">
        <ele>239</ele>
        <time>2016-3-26T14:20:57.000Z</time>
      </trkpt>
      <trkpt lat="47.23044" lon="6.03709">
        <ele>241</ele>
        <time>2016-3-26T14:20:57.000Z</time>
      </trkpt>
      <trkpt lat="47.23049" lon="6.03707">
        <ele>240</ele>
        <time>2016-3-26T14:20:57.000Z</time>
      </trkpt>
      <trkpt lat="47.23054" lon="6.03703">
        <ele>238</ele>
        <time>2016-3-26T14:20:57.000Z</time>
      </trkpt>
      <trkpt lat="47.23059" lon="6.03698">
        <ele>239</ele>
        <time>2016-3-26T14:20:57.000Z</time>
      </trkpt>
      <trkpt lat="47.23064" lon="6.03694">
        <ele>239</ele>
        <time>2016-3-26T14:20:57.000Z</time>
      </trkpt>
      <trkpt lat="47.23069" lon="6.03692">
        <ele>239</ele>
        <time>2016-3-26T14:20:57.000Z</time>
      </trkpt>
      <trkpt lat="47.23075" lon="6.03689">
        <ele>241</ele>
        <time>2016-3-26T14:20:57.000Z</time>
      </trkpt>
      <trkpt lat="47.23081" lon="6.03684">
        <ele>240</ele>
        <time>2016-3-26T14:20:57.000Z</time>
      </trkpt>
      <trkpt lat="47.23086" lon="6.0368">
        <ele>241</ele>
        <time>2016-3-26T14:20:57.000Z</time>
      </trkpt>
      <trkpt lat="47.23092" lon="6.03676">
        <ele>242</ele>
        <time>2016-3-26T14:20:57.000Z</time>
      </trkpt>
      <trkpt lat="47.23097" lon="6.0367">
        <ele>241</ele>
        <time>2016-3-26T14:20:57.000Z</time>
      </trkpt>
      <trkpt lat="47.23102" lon="6.03665">
        <ele>239</ele>
        <time>2016-3-26T14:20:57.000Z</time>
      </trkpt>
      <trkpt lat="47.23107" lon="6.0366">
        <ele>240</ele>
        <time>2016-3-26T14:20:57.000Z</time>
      </trkpt>
      <trkpt lat="47.23112" lon="6.03655">
        <ele>241</ele>
        <time>2016-3-26T14:20:57.000Z</time>
      </trkpt>
      <trkpt lat="47.23117" lon="6.03648">
        <ele>244</ele>
        <time>2016-3-26T14:20:57.000Z</time>
      </trkpt>
      <trkpt lat="47.23121" lon="6.03641">
        <ele>245</ele>
        <time>2016-3-26T14:20:57.000Z</time>
      </trkpt>
      <trkpt lat="47.23125" lon="6.03634">
        <ele>246</ele>
        <time>2016-3-26T14:20:57.000Z</time>
      </trkpt>
      <trkpt lat="47.23129" lon="6.03626">
        <ele>248</ele>
        <time>2016-3-26T14:20:57.000Z</time>
      </trkpt>
      <trkpt lat="47.23133" lon="6.03619">
        <ele>248</ele>
        <time>2016-3-26T14:20:57.000Z</time>
      </trkpt>
      <trkpt lat="47.23136" lon="6.03612">
        <ele>249</ele>
        <time>2016-3-26T14:20:57.000Z</time>
      </trkpt>
      <trkpt lat="47.23136" lon="6.03605">
        <ele>249</ele>
        <time>2016-3-26T14:20:57.000Z</time>
      </trkpt>
      <trkpt lat="47.23138" lon="6.03597">
        <ele>251</ele>
        <time>2016-3-26T14:20:57.000Z</time>
      </trkpt>
      <trkpt lat="47.23141" lon="6.03591">
        <ele>249</ele>
        <time>2016-3-26T14:20:57.000Z</time>
      </trkpt>
      <trkpt lat="47.23145" lon="6.03585">
        <ele>249</ele>
        <time>2016-3-26T14:20:57.000Z</time>
      </trkpt>
      <trkpt lat="47.2315" lon="6.03582">
        <ele>249</ele>
        <time>2016-3-26T14:20:57.000Z</time>
      </trkpt>
      <trkpt lat="47.23155" lon="6.03579">
        <ele>248</ele>
        <time>2016-3-26T14:20:57.000Z</time>
      </trkpt>
      <trkpt lat="47.2316" lon="6.03577">
        <ele>245</ele>
        <time>2016-3-26T14:20:57.000Z</time>
      </trkpt>
      <trkpt lat="47.23165" lon="6.0358">
        <ele>244</ele>
        <time>2016-3-26T14:20:57.000Z</time>
      </trkpt>
      <trkpt lat="47.2317" lon="6.03585">
        <ele>241</ele>
        <time>2016-3-26T14:20:57.000Z</time>
      </trkpt>
      <trkpt lat="47.23174" lon="6.03587">
        <ele>240</ele>
        <time>2016-3-26T14:20:57.000Z</time>
      </trkpt>
      <trkpt lat="47.2318" lon="6.03588">
        <ele>239</ele>
        <time>2016-3-26T14:20:57.000Z</time>
      </trkpt>
      <trkpt lat="47.23186" lon="6.03591">
        <ele>238</ele>
        <time>2016-3-26T14:20:57.000Z</time>
      </trkpt>
      <trkpt lat="47.23192" lon="6.03593">
        <ele>238</ele>
        <time>2016-3-26T14:20:57.000Z</time>
      </trkpt>
      <trkpt lat="47.23198" lon="6.03594">
        <ele>238</ele>
        <time>2016-3-26T14:20:57.000Z</time>
      </trkpt>
      <trkpt lat="47.23203" lon="6.03595">
        <ele>237</ele>
        <time>2016-3-26T14:20:57.000Z</time>
      </trkpt>
      <trkpt lat="47.2321" lon="6.03595">
        <ele>237</ele>
        <time>2016-3-26T14:20:57.000Z</time>
      </trkpt>
      <trkpt lat="47.23216" lon="6.03597">
        <ele>235</ele>
        <time>2016-3-26T14:20:57.000Z</time>
      </trkpt>
      <trkpt lat="47.23222" lon="6.03595">
        <ele>234</ele>
        <time>2016-3-26T14:20:57.000Z</time>
      </trkpt>
      <trkpt lat="47.23228" lon="6.03595">
        <ele>234</ele>
        <time>2016-3-26T14:20:57.000Z</time>
      </trkpt>
      <trkpt lat="47.23234" lon="6.03595">
        <ele>235</ele>
        <time>2016-3-26T14:20:57.000Z</time>
      </trkpt>
      <trkpt lat="47.2324" lon="6.03594">
        <ele>236</ele>
        <time>2016-3-26T14:20:57.000Z</time>
      </trkpt>
      <trkpt lat="47.23245" lon="6.03592">
        <ele>236</ele>
        <time>2016-3-26T14:20:57.000Z</time>
      </trkpt>
      <trkpt lat="47.23251" lon="6.0359">
        <ele>236</ele>
        <time>2016-3-26T14:20:57.000Z</time>
      </trkpt>
      <trkpt lat="47.23256" lon="6.03586">
        <ele>235</ele>
        <time>2016-3-26T14:20:57.000Z</time>
      </trkpt>
      <trkpt lat="47.23262" lon="6.03582">
        <ele>235</ele>
        <time>2016-3-26T14:20:57.000Z</time>
      </trkpt>
      <trkpt lat="47.23267" lon="6.03577">
        <ele>235</ele>
        <time>2016-3-26T14:20:57.000Z</time>
      </trkpt>
      <trkpt lat="47.23272" lon="6.03575">
        <ele>236</ele>
        <time>2016-3-26T14:20:57.000Z</time>
      </trkpt>
      <trkpt lat="47.23279" lon="6.03573">
        <ele>237</ele>
        <time>2016-3-26T14:20:57.000Z</time>
      </trkpt>
      <trkpt lat="47.23285" lon="6.03571">
        <ele>238</ele>
        <time>2016-3-26T14:20:57.000Z</time>
      </trkpt>
      <trkpt lat="47.2329" lon="6.0357">
        <ele>235</ele>
        <time>2016-3-26T14:20:57.000Z</time>
      </trkpt>
      <trkpt lat="47.23296" lon="6.03569">
        <ele>237</ele>
        <time>2016-3-26T14:20:57.000Z</time>
      </trkpt>
      <trkpt lat="47.23301" lon="6.03568">
        <ele>238</ele>
        <time>2016-3-26T14:20:57.000Z</time>
      </trkpt>
      <trkpt lat="47.23307" lon="6.03564">
        <ele>238</ele>
        <time>2016-3-26T14:20:57.000Z</time>
      </trkpt>
      <trkpt lat="47.23312" lon="6.03562">
        <ele>239</ele>
        <time>2016-3-26T14:20:57.000Z</time>
      </trkpt>
      <trkpt lat="47.23318" lon="6.0356">
        <ele>242</ele>
        <time>2016-3-26T14:20:57.000Z</time>
      </trkpt>
      <trkpt lat="47.23324" lon="6.03556">
        <ele>242</ele>
        <time>2016-3-26T14:20:57.000Z</time>
      </trkpt>
      <trkpt lat="47.2333" lon="6.03552">
        <ele>243</ele>
        <time>2016-3-26T14:20:57.000Z</time>
      </trkpt>
      <trkpt lat="47.23433" lon="6.0355">
        <ele>260</ele>
        <time>2016-3-26T14:23:24.000Z</time>
      </trkpt>
      <trkpt lat="47.23429" lon="6.03556">
        <ele>249</ele>
        <time>2016-3-26T14:23:24.000Z</time>
      </trkpt>
      <trkpt lat="47.23426" lon="6.03562">
        <ele>248</ele>
        <time>2016-3-26T14:23:24.000Z</time>
      </trkpt>
      <trkpt lat="47.23422" lon="6.03569">
        <ele>245</ele>
        <time>2016-3-26T14:23:24.000Z</time>
      </trkpt>
      <trkpt lat="47.23417" lon="6.03576">
        <ele>241</ele>
        <time>2016-3-26T14:23:24.000Z</time>
      </trkpt>
      <trkpt lat="47.23413" lon="6.03582">
        <ele>240</ele>
        <time>2016-3-26T14:23:39.000Z</time>
      </trkpt>
      <trkpt lat="47.23413" lon="6.03582">
        <ele>240</ele>
        <time>2016-3-26T14:23:39.000Z</time>
      </trkpt>
      <trkpt lat="47.23411" lon="6.03589">
        <ele>240</ele>
        <time>2016-3-26T14:23:39.000Z</time>
      </trkpt>
      <trkpt lat="47.23411" lon="6.03589">
        <ele>240</ele>
        <time>2016-3-26T14:23:39.000Z</time>
      </trkpt>
      <trkpt lat="47.23408" lon="6.03596">
        <ele>237</ele>
        <time>2016-3-26T14:23:39.000Z</time>
      </trkpt>
      <trkpt lat="47.23408" lon="6.03596">
        <ele>237</ele>
        <time>2016-3-26T14:23:39.000Z</time>
      </trkpt>
      <trkpt lat="47.23404" lon="6.03602">
        <ele>237</ele>
        <time>2016-3-26T14:23:39.000Z</time>
      </trkpt>
      <trkpt lat="47.23404" lon="6.03602">
        <ele>237</ele>
        <time>2016-3-26T14:23:39.000Z</time>
      </trkpt>
      <trkpt lat="47.23401" lon="6.03609">
        <ele>233</ele>
        <time>2016-3-26T14:24:39.000Z</time>
      </trkpt>
      <trkpt lat="47.23401" lon="6.03609">
        <ele>233</ele>
        <time>2016-3-26T14:24:39.000Z</time>
      </trkpt>
      <trkpt lat="47.23398" lon="6.03617">
        <ele>234</ele>
        <time>2016-3-26T14:24:39.000Z</time>
      </trkpt>
      <trkpt lat="47.23398" lon="6.03617">
        <ele>234</ele>
        <time>2016-3-26T14:24:39.000Z</time>
      </trkpt>
      <trkpt lat="47.23396" lon="6.03624">
        <ele>235</ele>
        <time>2016-3-26T14:24:39.000Z</time>
      </trkpt>
      <trkpt lat="47.23396" lon="6.03624">
        <ele>235</ele>
        <time>2016-3-26T14:24:39.000Z</time>
      </trkpt>
      <trkpt lat="47.23394" lon="6.03632">
        <ele>236</ele>
        <time>2016-3-26T14:24:39.000Z</time>
      </trkpt>
      <trkpt lat="47.23394" lon="6.03632">
        <ele>236</ele>
        <time>2016-3-26T14:24:39.000Z</time>
      </trkpt>
      <trkpt lat="47.2339" lon="6.03639">
        <ele>238</ele>
        <time>2016-3-26T14:24:39.000Z</time>
      </trkpt>
      <trkpt lat="47.2339" lon="6.03639">
        <ele>238</ele>
        <time>2016-3-26T14:24:39.000Z</time>
      </trkpt>
      <trkpt lat="47.23387" lon="6.03645">
        <ele>239</ele>
        <time>2016-3-26T14:24:39.000Z</time>
      </trkpt>
      <trkpt lat="47.23387" lon="6.03645">
        <ele>239</ele>
        <time>2016-3-26T14:24:39.000Z</time>
      </trkpt>
      <trkpt lat="47.23384" lon="6.03652">
        <ele>239</ele>
        <time>2016-3-26T14:24:39.000Z</time>
      </trkpt>
      <trkpt lat="47.23384" lon="6.03652">
        <ele>239</ele>
        <time>2016-3-26T14:24:39.000Z</time>
      </trkpt>
      <trkpt lat="47.2338" lon="6.03658">
        <ele>238</ele>
        <time>2016-3-26T14:24:39.000Z</time>
      </trkpt>
      <trkpt lat="47.2338" lon="6.03658">
        <ele>238</ele>
        <time>2016-3-26T14:24:39.000Z</time>
      </trkpt>
      <trkpt lat="47.23377" lon="6.03665">
        <ele>240</ele>
        <time>2016-3-26T14:24:39.000Z</time>
      </trkpt>
      <trkpt lat="47.23377" lon="6.03665">
        <ele>240</ele>
        <time>2016-3-26T14:24:39.000Z</time>
      </trkpt>
      <trkpt lat="47.23382" lon="6.03669">
        <ele>241</ele>
        <time>2016-3-26T14:24:39.000Z</time>
      </trkpt>
      <trkpt lat="47.23382" lon="6.03669">
        <ele>241</ele>
        <time>2016-3-26T14:24:39.000Z</time>
      </trkpt>
      <trkpt lat="47.23388" lon="6.03668">
        <ele>240</ele>
        <time>2016-3-26T14:24:39.000Z</time>
      </trkpt>
      <trkpt lat="47.23388" lon="6.03668">
        <ele>240</ele>
        <time>2016-3-26T14:24:39.000Z</time>
      </trkpt>
      <trkpt lat="47.23393" lon="6.03667">
        <ele>241</ele>
        <time>2016-3-26T14:24:39.000Z</time>
      </trkpt>
      <trkpt lat="47.23393" lon="6.03667">
        <ele>241</ele>
        <time>2016-3-26T14:24:39.000Z</time>
      </trkpt>
      <trkpt lat="47.23399" lon="6.03665">
        <ele>241</ele>
        <time>2016-3-26T14:24:39.000Z</time>
      </trkpt>
      <trkpt lat="47.23399" lon="6.03665">
        <ele>241</ele>
        <time>2016-3-26T14:24:39.000Z</time>
      </trkpt>
      <trkpt lat="47.23404" lon="6.03662">
        <ele>244</ele>
        <time>2016-3-26T14:24:39.000Z</time>
      </trkpt>
      <trkpt lat="47.23404" lon="6.03662">
        <ele>244</ele>
        <time>2016-3-26T14:24:39.000Z</time>
      </trkpt>
    </trkseg>
  </trk>
</gpx>